<?xml version='1.0' encoding='UTF-8'?><gpx version="1.1" creator="JPX - https://github.com/jenetics/jpx" xmlns="http://www.topografix.com/GPX/1/1"><trk><trkseg><trkpt lat="42.19287" lon="14.2196667"><ele>587.8</ele><time>2026-04-26T11:16:57.868Z</time></trkpt></trkseg><trkseg><trkpt lat="42.2424667" lon="14.1362467"><ele>429.0</ele><time>2026-04-26T12:52:22.424Z</time></trkpt><trkpt lat="42.2425" lon="14.1361533"><ele>429.0</ele><time>2026-04-26T12:52:24.411Z</time></trkpt><trkpt lat="42.2425267" lon="14.1360633"><ele>429.0</ele><time>2026-04-26T12:52:25.424Z</time></trkpt><trkpt lat="42.242555" lon="14.1359667"><ele>429.0</ele><time>2026-04-26T12:52:26.473Z</time></trkpt><trkpt lat="42.2425867" lon="14.135875"><ele>429.0</ele><time>2026-04-26T12:52:27.419Z</time></trkpt><trkpt lat="42.2426217" lon="14.13579"><ele>429.0</ele><time>2026-04-26T12:52:28.425Z</time></trkpt><trkpt lat="42.2426533" lon="14.1357067"><ele>429.0</ele><time>2026-04-26T12:52:29.415Z</time></trkpt><trkpt lat="42.2426883" lon="14.1356267"><ele>429.0</ele><time>2026-04-26T12:52:30.412Z</time></trkpt><trkpt lat="42.24273" lon="14.13555"><ele>429.0</ele><time>2026-04-26T12:52:31.416Z</time></trkpt><trkpt lat="42.24277" lon="14.1354667"><ele>429.0</ele><time>2026-04-26T12:52:32.466Z</time></trkpt><trkpt lat="42.2428083" lon="14.1353933"><ele>429.0</ele><time>2026-04-26T12:52:33.414Z</time></trkpt><trkpt lat="42.2428933" lon="14.13529"><ele>429.0</ele><time>2026-04-26T12:52:35.41Z</time></trkpt><trkpt lat="42.2429933" lon="14.1352417"><ele>429.0</ele><time>2026-04-26T12:52:37.412Z</time></trkpt><trkpt lat="42.24307" lon="14.1352583"><ele>429.0</ele><time>2026-04-26T12:52:39.416Z</time></trkpt><trkpt lat="42.2431183" lon="14.1353317"><ele>429.0</ele><time>2026-04-26T12:52:41.419Z</time></trkpt><trkpt lat="42.2431383" lon="14.1354483"><ele>429.0</ele><time>2026-04-26T12:52:43.415Z</time></trkpt><trkpt lat="42.2431517" lon="14.1355767"><ele>429.0</ele><time>2026-04-26T12:52:45.421Z</time></trkpt><trkpt lat="42.2431583" lon="14.135685"><ele>429.0</ele><time>2026-04-26T12:52:47.421Z</time></trkpt><trkpt lat="42.2431783" lon="14.1357967"><ele>429.0</ele><time>2026-04-26T12:52:49.412Z</time></trkpt><trkpt lat="42.2432" lon="14.1359117"><ele>429.0</ele><time>2026-04-26T12:53:02.466Z</time></trkpt><trkpt lat="42.243165" lon="14.1357767"><ele>429.0</ele><time>2026-04-26T12:53:19.415Z</time></trkpt><trkpt lat="42.243125" lon="14.1356833"><ele>429.0</ele><time>2026-04-26T12:53:20.462Z</time></trkpt><trkpt lat="42.2430867" lon="14.1355817"><ele>429.0</ele><time>2026-04-26T12:53:21.408Z</time></trkpt><trkpt lat="42.2430533" lon="14.1354833"><ele>429.0</ele><time>2026-04-26T12:53:22.417Z</time></trkpt><trkpt lat="42.2430233" lon="14.1354"><ele>429.0</ele><time>2026-04-26T12:53:23.412Z</time></trkpt><trkpt lat="42.242985" lon="14.1352933"><ele>429.0</ele><time>2026-04-26T12:53:25.421Z</time></trkpt><trkpt lat="42.2429517" lon="14.13521"><ele>429.0</ele><time>2026-04-26T12:53:28.42Z</time></trkpt><trkpt lat="42.243005" lon="14.1350983"><ele>429.0</ele><time>2026-04-26T12:53:38.463Z</time></trkpt><trkpt lat="42.2431033" lon="14.1350333"><ele>429.0</ele><time>2026-04-26T12:53:40.42Z</time></trkpt><trkpt lat="42.2431767" lon="14.13501"><ele>429.0</ele><time>2026-04-26T12:53:42.417Z</time></trkpt><trkpt lat="42.2432667" lon="14.1350117"><ele>429.0</ele><time>2026-04-26T12:53:44.464Z</time></trkpt><trkpt lat="42.243355" lon="14.1349817"><ele>427.0</ele><time>2026-04-26T12:53:46.421Z</time></trkpt><trkpt lat="42.2434467" lon="14.1349217"><ele>425.0</ele><time>2026-04-26T12:53:48.416Z</time></trkpt><trkpt lat="42.2435667" lon="14.134835"><ele>423.0</ele><time>2026-04-26T12:53:50.476Z</time></trkpt><trkpt lat="42.243645" lon="14.1347317"><ele>421.0</ele><time>2026-04-26T12:53:52.423Z</time></trkpt><trkpt lat="42.2436883" lon="14.1346517"><ele>419.0</ele><time>2026-04-26T12:53:54.423Z</time></trkpt><trkpt lat="42.2437417" lon="14.1345883"><ele>418.99999999999994</ele><time>2026-04-26T12:53:56.475Z</time></trkpt><trkpt lat="42.2437917" lon="14.1345183"><ele>419.0</ele><time>2026-04-26T12:53:58.422Z</time></trkpt><trkpt lat="42.2438417" lon="14.1344517"><ele>419.0</ele><time>2026-04-26T12:54:00.42Z</time></trkpt><trkpt lat="42.2438933" lon="14.1343933"><ele>419.0</ele><time>2026-04-26T12:54:02.47Z</time></trkpt><trkpt lat="42.2439517" lon="14.1343083"><ele>418.99999999999994</ele><time>2026-04-26T12:54:04.423Z</time></trkpt><trkpt lat="42.2439817" lon="14.1341867"><ele>419.0</ele><time>2026-04-26T12:54:06.421Z</time></trkpt><trkpt lat="42.2439883" lon="14.1340467"><ele>418.49999999999994</ele><time>2026-04-26T12:54:08.463Z</time></trkpt><trkpt lat="42.243995" lon="14.1339217"><ele>418.0</ele><time>2026-04-26T12:54:10.417Z</time></trkpt><trkpt lat="42.2440017" lon="14.1338167"><ele>417.5</ele><time>2026-04-26T12:54:13.418Z</time></trkpt><trkpt lat="42.2439833" lon="14.1336683"><ele>417.0</ele><time>2026-04-26T12:54:22.424Z</time></trkpt><trkpt lat="42.24398" lon="14.13358"><ele>416.49999999999994</ele><time>2026-04-26T12:54:24.425Z</time></trkpt><trkpt lat="42.243995" lon="14.1334617"><ele>416.0</ele><time>2026-04-26T12:54:26.482Z</time></trkpt><trkpt lat="42.2440117" lon="14.1333467"><ele>418.8</ele><time>2026-04-26T12:54:28.413Z</time></trkpt><trkpt lat="42.2440267" lon="14.1332167"><ele>421.6</ele><time>2026-04-26T12:54:30.417Z</time></trkpt><trkpt lat="42.2440483" lon="14.13308"><ele>424.4</ele><time>2026-04-26T12:54:32.481Z</time></trkpt><trkpt lat="42.24408" lon="14.13298"><ele>427.2</ele><time>2026-04-26T12:54:34.422Z</time></trkpt><trkpt lat="42.2441067" lon="14.13287"><ele>430.0</ele><time>2026-04-26T12:55:36.414Z</time></trkpt><trkpt lat="42.2441417" lon="14.1327667"><ele>430.0</ele><time>2026-04-26T12:55:38.463Z</time></trkpt><trkpt lat="42.2441967" lon="14.132635"><ele>430.0</ele><time>2026-04-26T12:55:40.418Z</time></trkpt><trkpt lat="42.24429" lon="14.1326033"><ele>430.0</ele><time>2026-04-26T12:55:43.414Z</time></trkpt><trkpt lat="42.24439" lon="14.1326317"><ele>430.0</ele><time>2026-04-26T12:55:45.416Z</time></trkpt><trkpt lat="42.24447" lon="14.1325817"><ele>430.0</ele><time>2026-04-26T12:55:47.41Z</time></trkpt><trkpt lat="42.2445683" lon="14.1325367"><ele>430.00000000000006</ele><time>2026-04-26T12:55:49.42Z</time></trkpt><trkpt lat="42.2446367" lon="14.132545"><ele>430.0</ele><time>2026-04-26T12:55:50.467Z</time></trkpt><trkpt lat="42.244705" lon="14.1325517"><ele>430.0</ele><time>2026-04-26T12:55:51.42Z</time></trkpt><trkpt lat="42.244775" lon="14.1325617"><ele>430.0</ele><time>2026-04-26T12:55:52.42Z</time></trkpt><trkpt lat="42.2448467" lon="14.1325783"><ele>430.00000000000006</ele><time>2026-04-26T12:55:53.42Z</time></trkpt><trkpt lat="42.24491" lon="14.13259"><ele>430.0</ele><time>2026-04-26T12:55:54.408Z</time></trkpt><trkpt lat="42.2450267" lon="14.1326"><ele>428.2</ele><time>2026-04-26T12:55:56.464Z</time></trkpt><trkpt lat="42.245115" lon="14.132565"><ele>426.4</ele><time>2026-04-26T12:55:58.421Z</time></trkpt><trkpt lat="42.2452167" lon="14.1325183"><ele>424.6</ele><time>2026-04-26T12:56:00.425Z</time></trkpt><trkpt lat="42.2452967" lon="14.1325567"><ele>422.8</ele><time>2026-04-26T12:56:02.468Z</time></trkpt><trkpt lat="42.245365" lon="14.13266"><ele>421.0</ele><time>2026-04-26T12:56:04.418Z</time></trkpt><trkpt lat="42.2454167" lon="14.13278"><ele>421.0</ele><time>2026-04-26T12:56:06.418Z</time></trkpt><trkpt lat="42.2454733" lon="14.13291"><ele>421.0</ele><time>2026-04-26T12:56:08.467Z</time></trkpt><trkpt lat="42.245555" lon="14.1329883"><ele>421.0</ele><time>2026-04-26T12:56:10.42Z</time></trkpt><trkpt lat="42.24564" lon="14.1330083"><ele>421.0</ele><time>2026-04-26T12:56:13.418Z</time></trkpt><trkpt lat="42.2457528" lon="14.133007"><ele>421.0</ele><time>2026-04-26T12:56:55.421Z</time></trkpt><trkpt lat="42.2459295" lon="14.1330314"><ele>418.0</ele><time>2026-04-26T12:56:58.414Z</time></trkpt><trkpt lat="42.2460466" lon="14.1330559"><ele>415.0</ele><time>2026-04-26T12:56:59.418Z</time></trkpt><trkpt lat="42.2461419" lon="14.1330679"><ele>412.0</ele><time>2026-04-26T12:57:00.42Z</time></trkpt><trkpt lat="42.2462178" lon="14.1330668"><ele>409.0</ele><time>2026-04-26T12:57:01.414Z</time></trkpt><trkpt lat="42.2462832" lon="14.1330585"><ele>406.0</ele><time>2026-04-26T12:57:02.466Z</time></trkpt><trkpt lat="42.246408" lon="14.1330184"><ele>404.20000000000005</ele><time>2026-04-26T12:57:04.417Z</time></trkpt><trkpt lat="42.2464747" lon="14.1329705"><ele>402.40000000000003</ele><time>2026-04-26T12:57:05.421Z</time></trkpt><trkpt lat="42.246531" lon="14.1328728"><ele>400.6</ele><time>2026-04-26T12:57:06.424Z</time></trkpt><trkpt lat="42.2465833" lon="14.1327424"><ele>398.8</ele><time>2026-04-26T12:57:07.408Z</time></trkpt><trkpt lat="42.246631" lon="14.1326011"><ele>397.0</ele><time>2026-04-26T12:57:08.463Z</time></trkpt><trkpt lat="42.2466706" lon="14.132485"><ele>397.0</ele><time>2026-04-26T12:57:09.419Z</time></trkpt><trkpt lat="42.2467118" lon="14.1323888"><ele>397.0</ele><time>2026-04-26T12:57:10.418Z</time></trkpt><trkpt lat="42.2467655" lon="14.1323237"><ele>397.0</ele><time>2026-04-26T12:57:11.407Z</time></trkpt><trkpt lat="42.2468246" lon="14.1322921"><ele>397.0</ele><time>2026-04-26T12:57:12.418Z</time></trkpt><trkpt lat="42.2468839" lon="14.1323263"><ele>397.0</ele><time>2026-04-26T12:57:13.415Z</time></trkpt><trkpt lat="42.2469292" lon="14.1324018"><ele>397.0</ele><time>2026-04-26T12:57:14.465Z</time></trkpt><trkpt lat="42.2469583" lon="14.1324963"><ele>397.0</ele><time>2026-04-26T12:57:15.414Z</time></trkpt><trkpt lat="42.2469641" lon="14.1326168"><ele>397.0</ele><time>2026-04-26T12:57:16.415Z</time></trkpt><trkpt lat="42.2469538" lon="14.1327693"><ele>397.0</ele><time>2026-04-26T12:57:17.418Z</time></trkpt><trkpt lat="42.2469348" lon="14.1329206"><ele>397.0</ele><time>2026-04-26T12:57:18.414Z</time></trkpt><trkpt lat="42.2469172" lon="14.1330553"><ele>397.0</ele><time>2026-04-26T12:57:19.416Z</time></trkpt><trkpt lat="42.2469135" lon="14.133157"><ele>397.0</ele><time>2026-04-26T12:57:20.461Z</time></trkpt><trkpt lat="42.2469803" lon="14.1332325"><ele>395.40000000000003</ele><time>2026-04-26T12:57:22.407Z</time></trkpt><trkpt lat="42.2471198" lon="14.1332555"><ele>393.8</ele><time>2026-04-26T12:57:24.418Z</time></trkpt><trkpt lat="42.2472068" lon="14.133277"><ele>392.2</ele><time>2026-04-26T12:57:25.408Z</time></trkpt><trkpt lat="42.2472948" lon="14.1333101"><ele>390.6</ele><time>2026-04-26T12:57:26.473Z</time></trkpt><trkpt lat="42.2473801" lon="14.1333519"><ele>389.0</ele><time>2026-04-26T12:57:27.405Z</time></trkpt><trkpt lat="42.2474648" lon="14.1333999"><ele>387.8333333333333</ele><time>2026-04-26T12:57:28.413Z</time></trkpt><trkpt lat="42.2475428" lon="14.1334484"><ele>386.66666666666663</ele><time>2026-04-26T12:57:29.415Z</time></trkpt><trkpt lat="42.2476179" lon="14.1334955"><ele>385.5</ele><time>2026-04-26T12:57:30.413Z</time></trkpt><trkpt lat="42.24769" lon="14.1335434"><ele>384.3333333333333</ele><time>2026-04-26T12:57:31.41Z</time></trkpt><trkpt lat="42.2477574" lon="14.1335935"><ele>383.16666666666663</ele><time>2026-04-26T12:57:32.459Z</time></trkpt><trkpt lat="42.2478218" lon="14.1336441"><ele>382.0</ele><time>2026-04-26T12:57:33.409Z</time></trkpt><trkpt lat="42.247894" lon="14.1336902"><ele>382.0</ele><time>2026-04-26T12:57:34.413Z</time></trkpt><trkpt lat="42.2479676" lon="14.133735"><ele>382.0</ele><time>2026-04-26T12:57:35.416Z</time></trkpt><trkpt lat="42.2480382" lon="14.133785"><ele>382.0</ele><time>2026-04-26T12:57:36.409Z</time></trkpt><trkpt lat="42.2481094" lon="14.1338423"><ele>382.0</ele><time>2026-04-26T12:57:37.406Z</time></trkpt><trkpt lat="42.248181" lon="14.1339072"><ele>382.0</ele><time>2026-04-26T12:57:38.461Z</time></trkpt><trkpt lat="42.2482562" lon="14.1339671"><ele>382.0</ele><time>2026-04-26T12:57:39.409Z</time></trkpt><trkpt lat="42.2483361" lon="14.1340222"><ele>380.0</ele><time>2026-04-26T12:57:40.417Z</time></trkpt><trkpt lat="42.2484203" lon="14.1340627"><ele>378.0</ele><time>2026-04-26T12:57:41.418Z</time></trkpt><trkpt lat="42.2485013" lon="14.1340946"><ele>376.0</ele><time>2026-04-26T12:57:42.419Z</time></trkpt><trkpt lat="42.2485709" lon="14.1341387"><ele>374.0</ele><time>2026-04-26T12:57:43.419Z</time></trkpt><trkpt lat="42.2486299" lon="14.1342113"><ele>372.0</ele><time>2026-04-26T12:57:44.462Z</time></trkpt><trkpt lat="42.2486829" lon="14.1343083"><ele>370.0</ele><time>2026-04-26T12:57:45.414Z</time></trkpt><trkpt lat="42.2487471" lon="14.1344358"><ele>370.0</ele><time>2026-04-26T12:57:46.405Z</time></trkpt><trkpt lat="42.2488126" lon="14.1345881"><ele>370.0</ele><time>2026-04-26T12:57:47.419Z</time></trkpt><trkpt lat="42.2488733" lon="14.1347506"><ele>370.0</ele><time>2026-04-26T12:57:48.407Z</time></trkpt><trkpt lat="42.2489203" lon="14.1349015"><ele>370.0</ele><time>2026-04-26T12:57:49.416Z</time></trkpt><trkpt lat="42.2489491" lon="14.1350393"><ele>365.25</ele><time>2026-04-26T12:57:50.457Z</time></trkpt><trkpt lat="42.2489648" lon="14.1351738"><ele>360.5</ele><time>2026-04-26T12:57:51.414Z</time></trkpt><trkpt lat="42.2489731" lon="14.1353331"><ele>355.75</ele><time>2026-04-26T12:57:52.417Z</time></trkpt><trkpt lat="42.248975" lon="14.1355291"><ele>351.0</ele><time>2026-04-26T12:57:53.415Z</time></trkpt><trkpt lat="42.2489758" lon="14.1357311"><ele>351.0</ele><time>2026-04-26T12:57:54.418Z</time></trkpt><trkpt lat="42.2489833" lon="14.1359156"><ele>351.0</ele><time>2026-04-26T12:57:55.418Z</time></trkpt><trkpt lat="42.249001" lon="14.1360781"><ele>351.0</ele><time>2026-04-26T12:57:56.462Z</time></trkpt><trkpt lat="42.2490329" lon="14.1362078"><ele>351.0</ele><time>2026-04-26T12:57:57.423Z</time></trkpt><trkpt lat="42.2490806" lon="14.1363131"><ele>351.0</ele><time>2026-04-26T12:57:58.409Z</time></trkpt><trkpt lat="42.2491402" lon="14.1363904"><ele>351.0</ele><time>2026-04-26T12:57:59.408Z</time></trkpt><trkpt lat="42.2492011" lon="14.1364383"><ele>351.0</ele><time>2026-04-26T12:58:00.417Z</time></trkpt><trkpt lat="42.2493016" lon="14.1365041"><ele>351.0</ele><time>2026-04-26T12:58:02.468Z</time></trkpt><trkpt lat="42.2493788" lon="14.1365791"><ele>351.0</ele><time>2026-04-26T12:58:04.417Z</time></trkpt><trkpt lat="42.2494626" lon="14.1366716"><ele>348.8</ele><time>2026-04-26T12:58:06.415Z</time></trkpt><trkpt lat="42.2495699" lon="14.1367655"><ele>346.6</ele><time>2026-04-26T12:58:08.469Z</time></trkpt><trkpt lat="42.2496354" lon="14.1368152"><ele>344.4</ele><time>2026-04-26T12:58:09.41Z</time></trkpt><trkpt lat="42.2497267" lon="14.13687"><ele>342.2</ele><time>2026-04-26T12:58:10.41Z</time></trkpt><trkpt lat="42.2498267" lon="14.1369267"><ele>340.0</ele><time>2026-04-26T12:58:11.418Z</time></trkpt><trkpt lat="42.2499383" lon="14.136985"><ele>337.75</ele><time>2026-04-26T12:58:12.408Z</time></trkpt><trkpt lat="42.250055" lon="14.1370417"><ele>335.5</ele><time>2026-04-26T12:58:13.419Z</time></trkpt><trkpt lat="42.2501717" lon="14.1370967"><ele>333.25</ele><time>2026-04-26T12:58:14.463Z</time></trkpt><trkpt lat="42.2502933" lon="14.1371533"><ele>331.0</ele><time>2026-04-26T12:58:15.414Z</time></trkpt><trkpt lat="42.25041" lon="14.1372067"><ele>331.0</ele><time>2026-04-26T12:58:16.418Z</time></trkpt><trkpt lat="42.25052" lon="14.1372583"><ele>331.0</ele><time>2026-04-26T12:58:17.419Z</time></trkpt><trkpt lat="42.2506267" lon="14.1373083"><ele>331.0</ele><time>2026-04-26T12:58:18.41Z</time></trkpt><trkpt lat="42.25073" lon="14.137365"><ele>331.0</ele><time>2026-04-26T12:58:19.415Z</time></trkpt><trkpt lat="42.2508317" lon="14.137435"><ele>329.0</ele><time>2026-04-26T12:58:20.467Z</time></trkpt><trkpt lat="42.2509317" lon="14.1375133"><ele>327.0</ele><time>2026-04-26T12:58:21.416Z</time></trkpt><trkpt lat="42.2510317" lon="14.1375883"><ele>325.0</ele><time>2026-04-26T12:58:22.409Z</time></trkpt><trkpt lat="42.2511333" lon="14.1376583"><ele>323.0</ele><time>2026-04-26T12:58:23.411Z</time></trkpt><trkpt lat="42.2512317" lon="14.1377183"><ele>323.0</ele><time>2026-04-26T12:58:24.413Z</time></trkpt><trkpt lat="42.251315" lon="14.1377717"><ele>323.0</ele><time>2026-04-26T12:58:25.415Z</time></trkpt><trkpt lat="42.251375" lon="14.1378217"><ele>323.0</ele><time>2026-04-26T12:58:26.463Z</time></trkpt><trkpt lat="42.2514333" lon="14.13788"><ele>323.0</ele><time>2026-04-26T12:58:29.409Z</time></trkpt><trkpt lat="42.251495" lon="14.13782"><ele>323.0</ele><time>2026-04-26T12:58:32.465Z</time></trkpt><trkpt lat="42.2516167" lon="14.1377767"><ele>323.0</ele><time>2026-04-26T12:58:34.418Z</time></trkpt><trkpt lat="42.2516967" lon="14.137755"><ele>321.6666666666667</ele><time>2026-04-26T12:58:35.408Z</time></trkpt><trkpt lat="42.2517733" lon="14.1377367"><ele>320.33333333333337</ele><time>2026-04-26T12:58:36.412Z</time></trkpt><trkpt lat="42.25185" lon="14.1377183"><ele>319.0</ele><time>2026-04-26T12:58:37.414Z</time></trkpt><trkpt lat="42.2519217" lon="14.1377017"><ele>317.6666666666667</ele><time>2026-04-26T12:58:38.463Z</time></trkpt><trkpt lat="42.2519983" lon="14.1376583"><ele>316.3333333333333</ele><time>2026-04-26T12:58:40.406Z</time></trkpt><trkpt lat="42.2520017" lon="14.1375633"><ele>315.0</ele><time>2026-04-26T12:58:44.463Z</time></trkpt><trkpt lat="42.2518767" lon="14.137425"><ele>313.75</ele><time>2026-04-26T12:58:46.42Z</time></trkpt><trkpt lat="42.2518017" lon="14.1373267"><ele>312.5</ele><time>2026-04-26T12:58:47.414Z</time></trkpt><trkpt lat="42.2517317" lon="14.13721"><ele>311.25</ele><time>2026-04-26T12:58:48.42Z</time></trkpt><trkpt lat="42.2516817" lon="14.13707"><ele>310.0</ele><time>2026-04-26T12:58:49.406Z</time></trkpt><trkpt lat="42.25164" lon="14.1369183"><ele>310.0</ele><time>2026-04-26T12:58:50.467Z</time></trkpt><trkpt lat="42.2516183" lon="14.13677"><ele>310.0</ele><time>2026-04-26T12:58:51.421Z</time></trkpt><trkpt lat="42.2516033" lon="14.1366367"><ele>310.0</ele><time>2026-04-26T12:58:52.415Z</time></trkpt><trkpt lat="42.2516067" lon="14.1365133"><ele>310.0</ele><time>2026-04-26T12:58:53.42Z</time></trkpt><trkpt lat="42.2516383" lon="14.1364167"><ele>310.0</ele><time>2026-04-26T12:58:54.419Z</time></trkpt><trkpt lat="42.251705" lon="14.1363433"><ele>311.5</ele><time>2026-04-26T12:58:55.416Z</time></trkpt><trkpt lat="42.2518083" lon="14.1363033"><ele>313.0</ele><time>2026-04-26T12:58:56.468Z</time></trkpt><trkpt lat="42.2519483" lon="14.1362833"><ele>314.5</ele><time>2026-04-26T12:58:57.414Z</time></trkpt><trkpt lat="42.2521117" lon="14.1362517"><ele>316.0</ele><time>2026-04-26T12:58:58.418Z</time></trkpt><trkpt lat="42.2522717" lon="14.1361967"><ele>312.66666666666663</ele><time>2026-04-26T12:58:59.419Z</time></trkpt><trkpt lat="42.252415" lon="14.136115"><ele>309.3333333333333</ele><time>2026-04-26T12:59:00.415Z</time></trkpt><trkpt lat="42.2525533" lon="14.1360033"><ele>306.0</ele><time>2026-04-26T12:59:01.41Z</time></trkpt><trkpt lat="42.2526917" lon="14.1357617"><ele>306.3333333333333</ele><time>2026-04-26T12:59:02.465Z</time></trkpt><trkpt lat="42.2528283" lon="14.1355367"><ele>306.66666666666663</ele><time>2026-04-26T12:59:03.418Z</time></trkpt><trkpt lat="42.2529617" lon="14.1353383"><ele>307.0</ele><time>2026-04-26T12:59:04.408Z</time></trkpt><trkpt lat="42.2530717" lon="14.13518"><ele>305.5</ele><time>2026-04-26T12:59:05.416Z</time></trkpt><trkpt lat="42.2531667" lon="14.1350467"><ele>304.0</ele><time>2026-04-26T12:59:06.419Z</time></trkpt><trkpt lat="42.2532583" lon="14.1349517"><ele>302.5</ele><time>2026-04-26T12:59:07.417Z</time></trkpt><trkpt lat="42.2533533" lon="14.1348867"><ele>301.0</ele><time>2026-04-26T12:59:08.461Z</time></trkpt><trkpt lat="42.2534583" lon="14.1348883"><ele>300.0</ele><time>2026-04-26T12:59:09.416Z</time></trkpt><trkpt lat="42.2535667" lon="14.1349367"><ele>299.0</ele><time>2026-04-26T12:59:10.42Z</time></trkpt><trkpt lat="42.25368" lon="14.135015"><ele>298.0</ele><time>2026-04-26T12:59:11.417Z</time></trkpt><trkpt lat="42.2538033" lon="14.1351217"><ele>297.0</ele><time>2026-04-26T12:59:12.409Z</time></trkpt><trkpt lat="42.2539267" lon="14.1352467"><ele>294.3333333333333</ele><time>2026-04-26T12:59:13.409Z</time></trkpt><trkpt lat="42.254045" lon="14.13539"><ele>291.66666666666663</ele><time>2026-04-26T12:59:14.465Z</time></trkpt><trkpt lat="42.254155" lon="14.13554"><ele>289.0</ele><time>2026-04-26T12:59:15.418Z</time></trkpt><trkpt lat="42.25424" lon="14.13569"><ele>289.0</ele><time>2026-04-26T12:59:16.414Z</time></trkpt><trkpt lat="42.254305" lon="14.135845"><ele>289.0</ele><time>2026-04-26T12:59:17.405Z</time></trkpt><trkpt lat="42.25434" lon="14.13602"><ele>289.0</ele><time>2026-04-26T12:59:18.411Z</time></trkpt><trkpt lat="42.2543633" lon="14.1361867"><ele>289.0</ele><time>2026-04-26T12:59:19.42Z</time></trkpt><trkpt lat="42.2543983" lon="14.1363267"><ele>289.0</ele><time>2026-04-26T12:59:20.464Z</time></trkpt><trkpt lat="42.2544667" lon="14.1364283"><ele>289.0</ele><time>2026-04-26T12:59:21.416Z</time></trkpt><trkpt lat="42.2545667" lon="14.1365033"><ele>289.0</ele><time>2026-04-26T12:59:22.418Z</time></trkpt><trkpt lat="42.25469" lon="14.1365467"><ele>289.0</ele><time>2026-04-26T12:59:23.421Z</time></trkpt><trkpt lat="42.2548267" lon="14.13657"><ele>287.66666666666663</ele><time>2026-04-26T12:59:24.413Z</time></trkpt><trkpt lat="42.2549767" lon="14.13658"><ele>286.3333333333333</ele><time>2026-04-26T12:59:25.419Z</time></trkpt><trkpt lat="42.255145" lon="14.13658"><ele>285.0</ele><time>2026-04-26T12:59:26.464Z</time></trkpt><trkpt lat="42.2553133" lon="14.1365867"><ele>285.0</ele><time>2026-04-26T12:59:27.416Z</time></trkpt><trkpt lat="42.2554833" lon="14.1365883"><ele>285.0</ele><time>2026-04-26T12:59:28.416Z</time></trkpt><trkpt lat="42.2556483" lon="14.136595"><ele>285.0</ele><time>2026-04-26T12:59:29.409Z</time></trkpt><trkpt lat="42.2558" lon="14.1366083"><ele>284.0</ele><time>2026-04-26T12:59:30.408Z</time></trkpt><trkpt lat="42.255945" lon="14.13663"><ele>283.0</ele><time>2026-04-26T12:59:31.416Z</time></trkpt><trkpt lat="42.2560767" lon="14.1366717"><ele>282.0</ele><time>2026-04-26T12:59:32.459Z</time></trkpt><trkpt lat="42.2561983" lon="14.1367367"><ele>281.0</ele><time>2026-04-26T12:59:33.41Z</time></trkpt><trkpt lat="42.2563067" lon="14.1367967"><ele>281.0</ele><time>2026-04-26T12:59:34.417Z</time></trkpt><trkpt lat="42.2564117" lon="14.1368333"><ele>281.0</ele><time>2026-04-26T12:59:35.417Z</time></trkpt><trkpt lat="42.2565033" lon="14.1368117"><ele>281.0</ele><time>2026-04-26T12:59:36.412Z</time></trkpt><trkpt lat="42.256585" lon="14.1367417"><ele>281.0</ele><time>2026-04-26T12:59:37.415Z</time></trkpt><trkpt lat="42.2566583" lon="14.1366483"><ele>281.0</ele><time>2026-04-26T12:59:38.465Z</time></trkpt><trkpt lat="42.2566967" lon="14.1365117"><ele>278.5</ele><time>2026-04-26T12:59:39.418Z</time></trkpt><trkpt lat="42.2567267" lon="14.1363517"><ele>276.0</ele><time>2026-04-26T12:59:40.422Z</time></trkpt><trkpt lat="42.2567467" lon="14.1361633"><ele>273.5</ele><time>2026-04-26T12:59:41.422Z</time></trkpt><trkpt lat="42.256765" lon="14.1359533"><ele>271.0</ele><time>2026-04-26T12:59:42.416Z</time></trkpt><trkpt lat="42.2567833" lon="14.1357317"><ele>271.0</ele><time>2026-04-26T12:59:43.419Z</time></trkpt><trkpt lat="42.2567967" lon="14.1355167"><ele>271.0</ele><time>2026-04-26T12:59:44.465Z</time></trkpt><trkpt lat="42.256815" lon="14.135315"><ele>271.0</ele><time>2026-04-26T12:59:45.418Z</time></trkpt><trkpt lat="42.2568333" lon="14.13513"><ele>271.0</ele><time>2026-04-26T12:59:46.407Z</time></trkpt><trkpt lat="42.2568483" lon="14.134985"><ele>271.0</ele><time>2026-04-26T12:59:47.407Z</time></trkpt><trkpt lat="42.2568683" lon="14.1348933"><ele>271.0</ele><time>2026-04-26T12:59:48.41Z</time></trkpt><trkpt lat="42.25691" lon="14.1348067"><ele>271.0</ele><time>2026-04-26T12:59:50.462Z</time></trkpt><trkpt lat="42.2569683" lon="14.1348417"><ele>271.0</ele><time>2026-04-26T12:59:52.421Z</time></trkpt><trkpt lat="42.2570717" lon="14.1348617"><ele>271.0</ele><time>2026-04-26T12:59:55.409Z</time></trkpt><trkpt lat="42.2571633" lon="14.134845"><ele>271.0</ele><time>2026-04-26T12:59:56.475Z</time></trkpt><trkpt lat="42.257265" lon="14.1348167"><ele>270.25</ele><time>2026-04-26T12:59:57.413Z</time></trkpt><trkpt lat="42.2573733" lon="14.1348067"><ele>269.5</ele><time>2026-04-26T12:59:58.422Z</time></trkpt><trkpt lat="42.2574883" lon="14.1348117"><ele>268.75</ele><time>2026-04-26T12:59:59.419Z</time></trkpt><trkpt lat="42.2576167" lon="14.1348383"><ele>268.0</ele><time>2026-04-26T13:00:00.408Z</time></trkpt><trkpt lat="42.257755" lon="14.1348733"><ele>269.0</ele><time>2026-04-26T13:00:01.415Z</time></trkpt><trkpt lat="42.257895" lon="14.1349083"><ele>270.0</ele><time>2026-04-26T13:00:02.467Z</time></trkpt><trkpt lat="42.25803" lon="14.13494"><ele>271.0</ele><time>2026-04-26T13:00:03.418Z</time></trkpt><trkpt lat="42.258165" lon="14.13496"><ele>272.0</ele><time>2026-04-26T13:00:04.416Z</time></trkpt><trkpt lat="42.2582883" lon="14.1349683"><ele>273.0</ele><time>2026-04-26T13:00:05.418Z</time></trkpt><trkpt lat="42.2584067" lon="14.1349833"><ele>274.0</ele><time>2026-04-26T13:00:06.414Z</time></trkpt><trkpt lat="42.258515" lon="14.1350083"><ele>275.0</ele><time>2026-04-26T13:00:07.412Z</time></trkpt><trkpt lat="42.258615" lon="14.1350583"><ele>276.0</ele><time>2026-04-26T13:00:08.455Z</time></trkpt><trkpt lat="42.25872" lon="14.1351283"><ele>276.0</ele><time>2026-04-26T13:00:09.408Z</time></trkpt><trkpt lat="42.2588317" lon="14.1351883"><ele>276.0</ele><time>2026-04-26T13:00:10.41Z</time></trkpt><trkpt lat="42.2589483" lon="14.1352183"><ele>276.0</ele><time>2026-04-26T13:00:11.418Z</time></trkpt><trkpt lat="42.259055" lon="14.1352283"><ele>276.0</ele><time>2026-04-26T13:00:12.412Z</time></trkpt><trkpt lat="42.259155" lon="14.1352317"><ele>276.0</ele><time>2026-04-26T13:00:13.416Z</time></trkpt><trkpt lat="42.2592467" lon="14.13524"><ele>277.0</ele><time>2026-04-26T13:00:14.459Z</time></trkpt><trkpt lat="42.2593233" lon="14.1352467"><ele>278.0</ele><time>2026-04-26T13:00:15.412Z</time></trkpt><trkpt lat="42.2594" lon="14.1352583"><ele>279.0</ele><time>2026-04-26T13:00:16.41Z</time></trkpt><trkpt lat="42.2594717" lon="14.1352733"><ele>280.0</ele><time>2026-04-26T13:00:17.409Z</time></trkpt><trkpt lat="42.2595367" lon="14.13529"><ele>281.0</ele><time>2026-04-26T13:00:18.409Z</time></trkpt><trkpt lat="42.2596" lon="14.1353083"><ele>282.0</ele><time>2026-04-26T13:00:33.408Z</time></trkpt><trkpt lat="42.259655" lon="14.1352317"><ele>283.0</ele><time>2026-04-26T13:00:35.417Z</time></trkpt><trkpt lat="42.2597617" lon="14.13521"><ele>282.8</ele><time>2026-04-26T13:00:37.411Z</time></trkpt><trkpt lat="42.2598483" lon="14.13523"><ele>282.6</ele><time>2026-04-26T13:00:38.457Z</time></trkpt><trkpt lat="42.259945" lon="14.1352483"><ele>282.4</ele><time>2026-04-26T13:00:39.413Z</time></trkpt><trkpt lat="42.2600367" lon="14.1352633"><ele>282.2</ele><time>2026-04-26T13:00:40.411Z</time></trkpt><trkpt lat="42.2601233" lon="14.1352817"><ele>282.0</ele><time>2026-04-26T13:00:41.413Z</time></trkpt><trkpt lat="42.2602083" lon="14.1353083"><ele>282.0</ele><time>2026-04-26T13:00:42.413Z</time></trkpt><trkpt lat="42.26029" lon="14.1353333"><ele>282.0</ele><time>2026-04-26T13:00:43.408Z</time></trkpt><trkpt lat="42.2603633" lon="14.13535"><ele>282.0</ele><time>2026-04-26T13:00:44.459Z</time></trkpt><trkpt lat="42.2604383" lon="14.1353683"><ele>282.0</ele><time>2026-04-26T13:00:45.41Z</time></trkpt><trkpt lat="42.26052" lon="14.13539"><ele>282.0</ele><time>2026-04-26T13:00:46.417Z</time></trkpt><trkpt lat="42.2606033" lon="14.1354183"><ele>282.0</ele><time>2026-04-26T13:00:47.413Z</time></trkpt><trkpt lat="42.26069" lon="14.1354633"><ele>279.2</ele><time>2026-04-26T13:00:48.415Z</time></trkpt><trkpt lat="42.2607817" lon="14.1355333"><ele>276.4</ele><time>2026-04-26T13:00:49.417Z</time></trkpt><trkpt lat="42.26088" lon="14.1356233"><ele>273.6</ele><time>2026-04-26T13:00:50.46Z</time></trkpt><trkpt lat="42.260965" lon="14.1357283"><ele>270.8</ele><time>2026-04-26T13:00:51.414Z</time></trkpt><trkpt lat="42.2610383" lon="14.1358283"><ele>268.0</ele><time>2026-04-26T13:00:52.417Z</time></trkpt><trkpt lat="42.2611017" lon="14.13593"><ele>268.0</ele><time>2026-04-26T13:00:53.419Z</time></trkpt><trkpt lat="42.26117" lon="14.136035"><ele>268.0</ele><time>2026-04-26T13:00:54.418Z</time></trkpt><trkpt lat="42.26124" lon="14.1361517"><ele>268.0</ele><time>2026-04-26T13:00:55.41Z</time></trkpt><trkpt lat="42.26131" lon="14.13626"><ele>268.0</ele><time>2026-04-26T13:00:56.448Z</time></trkpt><trkpt lat="42.2613833" lon="14.13636"><ele>268.0</ele><time>2026-04-26T13:00:57.415Z</time></trkpt><trkpt lat="42.2614517" lon="14.1364467"><ele>266.0</ele><time>2026-04-26T13:00:58.415Z</time></trkpt><trkpt lat="42.261525" lon="14.136525"><ele>264.0</ele><time>2026-04-26T13:00:59.416Z</time></trkpt><trkpt lat="42.2616033" lon="14.136595"><ele>262.0</ele><time>2026-04-26T13:01:00.415Z</time></trkpt><trkpt lat="42.2616683" lon="14.1366533"><ele>260.0</ele><time>2026-04-26T13:01:01.417Z</time></trkpt><trkpt lat="42.26172" lon="14.1367067"><ele>258.0</ele><time>2026-04-26T13:01:02.458Z</time></trkpt><trkpt lat="42.2617783" lon="14.1368183"><ele>256.0</ele><time>2026-04-26T13:01:04.414Z</time></trkpt><trkpt lat="42.2618233" lon="14.1369667"><ele>256.0</ele><time>2026-04-26T13:01:06.408Z</time></trkpt><trkpt lat="42.2618317" lon="14.1370583"><ele>256.0</ele><time>2026-04-26T13:01:07.407Z</time></trkpt><trkpt lat="42.2618083" lon="14.13721"><ele>256.0</ele><time>2026-04-26T13:01:09.41Z</time></trkpt><trkpt lat="42.2617733" lon="14.13735"><ele>256.0</ele><time>2026-04-26T13:01:11.416Z</time></trkpt><trkpt lat="42.2617483" lon="14.1374317"><ele>256.0</ele><time>2026-04-26T13:01:12.411Z</time></trkpt><trkpt lat="42.2617233" lon="14.1375767"><ele>257.0</ele><time>2026-04-26T13:01:14.462Z</time></trkpt><trkpt lat="42.2617517" lon="14.1377283"><ele>258.0</ele><time>2026-04-26T13:02:12.416Z</time></trkpt><trkpt lat="42.2617167" lon="14.1378433"><ele>259.0</ele><time>2026-04-26T13:02:14.471Z</time></trkpt><trkpt lat="42.2616867" lon="14.1379217"><ele>260.0</ele><time>2026-04-26T13:02:15.412Z</time></trkpt><trkpt lat="42.26165" lon="14.13801"><ele>261.0</ele><time>2026-04-26T13:02:16.412Z</time></trkpt><trkpt lat="42.261605" lon="14.1381017"><ele>262.0</ele><time>2026-04-26T13:02:17.417Z</time></trkpt><trkpt lat="42.26156" lon="14.1381917"><ele>261.4</ele><time>2026-04-26T13:02:18.42Z</time></trkpt><trkpt lat="42.2615067" lon="14.1382867"><ele>260.79999999999995</ele><time>2026-04-26T13:02:19.409Z</time></trkpt><trkpt lat="42.2614433" lon="14.1383867"><ele>260.2</ele><time>2026-04-26T13:02:20.472Z</time></trkpt><trkpt lat="42.2613717" lon="14.1384833"><ele>259.59999999999997</ele><time>2026-04-26T13:02:21.413Z</time></trkpt><trkpt lat="42.2613033" lon="14.13858"><ele>259.0</ele><time>2026-04-26T13:02:22.414Z</time></trkpt><trkpt lat="42.2612383" lon="14.13869"><ele>263.2</ele><time>2026-04-26T13:02:23.407Z</time></trkpt><trkpt lat="42.2611833" lon="14.13881"><ele>267.4</ele><time>2026-04-26T13:02:24.417Z</time></trkpt><trkpt lat="42.2611433" lon="14.1389233"><ele>271.6</ele><time>2026-04-26T13:02:25.433Z</time></trkpt><trkpt lat="42.2611467" lon="14.1390483"><ele>275.8</ele><time>2026-04-26T13:02:27.41Z</time></trkpt><trkpt lat="42.261205" lon="14.1391667"><ele>280.0</ele><time>2026-04-26T13:02:34.416Z</time></trkpt><trkpt lat="42.26124" lon="14.13928"><ele>280.3333333333333</ele><time>2026-04-26T13:02:36.416Z</time></trkpt><trkpt lat="42.2612733" lon="14.1393583"><ele>280.66666666666663</ele><time>2026-04-26T13:02:37.405Z</time></trkpt><trkpt lat="42.2613183" lon="14.1394433"><ele>281.0</ele><time>2026-04-26T13:02:38.469Z</time></trkpt><trkpt lat="42.26136" lon="14.1395133"><ele>281.3333333333333</ele><time>2026-04-26T13:02:39.411Z</time></trkpt><trkpt lat="42.2614117" lon="14.1395783"><ele>281.6666666666667</ele><time>2026-04-26T13:02:41.41Z</time></trkpt><trkpt lat="42.2615" lon="14.139615"><ele>282.0</ele><time>2026-04-26T13:02:48.419Z</time></trkpt><trkpt lat="42.26161" lon="14.13959"><ele>277.0</ele><time>2026-04-26T13:02:50.471Z</time></trkpt><trkpt lat="42.2617433" lon="14.139625"><ele>272.0</ele><time>2026-04-26T13:02:52.417Z</time></trkpt><trkpt lat="42.2618267" lon="14.13967"><ele>267.0</ele><time>2026-04-26T13:02:53.415Z</time></trkpt><trkpt lat="42.2619083" lon="14.139725"><ele>262.0</ele><time>2026-04-26T13:02:54.422Z</time></trkpt><trkpt lat="42.26198" lon="14.1397833"><ele>257.0</ele><time>2026-04-26T13:02:55.42Z</time></trkpt><trkpt lat="42.2620333" lon="14.1398333"><ele>257.6666666666667</ele><time>2026-04-26T13:02:56.466Z</time></trkpt><trkpt lat="42.2621" lon="14.1399567"><ele>258.33333333333337</ele><time>2026-04-26T13:02:58.412Z</time></trkpt><trkpt lat="42.2621333" lon="14.1400417"><ele>259.0</ele><time>2026-04-26T13:02:59.424Z</time></trkpt><trkpt lat="42.2621667" lon="14.1401417"><ele>259.6666666666667</ele><time>2026-04-26T13:03:00.418Z</time></trkpt><trkpt lat="42.2621983" lon="14.1402483"><ele>260.3333333333333</ele><time>2026-04-26T13:03:01.411Z</time></trkpt><trkpt lat="42.26222" lon="14.14035"><ele>261.0</ele><time>2026-04-26T13:03:02.469Z</time></trkpt><trkpt lat="42.262245" lon="14.14045"><ele>261.0</ele><time>2026-04-26T13:03:03.411Z</time></trkpt><trkpt lat="42.2622683" lon="14.1405467"><ele>261.0</ele><time>2026-04-26T13:03:04.406Z</time></trkpt><trkpt lat="42.2622933" lon="14.1406533"><ele>261.0</ele><time>2026-04-26T13:03:05.407Z</time></trkpt><trkpt lat="42.262325" lon="14.1407767"><ele>261.0</ele><time>2026-04-26T13:03:06.41Z</time></trkpt><trkpt lat="42.2623517" lon="14.1409133"><ele>261.0</ele><time>2026-04-26T13:03:07.408Z</time></trkpt><trkpt lat="42.262375" lon="14.14104"><ele>257.8333333333333</ele><time>2026-04-26T13:03:08.467Z</time></trkpt><trkpt lat="42.2624033" lon="14.1411483"><ele>254.66666666666669</ele><time>2026-04-26T13:03:09.414Z</time></trkpt><trkpt lat="42.2624267" lon="14.1412333"><ele>251.5</ele><time>2026-04-26T13:03:10.417Z</time></trkpt><trkpt lat="42.2624933" lon="14.1413383"><ele>248.33333333333334</ele><time>2026-04-26T13:03:12.408Z</time></trkpt><trkpt lat="42.2625767" lon="14.1413583"><ele>245.16666666666669</ele><time>2026-04-26T13:03:13.416Z</time></trkpt><trkpt lat="42.2626767" lon="14.1413667"><ele>242.0</ele><time>2026-04-26T13:03:14.47Z</time></trkpt><trkpt lat="42.26277" lon="14.14137"><ele>242.0</ele><time>2026-04-26T13:03:15.414Z</time></trkpt><trkpt lat="42.2628517" lon="14.14136"><ele>242.0</ele><time>2026-04-26T13:03:16.415Z</time></trkpt><trkpt lat="42.2629167" lon="14.1413267"><ele>242.0</ele><time>2026-04-26T13:03:17.408Z</time></trkpt><trkpt lat="42.2629933" lon="14.1412717"><ele>242.0</ele><time>2026-04-26T13:03:18.412Z</time></trkpt><trkpt lat="42.2630917" lon="14.1412067"><ele>242.0</ele><time>2026-04-26T13:03:19.418Z</time></trkpt><trkpt lat="42.26319" lon="14.14116"><ele>238.0</ele><time>2026-04-26T13:03:20.459Z</time></trkpt><trkpt lat="42.2632867" lon="14.1411317"><ele>234.0</ele><time>2026-04-26T13:03:21.413Z</time></trkpt><trkpt lat="42.2633867" lon="14.1411217"><ele>230.0</ele><time>2026-04-26T13:03:22.413Z</time></trkpt><trkpt lat="42.2635017" lon="14.1411283"><ele>226.0</ele><time>2026-04-26T13:03:23.406Z</time></trkpt><trkpt lat="42.2636117" lon="14.1411383"><ele>222.0</ele><time>2026-04-26T13:03:24.414Z</time></trkpt><trkpt lat="42.263715" lon="14.1411467"><ele>222.0</ele><time>2026-04-26T13:03:25.413Z</time></trkpt><trkpt lat="42.2638067" lon="14.1411583"><ele>222.0</ele><time>2026-04-26T13:03:26.458Z</time></trkpt><trkpt lat="42.263895" lon="14.1411717"><ele>222.0</ele><time>2026-04-26T13:03:27.418Z</time></trkpt><trkpt lat="42.26399" lon="14.1411817"><ele>222.0</ele><time>2026-04-26T13:03:28.414Z</time></trkpt><trkpt lat="42.2640933" lon="14.1411917"><ele>222.0</ele><time>2026-04-26T13:03:29.413Z</time></trkpt><trkpt lat="42.264185" lon="14.1412067"><ele>218.83333333333334</ele><time>2026-04-26T13:03:30.413Z</time></trkpt><trkpt lat="42.2642533" lon="14.1412133"><ele>215.66666666666669</ele><time>2026-04-26T13:03:31.413Z</time></trkpt><trkpt lat="42.2643167" lon="14.14116"><ele>212.5</ele><time>2026-04-26T13:03:33.417Z</time></trkpt><trkpt lat="42.2643283" lon="14.1409933"><ele>209.33333333333334</ele><time>2026-04-26T13:03:35.416Z</time></trkpt><trkpt lat="42.2643433" lon="14.1409033"><ele>206.16666666666669</ele><time>2026-04-26T13:03:36.417Z</time></trkpt><trkpt lat="42.2643583" lon="14.1408183"><ele>203.0</ele><time>2026-04-26T13:03:37.415Z</time></trkpt><trkpt lat="42.2644167" lon="14.1407117"><ele>202.0</ele><time>2026-04-26T13:03:39.409Z</time></trkpt><trkpt lat="42.2645567" lon="14.1406567"><ele>201.0</ele><time>2026-04-26T13:03:41.409Z</time></trkpt><trkpt lat="42.2646683" lon="14.1406383"><ele>200.0</ele><time>2026-04-26T13:03:42.406Z</time></trkpt><trkpt lat="42.2647783" lon="14.1406267"><ele>199.0</ele><time>2026-04-26T13:03:43.414Z</time></trkpt><trkpt lat="42.2649017" lon="14.1406183"><ele>195.0</ele><time>2026-04-26T13:03:44.473Z</time></trkpt><trkpt lat="42.2650283" lon="14.1406133"><ele>191.0</ele><time>2026-04-26T13:03:45.412Z</time></trkpt><trkpt lat="42.2651467" lon="14.140615"><ele>187.0</ele><time>2026-04-26T13:03:46.414Z</time></trkpt><trkpt lat="42.2652667" lon="14.140615"><ele>183.0</ele><time>2026-04-26T13:03:47.42Z</time></trkpt><trkpt lat="42.2653767" lon="14.1406117"><ele>183.0</ele><time>2026-04-26T13:03:48.425Z</time></trkpt><trkpt lat="42.2654817" lon="14.1406017"><ele>183.0</ele><time>2026-04-26T13:03:49.416Z</time></trkpt><trkpt lat="42.265575" lon="14.1405867"><ele>183.0</ele><time>2026-04-26T13:03:50.47Z</time></trkpt><trkpt lat="42.2656483" lon="14.14058"><ele>183.0</ele><time>2026-04-26T13:03:51.415Z</time></trkpt><trkpt lat="42.2657183" lon="14.140595"><ele>183.0</ele><time>2026-04-26T13:03:52.418Z</time></trkpt><trkpt lat="42.265815" lon="14.14071"><ele>182.0</ele><time>2026-04-26T13:03:54.416Z</time></trkpt><trkpt lat="42.2658583" lon="14.1408017"><ele>181.0</ele><time>2026-04-26T13:03:55.424Z</time></trkpt><trkpt lat="42.2658967" lon="14.1408883"><ele>180.0</ele><time>2026-04-26T13:03:56.476Z</time></trkpt><trkpt lat="42.26593" lon="14.1409683"><ele>179.0</ele><time>2026-04-26T13:03:57.415Z</time></trkpt><trkpt lat="42.2659583" lon="14.1410467"><ele>178.0</ele><time>2026-04-26T13:03:58.404Z</time></trkpt><trkpt lat="42.2659867" lon="14.1411233"><ele>177.0</ele><time>2026-04-26T13:03:59.416Z</time></trkpt><trkpt lat="42.2660317" lon="14.1412567"><ele>177.0</ele><time>2026-04-26T13:04:01.413Z</time></trkpt><trkpt lat="42.266075" lon="14.1413567"><ele>177.0</ele><time>2026-04-26T13:04:03.408Z</time></trkpt><trkpt lat="42.266115" lon="14.1414583"><ele>177.0</ele><time>2026-04-26T13:04:05.416Z</time></trkpt><trkpt lat="42.26615" lon="14.14161"><ele>177.0</ele><time>2026-04-26T13:04:07.418Z</time></trkpt><trkpt lat="42.266185" lon="14.1417683"><ele>177.0</ele><time>2026-04-26T13:04:09.41Z</time></trkpt><trkpt lat="42.2662683" lon="14.14179"><ele>176.83333333333334</ele><time>2026-04-26T13:04:12.412Z</time></trkpt><trkpt lat="42.266345" lon="14.1417117"><ele>176.66666666666666</ele><time>2026-04-26T13:04:14.478Z</time></trkpt><trkpt lat="42.2664183" lon="14.1415567"><ele>176.5</ele><time>2026-04-26T13:04:16.416Z</time></trkpt><trkpt lat="42.266445" lon="14.1414767"><ele>176.33333333333331</ele><time>2026-04-26T13:04:17.408Z</time></trkpt><trkpt lat="42.2664933" lon="14.1415333"><ele>176.16666666666666</ele><time>2026-04-26T13:04:46.419Z</time></trkpt><trkpt lat="42.266485" lon="14.1416383"><ele>176.0</ele><time>2026-04-26T13:04:48.411Z</time></trkpt><trkpt lat="42.26647" lon="14.1417567"><ele>176.0</ele><time>2026-04-26T13:04:50.47Z</time></trkpt><trkpt lat="42.26645" lon="14.14192"><ele>176.0</ele><time>2026-04-26T13:04:52.405Z</time></trkpt><trkpt lat="42.2664267" lon="14.142015"><ele>176.0</ele><time>2026-04-26T13:04:53.417Z</time></trkpt><trkpt lat="42.266395" lon="14.1421167"><ele>176.0</ele><time>2026-04-26T13:04:54.411Z</time></trkpt><trkpt lat="42.26636" lon="14.142215"><ele>176.0</ele><time>2026-04-26T13:04:55.415Z</time></trkpt><trkpt lat="42.2663283" lon="14.1423033"><ele>176.0</ele><time>2026-04-26T13:04:56.479Z</time></trkpt><trkpt lat="42.2662967" lon="14.142395"><ele>176.66666666666666</ele><time>2026-04-26T13:04:57.414Z</time></trkpt><trkpt lat="42.26627" lon="14.142495"><ele>177.33333333333331</ele><time>2026-04-26T13:04:58.415Z</time></trkpt><trkpt lat="42.2662583" lon="14.1425967"><ele>178.0</ele><time>2026-04-26T13:04:59.417Z</time></trkpt><trkpt lat="42.26626" lon="14.142715"><ele>178.66666666666666</ele><time>2026-04-26T13:05:00.419Z</time></trkpt><trkpt lat="42.2662783" lon="14.1428367"><ele>179.33333333333334</ele><time>2026-04-26T13:05:01.418Z</time></trkpt><trkpt lat="42.266305" lon="14.1429483"><ele>180.0</ele><time>2026-04-26T13:05:02.468Z</time></trkpt><trkpt lat="42.266335" lon="14.1430533"><ele>180.0</ele><time>2026-04-26T13:05:03.415Z</time></trkpt><trkpt lat="42.2663583" lon="14.1431517"><ele>180.0</ele><time>2026-04-26T13:05:04.417Z</time></trkpt><trkpt lat="42.2663733" lon="14.1432417"><ele>180.0</ele><time>2026-04-26T13:05:05.415Z</time></trkpt><trkpt lat="42.266375" lon="14.1433317"><ele>180.0</ele><time>2026-04-26T13:05:06.409Z</time></trkpt><trkpt lat="42.26637" lon="14.143435"><ele>180.0</ele><time>2026-04-26T13:05:07.417Z</time></trkpt><trkpt lat="42.2663583" lon="14.143555"><ele>180.0</ele><time>2026-04-26T13:05:08.469Z</time></trkpt><trkpt lat="42.2663433" lon="14.143695"><ele>182.2</ele><time>2026-04-26T13:05:09.415Z</time></trkpt><trkpt lat="42.2663367" lon="14.143835"><ele>184.4</ele><time>2026-04-26T13:05:10.402Z</time></trkpt><trkpt lat="42.2663467" lon="14.14398"><ele>186.60000000000002</ele><time>2026-04-26T13:05:11.412Z</time></trkpt><trkpt lat="42.2663633" lon="14.1441283"><ele>188.8</ele><time>2026-04-26T13:05:12.416Z</time></trkpt><trkpt lat="42.2663867" lon="14.1442633"><ele>191.0</ele><time>2026-04-26T13:05:13.417Z</time></trkpt><trkpt lat="42.2664" lon="14.1443917"><ele>193.0</ele><time>2026-04-26T13:05:14.471Z</time></trkpt><trkpt lat="42.2664033" lon="14.1445217"><ele>195.0</ele><time>2026-04-26T13:05:15.41Z</time></trkpt><trkpt lat="42.2664083" lon="14.1446533"><ele>197.0</ele><time>2026-04-26T13:05:16.42Z</time></trkpt><trkpt lat="42.266415" lon="14.14478"><ele>199.0</ele><time>2026-04-26T13:05:17.42Z</time></trkpt><trkpt lat="42.266435" lon="14.144905"><ele>201.0</ele><time>2026-04-26T13:05:18.413Z</time></trkpt><trkpt lat="42.2664533" lon="14.14502"><ele>203.4</ele><time>2026-04-26T13:05:19.406Z</time></trkpt><trkpt lat="42.26646" lon="14.1451283"><ele>205.8</ele><time>2026-04-26T13:05:20.464Z</time></trkpt><trkpt lat="42.2664517" lon="14.145255"><ele>208.20000000000002</ele><time>2026-04-26T13:05:21.407Z</time></trkpt><trkpt lat="42.2664317" lon="14.1453967"><ele>210.60000000000002</ele><time>2026-04-26T13:05:22.407Z</time></trkpt><trkpt lat="42.266405" lon="14.1455583"><ele>213.0</ele><time>2026-04-26T13:05:23.414Z</time></trkpt><trkpt lat="42.2663917" lon="14.1457167"><ele>218.4</ele><time>2026-04-26T13:05:24.416Z</time></trkpt><trkpt lat="42.2663917" lon="14.1458683"><ele>223.8</ele><time>2026-04-26T13:05:25.419Z</time></trkpt><trkpt lat="42.2663917" lon="14.1460267"><ele>229.2</ele><time>2026-04-26T13:05:26.479Z</time></trkpt><trkpt lat="42.26639" lon="14.1461717"><ele>234.6</ele><time>2026-04-26T13:05:27.418Z</time></trkpt><trkpt lat="42.2663767" lon="14.14629"><ele>240.0</ele><time>2026-04-26T13:05:28.418Z</time></trkpt><trkpt lat="42.26635" lon="14.1464"><ele>240.0</ele><time>2026-04-26T13:05:29.417Z</time></trkpt><trkpt lat="42.26631" lon="14.1465017"><ele>240.0</ele><time>2026-04-26T13:05:30.413Z</time></trkpt><trkpt lat="42.2662583" lon="14.1465967"><ele>240.0</ele><time>2026-04-26T13:05:31.416Z</time></trkpt><trkpt lat="42.2662117" lon="14.1467"><ele>240.0</ele><time>2026-04-26T13:05:32.471Z</time></trkpt><trkpt lat="42.2661767" lon="14.1468"><ele>240.0</ele><time>2026-04-26T13:05:33.419Z</time></trkpt><trkpt lat="42.266155" lon="14.1469033"><ele>240.0</ele><time>2026-04-26T13:05:34.418Z</time></trkpt><trkpt lat="42.2661633" lon="14.1470283"><ele>242.8</ele><time>2026-04-26T13:05:35.404Z</time></trkpt><trkpt lat="42.2662017" lon="14.14719"><ele>245.6</ele><time>2026-04-26T13:05:36.407Z</time></trkpt><trkpt lat="42.2662367" lon="14.1473433"><ele>248.39999999999998</ele><time>2026-04-26T13:05:37.415Z</time></trkpt><trkpt lat="42.2662633" lon="14.1474817"><ele>251.2</ele><time>2026-04-26T13:05:38.467Z</time></trkpt><trkpt lat="42.2662817" lon="14.1475633"><ele>254.0</ele><time>2026-04-26T13:05:39.408Z</time></trkpt><trkpt lat="42.2663017" lon="14.1476483"><ele>254.0</ele><time>2026-04-26T13:05:46.421Z</time></trkpt><trkpt lat="42.2663167" lon="14.1477367"><ele>253.99999999999997</ele><time>2026-04-26T13:05:47.419Z</time></trkpt><trkpt lat="42.26633" lon="14.1478617"><ele>253.99999999999997</ele><time>2026-04-26T13:05:48.408Z</time></trkpt><trkpt lat="42.2663483" lon="14.1480083"><ele>254.0</ele><time>2026-04-26T13:05:49.401Z</time></trkpt><trkpt lat="42.266365" lon="14.1481833"><ele>254.0</ele><time>2026-04-26T13:05:50.468Z</time></trkpt><trkpt lat="42.26638" lon="14.148355"><ele>254.39999999999998</ele><time>2026-04-26T13:05:51.406Z</time></trkpt><trkpt lat="42.2663983" lon="14.1485117"><ele>254.79999999999998</ele><time>2026-04-26T13:05:52.412Z</time></trkpt><trkpt lat="42.2664133" lon="14.148655"><ele>255.20000000000002</ele><time>2026-04-26T13:05:53.416Z</time></trkpt><trkpt lat="42.2664267" lon="14.1487917"><ele>255.60000000000002</ele><time>2026-04-26T13:05:54.405Z</time></trkpt><trkpt lat="42.2664383" lon="14.14891"><ele>256.0</ele><time>2026-04-26T13:05:55.412Z</time></trkpt><trkpt lat="42.2664517" lon="14.149"><ele>256.66666666666663</ele><time>2026-04-26T13:05:56.476Z</time></trkpt><trkpt lat="42.2664567" lon="14.14909"><ele>257.3333333333333</ele><time>2026-04-26T13:05:58.403Z</time></trkpt><trkpt lat="42.2664583" lon="14.1492083"><ele>258.0</ele><time>2026-04-26T13:06:01.411Z</time></trkpt><trkpt lat="42.26646" lon="14.149325"><ele>258.6666666666667</ele><time>2026-04-26T13:06:03.417Z</time></trkpt><trkpt lat="42.266445" lon="14.1494233"><ele>259.33333333333337</ele><time>2026-04-26T13:06:05.418Z</time></trkpt><trkpt lat="42.2664017" lon="14.1495683"><ele>260.0</ele><time>2026-04-26T13:06:07.415Z</time></trkpt><trkpt lat="42.2663783" lon="14.1496617"><ele>260.0</ele><time>2026-04-26T13:06:08.468Z</time></trkpt><trkpt lat="42.266355" lon="14.1497533"><ele>260.0</ele><time>2026-04-26T13:06:09.409Z</time></trkpt><trkpt lat="42.266335" lon="14.1498767"><ele>260.0</ele><time>2026-04-26T13:06:11.414Z</time></trkpt><trkpt lat="42.2663498" lon="14.1497431"><ele>260.0</ele><time>2026-04-26T13:06:28.413Z</time></trkpt><trkpt lat="42.2663741" lon="14.1496436"><ele>260.0</ele><time>2026-04-26T13:06:29.41Z</time></trkpt><trkpt lat="42.2663977" lon="14.1495355"><ele>260.0</ele><time>2026-04-26T13:06:30.412Z</time></trkpt><trkpt lat="42.2664218" lon="14.1494445"><ele>266.0</ele><time>2026-04-26T13:06:31.414Z</time></trkpt><trkpt lat="42.2664654" lon="14.1493103"><ele>272.0</ele><time>2026-04-26T13:06:33.415Z</time></trkpt><trkpt lat="42.2665299" lon="14.1492416"><ele>278.0</ele><time>2026-04-26T13:06:35.411Z</time></trkpt><trkpt lat="42.266655" lon="14.1492433"><ele>284.0</ele><time>2026-04-26T13:06:37.416Z</time></trkpt><trkpt lat="42.2667433" lon="14.1492567"><ele>290.0</ele><time>2026-04-26T13:06:38.467Z</time></trkpt><trkpt lat="42.266845" lon="14.1492783"><ele>290.0</ele><time>2026-04-26T13:06:39.413Z</time></trkpt><trkpt lat="42.2669467" lon="14.1493017"><ele>290.0</ele><time>2026-04-26T13:06:40.417Z</time></trkpt><trkpt lat="42.2670483" lon="14.149325"><ele>290.0</ele><time>2026-04-26T13:06:41.415Z</time></trkpt><trkpt lat="42.2671483" lon="14.14935"><ele>290.0</ele><time>2026-04-26T13:06:42.416Z</time></trkpt><trkpt lat="42.2672467" lon="14.1493783"><ele>290.0</ele><time>2026-04-26T13:06:43.417Z</time></trkpt><trkpt lat="42.267345" lon="14.1494067"><ele>287.8</ele><time>2026-04-26T13:06:44.468Z</time></trkpt><trkpt lat="42.267445" lon="14.1494333"><ele>285.6</ele><time>2026-04-26T13:06:45.412Z</time></trkpt><trkpt lat="42.2675433" lon="14.1494617"><ele>283.4</ele><time>2026-04-26T13:06:46.414Z</time></trkpt><trkpt lat="42.267635" lon="14.14949"><ele>281.2</ele><time>2026-04-26T13:06:47.417Z</time></trkpt><trkpt lat="42.2677283" lon="14.1495267"><ele>279.0</ele><time>2026-04-26T13:06:48.421Z</time></trkpt><trkpt lat="42.267835" lon="14.14958"><ele>279.0</ele><time>2026-04-26T13:06:49.415Z</time></trkpt><trkpt lat="42.26795" lon="14.1496367"><ele>279.0</ele><time>2026-04-26T13:06:50.467Z</time></trkpt><trkpt lat="42.2680617" lon="14.14969"><ele>279.0</ele><time>2026-04-26T13:06:51.418Z</time></trkpt><trkpt lat="42.2681583" lon="14.1497317"><ele>279.0</ele><time>2026-04-26T13:06:52.413Z</time></trkpt><trkpt lat="42.2682467" lon="14.14976"><ele>279.0</ele><time>2026-04-26T13:06:53.41Z</time></trkpt><trkpt lat="42.268335" lon="14.149785"><ele>278.8333333333333</ele><time>2026-04-26T13:06:54.417Z</time></trkpt><trkpt lat="42.2684233" lon="14.1498083"><ele>278.6666666666667</ele><time>2026-04-26T13:06:55.404Z</time></trkpt><trkpt lat="42.2685083" lon="14.1498367"><ele>278.5</ele><time>2026-04-26T13:06:56.464Z</time></trkpt><trkpt lat="42.2685967" lon="14.149865"><ele>278.33333333333337</ele><time>2026-04-26T13:06:57.406Z</time></trkpt><trkpt lat="42.2686783" lon="14.1499017"><ele>278.1666666666667</ele><time>2026-04-26T13:06:58.412Z</time></trkpt><trkpt lat="42.268755" lon="14.149925"><ele>278.0</ele><time>2026-04-26T13:06:59.414Z</time></trkpt><trkpt lat="42.268825" lon="14.1499333"><ele>278.0</ele><time>2026-04-26T13:07:00.417Z</time></trkpt><trkpt lat="42.26893" lon="14.14992"><ele>278.0</ele><time>2026-04-26T13:07:02.474Z</time></trkpt><trkpt lat="42.26904" lon="14.1499533"><ele>278.0</ele><time>2026-04-26T13:07:04.408Z</time></trkpt><trkpt lat="42.2691" lon="14.14998"><ele>278.0</ele><time>2026-04-26T13:07:05.418Z</time></trkpt><trkpt lat="42.26921" lon="14.150025"><ele>278.0</ele><time>2026-04-26T13:07:07.412Z</time></trkpt><trkpt lat="42.269275" lon="14.1500733"><ele>277.2</ele><time>2026-04-26T13:07:09.409Z</time></trkpt><trkpt lat="42.2693467" lon="14.15014"><ele>276.4</ele><time>2026-04-26T13:07:24.404Z</time></trkpt><trkpt lat="42.2694417" lon="14.1501117"><ele>275.59999999999997</ele><time>2026-04-26T13:07:26.475Z</time></trkpt><trkpt lat="42.26956" lon="14.1500433"><ele>274.8</ele><time>2026-04-26T13:07:28.414Z</time></trkpt><trkpt lat="42.2696233" lon="14.15002"><ele>274.0</ele><time>2026-04-26T13:07:29.417Z</time></trkpt><trkpt lat="42.2697483" lon="14.1500183"><ele>275.16666666666663</ele><time>2026-04-26T13:07:31.41Z</time></trkpt><trkpt lat="42.2698133" lon="14.150035"><ele>276.3333333333333</ele><time>2026-04-26T13:07:32.461Z</time></trkpt><trkpt lat="42.2698817" lon="14.150055"><ele>277.5</ele><time>2026-04-26T13:07:33.405Z</time></trkpt><trkpt lat="42.2699517" lon="14.1500733"><ele>278.6666666666667</ele><time>2026-04-26T13:07:34.411Z</time></trkpt><trkpt lat="42.27007" lon="14.1500933"><ele>279.83333333333337</ele><time>2026-04-26T13:07:36.407Z</time></trkpt><trkpt lat="42.2701667" lon="14.1501"><ele>281.0</ele><time>2026-04-26T13:07:38.46Z</time></trkpt><trkpt lat="42.2702433" lon="14.1501217"><ele>281.0</ele><time>2026-04-26T13:07:40.413Z</time></trkpt><trkpt lat="42.2702983" lon="14.1501717"><ele>281.0</ele><time>2026-04-26T13:07:42.416Z</time></trkpt><trkpt lat="42.270325" lon="14.1502883"><ele>281.0</ele><time>2026-04-26T13:07:44.47Z</time></trkpt><trkpt lat="42.2703367" lon="14.150395"><ele>281.0</ele><time>2026-04-26T13:07:45.413Z</time></trkpt><trkpt lat="42.2703583" lon="14.1505267"><ele>281.0</ele><time>2026-04-26T13:07:46.414Z</time></trkpt><trkpt lat="42.270385" lon="14.1506817"><ele>281.25</ele><time>2026-04-26T13:07:47.405Z</time></trkpt><trkpt lat="42.2704167" lon="14.1508533"><ele>281.5</ele><time>2026-04-26T13:07:48.412Z</time></trkpt><trkpt lat="42.2704483" lon="14.1510367"><ele>281.75</ele><time>2026-04-26T13:07:49.415Z</time></trkpt><trkpt lat="42.2704767" lon="14.15121"><ele>282.0</ele><time>2026-04-26T13:07:50.466Z</time></trkpt><trkpt lat="42.2704867" lon="14.1513567"><ele>282.0</ele><time>2026-04-26T13:07:51.418Z</time></trkpt><trkpt lat="42.2704833" lon="14.1515017"><ele>282.0</ele><time>2026-04-26T13:07:52.416Z</time></trkpt><trkpt lat="42.2704633" lon="14.15166"><ele>282.0</ele><time>2026-04-26T13:07:53.414Z</time></trkpt><trkpt lat="42.2704433" lon="14.151845"><ele>282.0</ele><time>2026-04-26T13:07:54.411Z</time></trkpt><trkpt lat="42.2704333" lon="14.1520267"><ele>282.2</ele><time>2026-04-26T13:07:55.414Z</time></trkpt><trkpt lat="42.2704283" lon="14.1521833"><ele>282.4</ele><time>2026-04-26T13:07:56.466Z</time></trkpt><trkpt lat="42.2704267" lon="14.1523167"><ele>282.6</ele><time>2026-04-26T13:07:57.408Z</time></trkpt><trkpt lat="42.27043" lon="14.15244"><ele>282.8</ele><time>2026-04-26T13:07:58.411Z</time></trkpt><trkpt lat="42.27043" lon="14.1525533"><ele>283.0</ele><time>2026-04-26T13:07:59.415Z</time></trkpt><trkpt lat="42.27043" lon="14.152655"><ele>283.0</ele><time>2026-04-26T13:08:00.411Z</time></trkpt><trkpt lat="42.2703667" lon="14.1527917"><ele>283.0</ele><time>2026-04-26T13:08:02.463Z</time></trkpt><trkpt lat="42.2702617" lon="14.152855"><ele>283.0</ele><time>2026-04-26T13:08:04.41Z</time></trkpt><trkpt lat="42.2701917" lon="14.15289"><ele>283.0</ele><time>2026-04-26T13:08:06.413Z</time></trkpt><trkpt lat="42.2702567" lon="14.1529783"><ele>283.0</ele><time>2026-04-26T13:08:11.412Z</time></trkpt><trkpt lat="42.2703517" lon="14.1529733"><ele>283.0</ele><time>2026-04-26T13:08:13.416Z</time></trkpt><trkpt lat="42.2704583" lon="14.1529417"><ele>283.0</ele><time>2026-04-26T13:08:15.409Z</time></trkpt><trkpt lat="42.27052" lon="14.15292"><ele>283.0</ele><time>2026-04-26T13:08:16.409Z</time></trkpt><trkpt lat="42.2705917" lon="14.15289"><ele>283.0</ele><time>2026-04-26T13:08:17.405Z</time></trkpt><trkpt lat="42.2706733" lon="14.15285"><ele>283.0</ele><time>2026-04-26T13:08:18.407Z</time></trkpt><trkpt lat="42.2707717" lon="14.1527967"><ele>283.0</ele><time>2026-04-26T13:08:19.416Z</time></trkpt><trkpt lat="42.2708833" lon="14.1527383"><ele>282.0</ele><time>2026-04-26T13:08:20.469Z</time></trkpt><trkpt lat="42.271005" lon="14.1526817"><ele>281.0</ele><time>2026-04-26T13:08:21.412Z</time></trkpt><trkpt lat="42.2711317" lon="14.1526183"><ele>280.0</ele><time>2026-04-26T13:08:22.416Z</time></trkpt><trkpt lat="42.271265" lon="14.1525533"><ele>279.0</ele><time>2026-04-26T13:08:23.416Z</time></trkpt><trkpt lat="42.2714033" lon="14.152485"><ele>275.5</ele><time>2026-04-26T13:08:24.408Z</time></trkpt><trkpt lat="42.2715333" lon="14.1524167"><ele>272.0</ele><time>2026-04-26T13:08:25.414Z</time></trkpt><trkpt lat="42.2716583" lon="14.15236"><ele>268.5</ele><time>2026-04-26T13:08:26.459Z</time></trkpt><trkpt lat="42.2717783" lon="14.1523183"><ele>265.0</ele><time>2026-04-26T13:08:27.404Z</time></trkpt><trkpt lat="42.2718967" lon="14.15229"><ele>264.66666666666663</ele><time>2026-04-26T13:08:28.413Z</time></trkpt><trkpt lat="42.2719983" lon="14.1522717"><ele>264.3333333333333</ele><time>2026-04-26T13:08:29.403Z</time></trkpt><trkpt lat="42.27207" lon="14.1522617"><ele>264.0</ele><time>2026-04-26T13:08:30.405Z</time></trkpt><trkpt lat="42.27217" lon="14.1522383"><ele>263.6666666666667</ele><time>2026-04-26T13:08:32.468Z</time></trkpt><trkpt lat="42.272245" lon="14.152215"><ele>263.33333333333337</ele><time>2026-04-26T13:08:35.42Z</time></trkpt><trkpt lat="42.2722033" lon="14.1522933"><ele>263.0</ele><time>2026-04-26T13:08:39.408Z</time></trkpt><trkpt lat="42.2720867" lon="14.1522983"><ele>263.0</ele><time>2026-04-26T13:08:41.411Z</time></trkpt><trkpt lat="42.2720167" lon="14.1522967"><ele>263.0</ele><time>2026-04-26T13:08:42.41Z</time></trkpt><trkpt lat="42.2719517" lon="14.152295"><ele>263.0</ele><time>2026-04-26T13:08:43.414Z</time></trkpt><trkpt lat="42.2718283" lon="14.152305"><ele>263.0</ele><time>2026-04-26T13:08:45.41Z</time></trkpt><trkpt lat="42.2717633" lon="14.1523117"><ele>263.0</ele><time>2026-04-26T13:08:46.408Z</time></trkpt><trkpt lat="42.2717" lon="14.1523267"><ele>263.0</ele><time>2026-04-26T13:08:47.416Z</time></trkpt><trkpt lat="42.271635" lon="14.1523533"><ele>263.33333333333337</ele><time>2026-04-26T13:08:48.408Z</time></trkpt><trkpt lat="42.2715717" lon="14.1523817"><ele>263.6666666666667</ele><time>2026-04-26T13:08:49.414Z</time></trkpt><trkpt lat="42.2715" lon="14.1524117"><ele>264.0</ele><time>2026-04-26T13:08:50.469Z</time></trkpt><trkpt lat="42.27142" lon="14.15245"><ele>264.3333333333333</ele><time>2026-04-26T13:08:51.414Z</time></trkpt><trkpt lat="42.27134" lon="14.1524867"><ele>264.66666666666663</ele><time>2026-04-26T13:08:52.417Z</time></trkpt><trkpt lat="42.2712617" lon="14.1525217"><ele>265.0</ele><time>2026-04-26T13:08:53.409Z</time></trkpt><trkpt lat="42.2711867" lon="14.152555"><ele>267.3333333333333</ele><time>2026-04-26T13:08:54.417Z</time></trkpt><trkpt lat="42.271125" lon="14.1525883"><ele>269.66666666666663</ele><time>2026-04-26T13:08:55.404Z</time></trkpt><trkpt lat="42.27106" lon="14.152665"><ele>272.0</ele><time>2026-04-26T13:08:57.41Z</time></trkpt><trkpt lat="42.271155" lon="14.15269"><ele>274.3333333333333</ele><time>2026-04-26T13:09:05.408Z</time></trkpt><trkpt lat="42.271265" lon="14.15266"><ele>276.6666666666667</ele><time>2026-04-26T13:09:07.413Z</time></trkpt><trkpt lat="42.2713317" lon="14.152655"><ele>279.0</ele><time>2026-04-26T13:09:08.465Z</time></trkpt><trkpt lat="42.2713983" lon="14.152655"><ele>276.6666666666667</ele><time>2026-04-26T13:09:09.415Z</time></trkpt><trkpt lat="42.2714683" lon="14.1526567"><ele>274.3333333333333</ele><time>2026-04-26T13:09:10.413Z</time></trkpt><trkpt lat="42.2715433" lon="14.1526567"><ele>272.0</ele><time>2026-04-26T13:09:11.412Z</time></trkpt><trkpt lat="42.2716167" lon="14.15265"><ele>269.66666666666663</ele><time>2026-04-26T13:09:12.408Z</time></trkpt><trkpt lat="42.271685" lon="14.1526367"><ele>267.3333333333333</ele><time>2026-04-26T13:09:13.415Z</time></trkpt><trkpt lat="42.2717983" lon="14.1526433"><ele>265.0</ele><time>2026-04-26T13:09:15.409Z</time></trkpt><trkpt lat="42.2718583" lon="14.1526733"><ele>265.0</ele><time>2026-04-26T13:09:16.404Z</time></trkpt><trkpt lat="42.2719217" lon="14.152725"><ele>265.0</ele><time>2026-04-26T13:09:17.415Z</time></trkpt><trkpt lat="42.2719867" lon="14.1528067"><ele>265.0</ele><time>2026-04-26T13:09:18.417Z</time></trkpt><trkpt lat="42.2720483" lon="14.152895"><ele>265.0</ele><time>2026-04-26T13:09:19.403Z</time></trkpt><trkpt lat="42.2721017" lon="14.152975"><ele>265.0</ele><time>2026-04-26T13:09:20.463Z</time></trkpt><trkpt lat="42.2721517" lon="14.1530633"><ele>265.0</ele><time>2026-04-26T13:09:21.411Z</time></trkpt><trkpt lat="42.2721967" lon="14.1531583"><ele>263.0</ele><time>2026-04-26T13:09:22.404Z</time></trkpt><trkpt lat="42.2722533" lon="14.153255"><ele>261.0</ele><time>2026-04-26T13:09:23.405Z</time></trkpt><trkpt lat="42.2723217" lon="14.1533517"><ele>259.0</ele><time>2026-04-26T13:09:24.407Z</time></trkpt><trkpt lat="42.2723883" lon="14.1534483"><ele>257.0</ele><time>2026-04-26T13:09:25.406Z</time></trkpt><trkpt lat="42.2724533" lon="14.1535383"><ele>255.0</ele><time>2026-04-26T13:09:26.46Z</time></trkpt><trkpt lat="42.272525" lon="14.1536283"><ele>252.83333333333334</ele><time>2026-04-26T13:09:27.406Z</time></trkpt><trkpt lat="42.2725883" lon="14.1537217"><ele>250.66666666666669</ele><time>2026-04-26T13:09:28.41Z</time></trkpt><trkpt lat="42.2726367" lon="14.153805"><ele>248.5</ele><time>2026-04-26T13:09:29.412Z</time></trkpt><trkpt lat="42.2726883" lon="14.153875"><ele>246.33333333333334</ele><time>2026-04-26T13:09:30.414Z</time></trkpt><trkpt lat="42.2727483" lon="14.1539433"><ele>244.16666666666669</ele><time>2026-04-26T13:09:31.417Z</time></trkpt><trkpt lat="42.2728217" lon="14.154015"><ele>242.0</ele><time>2026-04-26T13:09:32.463Z</time></trkpt><trkpt lat="42.2728983" lon="14.154085"><ele>239.39999999999998</ele><time>2026-04-26T13:09:33.407Z</time></trkpt><trkpt lat="42.2729933" lon="14.15415"><ele>236.79999999999998</ele><time>2026-04-26T13:09:34.402Z</time></trkpt><trkpt lat="42.2730967" lon="14.1542083"><ele>234.2</ele><time>2026-04-26T13:09:35.414Z</time></trkpt><trkpt lat="42.2731883" lon="14.1542633"><ele>231.6</ele><time>2026-04-26T13:09:36.41Z</time></trkpt><trkpt lat="42.273265" lon="14.1543133"><ele>229.0</ele><time>2026-04-26T13:09:37.411Z</time></trkpt><trkpt lat="42.27333" lon="14.1543717"><ele>226.49999999999997</ele><time>2026-04-26T13:09:38.469Z</time></trkpt><trkpt lat="42.2733817" lon="14.1544533"><ele>224.0</ele><time>2026-04-26T13:09:39.415Z</time></trkpt><trkpt lat="42.2734233" lon="14.1545517"><ele>221.5</ele><time>2026-04-26T13:09:40.413Z</time></trkpt><trkpt lat="42.2734467" lon="14.154655"><ele>219.0</ele><time>2026-04-26T13:09:41.412Z</time></trkpt><trkpt lat="42.273465" lon="14.154755"><ele>216.49999999999997</ele><time>2026-04-26T13:09:42.417Z</time></trkpt><trkpt lat="42.27348" lon="14.1548483"><ele>214.0</ele><time>2026-04-26T13:09:43.416Z</time></trkpt><trkpt lat="42.273505" lon="14.1549383"><ele>211.49999999999997</ele><time>2026-04-26T13:09:44.465Z</time></trkpt><trkpt lat="42.27355" lon="14.15502"><ele>209.0</ele><time>2026-04-26T13:09:45.414Z</time></trkpt><trkpt lat="42.273605" lon="14.1550883"><ele>206.5</ele><time>2026-04-26T13:09:46.411Z</time></trkpt><trkpt lat="42.27368" lon="14.1551467"><ele>204.0</ele><time>2026-04-26T13:09:47.414Z</time></trkpt><trkpt lat="42.273755" lon="14.1551783"><ele>201.49999999999997</ele><time>2026-04-26T13:09:48.408Z</time></trkpt><trkpt lat="42.27382" lon="14.1552217"><ele>199.0</ele><time>2026-04-26T13:09:49.411Z</time></trkpt><trkpt lat="42.273875" lon="14.1552883"><ele>198.99999999999997</ele><time>2026-04-26T13:09:50.454Z</time></trkpt><trkpt lat="42.2739283" lon="14.1553767"><ele>199.0</ele><time>2026-04-26T13:09:51.408Z</time></trkpt><trkpt lat="42.2739783" lon="14.1554633"><ele>199.0</ele><time>2026-04-26T13:09:52.414Z</time></trkpt><trkpt lat="42.2740317" lon="14.155535"><ele>199.0</ele><time>2026-04-26T13:09:53.413Z</time></trkpt><trkpt lat="42.274095" lon="14.1555833"><ele>198.99999999999997</ele><time>2026-04-26T13:09:54.415Z</time></trkpt><trkpt lat="42.2741883" lon="14.155665"><ele>199.0</ele><time>2026-04-26T13:09:56.472Z</time></trkpt><trkpt lat="42.27425" lon="14.1558167"><ele>196.83333333333331</ele><time>2026-04-26T13:09:58.415Z</time></trkpt><trkpt lat="42.274275" lon="14.1559317"><ele>194.66666666666666</ele><time>2026-04-26T13:09:59.415Z</time></trkpt><trkpt lat="42.27431" lon="14.1560533"><ele>192.5</ele><time>2026-04-26T13:10:00.412Z</time></trkpt><trkpt lat="42.2743517" lon="14.1561717"><ele>190.33333333333331</ele><time>2026-04-26T13:10:01.415Z</time></trkpt><trkpt lat="42.2743933" lon="14.1562767"><ele>188.16666666666666</ele><time>2026-04-26T13:10:02.458Z</time></trkpt><trkpt lat="42.2744183" lon="14.1563633"><ele>186.0</ele><time>2026-04-26T13:10:03.406Z</time></trkpt><trkpt lat="42.2744467" lon="14.156445"><ele>182.60000000000002</ele><time>2026-04-26T13:10:04.41Z</time></trkpt><trkpt lat="42.2745217" lon="14.1565583"><ele>179.2</ele><time>2026-04-26T13:10:06.412Z</time></trkpt><trkpt lat="42.2746167" lon="14.1566433"><ele>175.8</ele><time>2026-04-26T13:10:08.46Z</time></trkpt><trkpt lat="42.2746917" lon="14.1566667"><ele>172.39999999999998</ele><time>2026-04-26T13:10:10.412Z</time></trkpt><trkpt lat="42.2747583" lon="14.156645"><ele>169.0</ele><time>2026-04-26T13:10:12.41Z</time></trkpt><trkpt lat="42.2748467" lon="14.1566167"><ele>170.0</ele><time>2026-04-26T13:10:14.468Z</time></trkpt><trkpt lat="42.2749433" lon="14.1566083"><ele>171.0</ele><time>2026-04-26T13:10:16.409Z</time></trkpt><trkpt lat="42.275035" lon="14.1566"><ele>172.0</ele><time>2026-04-26T13:10:18.421Z</time></trkpt><trkpt lat="42.2751417" lon="14.15657"><ele>173.0</ele><time>2026-04-26T13:10:20.469Z</time></trkpt><trkpt lat="42.275235" lon="14.156515"><ele>174.0</ele><time>2026-04-26T13:10:22.404Z</time></trkpt><trkpt lat="42.275305" lon="14.1564683"><ele>174.0</ele><time>2026-04-26T13:10:24.414Z</time></trkpt><trkpt lat="42.2753667" lon="14.156435"><ele>174.0</ele><time>2026-04-26T13:10:26.47Z</time></trkpt><trkpt lat="42.2754367" lon="14.1564283"><ele>174.0</ele><time>2026-04-26T13:10:28.409Z</time></trkpt><trkpt lat="42.275495" lon="14.1564867"><ele>174.0</ele><time>2026-04-26T13:10:30.415Z</time></trkpt><trkpt lat="42.2755383" lon="14.15659"><ele>174.0</ele><time>2026-04-26T13:10:32.464Z</time></trkpt><trkpt lat="42.2755617" lon="14.1566783"><ele>174.0</ele><time>2026-04-26T13:10:33.407Z</time></trkpt><trkpt lat="42.2756067" lon="14.1567583"><ele>174.0</ele><time>2026-04-26T13:10:35.408Z</time></trkpt><trkpt lat="42.2756867" lon="14.1567567"><ele>172.39999999999998</ele><time>2026-04-26T13:10:37.41Z</time></trkpt><trkpt lat="42.2757983" lon="14.1566667"><ele>170.8</ele><time>2026-04-26T13:10:39.409Z</time></trkpt><trkpt lat="42.27586" lon="14.1566"><ele>169.2</ele><time>2026-04-26T13:10:40.418Z</time></trkpt><trkpt lat="42.2759283" lon="14.156535"><ele>167.60000000000002</ele><time>2026-04-26T13:10:41.407Z</time></trkpt><trkpt lat="42.2760083" lon="14.1564717"><ele>166.0</ele><time>2026-04-26T13:10:42.414Z</time></trkpt><trkpt lat="42.2761033" lon="14.1564167"><ele>166.0</ele><time>2026-04-26T13:10:43.411Z</time></trkpt><trkpt lat="42.2762117" lon="14.1563517"><ele>166.0</ele><time>2026-04-26T13:10:44.464Z</time></trkpt><trkpt lat="42.2763283" lon="14.15628"><ele>166.0</ele><time>2026-04-26T13:10:45.412Z</time></trkpt><trkpt lat="42.27644" lon="14.1562083"><ele>166.0</ele><time>2026-04-26T13:10:46.404Z</time></trkpt><trkpt lat="42.27655" lon="14.1561367"><ele>163.5</ele><time>2026-04-26T13:10:47.412Z</time></trkpt><trkpt lat="42.2766667" lon="14.1560683"><ele>161.0</ele><time>2026-04-26T13:10:48.414Z</time></trkpt><trkpt lat="42.2767833" lon="14.156005"><ele>158.5</ele><time>2026-04-26T13:10:49.418Z</time></trkpt><trkpt lat="42.27691" lon="14.1559433"><ele>156.0</ele><time>2026-04-26T13:10:50.465Z</time></trkpt><trkpt lat="42.27704" lon="14.1558733"><ele>156.0</ele><time>2026-04-26T13:10:51.407Z</time></trkpt><trkpt lat="42.2771667" lon="14.155805"><ele>156.0</ele><time>2026-04-26T13:10:52.409Z</time></trkpt><trkpt lat="42.2772733" lon="14.1557417"><ele>156.0</ele><time>2026-04-26T13:10:53.415Z</time></trkpt><trkpt lat="42.27737" lon="14.1556783"><ele>156.0</ele><time>2026-04-26T13:10:54.413Z</time></trkpt><trkpt lat="42.27747" lon="14.15562"><ele>156.0</ele><time>2026-04-26T13:10:55.413Z</time></trkpt><trkpt lat="42.27758" lon="14.1555467"><ele>156.0</ele><time>2026-04-26T13:10:56.467Z</time></trkpt><trkpt lat="42.2777117" lon="14.1554617"><ele>156.0</ele><time>2026-04-26T13:10:57.413Z</time></trkpt><trkpt lat="42.2778583" lon="14.1553733"><ele>156.0</ele><time>2026-04-26T13:10:58.413Z</time></trkpt><trkpt lat="42.2779983" lon="14.1552883"><ele>152.5</ele><time>2026-04-26T13:10:59.416Z</time></trkpt><trkpt lat="42.27813" lon="14.1552117"><ele>149.0</ele><time>2026-04-26T13:11:00.421Z</time></trkpt><trkpt lat="42.2782583" lon="14.1551417"><ele>145.5</ele><time>2026-04-26T13:11:01.409Z</time></trkpt><trkpt lat="42.2783833" lon="14.1550833"><ele>142.0</ele><time>2026-04-26T13:11:02.465Z</time></trkpt><trkpt lat="42.2785083" lon="14.1550267"><ele>142.0</ele><time>2026-04-26T13:11:03.406Z</time></trkpt><trkpt lat="42.2786267" lon="14.1549583"><ele>142.0</ele><time>2026-04-26T13:11:04.407Z</time></trkpt><trkpt lat="42.2787383" lon="14.1548817"><ele>142.0</ele><time>2026-04-26T13:11:05.412Z</time></trkpt><trkpt lat="42.2788533" lon="14.1547933"><ele>142.0</ele><time>2026-04-26T13:11:06.409Z</time></trkpt><trkpt lat="42.2789683" lon="14.1547083"><ele>141.75</ele><time>2026-04-26T13:11:07.414Z</time></trkpt><trkpt lat="42.2790883" lon="14.154625"><ele>141.5</ele><time>2026-04-26T13:11:08.469Z</time></trkpt><trkpt lat="42.2792167" lon="14.1545433"><ele>141.25</ele><time>2026-04-26T13:11:09.413Z</time></trkpt><trkpt lat="42.27936" lon="14.1544583"><ele>141.0</ele><time>2026-04-26T13:11:10.411Z</time></trkpt><trkpt lat="42.2795" lon="14.154375"><ele>141.0</ele><time>2026-04-26T13:11:11.415Z</time></trkpt><trkpt lat="42.2796333" lon="14.154295"><ele>141.0</ele><time>2026-04-26T13:11:12.411Z</time></trkpt><trkpt lat="42.279775" lon="14.154215"><ele>141.0</ele><time>2026-04-26T13:11:13.414Z</time></trkpt><trkpt lat="42.2799333" lon="14.1541267"><ele>141.66666666666666</ele><time>2026-04-26T13:11:14.458Z</time></trkpt><trkpt lat="42.2800967" lon="14.15404"><ele>142.33333333333331</ele><time>2026-04-26T13:11:15.406Z</time></trkpt><trkpt lat="42.2802483" lon="14.1539533"><ele>143.0</ele><time>2026-04-26T13:11:16.408Z</time></trkpt><trkpt lat="42.2803817" lon="14.153865"><ele>143.0</ele><time>2026-04-26T13:11:17.414Z</time></trkpt><trkpt lat="42.2805033" lon="14.1537833"><ele>143.0</ele><time>2026-04-26T13:11:18.416Z</time></trkpt><trkpt lat="42.28062" lon="14.1537083"><ele>143.0</ele><time>2026-04-26T13:11:19.412Z</time></trkpt><trkpt lat="42.28075" lon="14.15364"><ele>143.0</ele><time>2026-04-26T13:11:20.461Z</time></trkpt><trkpt lat="42.2808883" lon="14.1535817"><ele>140.5</ele><time>2026-04-26T13:11:21.407Z</time></trkpt><trkpt lat="42.2810217" lon="14.1535317"><ele>138.0</ele><time>2026-04-26T13:11:22.41Z</time></trkpt><trkpt lat="42.28114" lon="14.1534983"><ele>135.5</ele><time>2026-04-26T13:11:23.405Z</time></trkpt><trkpt lat="42.281245" lon="14.1534767"><ele>133.0</ele><time>2026-04-26T13:11:24.409Z</time></trkpt><trkpt lat="42.2813433" lon="14.1534517"><ele>130.8</ele><time>2026-04-26T13:11:25.413Z</time></trkpt><trkpt lat="42.281435" lon="14.1534067"><ele>128.60000000000002</ele><time>2026-04-26T13:11:26.471Z</time></trkpt><trkpt lat="42.2815167" lon="14.153345"><ele>126.39999999999999</ele><time>2026-04-26T13:11:27.407Z</time></trkpt><trkpt lat="42.2815983" lon="14.15327"><ele>124.19999999999999</ele><time>2026-04-26T13:11:28.414Z</time></trkpt><trkpt lat="42.28169" lon="14.153195"><ele>122.0</ele><time>2026-04-26T13:11:29.409Z</time></trkpt><trkpt lat="42.2817917" lon="14.1531233"><ele>121.5</ele><time>2026-04-26T13:11:30.405Z</time></trkpt><trkpt lat="42.28192" lon="14.153065"><ele>121.0</ele><time>2026-04-26T13:11:31.416Z</time></trkpt><trkpt lat="42.2820467" lon="14.1530133"><ele>120.5</ele><time>2026-04-26T13:11:32.465Z</time></trkpt><trkpt lat="42.282165" lon="14.1529667"><ele>120.0</ele><time>2026-04-26T13:11:33.413Z</time></trkpt><trkpt lat="42.2822817" lon="14.15293"><ele>119.5</ele><time>2026-04-26T13:11:34.406Z</time></trkpt><trkpt lat="42.2823483" lon="14.1529317"><ele>119.0</ele><time>2026-04-26T13:11:35.412Z</time></trkpt><trkpt lat="42.282445" lon="14.1529267"><ele>118.5</ele><time>2026-04-26T13:11:37.415Z</time></trkpt><trkpt lat="42.2824917" lon="14.15284"><ele>118.0</ele><time>2026-04-26T13:11:41.416Z</time></trkpt><trkpt lat="42.282475" lon="14.152695"><ele>117.5</ele><time>2026-04-26T13:11:43.405Z</time></trkpt><trkpt lat="42.28245" lon="14.1525867"><ele>117.0</ele><time>2026-04-26T13:11:44.464Z</time></trkpt><trkpt lat="42.2824133" lon="14.1524533"><ele>117.33333333333333</ele><time>2026-04-26T13:11:45.407Z</time></trkpt><trkpt lat="42.2823733" lon="14.152325"><ele>117.66666666666666</ele><time>2026-04-26T13:11:46.41Z</time></trkpt><trkpt lat="42.2823333" lon="14.1522133"><ele>118.0</ele><time>2026-04-26T13:11:47.413Z</time></trkpt><trkpt lat="42.2823017" lon="14.15213"><ele>118.33333333333333</ele><time>2026-04-26T13:11:50.463Z</time></trkpt><trkpt lat="42.2824067" lon="14.1520983"><ele>118.66666666666666</ele><time>2026-04-26T13:11:53.414Z</time></trkpt><trkpt lat="42.282475" lon="14.1520983"><ele>119.0</ele><time>2026-04-26T13:11:54.411Z</time></trkpt><trkpt lat="42.2825617" lon="14.1520983"><ele>119.0</ele><time>2026-04-26T13:11:55.403Z</time></trkpt><trkpt lat="42.28267" lon="14.1521067"><ele>119.0</ele><time>2026-04-26T13:11:56.463Z</time></trkpt><trkpt lat="42.2827833" lon="14.1521117"><ele>119.0</ele><time>2026-04-26T13:11:57.412Z</time></trkpt><trkpt lat="42.28288" lon="14.1521"><ele>119.0</ele><time>2026-04-26T13:11:58.418Z</time></trkpt><trkpt lat="42.2829667" lon="14.15207"><ele>119.0</ele><time>2026-04-26T13:11:59.415Z</time></trkpt><trkpt lat="42.28304" lon="14.152015"><ele>119.0</ele><time>2026-04-26T13:12:00.42Z</time></trkpt><trkpt lat="42.2830933" lon="14.151925"><ele>119.0</ele><time>2026-04-26T13:12:01.417Z</time></trkpt><trkpt lat="42.2831133" lon="14.1517567"><ele>119.0</ele><time>2026-04-26T13:12:02.466Z</time></trkpt><trkpt lat="42.28314" lon="14.151585"><ele>119.0</ele><time>2026-04-26T13:12:03.411Z</time></trkpt><trkpt lat="42.2831583" lon="14.1514233"><ele>122.6</ele><time>2026-04-26T13:12:04.412Z</time></trkpt><trkpt lat="42.2831783" lon="14.15129"><ele>126.2</ele><time>2026-04-26T13:12:05.413Z</time></trkpt><trkpt lat="42.2831917" lon="14.15118"><ele>129.79999999999998</ele><time>2026-04-26T13:12:06.418Z</time></trkpt><trkpt lat="42.2831967" lon="14.1510467"><ele>133.4</ele><time>2026-04-26T13:12:08.465Z</time></trkpt><trkpt lat="42.2831583" lon="14.1509417"><ele>137.0</ele><time>2026-04-26T13:12:11.414Z</time></trkpt><trkpt lat="42.2831367" lon="14.1508233"><ele>136.0</ele><time>2026-04-26T13:12:13.411Z</time></trkpt><trkpt lat="42.2830917" lon="14.1506583"><ele>135.0</ele><time>2026-04-26T13:12:15.41Z</time></trkpt><trkpt lat="42.2830567" lon="14.150555"><ele>134.0</ele><time>2026-04-26T13:12:16.401Z</time></trkpt><trkpt lat="42.28302" lon="14.1504433"><ele>133.0</ele><time>2026-04-26T13:12:17.407Z</time></trkpt><trkpt lat="42.2829833" lon="14.150335"><ele>132.0</ele><time>2026-04-26T13:12:18.417Z</time></trkpt><trkpt lat="42.2829533" lon="14.150235"><ele>132.0</ele><time>2026-04-26T13:12:19.404Z</time></trkpt><trkpt lat="42.2829317" lon="14.150095"><ele>132.0</ele><time>2026-04-26T13:12:21.407Z</time></trkpt><trkpt lat="42.282905" lon="14.1501967"><ele>132.0</ele><time>2026-04-26T13:12:41.415Z</time></trkpt><trkpt lat="42.2829467" lon="14.1503267"><ele>132.0</ele><time>2026-04-26T13:12:43.412Z</time></trkpt><trkpt lat="42.283005" lon="14.1504567"><ele>132.0</ele><time>2026-04-26T13:12:45.404Z</time></trkpt><trkpt lat="42.283065" lon="14.150565"><ele>132.83333333333334</ele><time>2026-04-26T13:12:47.413Z</time></trkpt><trkpt lat="42.283115" lon="14.1506933"><ele>133.66666666666666</ele><time>2026-04-26T13:12:49.406Z</time></trkpt><trkpt lat="42.2831333" lon="14.150815"><ele>134.5</ele><time>2026-04-26T13:12:51.415Z</time></trkpt><trkpt lat="42.2831117" lon="14.1508983"><ele>135.33333333333331</ele><time>2026-04-26T13:12:54.411Z</time></trkpt><trkpt lat="42.2830267" lon="14.1508717"><ele>136.16666666666666</ele><time>2026-04-26T13:12:57.407Z</time></trkpt><trkpt lat="42.282965" lon="14.1508283"><ele>137.0</ele><time>2026-04-26T13:12:58.417Z</time></trkpt><trkpt lat="42.2828917" lon="14.1507783"><ele>136.0</ele><time>2026-04-26T13:12:59.418Z</time></trkpt><trkpt lat="42.282815" lon="14.1507217"><ele>135.0</ele><time>2026-04-26T13:13:00.417Z</time></trkpt><trkpt lat="42.2827383" lon="14.1506467"><ele>134.0</ele><time>2026-04-26T13:13:01.412Z</time></trkpt><trkpt lat="42.2826617" lon="14.1505533"><ele>133.0</ele><time>2026-04-26T13:13:02.459Z</time></trkpt><trkpt lat="42.2825817" lon="14.15044"><ele>132.0</ele><time>2026-04-26T13:13:03.404Z</time></trkpt><trkpt lat="42.2824967" lon="14.1503"><ele>132.0</ele><time>2026-04-26T13:13:04.402Z</time></trkpt><trkpt lat="42.2824033" lon="14.150125"><ele>132.0</ele><time>2026-04-26T13:13:05.412Z</time></trkpt><trkpt lat="42.2823033" lon="14.1499367"><ele>132.0</ele><time>2026-04-26T13:13:06.41Z</time></trkpt><trkpt lat="42.2822017" lon="14.1497417"><ele>129.33333333333334</ele><time>2026-04-26T13:13:07.411Z</time></trkpt><trkpt lat="42.2820933" lon="14.1495333"><ele>126.66666666666667</ele><time>2026-04-26T13:13:08.463Z</time></trkpt><trkpt lat="42.2819767" lon="14.1493117"><ele>124.0</ele><time>2026-04-26T13:13:09.41Z</time></trkpt><trkpt lat="42.2818567" lon="14.1490817"><ele>125.33333333333334</ele><time>2026-04-26T13:13:10.411Z</time></trkpt><trkpt lat="42.28174" lon="14.1488533"><ele>126.66666666666666</ele><time>2026-04-26T13:13:11.41Z</time></trkpt><trkpt lat="42.2816217" lon="14.1486183"><ele>128.0</ele><time>2026-04-26T13:13:12.41Z</time></trkpt><trkpt lat="42.2815083" lon="14.1483833"><ele>126.0</ele><time>2026-04-26T13:13:13.405Z</time></trkpt><trkpt lat="42.2814067" lon="14.1481617"><ele>124.0</ele><time>2026-04-26T13:13:14.463Z</time></trkpt><trkpt lat="42.2813133" lon="14.147945"><ele>122.0</ele><time>2026-04-26T13:13:15.409Z</time></trkpt><trkpt lat="42.281235" lon="14.1477533"><ele>122.0</ele><time>2026-04-26T13:13:16.409Z</time></trkpt><trkpt lat="42.281175" lon="14.1475967"><ele>121.99999999999999</ele><time>2026-04-26T13:13:17.406Z</time></trkpt><trkpt lat="42.28113" lon="14.1474667"><ele>121.99999999999999</ele><time>2026-04-26T13:13:18.41Z</time></trkpt><trkpt lat="42.281095" lon="14.1473533"><ele>122.0</ele><time>2026-04-26T13:13:19.413Z</time></trkpt><trkpt lat="42.281065" lon="14.1472567"><ele>122.0</ele><time>2026-04-26T13:13:20.465Z</time></trkpt><trkpt lat="42.28104" lon="14.1471783"><ele>121.99999999999999</ele><time>2026-04-26T13:13:21.409Z</time></trkpt><trkpt lat="42.2810017" lon="14.1470933"><ele>122.0</ele><time>2026-04-26T13:13:23.405Z</time></trkpt><trkpt lat="42.2810067" lon="14.1472117"><ele>122.0</ele><time>2026-04-26T13:13:26.45Z</time></trkpt><trkpt lat="42.2810383" lon="14.1472983"><ele>122.0</ele><time>2026-04-26T13:13:27.416Z</time></trkpt><trkpt lat="42.28107" lon="14.14738"><ele>121.99999999999999</ele><time>2026-04-26T13:13:28.402Z</time></trkpt><trkpt lat="42.2811167" lon="14.1475"><ele>122.0</ele><time>2026-04-26T13:13:30.406Z</time></trkpt><trkpt lat="42.2811517" lon="14.1475883"><ele>121.99999999999999</ele><time>2026-04-26T13:13:34.407Z</time></trkpt><trkpt lat="42.281215" lon="14.14757"><ele>122.0</ele><time>2026-04-26T13:13:37.418Z</time></trkpt><trkpt lat="42.2813033" lon="14.1474883"><ele>122.0</ele><time>2026-04-26T13:13:39.404Z</time></trkpt><trkpt lat="42.2813633" lon="14.1474317"><ele>122.0</ele><time>2026-04-26T13:13:40.405Z</time></trkpt><trkpt lat="42.2814167" lon="14.1473683"><ele>121.99999999999999</ele><time>2026-04-26T13:13:41.405Z</time></trkpt><trkpt lat="42.281465" lon="14.1473017"><ele>122.0</ele><time>2026-04-26T13:13:42.413Z</time></trkpt><trkpt lat="42.2815083" lon="14.1472167"><ele>123.49999999999999</ele><time>2026-04-26T13:13:43.413Z</time></trkpt><trkpt lat="42.2815483" lon="14.147115"><ele>125.0</ele><time>2026-04-26T13:13:44.457Z</time></trkpt><trkpt lat="42.281585" lon="14.147015"><ele>126.5</ele><time>2026-04-26T13:13:45.408Z</time></trkpt><trkpt lat="42.2815983" lon="14.146915"><ele>128.0</ele><time>2026-04-26T13:13:46.411Z</time></trkpt><trkpt lat="42.2816" lon="14.1468183"><ele>129.5</ele><time>2026-04-26T13:13:47.408Z</time></trkpt><trkpt lat="42.2815817" lon="14.1466583"><ele>131.0</ele><time>2026-04-26T13:13:49.416Z</time></trkpt><trkpt lat="42.2815433" lon="14.146445"><ele>131.2</ele><time>2026-04-26T13:13:51.404Z</time></trkpt><trkpt lat="42.2815117" lon="14.14629"><ele>131.39999999999998</ele><time>2026-04-26T13:13:52.411Z</time></trkpt><trkpt lat="42.2814767" lon="14.14613"><ele>131.6</ele><time>2026-04-26T13:13:53.411Z</time></trkpt><trkpt lat="42.2814433" lon="14.1459867"><ele>131.79999999999998</ele><time>2026-04-26T13:13:54.406Z</time></trkpt><trkpt lat="42.28141" lon="14.145875"><ele>132.0</ele><time>2026-04-26T13:13:55.41Z</time></trkpt><trkpt lat="42.281375" lon="14.1457567"><ele>133.66666666666666</ele><time>2026-04-26T13:13:56.468Z</time></trkpt><trkpt lat="42.28133" lon="14.1456333"><ele>135.33333333333334</ele><time>2026-04-26T13:13:57.401Z</time></trkpt><trkpt lat="42.281275" lon="14.1455167"><ele>137.0</ele><time>2026-04-26T13:13:58.406Z</time></trkpt><trkpt lat="42.28123" lon="14.145415"><ele>138.66666666666669</ele><time>2026-04-26T13:13:59.407Z</time></trkpt><trkpt lat="42.2811983" lon="14.1453117"><ele>140.33333333333334</ele><time>2026-04-26T13:14:00.407Z</time></trkpt><trkpt lat="42.2811917" lon="14.1452167"><ele>142.0</ele><time>2026-04-26T13:14:01.411Z</time></trkpt><trkpt lat="42.28119" lon="14.14511"><ele>142.0</ele><time>2026-04-26T13:14:02.47Z</time></trkpt><trkpt lat="42.281195" lon="14.1449883"><ele>142.0</ele><time>2026-04-26T13:14:03.409Z</time></trkpt><trkpt lat="42.2812083" lon="14.1448533"><ele>142.0</ele><time>2026-04-26T13:14:04.411Z</time></trkpt><trkpt lat="42.2812217" lon="14.1447183"><ele>142.0</ele><time>2026-04-26T13:14:05.407Z</time></trkpt><trkpt lat="42.281235" lon="14.1445867"><ele>142.0</ele><time>2026-04-26T13:14:06.412Z</time></trkpt><trkpt lat="42.281245" lon="14.1444533"><ele>143.6</ele><time>2026-04-26T13:14:07.41Z</time></trkpt><trkpt lat="42.2812533" lon="14.1443117"><ele>145.2</ele><time>2026-04-26T13:14:08.465Z</time></trkpt><trkpt lat="42.2812667" lon="14.14417"><ele>146.8</ele><time>2026-04-26T13:14:09.41Z</time></trkpt><trkpt lat="42.2812833" lon="14.1440317"><ele>148.4</ele><time>2026-04-26T13:14:10.404Z</time></trkpt><trkpt lat="42.2813033" lon="14.143895"><ele>150.0</ele><time>2026-04-26T13:14:11.408Z</time></trkpt><trkpt lat="42.2813183" lon="14.1437633"><ele>151.57142857142856</ele><time>2026-04-26T13:14:12.41Z</time></trkpt><trkpt lat="42.2813333" lon="14.1436483"><ele>153.14285714285714</ele><time>2026-04-26T13:14:13.414Z</time></trkpt><trkpt lat="42.2813417" lon="14.1435483"><ele>154.71428571428572</ele><time>2026-04-26T13:14:14.463Z</time></trkpt><trkpt lat="42.2813417" lon="14.1434567"><ele>156.28571428571428</ele><time>2026-04-26T13:14:15.405Z</time></trkpt><trkpt lat="42.2813333" lon="14.1433717"><ele>157.85714285714286</ele><time>2026-04-26T13:14:16.409Z</time></trkpt><trkpt lat="42.2813183" lon="14.1432817"><ele>159.42857142857142</ele><time>2026-04-26T13:14:17.414Z</time></trkpt><trkpt lat="42.281295" lon="14.14319"><ele>161.0</ele><time>2026-04-26T13:14:18.412Z</time></trkpt><trkpt lat="42.2812733" lon="14.1431"><ele>162.8</ele><time>2026-04-26T13:14:19.415Z</time></trkpt><trkpt lat="42.2812467" lon="14.1430133"><ele>164.60000000000002</ele><time>2026-04-26T13:14:20.46Z</time></trkpt><trkpt lat="42.281225" lon="14.1428767"><ele>166.4</ele><time>2026-04-26T13:14:22.415Z</time></trkpt><trkpt lat="42.2812867" lon="14.1427767"><ele>168.2</ele><time>2026-04-26T13:14:24.413Z</time></trkpt><trkpt lat="42.28138" lon="14.14269"><ele>170.0</ele><time>2026-04-26T13:14:26.476Z</time></trkpt><trkpt lat="42.2814767" lon="14.142575"><ele>170.0</ele><time>2026-04-26T13:14:28.415Z</time></trkpt><trkpt lat="42.28154" lon="14.1424667"><ele>170.0</ele><time>2026-04-26T13:14:30.405Z</time></trkpt><trkpt lat="42.2815033" lon="14.142385"><ele>170.0</ele><time>2026-04-26T13:14:32.467Z</time></trkpt><trkpt lat="42.2814033" lon="14.142355"><ele>170.0</ele><time>2026-04-26T13:14:34.412Z</time></trkpt><trkpt lat="42.28128" lon="14.1423217"><ele>170.0</ele><time>2026-04-26T13:14:36.405Z</time></trkpt><trkpt lat="42.28121" lon="14.1422983"><ele>173.66666666666666</ele><time>2026-04-26T13:14:37.414Z</time></trkpt><trkpt lat="42.2811383" lon="14.142265"><ele>177.33333333333331</ele><time>2026-04-26T13:14:38.457Z</time></trkpt><trkpt lat="42.2810717" lon="14.142225"><ele>181.0</ele><time>2026-04-26T13:14:39.407Z</time></trkpt><trkpt lat="42.2810183" lon="14.1421767"><ele>184.66666666666666</ele><time>2026-04-26T13:14:40.409Z</time></trkpt><trkpt lat="42.2809483" lon="14.1420483"><ele>188.33333333333334</ele><time>2026-04-26T13:14:42.407Z</time></trkpt><trkpt lat="42.280915" lon="14.1419"><ele>192.0</ele><time>2026-04-26T13:14:44.467Z</time></trkpt><trkpt lat="42.2808983" lon="14.1418117"><ele>191.99999999999997</ele><time>2026-04-26T13:14:45.408Z</time></trkpt><trkpt lat="42.2808817" lon="14.1417183"><ele>192.0</ele><time>2026-04-26T13:14:46.405Z</time></trkpt><trkpt lat="42.2808667" lon="14.1416217"><ele>192.0</ele><time>2026-04-26T13:14:47.411Z</time></trkpt><trkpt lat="42.2808483" lon="14.1415267"><ele>192.0</ele><time>2026-04-26T13:14:48.41Z</time></trkpt><trkpt lat="42.2808317" lon="14.1414333"><ele>192.0</ele><time>2026-04-26T13:14:49.408Z</time></trkpt><trkpt lat="42.2808167" lon="14.141345"><ele>191.99999999999997</ele><time>2026-04-26T13:14:50.461Z</time></trkpt><trkpt lat="42.2808017" lon="14.1412483"><ele>192.0</ele><time>2026-04-26T13:14:51.412Z</time></trkpt><trkpt lat="42.2807867" lon="14.14114"><ele>192.0</ele><time>2026-04-26T13:14:52.414Z</time></trkpt><trkpt lat="42.2807733" lon="14.1410333"><ele>192.0</ele><time>2026-04-26T13:14:53.411Z</time></trkpt><trkpt lat="42.2807667" lon="14.1409383"><ele>192.0</ele><time>2026-04-26T13:14:54.413Z</time></trkpt><trkpt lat="42.2808067" lon="14.1408417"><ele>192.0</ele><time>2026-04-26T13:14:56.482Z</time></trkpt><trkpt lat="42.2809233" lon="14.1407883"><ele>192.0</ele><time>2026-04-26T13:14:58.414Z</time></trkpt><trkpt lat="42.2810083" lon="14.14076"><ele>192.0</ele><time>2026-04-26T13:14:59.411Z</time></trkpt><trkpt lat="42.2810983" lon="14.1407283"><ele>189.0</ele><time>2026-04-26T13:15:00.402Z</time></trkpt><trkpt lat="42.2811867" lon="14.1406867"><ele>186.0</ele><time>2026-04-26T13:15:01.413Z</time></trkpt><trkpt lat="42.2812717" lon="14.1406483"><ele>183.0</ele><time>2026-04-26T13:15:02.465Z</time></trkpt><trkpt lat="42.281365" lon="14.1406133"><ele>180.0</ele><time>2026-04-26T13:15:03.408Z</time></trkpt><trkpt lat="42.2814567" lon="14.1405717"><ele>177.0</ele><time>2026-04-26T13:15:04.413Z</time></trkpt><trkpt lat="42.2815433" lon="14.140525"><ele>183.39999999999998</ele><time>2026-04-26T13:15:05.415Z</time></trkpt><trkpt lat="42.2816267" lon="14.1404633"><ele>189.79999999999998</ele><time>2026-04-26T13:15:06.417Z</time></trkpt><trkpt lat="42.2817017" lon="14.1403883"><ele>196.2</ele><time>2026-04-26T13:15:07.413Z</time></trkpt><trkpt lat="42.2817783" lon="14.1402967"><ele>202.6</ele><time>2026-04-26T13:15:08.461Z</time></trkpt><trkpt lat="42.2818483" lon="14.1402033"><ele>209.0</ele><time>2026-04-26T13:15:09.407Z</time></trkpt><trkpt lat="42.28191" lon="14.140115"><ele>209.00000000000003</ele><time>2026-04-26T13:15:10.403Z</time></trkpt><trkpt lat="42.2819633" lon="14.14004"><ele>209.0</ele><time>2026-04-26T13:15:11.406Z</time></trkpt><trkpt lat="42.282015" lon="14.1399683"><ele>209.0</ele><time>2026-04-26T13:15:12.407Z</time></trkpt><trkpt lat="42.2820767" lon="14.1398883"><ele>209.0</ele><time>2026-04-26T13:15:13.41Z</time></trkpt><trkpt lat="42.2821467" lon="14.1398"><ele>209.00000000000003</ele><time>2026-04-26T13:15:14.462Z</time></trkpt><trkpt lat="42.2822267" lon="14.1397067"><ele>209.0</ele><time>2026-04-26T13:15:15.409Z</time></trkpt><trkpt lat="42.2823167" lon="14.139605"><ele>210.0</ele><time>2026-04-26T13:15:16.408Z</time></trkpt><trkpt lat="42.28241" lon="14.1394967"><ele>211.0</ele><time>2026-04-26T13:15:17.411Z</time></trkpt><trkpt lat="42.2825017" lon="14.1393833"><ele>212.0</ele><time>2026-04-26T13:15:18.413Z</time></trkpt><trkpt lat="42.28259" lon="14.1392633"><ele>213.0</ele><time>2026-04-26T13:15:19.412Z</time></trkpt><trkpt lat="42.2826733" lon="14.1391467"><ele>211.75</ele><time>2026-04-26T13:15:20.464Z</time></trkpt><trkpt lat="42.282755" lon="14.1390317"><ele>210.5</ele><time>2026-04-26T13:15:21.401Z</time></trkpt><trkpt lat="42.2828333" lon="14.13892"><ele>209.25</ele><time>2026-04-26T13:15:22.41Z</time></trkpt><trkpt lat="42.2829067" lon="14.138805"><ele>208.0</ele><time>2026-04-26T13:15:23.414Z</time></trkpt><trkpt lat="42.2829833" lon="14.1386917"><ele>208.0</ele><time>2026-04-26T13:15:24.412Z</time></trkpt><trkpt lat="42.28306" lon="14.1385783"><ele>208.0</ele><time>2026-04-26T13:15:25.41Z</time></trkpt><trkpt lat="42.2831383" lon="14.1384767"><ele>208.0</ele><time>2026-04-26T13:15:26.479Z</time></trkpt><trkpt lat="42.2832167" lon="14.138385"><ele>208.0</ele><time>2026-04-26T13:15:27.405Z</time></trkpt><trkpt lat="42.283285" lon="14.138315"><ele>208.0</ele><time>2026-04-26T13:15:28.408Z</time></trkpt><trkpt lat="42.2833383" lon="14.1382533"><ele>206.83333333333331</ele><time>2026-04-26T13:15:29.408Z</time></trkpt><trkpt lat="42.2833083" lon="14.1381583"><ele>205.66666666666666</ele><time>2026-04-26T13:15:32.457Z</time></trkpt><trkpt lat="42.28318" lon="14.1381333"><ele>204.5</ele><time>2026-04-26T13:15:34.41Z</time></trkpt><trkpt lat="42.2831067" lon="14.1381033"><ele>203.33333333333331</ele><time>2026-04-26T13:15:35.409Z</time></trkpt><trkpt lat="42.2830283" lon="14.1380833"><ele>202.16666666666666</ele><time>2026-04-26T13:15:36.405Z</time></trkpt><trkpt lat="42.2829567" lon="14.1380733"><ele>201.0</ele><time>2026-04-26T13:15:37.412Z</time></trkpt><trkpt lat="42.2828917" lon="14.13807"><ele>201.0</ele><time>2026-04-26T13:15:38.463Z</time></trkpt><trkpt lat="42.282795" lon="14.1380667"><ele>201.0</ele><time>2026-04-26T13:15:40.405Z</time></trkpt><trkpt lat="42.28273" lon="14.138035"><ele>201.0</ele><time>2026-04-26T13:15:42.412Z</time></trkpt><trkpt lat="42.28272" lon="14.13795"><ele>201.0</ele><time>2026-04-26T13:15:45.412Z</time></trkpt><trkpt lat="42.2827667" lon="14.137885"><ele>201.0</ele><time>2026-04-26T13:15:47.414Z</time></trkpt><trkpt lat="42.2828483" lon="14.1378133"><ele>201.0</ele><time>2026-04-26T13:15:49.415Z</time></trkpt><trkpt lat="42.2829217" lon="14.137735"><ele>201.0</ele><time>2026-04-26T13:15:51.403Z</time></trkpt><trkpt lat="42.28296" lon="14.1376183"><ele>201.0</ele><time>2026-04-26T13:15:53.413Z</time></trkpt><trkpt lat="42.2829467" lon="14.1374967"><ele>201.0</ele><time>2026-04-26T13:15:55.406Z</time></trkpt><trkpt lat="42.2829067" lon="14.137415"><ele>201.0</ele><time>2026-04-26T13:15:58.414Z</time></trkpt><trkpt lat="42.2828733" lon="14.137305"><ele>201.0</ele><time>2026-04-26T13:17:16.414Z</time></trkpt><trkpt lat="42.2828367" lon="14.13722"><ele>201.0</ele><time>2026-04-26T13:17:17.416Z</time></trkpt><trkpt lat="42.2828083" lon="14.1371167"><ele>202.20000000000002</ele><time>2026-04-26T13:17:18.408Z</time></trkpt><trkpt lat="42.28279" lon="14.1369817"><ele>203.4</ele><time>2026-04-26T13:17:19.412Z</time></trkpt><trkpt lat="42.2827783" lon="14.136845"><ele>204.6</ele><time>2026-04-26T13:17:20.466Z</time></trkpt><trkpt lat="42.2827717" lon="14.1367133"><ele>205.8</ele><time>2026-04-26T13:17:21.406Z</time></trkpt><trkpt lat="42.2827583" lon="14.1365833"><ele>207.0</ele><time>2026-04-26T13:17:22.411Z</time></trkpt><trkpt lat="42.282735" lon="14.1364533"><ele>208.39999999999998</ele><time>2026-04-26T13:17:23.415Z</time></trkpt><trkpt lat="42.2827017" lon="14.1363267"><ele>209.79999999999998</ele><time>2026-04-26T13:17:24.417Z</time></trkpt><trkpt lat="42.2826617" lon="14.1362017"><ele>211.2</ele><time>2026-04-26T13:17:25.415Z</time></trkpt><trkpt lat="42.28261" lon="14.13609"><ele>212.6</ele><time>2026-04-26T13:17:26.474Z</time></trkpt><trkpt lat="42.2825433" lon="14.1359883"><ele>214.0</ele><time>2026-04-26T13:17:27.41Z</time></trkpt><trkpt lat="42.2824717" lon="14.1358867"><ele>214.0</ele><time>2026-04-26T13:17:28.401Z</time></trkpt><trkpt lat="42.282405" lon="14.1357817"><ele>213.99999999999997</ele><time>2026-04-26T13:17:29.412Z</time></trkpt><trkpt lat="42.28235" lon="14.1356717"><ele>213.99999999999997</ele><time>2026-04-26T13:17:30.407Z</time></trkpt><trkpt lat="42.2823017" lon="14.1355567"><ele>214.0</ele><time>2026-04-26T13:17:31.402Z</time></trkpt><trkpt lat="42.28227" lon="14.13545"><ele>214.0</ele><time>2026-04-26T13:17:32.476Z</time></trkpt><trkpt lat="42.2822517" lon="14.1353367"><ele>214.2</ele><time>2026-04-26T13:17:33.411Z</time></trkpt><trkpt lat="42.2822383" lon="14.1352117"><ele>214.39999999999998</ele><time>2026-04-26T13:17:34.415Z</time></trkpt><trkpt lat="42.2822267" lon="14.13507"><ele>214.6</ele><time>2026-04-26T13:17:35.412Z</time></trkpt><trkpt lat="42.2822117" lon="14.13491"><ele>214.8</ele><time>2026-04-26T13:17:36.408Z</time></trkpt><trkpt lat="42.2821883" lon="14.1347367"><ele>215.0</ele><time>2026-04-26T13:17:37.416Z</time></trkpt><trkpt lat="42.282165" lon="14.134555"><ele>215.0</ele><time>2026-04-26T13:17:38.466Z</time></trkpt><trkpt lat="42.2821383" lon="14.13438"><ele>215.0</ele><time>2026-04-26T13:17:39.41Z</time></trkpt><trkpt lat="42.28211" lon="14.1341967"><ele>215.0</ele><time>2026-04-26T13:17:40.412Z</time></trkpt><trkpt lat="42.28208" lon="14.1339967"><ele>215.0</ele><time>2026-04-26T13:17:41.413Z</time></trkpt><trkpt lat="42.282055" lon="14.1337983"><ele>216.0</ele><time>2026-04-26T13:17:42.403Z</time></trkpt><trkpt lat="42.2820333" lon="14.133615"><ele>217.0</ele><time>2026-04-26T13:17:43.406Z</time></trkpt><trkpt lat="42.28202" lon="14.1334567"><ele>218.0</ele><time>2026-04-26T13:17:44.469Z</time></trkpt><trkpt lat="42.282005" lon="14.13331"><ele>219.0</ele><time>2026-04-26T13:17:45.408Z</time></trkpt><trkpt lat="42.2819833" lon="14.1332133"><ele>220.0</ele><time>2026-04-26T13:17:46.412Z</time></trkpt><trkpt lat="42.281905" lon="14.1331033"><ele>220.66666666666666</ele><time>2026-04-26T13:17:48.408Z</time></trkpt><trkpt lat="42.2818267" lon="14.1330717"><ele>221.33333333333331</ele><time>2026-04-26T13:17:49.407Z</time></trkpt><trkpt lat="42.2817383" lon="14.1330183"><ele>222.0</ele><time>2026-04-26T13:17:50.46Z</time></trkpt><trkpt lat="42.2816533" lon="14.1329617"><ele>222.66666666666669</ele><time>2026-04-26T13:17:51.403Z</time></trkpt><trkpt lat="42.2815767" lon="14.1329217"><ele>223.33333333333334</ele><time>2026-04-26T13:17:52.405Z</time></trkpt><trkpt lat="42.2814983" lon="14.13291"><ele>224.0</ele><time>2026-04-26T13:17:53.408Z</time></trkpt><trkpt lat="42.2813917" lon="14.1329467"><ele>224.0</ele><time>2026-04-26T13:17:54.416Z</time></trkpt><trkpt lat="42.2812733" lon="14.132985"><ele>223.99999999999997</ele><time>2026-04-26T13:17:55.407Z</time></trkpt><trkpt lat="42.2811583" lon="14.1330333"><ele>223.99999999999997</ele><time>2026-04-26T13:17:56.466Z</time></trkpt><trkpt lat="42.2810667" lon="14.13308"><ele>224.0</ele><time>2026-04-26T13:17:57.403Z</time></trkpt><trkpt lat="42.280995" lon="14.1331133"><ele>224.0</ele><time>2026-04-26T13:17:58.408Z</time></trkpt><trkpt lat="42.28088" lon="14.1331"><ele>224.0</ele><time>2026-04-26T13:18:00.413Z</time></trkpt><trkpt lat="42.2808217" lon="14.1330533"><ele>223.99999999999997</ele><time>2026-04-26T13:18:01.412Z</time></trkpt><trkpt lat="42.280755" lon="14.1329617"><ele>223.99999999999997</ele><time>2026-04-26T13:18:02.468Z</time></trkpt><trkpt lat="42.2806667" lon="14.132855"><ele>224.0</ele><time>2026-04-26T13:18:03.408Z</time></trkpt><trkpt lat="42.2805683" lon="14.1327633"><ele>224.0</ele><time>2026-04-26T13:18:04.413Z</time></trkpt><trkpt lat="42.2804567" lon="14.1326917"><ele>222.6</ele><time>2026-04-26T13:18:05.406Z</time></trkpt><trkpt lat="42.280345" lon="14.1326267"><ele>221.2</ele><time>2026-04-26T13:18:06.411Z</time></trkpt><trkpt lat="42.2802383" lon="14.13257"><ele>219.79999999999998</ele><time>2026-04-26T13:18:07.403Z</time></trkpt><trkpt lat="42.2801383" lon="14.13251"><ele>218.39999999999998</ele><time>2026-04-26T13:18:08.461Z</time></trkpt><trkpt lat="42.2800533" lon="14.1324533"><ele>217.0</ele><time>2026-04-26T13:18:09.405Z</time></trkpt><trkpt lat="42.2799767" lon="14.1324017"><ele>217.99999999999997</ele><time>2026-04-26T13:18:10.402Z</time></trkpt><trkpt lat="42.279915" lon="14.132355"><ele>219.0</ele><time>2026-04-26T13:18:11.408Z</time></trkpt><trkpt lat="42.279865" lon="14.132235"><ele>220.0</ele><time>2026-04-26T13:18:13.408Z</time></trkpt><trkpt lat="42.2798517" lon="14.1321467"><ele>221.0</ele><time>2026-04-26T13:18:14.455Z</time></trkpt><trkpt lat="42.2798317" lon="14.1320417"><ele>221.99999999999997</ele><time>2026-04-26T13:18:15.4Z</time></trkpt><trkpt lat="42.2797983" lon="14.13192"><ele>223.0</ele><time>2026-04-26T13:18:16.406Z</time></trkpt><trkpt lat="42.2797633" lon="14.13179"><ele>222.99999999999997</ele><time>2026-04-26T13:18:17.407Z</time></trkpt><trkpt lat="42.2797333" lon="14.1316667"><ele>223.0</ele><time>2026-04-26T13:18:18.413Z</time></trkpt><trkpt lat="42.279715" lon="14.131555"><ele>223.0</ele><time>2026-04-26T13:18:19.413Z</time></trkpt><trkpt lat="42.2797133" lon="14.1314283"><ele>223.0</ele><time>2026-04-26T13:18:21.402Z</time></trkpt><trkpt lat="42.279785" lon="14.131405"><ele>222.99999999999997</ele><time>2026-04-26T13:18:23.408Z</time></trkpt><trkpt lat="42.27986" lon="14.1314233"><ele>223.0</ele><time>2026-04-26T13:18:24.406Z</time></trkpt><trkpt lat="42.2799567" lon="14.1314417"><ele>228.25</ele><time>2026-04-26T13:18:25.403Z</time></trkpt><trkpt lat="42.2800767" lon="14.1314617"><ele>233.5</ele><time>2026-04-26T13:18:26.477Z</time></trkpt><trkpt lat="42.2802183" lon="14.131475"><ele>238.75</ele><time>2026-04-26T13:18:27.409Z</time></trkpt><trkpt lat="42.28038" lon="14.1314733"><ele>244.0</ele><time>2026-04-26T13:18:28.412Z</time></trkpt><trkpt lat="42.2805317" lon="14.13145"><ele>243.5</ele><time>2026-04-26T13:18:29.411Z</time></trkpt><trkpt lat="42.2806717" lon="14.1314067"><ele>243.0</ele><time>2026-04-26T13:18:30.414Z</time></trkpt><trkpt lat="42.28078" lon="14.1313117"><ele>242.5</ele><time>2026-04-26T13:18:31.41Z</time></trkpt><trkpt lat="42.280865" lon="14.1312033"><ele>242.0</ele><time>2026-04-26T13:18:32.476Z</time></trkpt><trkpt lat="42.2809417" lon="14.1310617"><ele>242.0</ele><time>2026-04-26T13:18:33.405Z</time></trkpt><trkpt lat="42.2809933" lon="14.130855"><ele>242.0</ele><time>2026-04-26T13:18:34.412Z</time></trkpt><trkpt lat="42.2810367" lon="14.1306367"><ele>242.0</ele><time>2026-04-26T13:18:35.417Z</time></trkpt><trkpt lat="42.28107" lon="14.1304383"><ele>243.5</ele><time>2026-04-26T13:18:36.409Z</time></trkpt><trkpt lat="42.2810867" lon="14.13025"><ele>245.0</ele><time>2026-04-26T13:18:37.409Z</time></trkpt><trkpt lat="42.281085" lon="14.13008"><ele>246.5</ele><time>2026-04-26T13:18:38.468Z</time></trkpt><trkpt lat="42.2810583" lon="14.129945"><ele>248.0</ele><time>2026-04-26T13:18:39.408Z</time></trkpt><trkpt lat="42.2810083" lon="14.1298517"><ele>248.0</ele><time>2026-04-26T13:18:40.403Z</time></trkpt><trkpt lat="42.280935" lon="14.129805"><ele>248.0</ele><time>2026-04-26T13:18:41.41Z</time></trkpt><trkpt lat="42.2808333" lon="14.1298217"><ele>248.0</ele><time>2026-04-26T13:18:42.411Z</time></trkpt><trkpt lat="42.28071" lon="14.1299483"><ele>248.0</ele><time>2026-04-26T13:18:43.409Z</time></trkpt><trkpt lat="42.28061" lon="14.1300617"><ele>249.5</ele><time>2026-04-26T13:18:44.465Z</time></trkpt><trkpt lat="42.2805033" lon="14.130185"><ele>251.0</ele><time>2026-04-26T13:18:45.409Z</time></trkpt><trkpt lat="42.2803917" lon="14.1303083"><ele>252.5</ele><time>2026-04-26T13:18:46.399Z</time></trkpt><trkpt lat="42.2802817" lon="14.1304067"><ele>254.0</ele><time>2026-04-26T13:18:47.41Z</time></trkpt><trkpt lat="42.28018" lon="14.1304883"><ele>254.0</ele><time>2026-04-26T13:18:48.415Z</time></trkpt><trkpt lat="42.28009" lon="14.1305317"><ele>253.99999999999997</ele><time>2026-04-26T13:18:49.411Z</time></trkpt><trkpt lat="42.2799967" lon="14.1304833"><ele>253.99999999999997</ele><time>2026-04-26T13:18:50.463Z</time></trkpt><trkpt lat="42.2798933" lon="14.130415"><ele>254.0</ele><time>2026-04-26T13:18:51.408Z</time></trkpt><trkpt lat="42.279775" lon="14.130335"><ele>254.0</ele><time>2026-04-26T13:18:52.408Z</time></trkpt><trkpt lat="42.27965" lon="14.130255"><ele>253.5</ele><time>2026-04-26T13:18:53.413Z</time></trkpt><trkpt lat="42.2795283" lon="14.130175"><ele>253.0</ele><time>2026-04-26T13:18:54.41Z</time></trkpt><trkpt lat="42.2794233" lon="14.1300817"><ele>252.5</ele><time>2026-04-26T13:18:55.413Z</time></trkpt><trkpt lat="42.27934" lon="14.1299767"><ele>252.0</ele><time>2026-04-26T13:18:56.477Z</time></trkpt><trkpt lat="42.2793067" lon="14.12985"><ele>254.16666666666666</ele><time>2026-04-26T13:18:57.407Z</time></trkpt><trkpt lat="42.279315" lon="14.1297367"><ele>256.3333333333333</ele><time>2026-04-26T13:18:58.409Z</time></trkpt><trkpt lat="42.2793467" lon="14.1296433"><ele>258.5</ele><time>2026-04-26T13:18:59.41Z</time></trkpt><trkpt lat="42.2794017" lon="14.129585"><ele>260.66666666666663</ele><time>2026-04-26T13:19:00.413Z</time></trkpt><trkpt lat="42.279505" lon="14.1295733"><ele>262.8333333333333</ele><time>2026-04-26T13:19:01.418Z</time></trkpt><trkpt lat="42.2796083" lon="14.1295667"><ele>265.0</ele><time>2026-04-26T13:19:02.473Z</time></trkpt><trkpt lat="42.2797117" lon="14.129545"><ele>263.75</ele><time>2026-04-26T13:19:03.411Z</time></trkpt><trkpt lat="42.2798133" lon="14.1294983"><ele>262.5</ele><time>2026-04-26T13:19:04.399Z</time></trkpt><trkpt lat="42.2799117" lon="14.1294217"><ele>261.25</ele><time>2026-04-26T13:19:05.414Z</time></trkpt><trkpt lat="42.2799933" lon="14.1292967"><ele>260.0</ele><time>2026-04-26T13:19:06.411Z</time></trkpt><trkpt lat="42.280075" lon="14.1291283"><ele>263.6666666666667</ele><time>2026-04-26T13:19:07.41Z</time></trkpt><trkpt lat="42.280155" lon="14.128875"><ele>267.3333333333333</ele><time>2026-04-26T13:19:08.465Z</time></trkpt><trkpt lat="42.2802317" lon="14.1286517"><ele>271.0</ele><time>2026-04-26T13:19:09.413Z</time></trkpt><trkpt lat="42.2803033" lon="14.1284417"><ele>271.0</ele><time>2026-04-26T13:19:10.411Z</time></trkpt><trkpt lat="42.2803917" lon="14.128285"><ele>271.0</ele><time>2026-04-26T13:19:11.409Z</time></trkpt><trkpt lat="42.280505" lon="14.1281583"><ele>271.0</ele><time>2026-04-26T13:19:12.41Z</time></trkpt><trkpt lat="42.2806433" lon="14.1280517"><ele>272.5</ele><time>2026-04-26T13:19:13.415Z</time></trkpt><trkpt lat="42.2807933" lon="14.1279767"><ele>274.0</ele><time>2026-04-26T13:19:14.466Z</time></trkpt><trkpt lat="42.2809317" lon="14.12791"><ele>275.5</ele><time>2026-04-26T13:19:15.406Z</time></trkpt><trkpt lat="42.2810517" lon="14.1278467"><ele>277.0</ele><time>2026-04-26T13:19:16.402Z</time></trkpt><trkpt lat="42.2811083" lon="14.1277467"><ele>277.0</ele><time>2026-04-26T13:19:17.408Z</time></trkpt><trkpt lat="42.2811267" lon="14.1276267"><ele>277.0</ele><time>2026-04-26T13:19:18.401Z</time></trkpt><trkpt lat="42.2811217" lon="14.1275"><ele>277.0</ele><time>2026-04-26T13:19:19.41Z</time></trkpt><trkpt lat="42.2811033" lon="14.1273783"><ele>277.0</ele><time>2026-04-26T13:19:20.46Z</time></trkpt><trkpt lat="42.2810067" lon="14.1273133"><ele>277.0</ele><time>2026-04-26T13:19:21.402Z</time></trkpt><trkpt lat="42.2809067" lon="14.1272567"><ele>279.75</ele><time>2026-04-26T13:19:22.408Z</time></trkpt><trkpt lat="42.2807733" lon="14.1272717"><ele>282.5</ele><time>2026-04-26T13:19:23.41Z</time></trkpt><trkpt lat="42.2806317" lon="14.1272717"><ele>285.25</ele><time>2026-04-26T13:19:24.416Z</time></trkpt><trkpt lat="42.2804683" lon="14.1272817"><ele>288.0</ele><time>2026-04-26T13:19:25.406Z</time></trkpt><trkpt lat="42.280275" lon="14.1273083"><ele>288.0</ele><time>2026-04-26T13:19:26.479Z</time></trkpt><trkpt lat="42.2800783" lon="14.1273383"><ele>288.0</ele><time>2026-04-26T13:19:27.408Z</time></trkpt><trkpt lat="42.2798867" lon="14.1273633"><ele>288.0</ele><time>2026-04-26T13:19:28.41Z</time></trkpt><trkpt lat="42.2797167" lon="14.1273767"><ele>288.0</ele><time>2026-04-26T13:19:29.401Z</time></trkpt><trkpt lat="42.2795767" lon="14.12739"><ele>288.0</ele><time>2026-04-26T13:19:30.406Z</time></trkpt><trkpt lat="42.2794683" lon="14.1273983"><ele>288.0</ele><time>2026-04-26T13:19:31.41Z</time></trkpt><trkpt lat="42.2793933" lon="14.1274283"><ele>288.0</ele><time>2026-04-26T13:19:32.479Z</time></trkpt><trkpt lat="42.27934" lon="14.1274767"><ele>288.0</ele><time>2026-04-26T13:19:33.407Z</time></trkpt><trkpt lat="42.2792717" lon="14.1275117"><ele>287.2</ele><time>2026-04-26T13:19:34.412Z</time></trkpt><trkpt lat="42.2792017" lon="14.12754"><ele>286.4</ele><time>2026-04-26T13:19:35.413Z</time></trkpt><trkpt lat="42.279115" lon="14.1275583"><ele>285.59999999999997</ele><time>2026-04-26T13:19:36.402Z</time></trkpt><trkpt lat="42.279015" lon="14.1275717"><ele>284.8</ele><time>2026-04-26T13:19:37.403Z</time></trkpt><trkpt lat="42.2789033" lon="14.12758"><ele>284.0</ele><time>2026-04-26T13:19:38.47Z</time></trkpt><trkpt lat="42.2787833" lon="14.1275817"><ele>284.0</ele><time>2026-04-26T13:19:39.407Z</time></trkpt><trkpt lat="42.2786567" lon="14.1275767"><ele>284.0</ele><time>2026-04-26T13:19:40.411Z</time></trkpt><trkpt lat="42.2785317" lon="14.1275683"><ele>284.0</ele><time>2026-04-26T13:19:41.419Z</time></trkpt><trkpt lat="42.278405" lon="14.1275633"><ele>284.0</ele><time>2026-04-26T13:19:42.411Z</time></trkpt><trkpt lat="42.278285" lon="14.1275633"><ele>284.0</ele><time>2026-04-26T13:19:43.415Z</time></trkpt><trkpt lat="42.2781583" lon="14.127555"><ele>284.0</ele><time>2026-04-26T13:19:44.458Z</time></trkpt><trkpt lat="42.2780333" lon="14.127535"><ele>284.0</ele><time>2026-04-26T13:19:45.403Z</time></trkpt><trkpt lat="42.2779017" lon="14.1274933"><ele>284.0</ele><time>2026-04-26T13:19:46.411Z</time></trkpt><trkpt lat="42.2777683" lon="14.12744"><ele>286.5</ele><time>2026-04-26T13:19:47.399Z</time></trkpt><trkpt lat="42.2776383" lon="14.1273833"><ele>289.0</ele><time>2026-04-26T13:19:48.407Z</time></trkpt><trkpt lat="42.2775217" lon="14.1273467"><ele>291.5</ele><time>2026-04-26T13:19:49.412Z</time></trkpt><trkpt lat="42.2774033" lon="14.12733"><ele>294.0</ele><time>2026-04-26T13:19:50.467Z</time></trkpt><trkpt lat="42.2772867" lon="14.1273383"><ele>294.75</ele><time>2026-04-26T13:19:51.409Z</time></trkpt><trkpt lat="42.27717" lon="14.12735"><ele>295.5</ele><time>2026-04-26T13:19:52.404Z</time></trkpt><trkpt lat="42.27706" lon="14.1273467"><ele>296.25</ele><time>2026-04-26T13:19:53.405Z</time></trkpt><trkpt lat="42.2769517" lon="14.1273217"><ele>297.0</ele><time>2026-04-26T13:19:54.414Z</time></trkpt><trkpt lat="42.2768433" lon="14.127275"><ele>297.0</ele><time>2026-04-26T13:19:55.411Z</time></trkpt><trkpt lat="42.27674" lon="14.1272267"><ele>297.0</ele><time>2026-04-26T13:19:56.473Z</time></trkpt><trkpt lat="42.2766467" lon="14.12718"><ele>297.0</ele><time>2026-04-26T13:19:57.407Z</time></trkpt><trkpt lat="42.2765817" lon="14.1271683"><ele>297.0</ele><time>2026-04-26T13:19:58.411Z</time></trkpt><trkpt lat="42.2765183" lon="14.12719"><ele>297.0</ele><time>2026-04-26T13:19:59.412Z</time></trkpt><trkpt lat="42.2764567" lon="14.1272733"><ele>297.0</ele><time>2026-04-26T13:20:00.412Z</time></trkpt><trkpt lat="42.27639" lon="14.1273917"><ele>296.75</ele><time>2026-04-26T13:20:01.413Z</time></trkpt><trkpt lat="42.2763183" lon="14.12753"><ele>296.5</ele><time>2026-04-26T13:20:02.475Z</time></trkpt><trkpt lat="42.2762383" lon="14.127665"><ele>296.25</ele><time>2026-04-26T13:20:03.408Z</time></trkpt><trkpt lat="42.2761567" lon="14.1277783"><ele>296.0</ele><time>2026-04-26T13:20:04.413Z</time></trkpt><trkpt lat="42.2760733" lon="14.1278767"><ele>296.0</ele><time>2026-04-26T13:20:05.403Z</time></trkpt><trkpt lat="42.27598" lon="14.1279483"><ele>296.0</ele><time>2026-04-26T13:20:06.412Z</time></trkpt><trkpt lat="42.2758767" lon="14.127985"><ele>296.0</ele><time>2026-04-26T13:20:07.409Z</time></trkpt><trkpt lat="42.2757567" lon="14.1280217"><ele>296.0</ele><time>2026-04-26T13:20:08.465Z</time></trkpt><trkpt lat="42.27563" lon="14.1280617"><ele>297.0</ele><time>2026-04-26T13:20:09.405Z</time></trkpt><trkpt lat="42.2754967" lon="14.1281167"><ele>298.0</ele><time>2026-04-26T13:20:10.409Z</time></trkpt><trkpt lat="42.275375" lon="14.1281817"><ele>299.0</ele><time>2026-04-26T13:20:11.409Z</time></trkpt><trkpt lat="42.2752783" lon="14.1282517"><ele>300.0</ele><time>2026-04-26T13:20:12.407Z</time></trkpt><trkpt lat="42.2751967" lon="14.1283033"><ele>300.6</ele><time>2026-04-26T13:20:13.414Z</time></trkpt><trkpt lat="42.2751417" lon="14.128195"><ele>301.2</ele><time>2026-04-26T13:20:15.413Z</time></trkpt><trkpt lat="42.27512" lon="14.12809"><ele>301.8</ele><time>2026-04-26T13:20:16.414Z</time></trkpt><trkpt lat="42.2750883" lon="14.1279583"><ele>302.4</ele><time>2026-04-26T13:20:17.412Z</time></trkpt><trkpt lat="42.27504" lon="14.1277933"><ele>303.0</ele><time>2026-04-26T13:20:18.417Z</time></trkpt><trkpt lat="42.2749833" lon="14.1276067"><ele>303.0</ele><time>2026-04-26T13:20:19.412Z</time></trkpt><trkpt lat="42.2749233" lon="14.12741"><ele>303.0</ele><time>2026-04-26T13:20:20.463Z</time></trkpt><trkpt lat="42.2748617" lon="14.1272033"><ele>303.0</ele><time>2026-04-26T13:20:21.408Z</time></trkpt><trkpt lat="42.2747933" lon="14.126975"><ele>301.6666666666667</ele><time>2026-04-26T13:20:22.407Z</time></trkpt><trkpt lat="42.2747317" lon="14.1267433"><ele>300.33333333333337</ele><time>2026-04-26T13:20:23.411Z</time></trkpt><trkpt lat="42.2746767" lon="14.1265183"><ele>299.0</ele><time>2026-04-26T13:20:24.419Z</time></trkpt><trkpt lat="42.2746367" lon="14.1263117"><ele>297.25</ele><time>2026-04-26T13:20:25.41Z</time></trkpt><trkpt lat="42.274625" lon="14.1261233"><ele>295.5</ele><time>2026-04-26T13:20:26.472Z</time></trkpt><trkpt lat="42.2746417" lon="14.1259417"><ele>293.75</ele><time>2026-04-26T13:20:27.408Z</time></trkpt><trkpt lat="42.2746883" lon="14.1257467"><ele>292.0</ele><time>2026-04-26T13:20:28.407Z</time></trkpt><trkpt lat="42.2747517" lon="14.1255417"><ele>301.0</ele><time>2026-04-26T13:20:29.409Z</time></trkpt><trkpt lat="42.2748183" lon="14.1253317"><ele>310.0</ele><time>2026-04-26T13:20:30.411Z</time></trkpt><trkpt lat="42.2748833" lon="14.1251367"><ele>319.0</ele><time>2026-04-26T13:20:31.409Z</time></trkpt><trkpt lat="42.274945" lon="14.1249583"><ele>321.0</ele><time>2026-04-26T13:20:32.472Z</time></trkpt><trkpt lat="42.2750033" lon="14.1248017"><ele>323.0</ele><time>2026-04-26T13:20:33.411Z</time></trkpt><trkpt lat="42.2750667" lon="14.1246517"><ele>325.0</ele><time>2026-04-26T13:20:34.399Z</time></trkpt><trkpt lat="42.27513" lon="14.1245133"><ele>327.0</ele><time>2026-04-26T13:20:35.413Z</time></trkpt><trkpt lat="42.275195" lon="14.1243933"><ele>327.0</ele><time>2026-04-26T13:20:36.405Z</time></trkpt><trkpt lat="42.2752633" lon="14.1242967"><ele>327.0</ele><time>2026-04-26T13:20:37.413Z</time></trkpt><trkpt lat="42.2753467" lon="14.12423"><ele>327.0</ele><time>2026-04-26T13:20:38.463Z</time></trkpt><trkpt lat="42.2754583" lon="14.1241933"><ele>327.0</ele><time>2026-04-26T13:20:39.411Z</time></trkpt><trkpt lat="42.27559" lon="14.1241783"><ele>327.0</ele><time>2026-04-26T13:20:40.415Z</time></trkpt><trkpt lat="42.2757417" lon="14.1241667"><ele>325.5</ele><time>2026-04-26T13:20:41.402Z</time></trkpt><trkpt lat="42.2758967" lon="14.1241517"><ele>324.0</ele><time>2026-04-26T13:20:42.411Z</time></trkpt><trkpt lat="42.276045" lon="14.1241267"><ele>322.5</ele><time>2026-04-26T13:20:43.412Z</time></trkpt><trkpt lat="42.27618" lon="14.1240967"><ele>321.0</ele><time>2026-04-26T13:20:44.462Z</time></trkpt><trkpt lat="42.2763083" lon="14.1240767"><ele>321.0</ele><time>2026-04-26T13:20:45.408Z</time></trkpt><trkpt lat="42.2764317" lon="14.1240717"><ele>321.0</ele><time>2026-04-26T13:20:46.407Z</time></trkpt><trkpt lat="42.27653" lon="14.1240767"><ele>321.0</ele><time>2026-04-26T13:20:47.408Z</time></trkpt><trkpt lat="42.2765933" lon="14.1240783"><ele>321.0</ele><time>2026-04-26T13:20:48.4Z</time></trkpt><trkpt lat="42.27655" lon="14.1240033"><ele>321.0</ele><time>2026-04-26T13:20:52.402Z</time></trkpt><trkpt lat="42.2764083" lon="14.12388"><ele>320.3333333333333</ele><time>2026-04-26T13:20:54.408Z</time></trkpt><trkpt lat="42.27633" lon="14.1237817"><ele>319.6666666666667</ele><time>2026-04-26T13:20:55.408Z</time></trkpt><trkpt lat="42.27627" lon="14.12368"><ele>319.0</ele><time>2026-04-26T13:20:56.471Z</time></trkpt><trkpt lat="42.2762267" lon="14.123595"><ele>318.33333333333337</ele><time>2026-04-26T13:20:57.407Z</time></trkpt><trkpt lat="42.27619" lon="14.123525"><ele>317.6666666666667</ele><time>2026-04-26T13:20:58.404Z</time></trkpt><trkpt lat="42.276115" lon="14.1234283"><ele>317.0</ele><time>2026-04-26T13:21:00.412Z</time></trkpt><trkpt lat="42.2760233" lon="14.123365"><ele>317.0</ele><time>2026-04-26T13:21:02.467Z</time></trkpt><trkpt lat="42.2759467" lon="14.12333"><ele>317.0</ele><time>2026-04-26T13:21:04.41Z</time></trkpt><trkpt lat="42.2758733" lon="14.1233033"><ele>317.0</ele><time>2026-04-26T13:21:07.411Z</time></trkpt><trkpt lat="42.2757783" lon="14.1232817"><ele>317.0</ele><time>2026-04-26T13:21:14.455Z</time></trkpt><trkpt lat="42.27567" lon="14.1232617"><ele>317.0</ele><time>2026-04-26T13:21:16.407Z</time></trkpt><trkpt lat="42.2755667" lon="14.1232233"><ele>316.25</ele><time>2026-04-26T13:21:18.405Z</time></trkpt><trkpt lat="42.275465" lon="14.1231817"><ele>315.5</ele><time>2026-04-26T13:21:20.464Z</time></trkpt><trkpt lat="42.27536" lon="14.123155"><ele>314.75</ele><time>2026-04-26T13:21:22.399Z</time></trkpt><trkpt lat="42.2752483" lon="14.1231433"><ele>314.0</ele><time>2026-04-26T13:21:24.412Z</time></trkpt><trkpt lat="42.27512" lon="14.1231117"><ele>314.0</ele><time>2026-04-26T13:21:26.464Z</time></trkpt><trkpt lat="42.2750483" lon="14.1230983"><ele>314.0</ele><time>2026-04-26T13:21:27.403Z</time></trkpt><trkpt lat="42.2749683" lon="14.12309"><ele>314.0</ele><time>2026-04-26T13:21:28.406Z</time></trkpt><trkpt lat="42.2748883" lon="14.1230817"><ele>314.0</ele><time>2026-04-26T13:21:29.41Z</time></trkpt><trkpt lat="42.2748083" lon="14.1230767"><ele>314.0</ele><time>2026-04-26T13:21:30.413Z</time></trkpt><trkpt lat="42.274725" lon="14.12307"><ele>314.0</ele><time>2026-04-26T13:21:31.405Z</time></trkpt><trkpt lat="42.27464" lon="14.1230583"><ele>315.0</ele><time>2026-04-26T13:21:32.468Z</time></trkpt><trkpt lat="42.2745567" lon="14.1230433"><ele>316.0</ele><time>2026-04-26T13:21:33.403Z</time></trkpt><trkpt lat="42.2744783" lon="14.1230233"><ele>317.0</ele><time>2026-04-26T13:21:34.406Z</time></trkpt><trkpt lat="42.2744033" lon="14.1229867"><ele>318.0</ele><time>2026-04-26T13:21:35.405Z</time></trkpt><trkpt lat="42.2743217" lon="14.12294"><ele>319.0</ele><time>2026-04-26T13:21:36.408Z</time></trkpt><trkpt lat="42.2742367" lon="14.1228817"><ele>320.0</ele><time>2026-04-26T13:21:37.407Z</time></trkpt><trkpt lat="42.2741583" lon="14.1228117"><ele>320.0</ele><time>2026-04-26T13:21:38.461Z</time></trkpt><trkpt lat="42.2740933" lon="14.122725"><ele>320.0</ele><time>2026-04-26T13:21:39.4Z</time></trkpt><trkpt lat="42.2740383" lon="14.12262"><ele>320.0</ele><time>2026-04-26T13:21:40.406Z</time></trkpt><trkpt lat="42.2739883" lon="14.1225033"><ele>320.0</ele><time>2026-04-26T13:21:41.411Z</time></trkpt><trkpt lat="42.273935" lon="14.12239"><ele>320.0</ele><time>2026-04-26T13:21:42.407Z</time></trkpt><trkpt lat="42.2738733" lon="14.122295"><ele>316.83333333333337</ele><time>2026-04-26T13:21:43.409Z</time></trkpt><trkpt lat="42.2738133" lon="14.1222183"><ele>313.6666666666667</ele><time>2026-04-26T13:21:44.459Z</time></trkpt><trkpt lat="42.27376" lon="14.122145"><ele>310.5</ele><time>2026-04-26T13:21:45.405Z</time></trkpt><trkpt lat="42.27372" lon="14.122065"><ele>307.3333333333333</ele><time>2026-04-26T13:21:46.407Z</time></trkpt><trkpt lat="42.2736933" lon="14.1219767"><ele>304.16666666666663</ele><time>2026-04-26T13:21:47.411Z</time></trkpt><trkpt lat="42.2736733" lon="14.1218717"><ele>301.0</ele><time>2026-04-26T13:21:48.413Z</time></trkpt><trkpt lat="42.273645" lon="14.1217567"><ele>301.0</ele><time>2026-04-26T13:21:49.401Z</time></trkpt><trkpt lat="42.2735983" lon="14.12164"><ele>301.0</ele><time>2026-04-26T13:21:50.451Z</time></trkpt><trkpt lat="42.2735333" lon="14.1215383"><ele>301.0</ele><time>2026-04-26T13:21:51.401Z</time></trkpt><trkpt lat="42.2734683" lon="14.1214617"><ele>301.0</ele><time>2026-04-26T13:21:52.4Z</time></trkpt><trkpt lat="42.2734033" lon="14.1213967"><ele>301.0</ele><time>2026-04-26T13:21:53.403Z</time></trkpt><trkpt lat="42.2733383" lon="14.1213317"><ele>301.0</ele><time>2026-04-26T13:21:54.403Z</time></trkpt><trkpt lat="42.273285" lon="14.12126"><ele>300.40000000000003</ele><time>2026-04-26T13:21:55.402Z</time></trkpt><trkpt lat="42.2732467" lon="14.1211733"><ele>299.8</ele><time>2026-04-26T13:21:56.465Z</time></trkpt><trkpt lat="42.2732017" lon="14.1210817"><ele>299.20000000000005</ele><time>2026-04-26T13:21:57.408Z</time></trkpt><trkpt lat="42.2731467" lon="14.1209867"><ele>298.6</ele><time>2026-04-26T13:21:58.409Z</time></trkpt><trkpt lat="42.2730667" lon="14.1209117"><ele>298.0</ele><time>2026-04-26T13:21:59.406Z</time></trkpt><trkpt lat="42.2729617" lon="14.1208367"><ele>296.8</ele><time>2026-04-26T13:22:00.409Z</time></trkpt><trkpt lat="42.272855" lon="14.1207583"><ele>295.6</ele><time>2026-04-26T13:22:01.41Z</time></trkpt><trkpt lat="42.2727417" lon="14.12069"><ele>294.4</ele><time>2026-04-26T13:22:02.46Z</time></trkpt><trkpt lat="42.2726433" lon="14.1206383"><ele>293.2</ele><time>2026-04-26T13:22:03.405Z</time></trkpt><trkpt lat="42.272555" lon="14.12059"><ele>292.0</ele><time>2026-04-26T13:22:04.408Z</time></trkpt><trkpt lat="42.2724633" lon="14.1205283"><ele>290.2</ele><time>2026-04-26T13:22:05.408Z</time></trkpt><trkpt lat="42.2723683" lon="14.120445"><ele>288.4</ele><time>2026-04-26T13:22:06.41Z</time></trkpt><trkpt lat="42.2722733" lon="14.120365"><ele>286.6</ele><time>2026-04-26T13:22:07.411Z</time></trkpt><trkpt lat="42.2721817" lon="14.1202817"><ele>284.8</ele><time>2026-04-26T13:22:08.463Z</time></trkpt><trkpt lat="42.27209" lon="14.1201967"><ele>283.0</ele><time>2026-04-26T13:22:09.405Z</time></trkpt><trkpt lat="42.2719983" lon="14.120115"><ele>282.6</ele><time>2026-04-26T13:22:10.411Z</time></trkpt><trkpt lat="42.2719017" lon="14.120035"><ele>282.20000000000005</ele><time>2026-04-26T13:22:11.41Z</time></trkpt><trkpt lat="42.2718067" lon="14.119955"><ele>281.8</ele><time>2026-04-26T13:22:12.413Z</time></trkpt><trkpt lat="42.2717117" lon="14.1198833"><ele>281.40000000000003</ele><time>2026-04-26T13:22:13.4Z</time></trkpt><trkpt lat="42.27162" lon="14.1198133"><ele>281.0</ele><time>2026-04-26T13:22:14.455Z</time></trkpt><trkpt lat="42.2715467" lon="14.1197383"><ele>280.40000000000003</ele><time>2026-04-26T13:22:15.405Z</time></trkpt><trkpt lat="42.27149" lon="14.11965"><ele>279.8</ele><time>2026-04-26T13:22:16.411Z</time></trkpt><trkpt lat="42.271445" lon="14.1195433"><ele>279.20000000000005</ele><time>2026-04-26T13:22:17.407Z</time></trkpt><trkpt lat="42.2714" lon="14.1194083"><ele>278.6</ele><time>2026-04-26T13:22:18.402Z</time></trkpt><trkpt lat="42.2713517" lon="14.119255"><ele>278.0</ele><time>2026-04-26T13:22:19.411Z</time></trkpt><trkpt lat="42.2713" lon="14.1191117"><ele>277.33333333333337</ele><time>2026-04-26T13:22:20.46Z</time></trkpt><trkpt lat="42.2712433" lon="14.118985"><ele>276.6666666666667</ele><time>2026-04-26T13:22:21.408Z</time></trkpt><trkpt lat="42.2711867" lon="14.118875"><ele>276.0</ele><time>2026-04-26T13:22:22.406Z</time></trkpt><trkpt lat="42.2711283" lon="14.11879"><ele>275.3333333333333</ele><time>2026-04-26T13:22:23.411Z</time></trkpt><trkpt lat="42.2710617" lon="14.1187433"><ele>274.66666666666663</ele><time>2026-04-26T13:22:24.407Z</time></trkpt><trkpt lat="42.270985" lon="14.118725"><ele>274.0</ele><time>2026-04-26T13:22:25.41Z</time></trkpt><trkpt lat="42.27089" lon="14.118725"><ele>274.0</ele><time>2026-04-26T13:22:26.474Z</time></trkpt><trkpt lat="42.270775" lon="14.1187217"><ele>274.0</ele><time>2026-04-26T13:22:27.405Z</time></trkpt><trkpt lat="42.270645" lon="14.1187083"><ele>274.0</ele><time>2026-04-26T13:22:28.413Z</time></trkpt><trkpt lat="42.27052" lon="14.1186883"><ele>274.0</ele><time>2026-04-26T13:22:29.406Z</time></trkpt><trkpt lat="42.2704067" lon="14.1186633"><ele>276.0</ele><time>2026-04-26T13:22:30.411Z</time></trkpt><trkpt lat="42.2703033" lon="14.1186233"><ele>278.0</ele><time>2026-04-26T13:22:31.41Z</time></trkpt><trkpt lat="42.27019" lon="14.1185633"><ele>280.0</ele><time>2026-04-26T13:22:32.471Z</time></trkpt><trkpt lat="42.2700717" lon="14.118505"><ele>282.0</ele><time>2026-04-26T13:22:33.408Z</time></trkpt><trkpt lat="42.2699617" lon="14.1184483"><ele>282.0</ele><time>2026-04-26T13:22:34.409Z</time></trkpt><trkpt lat="42.2698717" lon="14.1183967"><ele>282.0</ele><time>2026-04-26T13:22:35.401Z</time></trkpt><trkpt lat="42.269805" lon="14.118345"><ele>282.0</ele><time>2026-04-26T13:22:36.407Z</time></trkpt><trkpt lat="42.269745" lon="14.1182867"><ele>282.0</ele><time>2026-04-26T13:22:37.413Z</time></trkpt><trkpt lat="42.2696833" lon="14.11822"><ele>282.0</ele><time>2026-04-26T13:22:38.464Z</time></trkpt><trkpt lat="42.2696217" lon="14.1181483"><ele>282.0</ele><time>2026-04-26T13:22:39.407Z</time></trkpt><trkpt lat="42.2695633" lon="14.1180633"><ele>279.4</ele><time>2026-04-26T13:22:40.408Z</time></trkpt><trkpt lat="42.26951" lon="14.1179633"><ele>276.79999999999995</ele><time>2026-04-26T13:22:41.415Z</time></trkpt><trkpt lat="42.2694667" lon="14.1178517"><ele>274.2</ele><time>2026-04-26T13:22:42.412Z</time></trkpt><trkpt lat="42.26943" lon="14.1177333"><ele>271.59999999999997</ele><time>2026-04-26T13:22:43.404Z</time></trkpt><trkpt lat="42.2694117" lon="14.117615"><ele>269.0</ele><time>2026-04-26T13:22:44.456Z</time></trkpt><trkpt lat="42.26941" lon="14.11749"><ele>267.0</ele><time>2026-04-26T13:22:45.404Z</time></trkpt><trkpt lat="42.2694267" lon="14.1173717"><ele>265.0</ele><time>2026-04-26T13:22:46.407Z</time></trkpt><trkpt lat="42.2694617" lon="14.1172567"><ele>263.0</ele><time>2026-04-26T13:22:47.409Z</time></trkpt><trkpt lat="42.26951" lon="14.1171417"><ele>261.0</ele><time>2026-04-26T13:22:48.407Z</time></trkpt><trkpt lat="42.2695567" lon="14.117025"><ele>259.0</ele><time>2026-04-26T13:22:49.398Z</time></trkpt><trkpt lat="42.2695917" lon="14.1169017"><ele>259.0</ele><time>2026-04-26T13:22:50.462Z</time></trkpt><trkpt lat="42.26961" lon="14.116765"><ele>259.0</ele><time>2026-04-26T13:22:51.404Z</time></trkpt><trkpt lat="42.269605" lon="14.1166067"><ele>259.0</ele><time>2026-04-26T13:22:52.41Z</time></trkpt><trkpt lat="42.2695983" lon="14.116435"><ele>259.0</ele><time>2026-04-26T13:22:53.415Z</time></trkpt><trkpt lat="42.2695917" lon="14.116265"><ele>257.8</ele><time>2026-04-26T13:22:54.409Z</time></trkpt><trkpt lat="42.269585" lon="14.1161133"><ele>256.59999999999997</ele><time>2026-04-26T13:22:55.407Z</time></trkpt><trkpt lat="42.2695683" lon="14.1159733"><ele>255.4</ele><time>2026-04-26T13:22:56.463Z</time></trkpt><trkpt lat="42.2695333" lon="14.1158467"><ele>254.2</ele><time>2026-04-26T13:22:57.403Z</time></trkpt><trkpt lat="42.2694833" lon="14.115725"><ele>253.0</ele><time>2026-04-26T13:22:58.412Z</time></trkpt><trkpt lat="42.2693967" lon="14.11564"><ele>251.99999999999997</ele><time>2026-04-26T13:22:59.411Z</time></trkpt><trkpt lat="42.2693117" lon="14.1155717"><ele>251.0</ele><time>2026-04-26T13:23:00.409Z</time></trkpt><trkpt lat="42.2692317" lon="14.115505"><ele>250.0</ele><time>2026-04-26T13:23:01.411Z</time></trkpt><trkpt lat="42.26917" lon="14.1154267"><ele>249.0</ele><time>2026-04-26T13:23:02.466Z</time></trkpt><trkpt lat="42.26912" lon="14.1153383"><ele>247.99999999999997</ele><time>2026-04-26T13:23:03.408Z</time></trkpt><trkpt lat="42.269075" lon="14.115245"><ele>247.0</ele><time>2026-04-26T13:23:04.407Z</time></trkpt><trkpt lat="42.26904" lon="14.1151617"><ele>247.0</ele><time>2026-04-26T13:23:05.407Z</time></trkpt><trkpt lat="42.2689917" lon="14.1150267"><ele>247.0</ele><time>2026-04-26T13:23:07.408Z</time></trkpt><trkpt lat="42.268955" lon="14.1149233"><ele>247.0</ele><time>2026-04-26T13:23:09.407Z</time></trkpt><trkpt lat="42.268895" lon="14.1147467"><ele>247.0</ele><time>2026-04-26T13:23:11.409Z</time></trkpt><trkpt lat="42.268865" lon="14.114635"><ele>247.0</ele><time>2026-04-26T13:23:12.405Z</time></trkpt><trkpt lat="42.268845" lon="14.11452"><ele>243.39999999999998</ele><time>2026-04-26T13:23:13.408Z</time></trkpt><trkpt lat="42.2688267" lon="14.1143983"><ele>239.79999999999998</ele><time>2026-04-26T13:23:14.463Z</time></trkpt><trkpt lat="42.2687983" lon="14.1142617"><ele>236.2</ele><time>2026-04-26T13:23:15.41Z</time></trkpt><trkpt lat="42.26877" lon="14.114135"><ele>232.6</ele><time>2026-04-26T13:23:16.409Z</time></trkpt><trkpt lat="42.2687367" lon="14.11403"><ele>229.0</ele><time>2026-04-26T13:23:17.409Z</time></trkpt><trkpt lat="42.2686983" lon="14.1139467"><ele>229.0</ele><time>2026-04-26T13:23:18.408Z</time></trkpt><trkpt lat="42.2686467" lon="14.1138783"><ele>228.99999999999997</ele><time>2026-04-26T13:23:19.412Z</time></trkpt><trkpt lat="42.2685767" lon="14.1138167"><ele>228.99999999999997</ele><time>2026-04-26T13:23:20.46Z</time></trkpt><trkpt lat="42.26849" lon="14.1137483"><ele>229.0</ele><time>2026-04-26T13:23:21.403Z</time></trkpt><trkpt lat="42.2683867" lon="14.1136633"><ele>229.0</ele><time>2026-04-26T13:23:22.408Z</time></trkpt><trkpt lat="42.26828" lon="14.1135833"><ele>229.0</ele><time>2026-04-26T13:23:23.406Z</time></trkpt><trkpt lat="42.2681833" lon="14.113515"><ele>229.0</ele><time>2026-04-26T13:23:24.406Z</time></trkpt><trkpt lat="42.26809" lon="14.1134317"><ele>229.0</ele><time>2026-04-26T13:23:25.409Z</time></trkpt><trkpt lat="42.267995" lon="14.1133133"><ele>229.0</ele><time>2026-04-26T13:23:26.466Z</time></trkpt><trkpt lat="42.2679033" lon="14.1131733"><ele>230.0</ele><time>2026-04-26T13:23:27.411Z</time></trkpt><trkpt lat="42.2678317" lon="14.11303"><ele>231.0</ele><time>2026-04-26T13:23:28.403Z</time></trkpt><trkpt lat="42.2677667" lon="14.1128967"><ele>232.0</ele><time>2026-04-26T13:23:29.404Z</time></trkpt><trkpt lat="42.2676917" lon="14.112775"><ele>233.0</ele><time>2026-04-26T13:23:30.408Z</time></trkpt><trkpt lat="42.2675983" lon="14.1126633"><ele>233.0</ele><time>2026-04-26T13:23:31.403Z</time></trkpt><trkpt lat="42.2675117" lon="14.1125567"><ele>233.0</ele><time>2026-04-26T13:23:32.467Z</time></trkpt><trkpt lat="42.26744" lon="14.1124533"><ele>233.0</ele><time>2026-04-26T13:23:33.401Z</time></trkpt><trkpt lat="42.2673933" lon="14.11231"><ele>233.0</ele><time>2026-04-26T13:23:34.405Z</time></trkpt><trkpt lat="42.2673583" lon="14.112135"><ele>232.0</ele><time>2026-04-26T13:23:35.409Z</time></trkpt><trkpt lat="42.2673233" lon="14.11194"><ele>231.0</ele><time>2026-04-26T13:23:36.401Z</time></trkpt><trkpt lat="42.2672767" lon="14.1117517"><ele>230.0</ele><time>2026-04-26T13:23:37.407Z</time></trkpt><trkpt lat="42.2672233" lon="14.111565"><ele>229.0</ele><time>2026-04-26T13:23:38.458Z</time></trkpt><trkpt lat="42.2671667" lon="14.11137"><ele>234.0</ele><time>2026-04-26T13:23:39.403Z</time></trkpt><trkpt lat="42.267105" lon="14.1111683"><ele>239.0</ele><time>2026-04-26T13:23:40.402Z</time></trkpt><trkpt lat="42.2670383" lon="14.1109617"><ele>244.0</ele><time>2026-04-26T13:23:41.406Z</time></trkpt><trkpt lat="42.2669733" lon="14.110775"><ele>244.75</ele><time>2026-04-26T13:23:42.412Z</time></trkpt><trkpt lat="42.2669133" lon="14.11061"><ele>245.5</ele><time>2026-04-26T13:23:43.399Z</time></trkpt><trkpt lat="42.26687" lon="14.110445"><ele>246.25</ele><time>2026-04-26T13:23:44.458Z</time></trkpt><trkpt lat="42.2668367" lon="14.11027"><ele>247.0</ele><time>2026-04-26T13:23:45.4Z</time></trkpt><trkpt lat="42.2668083" lon="14.1100917"><ele>247.0</ele><time>2026-04-26T13:23:46.412Z</time></trkpt><trkpt lat="42.2667917" lon="14.1099267"><ele>247.0</ele><time>2026-04-26T13:23:47.4Z</time></trkpt><trkpt lat="42.2667683" lon="14.1097917"><ele>247.0</ele><time>2026-04-26T13:23:48.409Z</time></trkpt><trkpt lat="42.26674" lon="14.1096967"><ele>247.0</ele><time>2026-04-26T13:23:49.398Z</time></trkpt><trkpt lat="42.2666783" lon="14.1095467"><ele>247.0</ele><time>2026-04-26T13:23:51.404Z</time></trkpt><trkpt lat="42.2666383" lon="14.1094433"><ele>249.5</ele><time>2026-04-26T13:23:52.411Z</time></trkpt><trkpt lat="42.2665867" lon="14.1093117"><ele>252.0</ele><time>2026-04-26T13:23:53.405Z</time></trkpt><trkpt lat="42.26652" lon="14.1091617"><ele>254.5</ele><time>2026-04-26T13:23:54.397Z</time></trkpt><trkpt lat="42.2664433" lon="14.109015"><ele>257.0</ele><time>2026-04-26T13:23:55.401Z</time></trkpt><trkpt lat="42.2663667" lon="14.10888"><ele>259.5</ele><time>2026-04-26T13:23:56.467Z</time></trkpt><trkpt lat="42.2662817" lon="14.10875"><ele>262.0</ele><time>2026-04-26T13:23:57.403Z</time></trkpt><trkpt lat="42.2661783" lon="14.1086117"><ele>264.5</ele><time>2026-04-26T13:23:58.408Z</time></trkpt><trkpt lat="42.2660783" lon="14.1084583"><ele>267.0</ele><time>2026-04-26T13:23:59.407Z</time></trkpt><trkpt lat="42.2659767" lon="14.1083"><ele>267.5</ele><time>2026-04-26T13:24:00.413Z</time></trkpt><trkpt lat="42.2658883" lon="14.108145"><ele>268.0</ele><time>2026-04-26T13:24:01.41Z</time></trkpt><trkpt lat="42.2658183" lon="14.1079983"><ele>268.5</ele><time>2026-04-26T13:24:02.459Z</time></trkpt><trkpt lat="42.2657617" lon="14.1078483"><ele>269.0</ele><time>2026-04-26T13:24:03.405Z</time></trkpt><trkpt lat="42.2657033" lon="14.10769"><ele>269.0</ele><time>2026-04-26T13:24:04.405Z</time></trkpt><trkpt lat="42.2656383" lon="14.1075317"><ele>269.0</ele><time>2026-04-26T13:24:05.407Z</time></trkpt><trkpt lat="42.2655683" lon="14.107385"><ele>269.0</ele><time>2026-04-26T13:24:06.411Z</time></trkpt><trkpt lat="42.2654933" lon="14.10724"><ele>269.0</ele><time>2026-04-26T13:24:07.409Z</time></trkpt><trkpt lat="42.2654317" lon="14.107105"><ele>269.2</ele><time>2026-04-26T13:24:08.459Z</time></trkpt><trkpt lat="42.2653883" lon="14.107"><ele>269.4</ele><time>2026-04-26T13:24:09.397Z</time></trkpt><trkpt lat="42.2653833" lon="14.10689"><ele>269.6</ele><time>2026-04-26T13:24:11.405Z</time></trkpt><trkpt lat="42.26545" lon="14.1067933"><ele>269.8</ele><time>2026-04-26T13:24:13.396Z</time></trkpt><trkpt lat="42.26549" lon="14.1067267"><ele>270.0</ele><time>2026-04-26T13:24:14.457Z</time></trkpt><trkpt lat="42.26556" lon="14.1065917"><ele>265.0</ele><time>2026-04-26T13:24:16.408Z</time></trkpt><trkpt lat="42.2656283" lon="14.1064717"><ele>260.0</ele><time>2026-04-26T13:24:18.408Z</time></trkpt><trkpt lat="42.2657167" lon="14.1063833"><ele>255.0</ele><time>2026-04-26T13:24:20.454Z</time></trkpt><trkpt lat="42.265815" lon="14.1063217"><ele>250.0</ele><time>2026-04-26T13:24:22.4Z</time></trkpt><trkpt lat="42.2659083" lon="14.1062567"><ele>245.0</ele><time>2026-04-26T13:24:24.41Z</time></trkpt><trkpt lat="42.2660017" lon="14.1061833"><ele>245.00000000000003</ele><time>2026-04-26T13:24:26.471Z</time></trkpt><trkpt lat="42.2660767" lon="14.1060867"><ele>245.0</ele><time>2026-04-26T13:24:28.402Z</time></trkpt><trkpt lat="42.2661333" lon="14.1059883"><ele>245.0</ele><time>2026-04-26T13:24:30.401Z</time></trkpt><trkpt lat="42.266175" lon="14.105875"><ele>245.0</ele><time>2026-04-26T13:24:32.471Z</time></trkpt><trkpt lat="42.2662033" lon="14.105775"><ele>245.00000000000003</ele><time>2026-04-26T13:24:34.408Z</time></trkpt><trkpt lat="42.2662217" lon="14.1056917"><ele>245.0</ele><time>2026-04-26T13:24:36.406Z</time></trkpt><trkpt lat="42.26624" lon="14.1056"><ele>241.50000000000003</ele><time>2026-04-26T13:24:38.46Z</time></trkpt><trkpt lat="42.2662583" lon="14.1055"><ele>238.0</ele><time>2026-04-26T13:24:41.408Z</time></trkpt><trkpt lat="42.2662983" lon="14.1054"><ele>234.5</ele><time>2026-04-26T13:24:48.406Z</time></trkpt><trkpt lat="42.266325" lon="14.1052817"><ele>231.0</ele><time>2026-04-26T13:24:50.457Z</time></trkpt><trkpt lat="42.2663467" lon="14.1051791"><ele>227.50000000000003</ele><time>2026-04-26T13:24:52.409Z</time></trkpt><trkpt lat="42.2663743" lon="14.1050875"><ele>224.0</ele><time>2026-04-26T13:26:07.396Z</time></trkpt><trkpt lat="42.2664463" lon="14.1049821"><ele>224.00000000000003</ele><time>2026-04-26T13:26:09.406Z</time></trkpt><trkpt lat="42.2665001" lon="14.1049222"><ele>224.0</ele><time>2026-04-26T13:26:10.406Z</time></trkpt><trkpt lat="42.2665576" lon="14.1048682"><ele>224.0</ele><time>2026-04-26T13:26:11.405Z</time></trkpt><trkpt lat="42.2666217" lon="14.1048183"><ele>224.0</ele><time>2026-04-26T13:26:12.397Z</time></trkpt><trkpt lat="42.26669" lon="14.1047767"><ele>224.00000000000003</ele><time>2026-04-26T13:26:13.405Z</time></trkpt><trkpt lat="42.2667667" lon="14.104745"><ele>224.0</ele><time>2026-04-26T13:26:14.467Z</time></trkpt><trkpt lat="42.2668483" lon="14.1047283"><ele>221.50000000000003</ele><time>2026-04-26T13:26:15.401Z</time></trkpt><trkpt lat="42.2669333" lon="14.104715"><ele>219.0</ele><time>2026-04-26T13:26:16.406Z</time></trkpt><trkpt lat="42.2670183" lon="14.1046983"><ele>216.5</ele><time>2026-04-26T13:26:17.407Z</time></trkpt><trkpt lat="42.2671017" lon="14.1046817"><ele>214.0</ele><time>2026-04-26T13:26:18.409Z</time></trkpt><trkpt lat="42.2671783" lon="14.1046683"><ele>211.50000000000003</ele><time>2026-04-26T13:26:19.408Z</time></trkpt><trkpt lat="42.2672533" lon="14.10465"><ele>209.0</ele><time>2026-04-26T13:26:20.465Z</time></trkpt><trkpt lat="42.2673317" lon="14.1046267"><ele>209.00000000000003</ele><time>2026-04-26T13:26:21.403Z</time></trkpt><trkpt lat="42.2674133" lon="14.1046017"><ele>209.0</ele><time>2026-04-26T13:26:22.409Z</time></trkpt><trkpt lat="42.267495" lon="14.10458"><ele>209.0</ele><time>2026-04-26T13:26:23.406Z</time></trkpt><trkpt lat="42.2675817" lon="14.104565"><ele>209.0</ele><time>2026-04-26T13:26:24.405Z</time></trkpt><trkpt lat="42.2676733" lon="14.1045517"><ele>209.00000000000003</ele><time>2026-04-26T13:26:25.404Z</time></trkpt><trkpt lat="42.26777" lon="14.1045383"><ele>209.0</ele><time>2026-04-26T13:26:26.467Z</time></trkpt><trkpt lat="42.2678733" lon="14.104525"><ele>209.0</ele><time>2026-04-26T13:26:27.406Z</time></trkpt><trkpt lat="42.26798" lon="14.1045083"><ele>209.0</ele><time>2026-04-26T13:26:28.411Z</time></trkpt><trkpt lat="42.2680917" lon="14.1044883"><ele>209.0</ele><time>2026-04-26T13:26:29.406Z</time></trkpt><trkpt lat="42.26821" lon="14.1044583"><ele>209.0</ele><time>2026-04-26T13:26:30.409Z</time></trkpt><trkpt lat="42.26833" lon="14.1044233"><ele>210.0</ele><time>2026-04-26T13:26:31.409Z</time></trkpt><trkpt lat="42.268435" lon="14.1043933"><ele>211.0</ele><time>2026-04-26T13:26:32.47Z</time></trkpt><trkpt lat="42.2685183" lon="14.1043717"><ele>211.99999999999997</ele><time>2026-04-26T13:26:33.403Z</time></trkpt><trkpt lat="42.268585" lon="14.1043583"><ele>213.0</ele><time>2026-04-26T13:26:34.409Z</time></trkpt><trkpt lat="42.2687" lon="14.1043667"><ele>214.0</ele><time>2026-04-26T13:26:36.402Z</time></trkpt><trkpt lat="42.2688233" lon="14.1043867"><ele>214.0</ele><time>2026-04-26T13:26:38.466Z</time></trkpt><trkpt lat="42.2688967" lon="14.1044033"><ele>213.99999999999997</ele><time>2026-04-26T13:26:39.403Z</time></trkpt><trkpt lat="42.2689867" lon="14.1044267"><ele>213.99999999999997</ele><time>2026-04-26T13:26:40.409Z</time></trkpt><trkpt lat="42.26908" lon="14.10445"><ele>214.0</ele><time>2026-04-26T13:26:41.407Z</time></trkpt><trkpt lat="42.2691767" lon="14.1044767"><ele>214.0</ele><time>2026-04-26T13:26:42.404Z</time></trkpt><trkpt lat="42.26927" lon="14.10451"><ele>213.79999999999998</ele><time>2026-04-26T13:26:43.409Z</time></trkpt><trkpt lat="42.2693583" lon="14.1045483"><ele>213.59999999999997</ele><time>2026-04-26T13:26:44.462Z</time></trkpt><trkpt lat="42.2694517" lon="14.1045767"><ele>213.4</ele><time>2026-04-26T13:26:45.4Z</time></trkpt><trkpt lat="42.2695483" lon="14.1045867"><ele>213.2</ele><time>2026-04-26T13:26:46.405Z</time></trkpt><trkpt lat="42.26965" lon="14.104575"><ele>213.0</ele><time>2026-04-26T13:26:47.405Z</time></trkpt><trkpt lat="42.2697583" lon="14.1045567"><ele>214.25</ele><time>2026-04-26T13:26:48.405Z</time></trkpt><trkpt lat="42.2698717" lon="14.104545"><ele>215.5</ele><time>2026-04-26T13:26:49.397Z</time></trkpt><trkpt lat="42.2699867" lon="14.10455"><ele>216.75</ele><time>2026-04-26T13:26:50.461Z</time></trkpt><trkpt lat="42.270095" lon="14.104565"><ele>218.0</ele><time>2026-04-26T13:26:51.398Z</time></trkpt><trkpt lat="42.2702067" lon="14.10458"><ele>218.0</ele><time>2026-04-26T13:26:52.4Z</time></trkpt><trkpt lat="42.2703133" lon="14.104595"><ele>218.0</ele><time>2026-04-26T13:26:53.406Z</time></trkpt><trkpt lat="42.270415" lon="14.1046"><ele>218.0</ele><time>2026-04-26T13:26:54.402Z</time></trkpt><trkpt lat="42.2705117" lon="14.1045983"><ele>218.0</ele><time>2026-04-26T13:26:55.4Z</time></trkpt><trkpt lat="42.2705933" lon="14.104595"><ele>218.0</ele><time>2026-04-26T13:26:56.461Z</time></trkpt><trkpt lat="42.2706583" lon="14.1045883"><ele>217.60000000000002</ele><time>2026-04-26T13:26:57.404Z</time></trkpt><trkpt lat="42.2707683" lon="14.1045667"><ele>217.20000000000002</ele><time>2026-04-26T13:26:59.4Z</time></trkpt><trkpt lat="42.2708433" lon="14.10455"><ele>216.8</ele><time>2026-04-26T13:27:00.408Z</time></trkpt><trkpt lat="42.2709317" lon="14.104525"><ele>216.4</ele><time>2026-04-26T13:27:01.406Z</time></trkpt><trkpt lat="42.2710317" lon="14.1044917"><ele>216.0</ele><time>2026-04-26T13:27:02.468Z</time></trkpt><trkpt lat="42.2711433" lon="14.1044583"><ele>216.0</ele><time>2026-04-26T13:27:03.403Z</time></trkpt><trkpt lat="42.2712683" lon="14.1044317"><ele>216.0</ele><time>2026-04-26T13:27:04.41Z</time></trkpt><trkpt lat="42.2713967" lon="14.1044133"><ele>216.0</ele><time>2026-04-26T13:27:05.408Z</time></trkpt><trkpt lat="42.27151" lon="14.1043967"><ele>216.0</ele><time>2026-04-26T13:27:06.397Z</time></trkpt><trkpt lat="42.2716033" lon="14.1043783"><ele>214.60000000000002</ele><time>2026-04-26T13:27:07.403Z</time></trkpt><trkpt lat="42.2716867" lon="14.1043417"><ele>213.20000000000002</ele><time>2026-04-26T13:27:08.465Z</time></trkpt><trkpt lat="42.2717733" lon="14.1042717"><ele>211.8</ele><time>2026-04-26T13:27:09.406Z</time></trkpt><trkpt lat="42.2718617" lon="14.10418"><ele>210.39999999999998</ele><time>2026-04-26T13:27:10.407Z</time></trkpt><trkpt lat="42.2719467" lon="14.104085"><ele>209.0</ele><time>2026-04-26T13:27:11.397Z</time></trkpt><trkpt lat="42.27202" lon="14.103985"><ele>206.2</ele><time>2026-04-26T13:27:12.401Z</time></trkpt><trkpt lat="42.272075" lon="14.1038767"><ele>203.39999999999998</ele><time>2026-04-26T13:27:13.404Z</time></trkpt><trkpt lat="42.272115" lon="14.1037633"><ele>200.6</ele><time>2026-04-26T13:27:14.465Z</time></trkpt><trkpt lat="42.2721467" lon="14.103635"><ele>197.8</ele><time>2026-04-26T13:27:15.403Z</time></trkpt><trkpt lat="42.2721817" lon="14.1034983"><ele>195.0</ele><time>2026-04-26T13:27:16.403Z</time></trkpt><trkpt lat="42.2722117" lon="14.1033567"><ele>192.8</ele><time>2026-04-26T13:27:17.406Z</time></trkpt><trkpt lat="42.2722317" lon="14.1032067"><ele>190.6</ele><time>2026-04-26T13:27:18.404Z</time></trkpt><trkpt lat="42.2722433" lon="14.1030583"><ele>188.39999999999998</ele><time>2026-04-26T13:27:19.403Z</time></trkpt><trkpt lat="42.2722583" lon="14.1029133"><ele>186.2</ele><time>2026-04-26T13:27:20.465Z</time></trkpt><trkpt lat="42.2722783" lon="14.102785"><ele>184.0</ele><time>2026-04-26T13:27:21.4Z</time></trkpt><trkpt lat="42.2723133" lon="14.1026783"><ele>185.6</ele><time>2026-04-26T13:27:22.404Z</time></trkpt><trkpt lat="42.2723633" lon="14.10259"><ele>187.2</ele><time>2026-04-26T13:27:23.399Z</time></trkpt><trkpt lat="42.2724367" lon="14.102515"><ele>188.79999999999998</ele><time>2026-04-26T13:27:24.399Z</time></trkpt><trkpt lat="42.2725317" lon="14.1024417"><ele>190.39999999999998</ele><time>2026-04-26T13:27:25.406Z</time></trkpt><trkpt lat="42.2726317" lon="14.1023567"><ele>192.0</ele><time>2026-04-26T13:27:26.466Z</time></trkpt><trkpt lat="42.2727217" lon="14.102265"><ele>192.0</ele><time>2026-04-26T13:27:27.404Z</time></trkpt><trkpt lat="42.2727967" lon="14.1021633"><ele>192.0</ele><time>2026-04-26T13:27:28.408Z</time></trkpt><trkpt lat="42.27286" lon="14.1020467"><ele>192.0</ele><time>2026-04-26T13:27:29.402Z</time></trkpt><trkpt lat="42.2729083" lon="14.101915"><ele>192.0</ele><time>2026-04-26T13:27:30.407Z</time></trkpt><trkpt lat="42.272955" lon="14.1017783"><ele>192.0</ele><time>2026-04-26T13:27:31.399Z</time></trkpt><trkpt lat="42.2730033" lon="14.1016533"><ele>191.83333333333334</ele><time>2026-04-26T13:27:32.464Z</time></trkpt><trkpt lat="42.27306" lon="14.1015483"><ele>191.66666666666666</ele><time>2026-04-26T13:27:33.408Z</time></trkpt><trkpt lat="42.27312" lon="14.1014717"><ele>191.5</ele><time>2026-04-26T13:27:34.408Z</time></trkpt><trkpt lat="42.2731867" lon="14.1014183"><ele>191.33333333333331</ele><time>2026-04-26T13:27:35.41Z</time></trkpt><trkpt lat="42.2732617" lon="14.1013933"><ele>191.16666666666666</ele><time>2026-04-26T13:27:36.397Z</time></trkpt><trkpt lat="42.273345" lon="14.1014017"><ele>191.0</ele><time>2026-04-26T13:27:37.409Z</time></trkpt><trkpt lat="42.2734483" lon="14.1014417"><ele>191.0</ele><time>2026-04-26T13:27:38.466Z</time></trkpt><trkpt lat="42.2735617" lon="14.1014883"><ele>191.0</ele><time>2026-04-26T13:27:39.406Z</time></trkpt><trkpt lat="42.27368" lon="14.101535"><ele>191.0</ele><time>2026-04-26T13:27:40.407Z</time></trkpt><trkpt lat="42.2738017" lon="14.101585"><ele>191.0</ele><time>2026-04-26T13:27:41.407Z</time></trkpt><trkpt lat="42.2739233" lon="14.1016383"><ele>189.8</ele><time>2026-04-26T13:27:42.403Z</time></trkpt><trkpt lat="42.2740333" lon="14.101685"><ele>188.60000000000002</ele><time>2026-04-26T13:27:43.4Z</time></trkpt><trkpt lat="42.27414" lon="14.1017167"><ele>187.4</ele><time>2026-04-26T13:27:44.457Z</time></trkpt><trkpt lat="42.274245" lon="14.10173"><ele>186.2</ele><time>2026-04-26T13:27:45.403Z</time></trkpt><trkpt lat="42.2743483" lon="14.101725"><ele>185.0</ele><time>2026-04-26T13:27:46.401Z</time></trkpt><trkpt lat="42.27445" lon="14.1017"><ele>185.0</ele><time>2026-04-26T13:27:47.406Z</time></trkpt><trkpt lat="42.274545" lon="14.1016583"><ele>185.0</ele><time>2026-04-26T13:27:48.402Z</time></trkpt><trkpt lat="42.274635" lon="14.1016033"><ele>185.0</ele><time>2026-04-26T13:27:49.408Z</time></trkpt><trkpt lat="42.2747183" lon="14.1015333"><ele>185.0</ele><time>2026-04-26T13:27:50.467Z</time></trkpt><trkpt lat="42.2747933" lon="14.1014483"><ele>185.0</ele><time>2026-04-26T13:27:51.406Z</time></trkpt><trkpt lat="42.27486" lon="14.101355"><ele>183.8</ele><time>2026-04-26T13:27:52.408Z</time></trkpt><trkpt lat="42.2749233" lon="14.1012517"><ele>182.6</ele><time>2026-04-26T13:27:53.408Z</time></trkpt><trkpt lat="42.27498" lon="14.10114"><ele>181.39999999999998</ele><time>2026-04-26T13:27:54.408Z</time></trkpt><trkpt lat="42.2750333" lon="14.1010133"><ele>180.2</ele><time>2026-04-26T13:27:55.413Z</time></trkpt><trkpt lat="42.275085" lon="14.1008733"><ele>179.0</ele><time>2026-04-26T13:27:56.464Z</time></trkpt><trkpt lat="42.27514" lon="14.1007233"><ele>177.75</ele><time>2026-04-26T13:27:57.404Z</time></trkpt><trkpt lat="42.2751967" lon="14.10057"><ele>176.5</ele><time>2026-04-26T13:27:58.396Z</time></trkpt><trkpt lat="42.27526" lon="14.100415"><ele>175.25</ele><time>2026-04-26T13:27:59.403Z</time></trkpt><trkpt lat="42.275325" lon="14.10026"><ele>174.0</ele><time>2026-04-26T13:28:00.411Z</time></trkpt><trkpt lat="42.2753867" lon="14.1001"><ele>174.0</ele><time>2026-04-26T13:28:01.408Z</time></trkpt><trkpt lat="42.2754467" lon="14.0999367"><ele>174.0</ele><time>2026-04-26T13:28:02.461Z</time></trkpt><trkpt lat="42.2754967" lon="14.099765"><ele>174.0</ele><time>2026-04-26T13:28:03.398Z</time></trkpt><trkpt lat="42.2755283" lon="14.0995783"><ele>174.0</ele><time>2026-04-26T13:28:04.403Z</time></trkpt><trkpt lat="42.2755317" lon="14.0993783"><ele>174.33333333333334</ele><time>2026-04-26T13:28:05.407Z</time></trkpt><trkpt lat="42.2755217" lon="14.0991667"><ele>174.66666666666669</ele><time>2026-04-26T13:28:06.408Z</time></trkpt><trkpt lat="42.2754917" lon="14.0989333"><ele>175.0</ele><time>2026-04-26T13:28:07.4Z</time></trkpt><trkpt lat="42.27545" lon="14.098675"><ele>176.66666666666669</ele><time>2026-04-26T13:28:08.465Z</time></trkpt><trkpt lat="42.2754133" lon="14.09842"><ele>178.33333333333334</ele><time>2026-04-26T13:28:09.4Z</time></trkpt><trkpt lat="42.2753817" lon="14.098175"><ele>180.0</ele><time>2026-04-26T13:28:10.401Z</time></trkpt><trkpt lat="42.2753633" lon="14.0979533"><ele>180.0</ele><time>2026-04-26T13:28:11.403Z</time></trkpt><trkpt lat="42.2753583" lon="14.09774"><ele>180.0</ele><time>2026-04-26T13:28:12.404Z</time></trkpt><trkpt lat="42.275365" lon="14.0975317"><ele>180.0</ele><time>2026-04-26T13:28:13.4Z</time></trkpt><trkpt lat="42.2753783" lon="14.0973283"><ele>178.75</ele><time>2026-04-26T13:28:14.459Z</time></trkpt><trkpt lat="42.2753967" lon="14.0971267"><ele>177.5</ele><time>2026-04-26T13:28:15.403Z</time></trkpt><trkpt lat="42.275415" lon="14.0969317"><ele>176.25</ele><time>2026-04-26T13:28:16.403Z</time></trkpt><trkpt lat="42.2754333" lon="14.0967383"><ele>175.0</ele><time>2026-04-26T13:28:17.407Z</time></trkpt><trkpt lat="42.2754517" lon="14.0965417"><ele>173.25</ele><time>2026-04-26T13:28:18.396Z</time></trkpt><trkpt lat="42.2754733" lon="14.096345"><ele>171.5</ele><time>2026-04-26T13:28:19.411Z</time></trkpt><trkpt lat="42.2754983" lon="14.0961533"><ele>169.75</ele><time>2026-04-26T13:28:20.463Z</time></trkpt><trkpt lat="42.27553" lon="14.095965"><ele>168.0</ele><time>2026-04-26T13:28:21.4Z</time></trkpt><trkpt lat="42.2755617" lon="14.095795"><ele>167.5</ele><time>2026-04-26T13:28:22.401Z</time></trkpt><trkpt lat="42.27559" lon="14.0956433"><ele>167.0</ele><time>2026-04-26T13:28:23.403Z</time></trkpt><trkpt lat="42.2756117" lon="14.0955083"><ele>166.5</ele><time>2026-04-26T13:28:24.411Z</time></trkpt><trkpt lat="42.2756283" lon="14.0953883"><ele>166.0</ele><time>2026-04-26T13:28:25.397Z</time></trkpt><trkpt lat="42.2756383" lon="14.095285"><ele>165.5</ele><time>2026-04-26T13:28:26.451Z</time></trkpt><trkpt lat="42.275655" lon="14.0952017"><ele>165.0</ele><time>2026-04-26T13:28:27.403Z</time></trkpt><trkpt lat="42.2757617" lon="14.09508"><ele>165.0</ele><time>2026-04-26T13:28:29.408Z</time></trkpt><trkpt lat="42.2758583" lon="14.0950283"><ele>165.0</ele><time>2026-04-26T13:28:30.403Z</time></trkpt><trkpt lat="42.275975" lon="14.0949717"><ele>165.0</ele><time>2026-04-26T13:28:31.406Z</time></trkpt><trkpt lat="42.27611" lon="14.0949"><ele>165.0</ele><time>2026-04-26T13:28:32.462Z</time></trkpt><trkpt lat="42.2762617" lon="14.0948133"><ele>161.33333333333334</ele><time>2026-04-26T13:28:33.406Z</time></trkpt><trkpt lat="42.2764167" lon="14.0947267"><ele>157.66666666666669</ele><time>2026-04-26T13:28:34.398Z</time></trkpt><trkpt lat="42.27656" lon="14.09464"><ele>154.0</ele><time>2026-04-26T13:28:35.396Z</time></trkpt><trkpt lat="42.2766867" lon="14.094545"><ele>154.0</ele><time>2026-04-26T13:28:36.405Z</time></trkpt><trkpt lat="42.2767933" lon="14.0944417"><ele>154.0</ele><time>2026-04-26T13:28:37.404Z</time></trkpt><trkpt lat="42.2768783" lon="14.0943183"><ele>154.0</ele><time>2026-04-26T13:28:38.466Z</time></trkpt><trkpt lat="42.2769383" lon="14.0941717"><ele>154.0</ele><time>2026-04-26T13:28:39.406Z</time></trkpt><trkpt lat="42.2769783" lon="14.0939967"><ele>151.0</ele><time>2026-04-26T13:28:40.401Z</time></trkpt><trkpt lat="42.2770133" lon="14.0938017"><ele>148.0</ele><time>2026-04-26T13:28:41.408Z</time></trkpt><trkpt lat="42.27705" lon="14.0935933"><ele>145.0</ele><time>2026-04-26T13:28:42.408Z</time></trkpt><trkpt lat="42.2770867" lon="14.0933783"><ele>142.0</ele><time>2026-04-26T13:28:43.408Z</time></trkpt><trkpt lat="42.2771217" lon="14.0931633"><ele>139.0</ele><time>2026-04-26T13:28:44.465Z</time></trkpt><trkpt lat="42.2771533" lon="14.0929483"><ele>136.0</ele><time>2026-04-26T13:28:45.404Z</time></trkpt><trkpt lat="42.277175" lon="14.0927367"><ele>136.0</ele><time>2026-04-26T13:28:46.411Z</time></trkpt><trkpt lat="42.2771883" lon="14.09252"><ele>136.0</ele><time>2026-04-26T13:28:47.405Z</time></trkpt><trkpt lat="42.2771883" lon="14.0922917"><ele>136.0</ele><time>2026-04-26T13:28:48.401Z</time></trkpt><trkpt lat="42.277185" lon="14.0920717"><ele>133.75</ele><time>2026-04-26T13:28:49.409Z</time></trkpt><trkpt lat="42.277185" lon="14.0918717"><ele>131.5</ele><time>2026-04-26T13:28:50.466Z</time></trkpt><trkpt lat="42.2771917" lon="14.09169"><ele>129.25</ele><time>2026-04-26T13:28:51.401Z</time></trkpt><trkpt lat="42.2772067" lon="14.0915283"><ele>127.0</ele><time>2026-04-26T13:28:52.406Z</time></trkpt><trkpt lat="42.2772317" lon="14.091375"><ele>128.0</ele><time>2026-04-26T13:28:53.411Z</time></trkpt><trkpt lat="42.2772667" lon="14.0912333"><ele>129.0</ele><time>2026-04-26T13:28:54.399Z</time></trkpt><trkpt lat="42.2773117" lon="14.091115"><ele>130.0</ele><time>2026-04-26T13:28:55.401Z</time></trkpt><trkpt lat="42.2773667" lon="14.0910283"><ele>131.0</ele><time>2026-04-26T13:28:56.468Z</time></trkpt><trkpt lat="42.277435" lon="14.090985"><ele>132.0</ele><time>2026-04-26T13:28:57.408Z</time></trkpt><trkpt lat="42.2775133" lon="14.0909867"><ele>133.0</ele><time>2026-04-26T13:28:58.407Z</time></trkpt><trkpt lat="42.2775967" lon="14.0910217"><ele>133.0</ele><time>2026-04-26T13:28:59.408Z</time></trkpt><trkpt lat="42.27768" lon="14.0910767"><ele>133.0</ele><time>2026-04-26T13:29:00.397Z</time></trkpt><trkpt lat="42.2777617" lon="14.0911317"><ele>133.0</ele><time>2026-04-26T13:29:01.4Z</time></trkpt><trkpt lat="42.2778367" lon="14.0911767"><ele>133.0</ele><time>2026-04-26T13:29:02.459Z</time></trkpt><trkpt lat="42.2779083" lon="14.0912"><ele>133.0</ele><time>2026-04-26T13:29:03.4Z</time></trkpt><trkpt lat="42.277975" lon="14.0912033"><ele>133.0</ele><time>2026-04-26T13:29:04.402Z</time></trkpt><trkpt lat="42.27803" lon="14.0911617"><ele>133.0</ele><time>2026-04-26T13:29:05.405Z</time></trkpt><trkpt lat="42.2780783" lon="14.090995"><ele>133.0</ele><time>2026-04-26T13:29:07.398Z</time></trkpt><trkpt lat="42.2780733" lon="14.0908833"><ele>133.0</ele><time>2026-04-26T13:29:08.463Z</time></trkpt><trkpt lat="42.2780583" lon="14.0907717"><ele>133.0</ele><time>2026-04-26T13:29:09.403Z</time></trkpt><trkpt lat="42.278045" lon="14.09068"><ele>133.0</ele><time>2026-04-26T13:29:10.399Z</time></trkpt><trkpt lat="42.278045" lon="14.090565"><ele>130.4</ele><time>2026-04-26T13:29:12.405Z</time></trkpt><trkpt lat="42.2781183" lon="14.0905883"><ele>127.80000000000001</ele><time>2026-04-26T13:29:15.404Z</time></trkpt><trkpt lat="42.27819" lon="14.0907267"><ele>125.2</ele><time>2026-04-26T13:29:17.408Z</time></trkpt><trkpt lat="42.2782283" lon="14.0908417"><ele>122.6</ele><time>2026-04-26T13:29:18.401Z</time></trkpt><trkpt lat="42.2782733" lon="14.0909767"><ele>120.0</ele><time>2026-04-26T13:29:19.405Z</time></trkpt><trkpt lat="42.278325" lon="14.0911233"><ele>120.0</ele><time>2026-04-26T13:29:20.463Z</time></trkpt><trkpt lat="42.2783783" lon="14.0912883"><ele>120.0</ele><time>2026-04-26T13:29:21.408Z</time></trkpt><trkpt lat="42.2784267" lon="14.0914733"><ele>120.0</ele><time>2026-04-26T13:29:22.403Z</time></trkpt><trkpt lat="42.2784733" lon="14.09168"><ele>120.0</ele><time>2026-04-26T13:29:23.405Z</time></trkpt><trkpt lat="42.27851" lon="14.091895"><ele>121.0</ele><time>2026-04-26T13:29:24.404Z</time></trkpt><trkpt lat="42.2785433" lon="14.092105"><ele>122.0</ele><time>2026-04-26T13:29:25.405Z</time></trkpt><trkpt lat="42.2785667" lon="14.0923033"><ele>123.0</ele><time>2026-04-26T13:29:26.462Z</time></trkpt><trkpt lat="42.2785917" lon="14.092485"><ele>124.0</ele><time>2026-04-26T13:29:27.405Z</time></trkpt><trkpt lat="42.27862" lon="14.092645"><ele>124.2</ele><time>2026-04-26T13:29:28.409Z</time></trkpt><trkpt lat="42.278655" lon="14.09279"><ele>124.4</ele><time>2026-04-26T13:29:29.397Z</time></trkpt><trkpt lat="42.2787033" lon="14.0929183"><ele>124.6</ele><time>2026-04-26T13:29:30.41Z</time></trkpt><trkpt lat="42.2787583" lon="14.0930333"><ele>124.8</ele><time>2026-04-26T13:29:31.408Z</time></trkpt><trkpt lat="42.2788333" lon="14.09312"><ele>125.0</ele><time>2026-04-26T13:29:32.466Z</time></trkpt><trkpt lat="42.278915" lon="14.093175"><ele>122.0</ele><time>2026-04-26T13:29:33.406Z</time></trkpt><trkpt lat="42.2790083" lon="14.0931683"><ele>119.0</ele><time>2026-04-26T13:29:34.408Z</time></trkpt><trkpt lat="42.27911" lon="14.0931483"><ele>116.0</ele><time>2026-04-26T13:29:35.411Z</time></trkpt><trkpt lat="42.27922" lon="14.0931233"><ele>113.0</ele><time>2026-04-26T13:29:36.399Z</time></trkpt><trkpt lat="42.2793267" lon="14.0931133"><ele>110.0</ele><time>2026-04-26T13:29:37.396Z</time></trkpt><trkpt lat="42.2794233" lon="14.0931317"><ele>110.0</ele><time>2026-04-26T13:29:38.466Z</time></trkpt><trkpt lat="42.2795117" lon="14.0931817"><ele>110.0</ele><time>2026-04-26T13:29:39.407Z</time></trkpt><trkpt lat="42.2795983" lon="14.09327"><ele>110.0</ele><time>2026-04-26T13:29:40.406Z</time></trkpt><trkpt lat="42.279685" lon="14.0933883"><ele>110.0</ele><time>2026-04-26T13:29:41.404Z</time></trkpt><trkpt lat="42.27978" lon="14.0935133"><ele>107.75</ele><time>2026-04-26T13:29:42.409Z</time></trkpt><trkpt lat="42.27988" lon="14.0936317"><ele>105.5</ele><time>2026-04-26T13:29:43.401Z</time></trkpt><trkpt lat="42.2799817" lon="14.09374"><ele>103.25</ele><time>2026-04-26T13:29:44.468Z</time></trkpt><trkpt lat="42.2800683" lon="14.0938417"><ele>101.0</ele><time>2026-04-26T13:29:45.403Z</time></trkpt><trkpt lat="42.2801283" lon="14.0939467"><ele>101.0</ele><time>2026-04-26T13:29:46.406Z</time></trkpt><trkpt lat="42.28017" lon="14.0940667"><ele>101.0</ele><time>2026-04-26T13:29:47.397Z</time></trkpt><trkpt lat="42.2802" lon="14.0941933"><ele>101.0</ele><time>2026-04-26T13:29:48.398Z</time></trkpt><trkpt lat="42.2801967" lon="14.0943617"><ele>101.0</ele><time>2026-04-26T13:29:49.399Z</time></trkpt><trkpt lat="42.280195" lon="14.0945467"><ele>100.66666666666666</ele><time>2026-04-26T13:29:50.461Z</time></trkpt><trkpt lat="42.2801983" lon="14.0947517"><ele>100.33333333333334</ele><time>2026-04-26T13:29:51.401Z</time></trkpt><trkpt lat="42.2802083" lon="14.0949833"><ele>100.0</ele><time>2026-04-26T13:29:52.399Z</time></trkpt><trkpt lat="42.2802233" lon="14.0952533"><ele>100.0</ele><time>2026-04-26T13:29:53.407Z</time></trkpt><trkpt lat="42.2802467" lon="14.095555"><ele>100.0</ele><time>2026-04-26T13:29:54.41Z</time></trkpt><trkpt lat="42.2802717" lon="14.095845"><ele>100.0</ele><time>2026-04-26T13:29:55.398Z</time></trkpt><trkpt lat="42.2803017" lon="14.0961083"><ele>100.0</ele><time>2026-04-26T13:29:56.461Z</time></trkpt><trkpt lat="42.2803417" lon="14.0963683"><ele>100.0</ele><time>2026-04-26T13:29:57.401Z</time></trkpt><trkpt lat="42.280395" lon="14.09662"><ele>100.0</ele><time>2026-04-26T13:29:58.404Z</time></trkpt><trkpt lat="42.280445" lon="14.0968517"><ele>101.0</ele><time>2026-04-26T13:29:59.407Z</time></trkpt><trkpt lat="42.28048" lon="14.0970783"><ele>102.0</ele><time>2026-04-26T13:30:00.404Z</time></trkpt><trkpt lat="42.2805" lon="14.0973017"><ele>103.0</ele><time>2026-04-26T13:30:01.402Z</time></trkpt><trkpt lat="42.280525" lon="14.0975333"><ele>103.0</ele><time>2026-04-26T13:30:02.46Z</time></trkpt><trkpt lat="42.28056" lon="14.0977833"><ele>103.0</ele><time>2026-04-26T13:30:03.405Z</time></trkpt><trkpt lat="42.2806083" lon="14.098045"><ele>103.0</ele><time>2026-04-26T13:30:04.404Z</time></trkpt><trkpt lat="42.2806617" lon="14.09833"><ele>106.5</ele><time>2026-04-26T13:30:05.408Z</time></trkpt><trkpt lat="42.2807217" lon="14.09863"><ele>110.0</ele><time>2026-04-26T13:30:06.398Z</time></trkpt><trkpt lat="42.2807817" lon="14.0989217"><ele>112.33333333333333</ele><time>2026-04-26T13:30:07.407Z</time></trkpt><trkpt lat="42.2808383" lon="14.09919"><ele>114.66666666666666</ele><time>2026-04-26T13:30:08.474Z</time></trkpt><trkpt lat="42.2808967" lon="14.0994483"><ele>117.0</ele><time>2026-04-26T13:30:09.401Z</time></trkpt><trkpt lat="42.2809483" lon="14.0996833"><ele>117.0</ele><time>2026-04-26T13:30:10.408Z</time></trkpt><trkpt lat="42.281" lon="14.0998817"><ele>116.99999999999999</ele><time>2026-04-26T13:30:11.407Z</time></trkpt><trkpt lat="42.2810433" lon="14.100035"><ele>116.99999999999999</ele><time>2026-04-26T13:30:12.408Z</time></trkpt><trkpt lat="42.2810817" lon="14.1001383"><ele>117.0</ele><time>2026-04-26T13:30:13.406Z</time></trkpt><trkpt lat="42.281125" lon="14.1002183"><ele>117.0</ele><time>2026-04-26T13:30:14.469Z</time></trkpt><trkpt lat="42.2811733" lon="14.1003117"><ele>118.75</ele><time>2026-04-26T13:30:15.405Z</time></trkpt><trkpt lat="42.2812267" lon="14.10042"><ele>120.5</ele><time>2026-04-26T13:30:16.395Z</time></trkpt><trkpt lat="42.281295" lon="14.1005467"><ele>122.25</ele><time>2026-04-26T13:30:17.404Z</time></trkpt><trkpt lat="42.28137" lon="14.1006833"><ele>124.0</ele><time>2026-04-26T13:30:18.409Z</time></trkpt><trkpt lat="42.2814433" lon="14.1008283"><ele>124.0</ele><time>2026-04-26T13:30:19.409Z</time></trkpt><trkpt lat="42.281515" lon="14.10097"><ele>124.0</ele><time>2026-04-26T13:30:20.463Z</time></trkpt><trkpt lat="42.2815817" lon="14.101115"><ele>124.0</ele><time>2026-04-26T13:30:21.397Z</time></trkpt><trkpt lat="42.2816483" lon="14.1012633"><ele>124.0</ele><time>2026-04-26T13:30:22.401Z</time></trkpt><trkpt lat="42.2817217" lon="14.1014133"><ele>124.0</ele><time>2026-04-26T13:30:23.4Z</time></trkpt><trkpt lat="42.2817983" lon="14.101565"><ele>124.0</ele><time>2026-04-26T13:30:24.401Z</time></trkpt><trkpt lat="42.2818733" lon="14.1017217"><ele>124.0</ele><time>2026-04-26T13:30:25.409Z</time></trkpt><trkpt lat="42.281945" lon="14.1018833"><ele>124.0</ele><time>2026-04-26T13:30:26.464Z</time></trkpt><trkpt lat="42.28202" lon="14.1020567"><ele>123.5</ele><time>2026-04-26T13:30:27.404Z</time></trkpt><trkpt lat="42.282095" lon="14.1022367"><ele>123.0</ele><time>2026-04-26T13:30:28.407Z</time></trkpt><trkpt lat="42.2821667" lon="14.1024067"><ele>122.5</ele><time>2026-04-26T13:30:29.396Z</time></trkpt><trkpt lat="42.2822333" lon="14.10257"><ele>122.0</ele><time>2026-04-26T13:30:30.394Z</time></trkpt><trkpt lat="42.2822983" lon="14.1027217"><ele>122.0</ele><time>2026-04-26T13:30:31.4Z</time></trkpt><trkpt lat="42.2823667" lon="14.1028767"><ele>122.0</ele><time>2026-04-26T13:30:32.461Z</time></trkpt><trkpt lat="42.2824433" lon="14.10304"><ele>122.0</ele><time>2026-04-26T13:30:33.408Z</time></trkpt><trkpt lat="42.2825217" lon="14.10322"><ele>122.0</ele><time>2026-04-26T13:30:34.407Z</time></trkpt><trkpt lat="42.2826" lon="14.1034083"><ele>124.33333333333333</ele><time>2026-04-26T13:30:35.404Z</time></trkpt><trkpt lat="42.2826783" lon="14.1035883"><ele>126.66666666666666</ele><time>2026-04-26T13:30:36.405Z</time></trkpt><trkpt lat="42.2827533" lon="14.1037633"><ele>129.0</ele><time>2026-04-26T13:30:37.405Z</time></trkpt><trkpt lat="42.2828233" lon="14.10394"><ele>130.75</ele><time>2026-04-26T13:30:38.46Z</time></trkpt><trkpt lat="42.2828867" lon="14.1041133"><ele>132.5</ele><time>2026-04-26T13:30:39.399Z</time></trkpt><trkpt lat="42.2829483" lon="14.104285"><ele>134.25</ele><time>2026-04-26T13:30:40.396Z</time></trkpt><trkpt lat="42.2830017" lon="14.104445"><ele>136.0</ele><time>2026-04-26T13:30:41.406Z</time></trkpt><trkpt lat="42.283055" lon="14.1045967"><ele>132.5</ele><time>2026-04-26T13:30:42.403Z</time></trkpt><trkpt lat="42.2831167" lon="14.1047533"><ele>129.0</ele><time>2026-04-26T13:30:43.408Z</time></trkpt><trkpt lat="42.28318" lon="14.104915"><ele>125.5</ele><time>2026-04-26T13:30:44.468Z</time></trkpt><trkpt lat="42.2832467" lon="14.1050933"><ele>122.0</ele><time>2026-04-26T13:30:45.403Z</time></trkpt><trkpt lat="42.28331" lon="14.1052817"><ele>122.0</ele><time>2026-04-26T13:30:46.396Z</time></trkpt><trkpt lat="42.28337" lon="14.10546"><ele>122.0</ele><time>2026-04-26T13:30:47.406Z</time></trkpt><trkpt lat="42.2834233" lon="14.105625"><ele>122.0</ele><time>2026-04-26T13:30:48.408Z</time></trkpt><trkpt lat="42.2834717" lon="14.1057717"><ele>122.0</ele><time>2026-04-26T13:30:49.406Z</time></trkpt><trkpt lat="42.283515" lon="14.1059067"><ele>122.99999999999999</ele><time>2026-04-26T13:30:50.456Z</time></trkpt><trkpt lat="42.2835567" lon="14.10602"><ele>124.0</ele><time>2026-04-26T13:30:51.402Z</time></trkpt><trkpt lat="42.2835967" lon="14.106115"><ele>125.0</ele><time>2026-04-26T13:30:52.402Z</time></trkpt><trkpt lat="42.2836333" lon="14.106205"><ele>126.0</ele><time>2026-04-26T13:30:53.403Z</time></trkpt><trkpt lat="42.28367" lon="14.1063033"><ele>126.99999999999999</ele><time>2026-04-26T13:30:54.409Z</time></trkpt><trkpt lat="42.2837033" lon="14.1064083"><ele>128.0</ele><time>2026-04-26T13:30:55.408Z</time></trkpt><trkpt lat="42.2837333" lon="14.106505"><ele>127.0</ele><time>2026-04-26T13:30:56.455Z</time></trkpt><trkpt lat="42.2837683" lon="14.106605"><ele>126.00000000000001</ele><time>2026-04-26T13:30:57.398Z</time></trkpt><trkpt lat="42.283805" lon="14.1067117"><ele>125.00000000000001</ele><time>2026-04-26T13:30:58.397Z</time></trkpt><trkpt lat="42.283845" lon="14.106835"><ele>124.0</ele><time>2026-04-26T13:30:59.395Z</time></trkpt><trkpt lat="42.2838883" lon="14.1069733"><ele>123.0</ele><time>2026-04-26T13:31:00.401Z</time></trkpt><trkpt lat="42.2839367" lon="14.107125"><ele>123.0</ele><time>2026-04-26T13:31:01.404Z</time></trkpt><trkpt lat="42.2839883" lon="14.1072967"><ele>123.0</ele><time>2026-04-26T13:31:02.463Z</time></trkpt><trkpt lat="42.2840433" lon="14.10747"><ele>123.0</ele><time>2026-04-26T13:31:03.4Z</time></trkpt><trkpt lat="42.2840917" lon="14.107635"><ele>123.0</ele><time>2026-04-26T13:31:04.405Z</time></trkpt><trkpt lat="42.2841417" lon="14.1077983"><ele>124.5</ele><time>2026-04-26T13:31:05.404Z</time></trkpt><trkpt lat="42.2841983" lon="14.1079717"><ele>126.0</ele><time>2026-04-26T13:31:06.407Z</time></trkpt><trkpt lat="42.2842567" lon="14.1081467"><ele>127.5</ele><time>2026-04-26T13:31:07.411Z</time></trkpt><trkpt lat="42.28431" lon="14.108315"><ele>129.0</ele><time>2026-04-26T13:31:08.457Z</time></trkpt><trkpt lat="42.2843583" lon="14.1084667"><ele>129.5</ele><time>2026-04-26T13:31:09.399Z</time></trkpt><trkpt lat="42.2844033" lon="14.1086017"><ele>130.0</ele><time>2026-04-26T13:31:10.404Z</time></trkpt><trkpt lat="42.284445" lon="14.1087183"><ele>130.5</ele><time>2026-04-26T13:31:11.404Z</time></trkpt><trkpt lat="42.284485" lon="14.1088233"><ele>131.0</ele><time>2026-04-26T13:31:12.4Z</time></trkpt><trkpt lat="42.28452" lon="14.108915"><ele>131.5</ele><time>2026-04-26T13:31:13.401Z</time></trkpt><trkpt lat="42.28455" lon="14.1089983"><ele>132.0</ele><time>2026-04-26T13:31:14.463Z</time></trkpt><trkpt lat="42.284595" lon="14.1091217"><ele>132.83333333333334</ele><time>2026-04-26T13:31:16.394Z</time></trkpt><trkpt lat="42.2846367" lon="14.1092183"><ele>133.66666666666666</ele><time>2026-04-26T13:31:18.408Z</time></trkpt><trkpt lat="42.284665" lon="14.1092983"><ele>134.5</ele><time>2026-04-26T13:31:20.461Z</time></trkpt><trkpt lat="42.2846883" lon="14.1093783"><ele>135.33333333333331</ele><time>2026-04-26T13:31:22.409Z</time></trkpt><trkpt lat="42.2847267" lon="14.1094883"><ele>136.16666666666666</ele><time>2026-04-26T13:31:24.405Z</time></trkpt><trkpt lat="42.284785" lon="14.1096283"><ele>137.0</ele><time>2026-04-26T13:31:26.466Z</time></trkpt><trkpt lat="42.28485" lon="14.109785"><ele>135.0</ele><time>2026-04-26T13:31:28.405Z</time></trkpt><trkpt lat="42.284885" lon="14.1098817"><ele>133.0</ele><time>2026-04-26T13:31:29.405Z</time></trkpt><trkpt lat="42.2849217" lon="14.1099933"><ele>131.0</ele><time>2026-04-26T13:31:30.404Z</time></trkpt><trkpt lat="42.2849617" lon="14.11011"><ele>129.0</ele><time>2026-04-26T13:31:31.397Z</time></trkpt><trkpt lat="42.2850017" lon="14.1102333"><ele>127.0</ele><time>2026-04-26T13:31:32.467Z</time></trkpt><trkpt lat="42.2850417" lon="14.1103617"><ele>127.0</ele><time>2026-04-26T13:31:33.404Z</time></trkpt><trkpt lat="42.2850833" lon="14.110495"><ele>126.99999999999999</ele><time>2026-04-26T13:31:34.396Z</time></trkpt><trkpt lat="42.285125" lon="14.1106317"><ele>126.99999999999999</ele><time>2026-04-26T13:31:35.403Z</time></trkpt><trkpt lat="42.2851633" lon="14.110765"><ele>127.0</ele><time>2026-04-26T13:31:36.398Z</time></trkpt><trkpt lat="42.2852017" lon="14.1108967"><ele>127.0</ele><time>2026-04-26T13:31:37.401Z</time></trkpt><trkpt lat="42.2852417" lon="14.1110283"><ele>128.6</ele><time>2026-04-26T13:31:38.46Z</time></trkpt><trkpt lat="42.2852817" lon="14.11116"><ele>130.2</ele><time>2026-04-26T13:31:39.407Z</time></trkpt><trkpt lat="42.2853183" lon="14.1112933"><ele>131.8</ele><time>2026-04-26T13:31:40.406Z</time></trkpt><trkpt lat="42.2853517" lon="14.1114233"><ele>133.4</ele><time>2026-04-26T13:31:41.4Z</time></trkpt><trkpt lat="42.2853833" lon="14.11154"><ele>135.0</ele><time>2026-04-26T13:31:42.403Z</time></trkpt><trkpt lat="42.2854117" lon="14.11164"><ele>135.57142857142856</ele><time>2026-04-26T13:31:43.407Z</time></trkpt><trkpt lat="42.2854367" lon="14.1117283"><ele>136.14285714285714</ele><time>2026-04-26T13:31:44.461Z</time></trkpt><trkpt lat="42.2854567" lon="14.111815"><ele>136.71428571428572</ele><time>2026-04-26T13:31:45.404Z</time></trkpt><trkpt lat="42.28548" lon="14.1119017"><ele>137.28571428571428</ele><time>2026-04-26T13:31:46.405Z</time></trkpt><trkpt lat="42.2855033" lon="14.111985"><ele>137.85714285714286</ele><time>2026-04-26T13:31:47.406Z</time></trkpt><trkpt lat="42.2855417" lon="14.112065"><ele>138.42857142857142</ele><time>2026-04-26T13:31:48.407Z</time></trkpt><trkpt lat="42.2855867" lon="14.1121483"><ele>139.0</ele><time>2026-04-26T13:31:49.402Z</time></trkpt><trkpt lat="42.2856383" lon="14.11224"><ele>137.2</ele><time>2026-04-26T13:31:50.459Z</time></trkpt><trkpt lat="42.285695" lon="14.1123383"><ele>135.4</ele><time>2026-04-26T13:31:51.398Z</time></trkpt><trkpt lat="42.2857617" lon="14.1124467"><ele>133.6</ele><time>2026-04-26T13:31:52.4Z</time></trkpt><trkpt lat="42.2858367" lon="14.1125583"><ele>131.8</ele><time>2026-04-26T13:31:53.401Z</time></trkpt><trkpt lat="42.2859217" lon="14.112675"><ele>130.0</ele><time>2026-04-26T13:31:54.404Z</time></trkpt><trkpt lat="42.2860067" lon="14.1127967"><ele>130.0</ele><time>2026-04-26T13:31:55.401Z</time></trkpt><trkpt lat="42.2860833" lon="14.1129167"><ele>130.0</ele><time>2026-04-26T13:31:56.464Z</time></trkpt><trkpt lat="42.2861483" lon="14.1130267"><ele>130.0</ele><time>2026-04-26T13:31:57.401Z</time></trkpt><trkpt lat="42.2861983" lon="14.11312"><ele>130.0</ele><time>2026-04-26T13:31:58.399Z</time></trkpt><trkpt lat="42.2862383" lon="14.1132133"><ele>130.0</ele><time>2026-04-26T13:31:59.404Z</time></trkpt><trkpt lat="42.2862667" lon="14.1133183"><ele>131.8</ele><time>2026-04-26T13:32:00.398Z</time></trkpt><trkpt lat="42.2862833" lon="14.11344"><ele>133.6</ele><time>2026-04-26T13:32:01.402Z</time></trkpt><trkpt lat="42.2862983" lon="14.113575"><ele>135.4</ele><time>2026-04-26T13:32:02.45Z</time></trkpt><trkpt lat="42.2863067" lon="14.1137133"><ele>137.2</ele><time>2026-04-26T13:32:03.395Z</time></trkpt><trkpt lat="42.2863167" lon="14.1138633"><ele>139.0</ele><time>2026-04-26T13:32:04.399Z</time></trkpt><trkpt lat="42.286325" lon="14.1140167"><ele>140.0</ele><time>2026-04-26T13:32:05.399Z</time></trkpt><trkpt lat="42.286335" lon="14.11417"><ele>141.0</ele><time>2026-04-26T13:32:06.406Z</time></trkpt><trkpt lat="42.28635" lon="14.114315"><ele>142.0</ele><time>2026-04-26T13:32:07.41Z</time></trkpt><trkpt lat="42.28636" lon="14.1144533"><ele>143.0</ele><time>2026-04-26T13:32:08.461Z</time></trkpt><trkpt lat="42.2863717" lon="14.1145917"><ele>144.0</ele><time>2026-04-26T13:32:09.406Z</time></trkpt><trkpt lat="42.286385" lon="14.1147283"><ele>144.0</ele><time>2026-04-26T13:32:10.394Z</time></trkpt><trkpt lat="42.2864033" lon="14.11486"><ele>144.0</ele><time>2026-04-26T13:32:11.403Z</time></trkpt><trkpt lat="42.28642" lon="14.1149817"><ele>144.0</ele><time>2026-04-26T13:32:12.405Z</time></trkpt><trkpt lat="42.28644" lon="14.115095"><ele>144.0</ele><time>2026-04-26T13:32:13.409Z</time></trkpt><trkpt lat="42.2864667" lon="14.115205"><ele>144.0</ele><time>2026-04-26T13:32:14.458Z</time></trkpt><trkpt lat="42.2864933" lon="14.1153117"><ele>144.0</ele><time>2026-04-26T13:32:15.4Z</time></trkpt><trkpt lat="42.2865267" lon="14.1154233"><ele>142.83333333333334</ele><time>2026-04-26T13:32:16.405Z</time></trkpt><trkpt lat="42.28656" lon="14.11553"><ele>141.66666666666666</ele><time>2026-04-26T13:32:17.395Z</time></trkpt><trkpt lat="42.2865817" lon="14.1156267"><ele>140.5</ele><time>2026-04-26T13:32:18.411Z</time></trkpt><trkpt lat="42.286595" lon="14.1157617"><ele>139.33333333333331</ele><time>2026-04-26T13:32:20.451Z</time></trkpt><trkpt lat="42.2865583" lon="14.1158833"><ele>138.16666666666666</ele><time>2026-04-26T13:32:31.404Z</time></trkpt><trkpt lat="42.2865383" lon="14.11597"><ele>137.0</ele><time>2026-04-26T13:32:32.463Z</time></trkpt><trkpt lat="42.2865033" lon="14.11607"><ele>137.0</ele><time>2026-04-26T13:32:33.403Z</time></trkpt><trkpt lat="42.2864517" lon="14.1161833"><ele>137.0</ele><time>2026-04-26T13:32:34.405Z</time></trkpt><trkpt lat="42.2863783" lon="14.1163117"><ele>137.0</ele><time>2026-04-26T13:32:35.41Z</time></trkpt><trkpt lat="42.2863083" lon="14.1164333"><ele>137.0</ele><time>2026-04-26T13:32:36.398Z</time></trkpt><trkpt lat="42.2862567" lon="14.116535"><ele>137.0</ele><time>2026-04-26T13:32:37.404Z</time></trkpt><trkpt lat="42.2862217" lon="14.1166333"><ele>139.4</ele><time>2026-04-26T13:32:38.459Z</time></trkpt><trkpt lat="42.286195" lon="14.1167417"><ele>141.79999999999998</ele><time>2026-04-26T13:32:39.408Z</time></trkpt><trkpt lat="42.2861767" lon="14.1168683"><ele>144.2</ele><time>2026-04-26T13:32:40.395Z</time></trkpt><trkpt lat="42.2861667" lon="14.1170267"><ele>146.6</ele><time>2026-04-26T13:32:41.403Z</time></trkpt><trkpt lat="42.2861583" lon="14.11721"><ele>149.0</ele><time>2026-04-26T13:32:42.406Z</time></trkpt><trkpt lat="42.28615" lon="14.1174067"><ele>149.5</ele><time>2026-04-26T13:32:43.407Z</time></trkpt><trkpt lat="42.2861383" lon="14.1176"><ele>150.0</ele><time>2026-04-26T13:32:44.45Z</time></trkpt><trkpt lat="42.28612" lon="14.1177683"><ele>150.5</ele><time>2026-04-26T13:32:45.401Z</time></trkpt><trkpt lat="42.2860933" lon="14.117915"><ele>151.0</ele><time>2026-04-26T13:32:46.403Z</time></trkpt><trkpt lat="42.2860567" lon="14.1180517"><ele>151.0</ele><time>2026-04-26T13:32:47.402Z</time></trkpt><trkpt lat="42.28602" lon="14.1181917"><ele>151.0</ele><time>2026-04-26T13:32:48.408Z</time></trkpt><trkpt lat="42.2859817" lon="14.1183383"><ele>151.0</ele><time>2026-04-26T13:32:49.412Z</time></trkpt><trkpt lat="42.2859433" lon="14.1184767"><ele>151.0</ele><time>2026-04-26T13:32:50.454Z</time></trkpt><trkpt lat="42.2859133" lon="14.118595"><ele>151.0</ele><time>2026-04-26T13:32:51.398Z</time></trkpt><trkpt lat="42.2858967" lon="14.1187017"><ele>151.66666666666669</ele><time>2026-04-26T13:32:52.4Z</time></trkpt><trkpt lat="42.2858833" lon="14.11882"><ele>152.33333333333334</ele><time>2026-04-26T13:32:53.405Z</time></trkpt><trkpt lat="42.2858633" lon="14.1189433"><ele>153.0</ele><time>2026-04-26T13:32:54.398Z</time></trkpt><trkpt lat="42.28583" lon="14.1190617"><ele>153.66666666666666</ele><time>2026-04-26T13:32:55.402Z</time></trkpt><trkpt lat="42.2857933" lon="14.11916"><ele>154.33333333333331</ele><time>2026-04-26T13:32:56.454Z</time></trkpt><trkpt lat="42.2857417" lon="14.1192467"><ele>155.0</ele><time>2026-04-26T13:32:57.401Z</time></trkpt><trkpt lat="42.2856817" lon="14.11933"><ele>156.0</ele><time>2026-04-26T13:32:58.404Z</time></trkpt><trkpt lat="42.2856133" lon="14.1194117"><ele>157.0</ele><time>2026-04-26T13:32:59.404Z</time></trkpt><trkpt lat="42.2855317" lon="14.1194967"><ele>158.0</ele><time>2026-04-26T13:33:00.404Z</time></trkpt><trkpt lat="42.2854433" lon="14.119585"><ele>159.0</ele><time>2026-04-26T13:33:01.406Z</time></trkpt><trkpt lat="42.285355" lon="14.1196667"><ele>160.0</ele><time>2026-04-26T13:33:02.453Z</time></trkpt><trkpt lat="42.28526" lon="14.119745"><ele>163.0</ele><time>2026-04-26T13:33:03.402Z</time></trkpt><trkpt lat="42.2851583" lon="14.1198283"><ele>166.0</ele><time>2026-04-26T13:33:04.402Z</time></trkpt><trkpt lat="42.2850583" lon="14.1199083"><ele>169.0</ele><time>2026-04-26T13:33:05.402Z</time></trkpt><trkpt lat="42.28496" lon="14.11999"><ele>172.0</ele><time>2026-04-26T13:33:06.405Z</time></trkpt><trkpt lat="42.2848683" lon="14.1200667"><ele>172.0</ele><time>2026-04-26T13:33:07.402Z</time></trkpt><trkpt lat="42.2847883" lon="14.120135"><ele>172.0</ele><time>2026-04-26T13:33:08.449Z</time></trkpt><trkpt lat="42.2847217" lon="14.1202017"><ele>172.0</ele><time>2026-04-26T13:33:09.4Z</time></trkpt><trkpt lat="42.284645" lon="14.1202917"><ele>172.0</ele><time>2026-04-26T13:35:11.403Z</time></trkpt><trkpt lat="42.2845917" lon="14.120405"><ele>172.0</ele><time>2026-04-26T13:35:13.393Z</time></trkpt><trkpt lat="42.2845483" lon="14.1205233"><ele>175.2</ele><time>2026-04-26T13:35:15.402Z</time></trkpt><trkpt lat="42.2845083" lon="14.12066"><ele>178.39999999999998</ele><time>2026-04-26T13:35:17.407Z</time></trkpt><trkpt lat="42.28448" lon="14.1208033"><ele>181.60000000000002</ele><time>2026-04-26T13:35:19.409Z</time></trkpt><trkpt lat="42.28447" lon="14.1208967"><ele>184.8</ele><time>2026-04-26T13:36:41.41Z</time></trkpt><trkpt lat="42.28446" lon="14.1210133"><ele>188.0</ele><time>2026-04-26T13:36:43.399Z</time></trkpt><trkpt lat="42.2844417" lon="14.1211767"><ele>188.0</ele><time>2026-04-26T13:36:45.396Z</time></trkpt><trkpt lat="42.2844317" lon="14.1212833"><ele>188.0</ele><time>2026-04-26T13:36:46.401Z</time></trkpt><trkpt lat="42.28442" lon="14.1214083"><ele>188.0</ele><time>2026-04-26T13:36:47.404Z</time></trkpt><trkpt lat="42.2844067" lon="14.1215333"><ele>188.0</ele><time>2026-04-26T13:36:48.403Z</time></trkpt><trkpt lat="42.2843917" lon="14.1216383"><ele>188.0</ele><time>2026-04-26T13:36:49.397Z</time></trkpt><trkpt lat="42.2843767" lon="14.1217333"><ele>188.0</ele><time>2026-04-26T13:36:50.457Z</time></trkpt><trkpt lat="42.284355" lon="14.1218267"><ele>188.2</ele><time>2026-04-26T13:36:51.4Z</time></trkpt><trkpt lat="42.284325" lon="14.1219067"><ele>188.4</ele><time>2026-04-26T13:36:52.409Z</time></trkpt><trkpt lat="42.2842483" lon="14.1220283"><ele>188.6</ele><time>2026-04-26T13:36:54.404Z</time></trkpt><trkpt lat="42.2841283" lon="14.1220917"><ele>188.79999999999998</ele><time>2026-04-26T13:36:56.455Z</time></trkpt><trkpt lat="42.284055" lon="14.1221017"><ele>189.0</ele><time>2026-04-26T13:36:57.404Z</time></trkpt><trkpt lat="42.28398" lon="14.1220883"><ele>194.2</ele><time>2026-04-26T13:36:58.403Z</time></trkpt><trkpt lat="42.2839133" lon="14.122055"><ele>199.39999999999998</ele><time>2026-04-26T13:36:59.408Z</time></trkpt><trkpt lat="42.28386" lon="14.1220067"><ele>204.6</ele><time>2026-04-26T13:37:00.402Z</time></trkpt><trkpt lat="42.2838133" lon="14.1219433"><ele>209.8</ele><time>2026-04-26T13:37:01.408Z</time></trkpt><trkpt lat="42.28374" lon="14.1218167"><ele>215.0</ele><time>2026-04-26T13:37:03.398Z</time></trkpt><trkpt lat="42.28365" lon="14.1216733"><ele>215.0</ele><time>2026-04-26T13:37:05.405Z</time></trkpt><trkpt lat="42.2835933" lon="14.12158"><ele>215.0</ele><time>2026-04-26T13:37:06.403Z</time></trkpt><trkpt lat="42.283535" lon="14.1214783"><ele>215.0</ele><time>2026-04-26T13:37:07.405Z</time></trkpt><trkpt lat="42.28348" lon="14.1213667"><ele>215.0</ele><time>2026-04-26T13:37:08.458Z</time></trkpt><trkpt lat="42.283415" lon="14.1212417"><ele>215.0</ele><time>2026-04-26T13:37:09.405Z</time></trkpt><trkpt lat="42.2833533" lon="14.121115"><ele>215.0</ele><time>2026-04-26T13:37:10.405Z</time></trkpt><trkpt lat="42.2833017" lon="14.1209983"><ele>215.0</ele><time>2026-04-26T13:37:11.404Z</time></trkpt><trkpt lat="42.2832583" lon="14.120885"><ele>215.0</ele><time>2026-04-26T13:37:12.393Z</time></trkpt><trkpt lat="42.2832183" lon="14.1207583"><ele>215.0</ele><time>2026-04-26T13:37:13.403Z</time></trkpt><trkpt lat="42.2831767" lon="14.1206167"><ele>215.0</ele><time>2026-04-26T13:37:14.458Z</time></trkpt><trkpt lat="42.2831317" lon="14.1204533"><ele>220.0</ele><time>2026-04-26T13:37:15.399Z</time></trkpt><trkpt lat="42.2830767" lon="14.1202533"><ele>225.0</ele><time>2026-04-26T13:37:16.397Z</time></trkpt><trkpt lat="42.283015" lon="14.1200283"><ele>230.0</ele><time>2026-04-26T13:37:17.402Z</time></trkpt><trkpt lat="42.2829567" lon="14.1198083"><ele>230.0</ele><time>2026-04-26T13:37:18.398Z</time></trkpt><trkpt lat="42.2829" lon="14.1196033"><ele>230.0</ele><time>2026-04-26T13:37:19.395Z</time></trkpt><trkpt lat="42.2828417" lon="14.1194017"><ele>230.0</ele><time>2026-04-26T13:37:20.458Z</time></trkpt><trkpt lat="42.2827867" lon="14.119215"><ele>229.0</ele><time>2026-04-26T13:37:21.406Z</time></trkpt><trkpt lat="42.2827367" lon="14.1190433"><ele>228.0</ele><time>2026-04-26T13:37:22.402Z</time></trkpt><trkpt lat="42.2826883" lon="14.1188833"><ele>227.0</ele><time>2026-04-26T13:37:23.403Z</time></trkpt><trkpt lat="42.2826483" lon="14.1187483"><ele>226.0</ele><time>2026-04-26T13:37:24.402Z</time></trkpt><trkpt lat="42.282615" lon="14.1186367"><ele>226.0</ele><time>2026-04-26T13:37:25.4Z</time></trkpt><trkpt lat="42.28257" lon="14.118535"><ele>226.00000000000003</ele><time>2026-04-26T13:37:27.404Z</time></trkpt><trkpt lat="42.2825283" lon="14.1184217"><ele>226.00000000000003</ele><time>2026-04-26T13:37:39.399Z</time></trkpt><trkpt lat="42.2825" lon="14.118325"><ele>226.0</ele><time>2026-04-26T13:37:40.407Z</time></trkpt><trkpt lat="42.2824567" lon="14.1182067"><ele>226.0</ele><time>2026-04-26T13:37:41.396Z</time></trkpt><trkpt lat="42.2824033" lon="14.1180783"><ele>225.4</ele><time>2026-04-26T13:37:42.4Z</time></trkpt><trkpt lat="42.2823467" lon="14.1179517"><ele>224.8</ele><time>2026-04-26T13:37:43.404Z</time></trkpt><trkpt lat="42.2822917" lon="14.1178383"><ele>224.20000000000002</ele><time>2026-04-26T13:37:44.449Z</time></trkpt><trkpt lat="42.2822433" lon="14.1177417"><ele>223.60000000000002</ele><time>2026-04-26T13:37:45.398Z</time></trkpt><trkpt lat="42.2821983" lon="14.11766"><ele>223.0</ele><time>2026-04-26T13:37:46.402Z</time></trkpt><trkpt lat="42.282125" lon="14.1175567"><ele>223.0</ele><time>2026-04-26T13:37:48.399Z</time></trkpt><trkpt lat="42.282075" lon="14.1176817"><ele>223.0</ele><time>2026-04-26T13:37:57.404Z</time></trkpt><trkpt lat="42.2820733" lon="14.1178033"><ele>223.0</ele><time>2026-04-26T13:37:58.404Z</time></trkpt><trkpt lat="42.2820717" lon="14.1179183"><ele>223.0</ele><time>2026-04-26T13:37:59.409Z</time></trkpt><trkpt lat="42.2820683" lon="14.1180333"><ele>223.0</ele><time>2026-04-26T13:38:00.408Z</time></trkpt><trkpt lat="42.2820617" lon="14.11815"><ele>224.0</ele><time>2026-04-26T13:38:01.404Z</time></trkpt><trkpt lat="42.2820533" lon="14.11827"><ele>225.0</ele><time>2026-04-26T13:38:02.448Z</time></trkpt><trkpt lat="42.282045" lon="14.1183917"><ele>226.0</ele><time>2026-04-26T13:38:03.396Z</time></trkpt><trkpt lat="42.282035" lon="14.11851"><ele>227.0</ele><time>2026-04-26T13:38:04.399Z</time></trkpt><trkpt lat="42.282025" lon="14.1186317"><ele>228.0</ele><time>2026-04-26T13:38:05.403Z</time></trkpt><trkpt lat="42.28201" lon="14.1187583"><ele>228.0</ele><time>2026-04-26T13:38:06.403Z</time></trkpt><trkpt lat="42.2819933" lon="14.1188967"><ele>228.0</ele><time>2026-04-26T13:38:07.406Z</time></trkpt><trkpt lat="42.281975" lon="14.119045"><ele>228.0</ele><time>2026-04-26T13:38:08.456Z</time></trkpt><trkpt lat="42.2819567" lon="14.1192017"><ele>228.0</ele><time>2026-04-26T13:38:09.403Z</time></trkpt><trkpt lat="42.2819383" lon="14.1193617"><ele>230.0</ele><time>2026-04-26T13:38:10.402Z</time></trkpt><trkpt lat="42.28193" lon="14.1195283"><ele>232.0</ele><time>2026-04-26T13:38:11.405Z</time></trkpt><trkpt lat="42.281935" lon="14.1196983"><ele>234.0</ele><time>2026-04-26T13:38:12.409Z</time></trkpt><trkpt lat="42.2819533" lon="14.119875"><ele>236.0</ele><time>2026-04-26T13:38:13.396Z</time></trkpt><trkpt lat="42.2819833" lon="14.1200583"><ele>237.5</ele><time>2026-04-26T13:38:14.454Z</time></trkpt><trkpt lat="42.2820233" lon="14.1202533"><ele>239.0</ele><time>2026-04-26T13:38:15.403Z</time></trkpt><trkpt lat="42.282065" lon="14.120445"><ele>240.5</ele><time>2026-04-26T13:38:16.409Z</time></trkpt><trkpt lat="42.2820967" lon="14.1206383"><ele>242.0</ele><time>2026-04-26T13:38:17.404Z</time></trkpt><trkpt lat="42.2821133" lon="14.1208317"><ele>244.0</ele><time>2026-04-26T13:38:18.396Z</time></trkpt><trkpt lat="42.2821117" lon="14.1210333"><ele>246.0</ele><time>2026-04-26T13:38:19.404Z</time></trkpt><trkpt lat="42.2820933" lon="14.1212383"><ele>248.0</ele><time>2026-04-26T13:38:20.457Z</time></trkpt><trkpt lat="42.2820633" lon="14.121445"><ele>249.33333333333334</ele><time>2026-04-26T13:38:21.402Z</time></trkpt><trkpt lat="42.2820417" lon="14.1216467"><ele>250.66666666666669</ele><time>2026-04-26T13:38:22.401Z</time></trkpt><trkpt lat="42.2820333" lon="14.1218483"><ele>252.0</ele><time>2026-04-26T13:38:23.407Z</time></trkpt><trkpt lat="42.2820417" lon="14.1220517"><ele>252.0</ele><time>2026-04-26T13:38:24.395Z</time></trkpt><trkpt lat="42.2820667" lon="14.1222733"><ele>252.0</ele><time>2026-04-26T13:38:25.4Z</time></trkpt><trkpt lat="42.2820967" lon="14.1225083"><ele>252.0</ele><time>2026-04-26T13:38:26.442Z</time></trkpt><trkpt lat="42.2821267" lon="14.122755"><ele>254.33333333333331</ele><time>2026-04-26T13:38:27.394Z</time></trkpt><trkpt lat="42.2821483" lon="14.1230133"><ele>256.66666666666663</ele><time>2026-04-26T13:38:28.402Z</time></trkpt><trkpt lat="42.2821633" lon="14.123275"><ele>259.0</ele><time>2026-04-26T13:38:29.403Z</time></trkpt><trkpt lat="42.2821733" lon="14.1235367"><ele>263.0</ele><time>2026-04-26T13:38:30.406Z</time></trkpt><trkpt lat="42.2821833" lon="14.1238083"><ele>267.0</ele><time>2026-04-26T13:38:31.405Z</time></trkpt><trkpt lat="42.2821967" lon="14.1240817"><ele>271.0</ele><time>2026-04-26T13:38:32.457Z</time></trkpt><trkpt lat="42.2822117" lon="14.1243567"><ele>273.66666666666663</ele><time>2026-04-26T13:38:33.405Z</time></trkpt><trkpt lat="42.28223" lon="14.1246317"><ele>276.3333333333333</ele><time>2026-04-26T13:38:34.402Z</time></trkpt><trkpt lat="42.282255" lon="14.1248983"><ele>279.0</ele><time>2026-04-26T13:38:35.406Z</time></trkpt><trkpt lat="42.28228" lon="14.125155"><ele>279.6666666666667</ele><time>2026-04-26T13:38:36.405Z</time></trkpt><trkpt lat="42.2823033" lon="14.1254067"><ele>280.33333333333337</ele><time>2026-04-26T13:38:37.403Z</time></trkpt><trkpt lat="42.282325" lon="14.125645"><ele>281.0</ele><time>2026-04-26T13:38:38.448Z</time></trkpt><trkpt lat="42.2823483" lon="14.1258633"><ele>283.0</ele><time>2026-04-26T13:38:39.399Z</time></trkpt><trkpt lat="42.282375" lon="14.1260633"><ele>285.0</ele><time>2026-04-26T13:38:40.402Z</time></trkpt><trkpt lat="42.2824067" lon="14.1262483"><ele>287.0</ele><time>2026-04-26T13:38:41.403Z</time></trkpt><trkpt lat="42.28245" lon="14.12642"><ele>289.0</ele><time>2026-04-26T13:38:42.395Z</time></trkpt><trkpt lat="42.2825033" lon="14.1265733"><ele>291.2</ele><time>2026-04-26T13:38:43.402Z</time></trkpt><trkpt lat="42.28256" lon="14.1267133"><ele>293.4</ele><time>2026-04-26T13:38:44.462Z</time></trkpt><trkpt lat="42.2826133" lon="14.1268333"><ele>295.6</ele><time>2026-04-26T13:38:45.404Z</time></trkpt><trkpt lat="42.282655" lon="14.12693"><ele>297.8</ele><time>2026-04-26T13:38:46.402Z</time></trkpt><trkpt lat="42.282705" lon="14.12707"><ele>300.0</ele><time>2026-04-26T13:38:48.403Z</time></trkpt><trkpt lat="42.282778" lon="14.1272284"><ele>300.0</ele><time>2026-04-26T13:38:50.458Z</time></trkpt><trkpt lat="42.2828338" lon="14.1273212"><ele>300.0</ele><time>2026-04-26T13:38:51.397Z</time></trkpt><trkpt lat="42.2829011" lon="14.1274308"><ele>300.0</ele><time>2026-04-26T13:38:52.402Z</time></trkpt><trkpt lat="42.2829726" lon="14.1275468"><ele>300.0</ele><time>2026-04-26T13:38:53.404Z</time></trkpt><trkpt lat="42.2830414" lon="14.1276607"><ele>300.0</ele><time>2026-04-26T13:38:54.399Z</time></trkpt><trkpt lat="42.2830975" lon="14.1277563"><ele>299.6666666666667</ele><time>2026-04-26T13:38:55.406Z</time></trkpt><trkpt lat="42.2831447" lon="14.1278436"><ele>299.3333333333333</ele><time>2026-04-26T13:38:56.45Z</time></trkpt><trkpt lat="42.283191" lon="14.1279305"><ele>299.0</ele><time>2026-04-26T13:38:57.403Z</time></trkpt><trkpt lat="42.2832392" lon="14.1280288"><ele>298.66666666666663</ele><time>2026-04-26T13:38:58.404Z</time></trkpt><trkpt lat="42.2832922" lon="14.1281299"><ele>298.3333333333333</ele><time>2026-04-26T13:38:59.393Z</time></trkpt><trkpt lat="42.2833519" lon="14.1282346"><ele>298.0</ele><time>2026-04-26T13:39:00.396Z</time></trkpt><trkpt lat="42.2834149" lon="14.1283422"><ele>298.8</ele><time>2026-04-26T13:39:01.405Z</time></trkpt><trkpt lat="42.2834826" lon="14.1284506"><ele>299.6</ele><time>2026-04-26T13:39:02.456Z</time></trkpt><trkpt lat="42.2835578" lon="14.128542"><ele>300.4</ele><time>2026-04-26T13:39:03.404Z</time></trkpt><trkpt lat="42.2836493" lon="14.1286171"><ele>301.2</ele><time>2026-04-26T13:39:04.399Z</time></trkpt><trkpt lat="42.2837516" lon="14.1286693"><ele>302.0</ele><time>2026-04-26T13:39:05.408Z</time></trkpt><trkpt lat="42.2838634" lon="14.128698"><ele>302.5</ele><time>2026-04-26T13:39:06.392Z</time></trkpt><trkpt lat="42.2839845" lon="14.1287082"><ele>303.0</ele><time>2026-04-26T13:39:07.403Z</time></trkpt><trkpt lat="42.2841119" lon="14.1287208"><ele>303.5</ele><time>2026-04-26T13:39:08.455Z</time></trkpt><trkpt lat="42.2842331" lon="14.1287502"><ele>304.0</ele><time>2026-04-26T13:39:09.397Z</time></trkpt><trkpt lat="42.2843517" lon="14.1288041"><ele>304.0</ele><time>2026-04-26T13:39:10.402Z</time></trkpt><trkpt lat="42.2844653" lon="14.128892"><ele>304.0</ele><time>2026-04-26T13:39:11.4Z</time></trkpt><trkpt lat="42.2845766" lon="14.1289991"><ele>304.0</ele><time>2026-04-26T13:39:12.402Z</time></trkpt><trkpt lat="42.2846842" lon="14.1291159"><ele>304.0</ele><time>2026-04-26T13:39:13.402Z</time></trkpt><trkpt lat="42.2847979" lon="14.1292322"><ele>303.3333333333333</ele><time>2026-04-26T13:39:14.456Z</time></trkpt><trkpt lat="42.2849099" lon="14.1293501"><ele>302.6666666666667</ele><time>2026-04-26T13:39:15.401Z</time></trkpt><trkpt lat="42.2850286" lon="14.129481"><ele>302.0</ele><time>2026-04-26T13:39:16.4Z</time></trkpt><trkpt lat="42.2851484" lon="14.1296204"><ele>302.0</ele><time>2026-04-26T13:39:17.404Z</time></trkpt><trkpt lat="42.2852646" lon="14.129773"><ele>302.0</ele><time>2026-04-26T13:39:18.408Z</time></trkpt><trkpt lat="42.2853733" lon="14.1299317"><ele>302.0</ele><time>2026-04-26T13:39:19.402Z</time></trkpt><trkpt lat="42.2854767" lon="14.1300917"><ele>303.6666666666667</ele><time>2026-04-26T13:39:20.461Z</time></trkpt><trkpt lat="42.28558" lon="14.1302567"><ele>305.3333333333333</ele><time>2026-04-26T13:39:21.404Z</time></trkpt><trkpt lat="42.285675" lon="14.1304317"><ele>307.0</ele><time>2026-04-26T13:39:22.403Z</time></trkpt><trkpt lat="42.285765" lon="14.1306133"><ele>304.0</ele><time>2026-04-26T13:39:23.404Z</time></trkpt><trkpt lat="42.2858533" lon="14.130805"><ele>301.0</ele><time>2026-04-26T13:39:24.404Z</time></trkpt><trkpt lat="42.2859467" lon="14.1309933"><ele>298.0</ele><time>2026-04-26T13:39:25.392Z</time></trkpt><trkpt lat="42.2860517" lon="14.1311717"><ele>298.0</ele><time>2026-04-26T13:39:26.45Z</time></trkpt><trkpt lat="42.2861617" lon="14.131345"><ele>298.0</ele><time>2026-04-26T13:39:27.392Z</time></trkpt><trkpt lat="42.286275" lon="14.1315167"><ele>298.0</ele><time>2026-04-26T13:39:28.398Z</time></trkpt><trkpt lat="42.28638" lon="14.1316917"><ele>295.75</ele><time>2026-04-26T13:39:29.405Z</time></trkpt><trkpt lat="42.2864783" lon="14.1318567"><ele>293.5</ele><time>2026-04-26T13:39:30.403Z</time></trkpt><trkpt lat="42.2865667" lon="14.1320183"><ele>291.25</ele><time>2026-04-26T13:39:31.406Z</time></trkpt><trkpt lat="42.286645" lon="14.13218"><ele>289.0</ele><time>2026-04-26T13:39:32.458Z</time></trkpt><trkpt lat="42.2867117" lon="14.132345"><ele>289.75</ele><time>2026-04-26T13:39:33.401Z</time></trkpt><trkpt lat="42.28677" lon="14.1325083"><ele>290.5</ele><time>2026-04-26T13:39:34.404Z</time></trkpt><trkpt lat="42.2868167" lon="14.13268"><ele>291.25</ele><time>2026-04-26T13:39:35.394Z</time></trkpt><trkpt lat="42.286855" lon="14.1328483"><ele>292.0</ele><time>2026-04-26T13:39:36.399Z</time></trkpt><trkpt lat="42.2868933" lon="14.13301"><ele>292.0</ele><time>2026-04-26T13:39:37.404Z</time></trkpt><trkpt lat="42.2869367" lon="14.1331567"><ele>292.0</ele><time>2026-04-26T13:39:38.456Z</time></trkpt><trkpt lat="42.2869983" lon="14.1332833"><ele>292.0</ele><time>2026-04-26T13:39:39.399Z</time></trkpt><trkpt lat="42.2870833" lon="14.13339"><ele>292.0</ele><time>2026-04-26T13:39:40.402Z</time></trkpt><trkpt lat="42.2872" lon="14.1334617"><ele>291.25</ele><time>2026-04-26T13:39:41.394Z</time></trkpt><trkpt lat="42.2873283" lon="14.133515"><ele>290.5</ele><time>2026-04-26T13:39:42.404Z</time></trkpt><trkpt lat="42.2874617" lon="14.1335633"><ele>289.75</ele><time>2026-04-26T13:39:43.403Z</time></trkpt><trkpt lat="42.2875867" lon="14.1336033"><ele>289.0</ele><time>2026-04-26T13:39:44.447Z</time></trkpt><trkpt lat="42.28771" lon="14.1336433"><ele>289.0</ele><time>2026-04-26T13:39:45.396Z</time></trkpt><trkpt lat="42.2878317" lon="14.133695"><ele>289.0</ele><time>2026-04-26T13:39:46.397Z</time></trkpt><trkpt lat="42.287945" lon="14.13376"><ele>289.0</ele><time>2026-04-26T13:39:47.402Z</time></trkpt><trkpt lat="42.288055" lon="14.1338433"><ele>289.0</ele><time>2026-04-26T13:39:48.4Z</time></trkpt><trkpt lat="42.2881533" lon="14.1339567"><ele>291.25</ele><time>2026-04-26T13:39:49.404Z</time></trkpt><trkpt lat="42.2882383" lon="14.1340983"><ele>293.5</ele><time>2026-04-26T13:39:50.454Z</time></trkpt><trkpt lat="42.288315" lon="14.1342533"><ele>295.75</ele><time>2026-04-26T13:39:51.396Z</time></trkpt><trkpt lat="42.2883967" lon="14.1344083"><ele>298.0</ele><time>2026-04-26T13:39:52.394Z</time></trkpt><trkpt lat="42.288495" lon="14.1345467"><ele>298.0</ele><time>2026-04-26T13:39:53.4Z</time></trkpt><trkpt lat="42.2886067" lon="14.1346683"><ele>298.0</ele><time>2026-04-26T13:39:54.402Z</time></trkpt><trkpt lat="42.2887233" lon="14.1347767"><ele>298.0</ele><time>2026-04-26T13:39:55.401Z</time></trkpt><trkpt lat="42.2888433" lon="14.134885"><ele>298.0</ele><time>2026-04-26T13:39:56.456Z</time></trkpt><trkpt lat="42.2889633" lon="14.135"><ele>301.0</ele><time>2026-04-26T13:39:57.393Z</time></trkpt><trkpt lat="42.28908" lon="14.1351233"><ele>304.0</ele><time>2026-04-26T13:39:58.402Z</time></trkpt><trkpt lat="42.289195" lon="14.1352467"><ele>307.0</ele><time>2026-04-26T13:39:59.404Z</time></trkpt><trkpt lat="42.2893083" lon="14.1353683"><ele>310.0</ele><time>2026-04-26T13:40:00.401Z</time></trkpt><trkpt lat="42.28942" lon="14.1354817"><ele>310.0</ele><time>2026-04-26T13:40:01.406Z</time></trkpt><trkpt lat="42.2895383" lon="14.1355817"><ele>310.0</ele><time>2026-04-26T13:40:02.455Z</time></trkpt><trkpt lat="42.28966" lon="14.1356633"><ele>310.0</ele><time>2026-04-26T13:40:03.399Z</time></trkpt><trkpt lat="42.28979" lon="14.1357283"><ele>310.0</ele><time>2026-04-26T13:40:04.404Z</time></trkpt><trkpt lat="42.289925" lon="14.135785"><ele>310.3333333333333</ele><time>2026-04-26T13:40:05.393Z</time></trkpt><trkpt lat="42.2900667" lon="14.1358317"><ele>310.6666666666667</ele><time>2026-04-26T13:40:06.402Z</time></trkpt><trkpt lat="42.290215" lon="14.1358783"><ele>311.0</ele><time>2026-04-26T13:40:07.396Z</time></trkpt><trkpt lat="42.29037" lon="14.1359233"><ele>311.0</ele><time>2026-04-26T13:40:08.453Z</time></trkpt><trkpt lat="42.2905333" lon="14.1359683"><ele>311.0</ele><time>2026-04-26T13:40:09.401Z</time></trkpt><trkpt lat="42.2906883" lon="14.1360133"><ele>311.0</ele><time>2026-04-26T13:40:10.391Z</time></trkpt><trkpt lat="42.2908317" lon="14.1360583"><ele>312.2</ele><time>2026-04-26T13:40:11.404Z</time></trkpt><trkpt lat="42.2909633" lon="14.13609"><ele>313.40000000000003</ele><time>2026-04-26T13:40:12.403Z</time></trkpt><trkpt lat="42.2910817" lon="14.1361067"><ele>314.6</ele><time>2026-04-26T13:40:13.404Z</time></trkpt><trkpt lat="42.2911883" lon="14.13609"><ele>315.8</ele><time>2026-04-26T13:40:14.451Z</time></trkpt><trkpt lat="42.291275" lon="14.1360717"><ele>317.0</ele><time>2026-04-26T13:40:15.402Z</time></trkpt><trkpt lat="42.2913467" lon="14.1360433"><ele>317.0</ele><time>2026-04-26T13:40:16.403Z</time></trkpt><trkpt lat="42.2914067" lon="14.1360117"><ele>317.0</ele><time>2026-04-26T13:40:17.404Z</time></trkpt><trkpt lat="42.291495" lon="14.1359683"><ele>317.0</ele><time>2026-04-26T13:40:19.4Z</time></trkpt><trkpt lat="42.2915017" lon="14.1358633"><ele>317.0</ele><time>2026-04-26T13:40:22.404Z</time></trkpt><trkpt lat="42.2914617" lon="14.1357967"><ele>317.0</ele><time>2026-04-26T13:40:25.405Z</time></trkpt><trkpt lat="42.2914167" lon="14.13572"><ele>317.0</ele><time>2026-04-26T13:40:27.394Z</time></trkpt><trkpt lat="42.2913583" lon="14.1356333"><ele>318.83333333333337</ele><time>2026-04-26T13:40:30.394Z</time></trkpt><trkpt lat="42.2912817" lon="14.1355433"><ele>320.6666666666667</ele><time>2026-04-26T13:40:33.402Z</time></trkpt><trkpt lat="42.2912133" lon="14.135435"><ele>322.5</ele><time>2026-04-26T13:40:35.404Z</time></trkpt><trkpt lat="42.2911817" lon="14.1353583"><ele>324.3333333333333</ele><time>2026-04-26T13:40:36.399Z</time></trkpt><trkpt lat="42.291145" lon="14.1352667"><ele>326.16666666666663</ele><time>2026-04-26T13:40:37.407Z</time></trkpt><trkpt lat="42.2911" lon="14.13516"><ele>328.0</ele><time>2026-04-26T13:40:38.454Z</time></trkpt><trkpt lat="42.2910533" lon="14.1350517"><ele>328.0</ele><time>2026-04-26T13:40:39.399Z</time></trkpt><trkpt lat="42.2910067" lon="14.1349467"><ele>328.0</ele><time>2026-04-26T13:40:40.396Z</time></trkpt><trkpt lat="42.290965" lon="14.1348433"><ele>328.0</ele><time>2026-04-26T13:40:41.404Z</time></trkpt><trkpt lat="42.2909367" lon="14.1347467"><ele>328.0</ele><time>2026-04-26T13:40:42.403Z</time></trkpt><trkpt lat="42.2909167" lon="14.1346483"><ele>328.0</ele><time>2026-04-26T13:40:43.407Z</time></trkpt><trkpt lat="42.2908867" lon="14.1345467"><ele>328.0</ele><time>2026-04-26T13:40:44.458Z</time></trkpt><trkpt lat="42.2908467" lon="14.1344467"><ele>326.8333333333333</ele><time>2026-04-26T13:40:45.397Z</time></trkpt><trkpt lat="42.290805" lon="14.134345"><ele>325.66666666666663</ele><time>2026-04-26T13:40:46.404Z</time></trkpt><trkpt lat="42.2907667" lon="14.134245"><ele>324.5</ele><time>2026-04-26T13:40:47.402Z</time></trkpt><trkpt lat="42.2907183" lon="14.1341583"><ele>323.3333333333333</ele><time>2026-04-26T13:40:48.407Z</time></trkpt><trkpt lat="42.29066" lon="14.1340767"><ele>322.1666666666667</ele><time>2026-04-26T13:40:49.4Z</time></trkpt><trkpt lat="42.2905883" lon="14.1340033"><ele>321.0</ele><time>2026-04-26T13:40:50.45Z</time></trkpt><trkpt lat="42.2905033" lon="14.13393"><ele>320.6</ele><time>2026-04-26T13:40:51.401Z</time></trkpt><trkpt lat="42.2904083" lon="14.1338683"><ele>320.20000000000005</ele><time>2026-04-26T13:40:52.403Z</time></trkpt><trkpt lat="42.2903017" lon="14.133815"><ele>319.79999999999995</ele><time>2026-04-26T13:40:53.404Z</time></trkpt><trkpt lat="42.2901983" lon="14.1337583"><ele>319.4</ele><time>2026-04-26T13:40:54.402Z</time></trkpt><trkpt lat="42.2901033" lon="14.133685"><ele>319.0</ele><time>2026-04-26T13:40:55.402Z</time></trkpt><trkpt lat="42.29002" lon="14.13359"><ele>319.0</ele><time>2026-04-26T13:40:56.438Z</time></trkpt><trkpt lat="42.2899533" lon="14.1334767"><ele>319.0</ele><time>2026-04-26T13:40:57.403Z</time></trkpt><trkpt lat="42.2898983" lon="14.1333517"><ele>319.0</ele><time>2026-04-26T13:40:58.392Z</time></trkpt><trkpt lat="42.28984" lon="14.1332333"><ele>319.0</ele><time>2026-04-26T13:40:59.397Z</time></trkpt><trkpt lat="42.2897767" lon="14.1331283"><ele>319.0</ele><time>2026-04-26T13:41:00.393Z</time></trkpt><trkpt lat="42.28971" lon="14.1330483"><ele>318.0</ele><time>2026-04-26T13:41:01.397Z</time></trkpt><trkpt lat="42.289655" lon="14.132975"><ele>317.0</ele><time>2026-04-26T13:41:02.457Z</time></trkpt><trkpt lat="42.2896317" lon="14.1328017"><ele>316.0</ele><time>2026-04-26T13:41:04.399Z</time></trkpt><trkpt lat="42.2896433" lon="14.132685"><ele>315.0</ele><time>2026-04-26T13:41:05.406Z</time></trkpt><trkpt lat="42.2896583" lon="14.1325583"><ele>314.0</ele><time>2026-04-26T13:41:06.407Z</time></trkpt><trkpt lat="42.2896783" lon="14.1324233"><ele>313.0</ele><time>2026-04-26T13:41:07.403Z</time></trkpt><trkpt lat="42.2897033" lon="14.1322917"><ele>312.0</ele><time>2026-04-26T13:41:08.456Z</time></trkpt><trkpt lat="42.2897333" lon="14.1321667"><ele>311.0</ele><time>2026-04-26T13:41:09.402Z</time></trkpt><trkpt lat="42.2897667" lon="14.1320483"><ele>310.0</ele><time>2026-04-26T13:41:10.395Z</time></trkpt><trkpt lat="42.2898083" lon="14.1319383"><ele>309.0</ele><time>2026-04-26T13:41:11.407Z</time></trkpt><trkpt lat="42.2898517" lon="14.1318367"><ele>309.0</ele><time>2026-04-26T13:41:12.405Z</time></trkpt><trkpt lat="42.2898933" lon="14.1317467"><ele>309.0</ele><time>2026-04-26T13:41:13.392Z</time></trkpt><trkpt lat="42.2899333" lon="14.1316633"><ele>309.0</ele><time>2026-04-26T13:41:14.449Z</time></trkpt><trkpt lat="42.2899683" lon="14.1315883"><ele>309.0</ele><time>2026-04-26T13:41:15.398Z</time></trkpt><trkpt lat="42.2900033" lon="14.1315167"><ele>309.0</ele><time>2026-04-26T13:41:16.403Z</time></trkpt><trkpt lat="42.2900717" lon="14.1313783"><ele>309.0</ele><time>2026-04-26T13:41:18.394Z</time></trkpt><trkpt lat="42.29013" lon="14.1312533"><ele>305.8</ele><time>2026-04-26T13:41:20.449Z</time></trkpt><trkpt lat="42.2901783" lon="14.13112"><ele>302.59999999999997</ele><time>2026-04-26T13:41:22.398Z</time></trkpt><trkpt lat="42.2902233" lon="14.130975"><ele>299.4</ele><time>2026-04-26T13:41:24.402Z</time></trkpt><trkpt lat="42.29025" lon="14.1308883"><ele>296.2</ele><time>2026-04-26T13:41:25.405Z</time></trkpt><trkpt lat="42.2902733" lon="14.1307833"><ele>293.0</ele><time>2026-04-26T13:41:26.457Z</time></trkpt><trkpt lat="42.290295" lon="14.1306717"><ele>290.33333333333337</ele><time>2026-04-26T13:41:27.403Z</time></trkpt><trkpt lat="42.2903217" lon="14.1305567"><ele>287.6666666666667</ele><time>2026-04-26T13:41:28.404Z</time></trkpt><trkpt lat="42.2903483" lon="14.1304417"><ele>285.0</ele><time>2026-04-26T13:41:29.401Z</time></trkpt><trkpt lat="42.2903717" lon="14.13033"><ele>282.3333333333333</ele><time>2026-04-26T13:41:30.406Z</time></trkpt><trkpt lat="42.2903933" lon="14.1302167"><ele>279.66666666666663</ele><time>2026-04-26T13:41:31.406Z</time></trkpt><trkpt lat="42.2904083" lon="14.1301033"><ele>277.0</ele><time>2026-04-26T13:41:32.459Z</time></trkpt><trkpt lat="42.2904167" lon="14.1299933"><ele>275.4</ele><time>2026-04-26T13:41:33.392Z</time></trkpt><trkpt lat="42.2904167" lon="14.1298817"><ele>273.79999999999995</ele><time>2026-04-26T13:41:34.401Z</time></trkpt><trkpt lat="42.29041" lon="14.129755"><ele>272.2</ele><time>2026-04-26T13:41:35.399Z</time></trkpt><trkpt lat="42.2903983" lon="14.12961"><ele>270.59999999999997</ele><time>2026-04-26T13:41:36.401Z</time></trkpt><trkpt lat="42.290385" lon="14.129455"><ele>269.0</ele><time>2026-04-26T13:41:37.403Z</time></trkpt><trkpt lat="42.290375" lon="14.1293033"><ele>269.0</ele><time>2026-04-26T13:41:38.454Z</time></trkpt><trkpt lat="42.2903733" lon="14.1291517"><ele>269.0</ele><time>2026-04-26T13:41:39.398Z</time></trkpt><trkpt lat="42.29038" lon="14.1290017"><ele>269.0</ele><time>2026-04-26T13:41:40.393Z</time></trkpt><trkpt lat="42.2903967" lon="14.12885"><ele>269.0</ele><time>2026-04-26T13:41:41.402Z</time></trkpt><trkpt lat="42.2904133" lon="14.1287"><ele>269.0</ele><time>2026-04-26T13:41:42.399Z</time></trkpt><trkpt lat="42.2904333" lon="14.1285517"><ele>265.0</ele><time>2026-04-26T13:41:43.391Z</time></trkpt><trkpt lat="42.2904533" lon="14.1284067"><ele>261.0</ele><time>2026-04-26T13:41:44.448Z</time></trkpt><trkpt lat="42.290475" lon="14.1282583"><ele>257.0</ele><time>2026-04-26T13:41:45.395Z</time></trkpt><trkpt lat="42.29049" lon="14.1281133"><ele>253.0</ele><time>2026-04-26T13:41:46.392Z</time></trkpt><trkpt lat="42.2905083" lon="14.1279717"><ele>249.0</ele><time>2026-04-26T13:41:47.4Z</time></trkpt><trkpt lat="42.290525" lon="14.1278283"><ele>244.79999999999998</ele><time>2026-04-26T13:41:48.404Z</time></trkpt><trkpt lat="42.2905417" lon="14.1276883"><ele>240.59999999999997</ele><time>2026-04-26T13:41:49.396Z</time></trkpt><trkpt lat="42.2905617" lon="14.1275567"><ele>236.4</ele><time>2026-04-26T13:41:50.454Z</time></trkpt><trkpt lat="42.29058" lon="14.1274367"><ele>232.2</ele><time>2026-04-26T13:41:51.403Z</time></trkpt><trkpt lat="42.2906017" lon="14.127315"><ele>228.0</ele><time>2026-04-26T13:41:52.402Z</time></trkpt><trkpt lat="42.2906233" lon="14.1271917"><ele>227.2</ele><time>2026-04-26T13:41:53.402Z</time></trkpt><trkpt lat="42.2906433" lon="14.1270567"><ele>226.4</ele><time>2026-04-26T13:41:54.402Z</time></trkpt><trkpt lat="42.29066" lon="14.1269167"><ele>225.59999999999997</ele><time>2026-04-26T13:41:55.393Z</time></trkpt><trkpt lat="42.290665" lon="14.1267783"><ele>224.79999999999998</ele><time>2026-04-26T13:41:56.448Z</time></trkpt><trkpt lat="42.2906617" lon="14.1266383"><ele>224.0</ele><time>2026-04-26T13:41:57.396Z</time></trkpt><trkpt lat="42.29065" lon="14.1265"><ele>222.2</ele><time>2026-04-26T13:41:58.402Z</time></trkpt><trkpt lat="42.2906317" lon="14.126365"><ele>220.39999999999998</ele><time>2026-04-26T13:41:59.401Z</time></trkpt><trkpt lat="42.290615" lon="14.1262383"><ele>218.6</ele><time>2026-04-26T13:42:00.403Z</time></trkpt><trkpt lat="42.2905983" lon="14.126115"><ele>216.8</ele><time>2026-04-26T13:42:01.4Z</time></trkpt><trkpt lat="42.2905867" lon="14.1259883"><ele>215.0</ele><time>2026-04-26T13:42:02.459Z</time></trkpt><trkpt lat="42.2905817" lon="14.1258667"><ele>212.83333333333334</ele><time>2026-04-26T13:42:03.399Z</time></trkpt><trkpt lat="42.290575" lon="14.12575"><ele>210.66666666666669</ele><time>2026-04-26T13:42:04.404Z</time></trkpt><trkpt lat="42.290565" lon="14.1256367"><ele>208.5</ele><time>2026-04-26T13:42:05.393Z</time></trkpt><trkpt lat="42.290555" lon="14.1255283"><ele>206.33333333333331</ele><time>2026-04-26T13:42:06.398Z</time></trkpt><trkpt lat="42.290545" lon="14.12542"><ele>204.16666666666666</ele><time>2026-04-26T13:42:07.406Z</time></trkpt><trkpt lat="42.2905417" lon="14.1253133"><ele>202.0</ele><time>2026-04-26T13:42:08.452Z</time></trkpt><trkpt lat="42.2905417" lon="14.1252033"><ele>201.39999999999998</ele><time>2026-04-26T13:42:09.407Z</time></trkpt><trkpt lat="42.2905433" lon="14.125095"><ele>200.79999999999998</ele><time>2026-04-26T13:42:10.404Z</time></trkpt><trkpt lat="42.2905467" lon="14.124995"><ele>200.2</ele><time>2026-04-26T13:42:11.404Z</time></trkpt><trkpt lat="42.2905767" lon="14.1248433"><ele>199.6</ele><time>2026-04-26T13:42:13.391Z</time></trkpt><trkpt lat="42.2906417" lon="14.12471"><ele>199.0</ele><time>2026-04-26T13:42:15.396Z</time></trkpt><trkpt lat="42.29068" lon="14.1246283"><ele>198.28571428571428</ele><time>2026-04-26T13:42:16.397Z</time></trkpt><trkpt lat="42.2907183" lon="14.12455"><ele>197.57142857142856</ele><time>2026-04-26T13:42:17.398Z</time></trkpt><trkpt lat="42.2907583" lon="14.124475"><ele>196.85714285714283</ele><time>2026-04-26T13:42:18.402Z</time></trkpt><trkpt lat="42.2907967" lon="14.1244017"><ele>196.14285714285714</ele><time>2026-04-26T13:42:19.394Z</time></trkpt><trkpt lat="42.290835" lon="14.1243333"><ele>195.42857142857144</ele><time>2026-04-26T13:42:20.451Z</time></trkpt><trkpt lat="42.2908683" lon="14.1242583"><ele>194.7142857142857</ele><time>2026-04-26T13:42:21.407Z</time></trkpt><trkpt lat="42.2908983" lon="14.1241733"><ele>194.0</ele><time>2026-04-26T13:42:22.398Z</time></trkpt><trkpt lat="42.2909267" lon="14.1240933"><ele>191.00000000000003</ele><time>2026-04-26T13:42:23.402Z</time></trkpt><trkpt lat="42.2909717" lon="14.1239367"><ele>188.0</ele><time>2026-04-26T13:42:25.399Z</time></trkpt><trkpt lat="42.2909917" lon="14.1238433"><ele>185.0</ele><time>2026-04-26T13:42:26.454Z</time></trkpt><trkpt lat="42.2910067" lon="14.123745"><ele>182.0</ele><time>2026-04-26T13:42:27.399Z</time></trkpt><trkpt lat="42.2910167" lon="14.12365"><ele>179.0</ele><time>2026-04-26T13:42:28.402Z</time></trkpt><trkpt lat="42.29102" lon="14.1235617"><ele>176.0</ele><time>2026-04-26T13:42:29.405Z</time></trkpt><trkpt lat="42.2910067" lon="14.1234667"><ele>176.0</ele><time>2026-04-26T13:42:30.405Z</time></trkpt><trkpt lat="42.2909767" lon="14.1233583"><ele>176.0</ele><time>2026-04-26T13:42:31.412Z</time></trkpt><trkpt lat="42.2909317" lon="14.123235"><ele>176.0</ele><time>2026-04-26T13:42:32.452Z</time></trkpt><trkpt lat="42.29089" lon="14.1231067"><ele>176.0</ele><time>2026-04-26T13:42:33.402Z</time></trkpt><trkpt lat="42.29085" lon="14.1229883"><ele>176.0</ele><time>2026-04-26T13:42:34.402Z</time></trkpt><trkpt lat="42.2908167" lon="14.1228783"><ele>173.5</ele><time>2026-04-26T13:42:35.401Z</time></trkpt><trkpt lat="42.2907867" lon="14.1227767"><ele>171.0</ele><time>2026-04-26T13:42:36.393Z</time></trkpt><trkpt lat="42.2907617" lon="14.1226883"><ele>168.5</ele><time>2026-04-26T13:42:37.4Z</time></trkpt><trkpt lat="42.2907217" lon="14.122555"><ele>166.0</ele><time>2026-04-26T13:42:39.393Z</time></trkpt><trkpt lat="42.29074" lon="14.122445"><ele>163.5</ele><time>2026-04-26T13:42:41.391Z</time></trkpt><trkpt lat="42.290825" lon="14.1223633"><ele>161.0</ele><time>2026-04-26T13:42:43.392Z</time></trkpt><trkpt lat="42.2909267" lon="14.1222867"><ele>161.0</ele><time>2026-04-26T13:42:45.401Z</time></trkpt><trkpt lat="42.291015" lon="14.1222083"><ele>161.0</ele><time>2026-04-26T13:42:47.392Z</time></trkpt><trkpt lat="42.291055" lon="14.1221083"><ele>161.0</ele><time>2026-04-26T13:42:49.403Z</time></trkpt><trkpt lat="42.2910467" lon="14.1219533"><ele>161.0</ele><time>2026-04-26T13:42:51.395Z</time></trkpt><trkpt lat="42.29106" lon="14.1218067"><ele>161.0</ele><time>2026-04-26T13:42:53.4Z</time></trkpt><trkpt lat="42.2911217" lon="14.1216667"><ele>161.0</ele><time>2026-04-26T13:42:55.403Z</time></trkpt><trkpt lat="42.29116" lon="14.1215833"><ele>161.0</ele><time>2026-04-26T13:42:56.448Z</time></trkpt><trkpt lat="42.2912" lon="14.1214983"><ele>161.0</ele><time>2026-04-26T13:42:57.399Z</time></trkpt><trkpt lat="42.2912417" lon="14.1214067"><ele>161.0</ele><time>2026-04-26T13:42:58.401Z</time></trkpt><trkpt lat="42.2912867" lon="14.1213233"><ele>161.0</ele><time>2026-04-26T13:42:59.402Z</time></trkpt><trkpt lat="42.2913317" lon="14.1212417"><ele>161.0</ele><time>2026-04-26T13:43:00.403Z</time></trkpt><trkpt lat="42.291375" lon="14.1211583"><ele>162.42857142857142</ele><time>2026-04-26T13:43:01.404Z</time></trkpt><trkpt lat="42.2914117" lon="14.12107"><ele>163.85714285714286</ele><time>2026-04-26T13:43:02.458Z</time></trkpt><trkpt lat="42.2914483" lon="14.1209817"><ele>165.28571428571428</ele><time>2026-04-26T13:43:03.403Z</time></trkpt><trkpt lat="42.2914867" lon="14.120895"><ele>166.71428571428572</ele><time>2026-04-26T13:43:04.406Z</time></trkpt><trkpt lat="42.2915217" lon="14.1208133"><ele>168.14285714285714</ele><time>2026-04-26T13:43:05.392Z</time></trkpt><trkpt lat="42.2915583" lon="14.1207317"><ele>169.57142857142856</ele><time>2026-04-26T13:43:06.399Z</time></trkpt><trkpt lat="42.291595" lon="14.1206517"><ele>171.0</ele><time>2026-04-26T13:43:07.403Z</time></trkpt><trkpt lat="42.29163" lon="14.12057"><ele>175.33333333333334</ele><time>2026-04-26T13:43:08.452Z</time></trkpt><trkpt lat="42.2916683" lon="14.1204883"><ele>179.66666666666669</ele><time>2026-04-26T13:43:09.402Z</time></trkpt><trkpt lat="42.2917083" lon="14.1204083"><ele>184.0</ele><time>2026-04-26T13:43:10.405Z</time></trkpt><trkpt lat="42.2917483" lon="14.12033"><ele>188.33333333333334</ele><time>2026-04-26T13:43:11.405Z</time></trkpt><trkpt lat="42.2917867" lon="14.1202533"><ele>192.66666666666669</ele><time>2026-04-26T13:43:12.391Z</time></trkpt><trkpt lat="42.2918433" lon="14.1201133"><ele>197.0</ele><time>2026-04-26T13:43:14.447Z</time></trkpt><trkpt lat="42.2918533" lon="14.119955"><ele>200.6</ele><time>2026-04-26T13:43:16.397Z</time></trkpt><trkpt lat="42.291835" lon="14.119805"><ele>204.2</ele><time>2026-04-26T13:43:18.402Z</time></trkpt><trkpt lat="42.2918183" lon="14.11966"><ele>207.8</ele><time>2026-04-26T13:43:20.451Z</time></trkpt><trkpt lat="42.2917683" lon="14.11952"><ele>211.4</ele><time>2026-04-26T13:43:22.401Z</time></trkpt><trkpt lat="42.2917383" lon="14.119445"><ele>215.0</ele><time>2026-04-26T13:43:24.397Z</time></trkpt><trkpt lat="42.2918267" lon="14.1194817"><ele>215.0</ele><time>2026-04-26T13:43:28.401Z</time></trkpt><trkpt lat="42.2919283" lon="14.11952"><ele>215.0</ele><time>2026-04-26T13:43:30.396Z</time></trkpt><trkpt lat="42.29205" lon="14.1195183"><ele>215.0</ele><time>2026-04-26T13:43:32.457Z</time></trkpt><trkpt lat="42.2921117" lon="14.11949"><ele>215.0</ele><time>2026-04-26T13:43:33.396Z</time></trkpt><trkpt lat="42.2922233" lon="14.1194283"><ele>215.0</ele><time>2026-04-26T13:43:35.402Z</time></trkpt><trkpt lat="42.2922867" lon="14.11939"><ele>217.50000000000003</ele><time>2026-04-26T13:43:36.402Z</time></trkpt><trkpt lat="42.292355" lon="14.1193433"><ele>220.0</ele><time>2026-04-26T13:43:37.397Z</time></trkpt><trkpt lat="42.2924283" lon="14.119295"><ele>222.5</ele><time>2026-04-26T13:43:38.457Z</time></trkpt><trkpt lat="42.2925" lon="14.1192417"><ele>225.0</ele><time>2026-04-26T13:43:39.397Z</time></trkpt><trkpt lat="42.292565" lon="14.11919"><ele>227.50000000000003</ele><time>2026-04-26T13:43:40.399Z</time></trkpt><trkpt lat="42.29263" lon="14.119125"><ele>230.0</ele><time>2026-04-26T13:43:41.396Z</time></trkpt><trkpt lat="42.29269" lon="14.1190583"><ele>232.4285714285714</ele><time>2026-04-26T13:43:42.401Z</time></trkpt><trkpt lat="42.2927483" lon="14.1189917"><ele>234.85714285714283</ele><time>2026-04-26T13:43:43.392Z</time></trkpt><trkpt lat="42.2928067" lon="14.1189267"><ele>237.28571428571428</ele><time>2026-04-26T13:43:44.456Z</time></trkpt><trkpt lat="42.29286" lon="14.1188667"><ele>239.7142857142857</ele><time>2026-04-26T13:43:45.396Z</time></trkpt><trkpt lat="42.2929167" lon="14.1188083"><ele>242.1428571428571</ele><time>2026-04-26T13:43:46.399Z</time></trkpt><trkpt lat="42.2929717" lon="14.1187567"><ele>244.57142857142858</ele><time>2026-04-26T13:43:47.394Z</time></trkpt><trkpt lat="42.293025" lon="14.1187067"><ele>247.0</ele><time>2026-04-26T13:43:48.394Z</time></trkpt><trkpt lat="42.2931033" lon="14.1186033"><ele>246.99999999999997</ele><time>2026-04-26T13:43:50.45Z</time></trkpt><trkpt lat="42.2931067" lon="14.1184817"><ele>247.0</ele><time>2026-04-26T13:43:52.397Z</time></trkpt><trkpt lat="42.2930817" lon="14.1184017"><ele>247.0</ele><time>2026-04-26T13:43:53.4Z</time></trkpt><trkpt lat="42.2930467" lon="14.118275"><ele>247.0</ele><time>2026-04-26T13:43:55.398Z</time></trkpt><trkpt lat="42.2930283" lon="14.11816"><ele>246.99999999999997</ele><time>2026-04-26T13:44:52.396Z</time></trkpt><trkpt lat="42.29295" lon="14.1180983"><ele>247.0</ele><time>2026-04-26T13:44:54.4Z</time></trkpt><trkpt lat="42.29288" lon="14.1180733"><ele>246.0</ele><time>2026-04-26T13:44:55.394Z</time></trkpt><trkpt lat="42.2927933" lon="14.1180483"><ele>245.0</ele><time>2026-04-26T13:44:56.451Z</time></trkpt><trkpt lat="42.2926967" lon="14.1180183"><ele>244.0</ele><time>2026-04-26T13:44:57.398Z</time></trkpt><trkpt lat="42.2925983" lon="14.11798"><ele>243.0</ele><time>2026-04-26T13:44:58.398Z</time></trkpt><trkpt lat="42.292515" lon="14.1179233"><ele>242.0</ele><time>2026-04-26T13:44:59.404Z</time></trkpt><trkpt lat="42.29245" lon="14.1178533"><ele>242.00000000000003</ele><time>2026-04-26T13:45:00.405Z</time></trkpt><trkpt lat="42.29241" lon="14.1177683"><ele>242.0</ele><time>2026-04-26T13:45:01.398Z</time></trkpt><trkpt lat="42.29241" lon="14.117675"><ele>242.0</ele><time>2026-04-26T13:45:02.455Z</time></trkpt><trkpt lat="42.2924267" lon="14.1175883"><ele>242.0</ele><time>2026-04-26T13:45:03.398Z</time></trkpt><trkpt lat="42.29247" lon="14.1175233"><ele>242.00000000000003</ele><time>2026-04-26T13:45:04.399Z</time></trkpt><trkpt lat="42.292615" lon="14.1175333"><ele>242.0</ele><time>2026-04-26T13:45:06.397Z</time></trkpt><trkpt lat="42.29271" lon="14.1175933"><ele>242.0</ele><time>2026-04-26T13:45:07.399Z</time></trkpt><trkpt lat="42.2928067" lon="14.1176633"><ele>242.0</ele><time>2026-04-26T13:45:08.457Z</time></trkpt><trkpt lat="42.2928983" lon="14.1177217"><ele>242.0</ele><time>2026-04-26T13:45:09.398Z</time></trkpt><trkpt lat="42.29299" lon="14.1177633"><ele>242.0</ele><time>2026-04-26T13:45:10.401Z</time></trkpt><trkpt lat="42.2930733" lon="14.117785"><ele>242.0</ele><time>2026-04-26T13:45:11.402Z</time></trkpt><trkpt lat="42.293145" lon="14.117785"><ele>242.0</ele><time>2026-04-26T13:45:12.404Z</time></trkpt><trkpt lat="42.2931867" lon="14.117655"><ele>242.0</ele><time>2026-04-26T13:45:14.45Z</time></trkpt><trkpt lat="42.293155" lon="14.1175717"><ele>242.0</ele><time>2026-04-26T13:45:15.394Z</time></trkpt><trkpt lat="42.2931033" lon="14.1174917"><ele>242.0</ele><time>2026-04-26T13:45:16.399Z</time></trkpt><trkpt lat="42.293025" lon="14.117405"><ele>242.0</ele><time>2026-04-26T13:45:17.402Z</time></trkpt><trkpt lat="42.2929317" lon="14.1173017"><ele>237.66666666666669</ele><time>2026-04-26T13:45:18.4Z</time></trkpt><trkpt lat="42.2928283" lon="14.1171683"><ele>233.33333333333331</ele><time>2026-04-26T13:45:19.401Z</time></trkpt><trkpt lat="42.2927217" lon="14.1170067"><ele>229.0</ele><time>2026-04-26T13:45:20.459Z</time></trkpt><trkpt lat="42.29262" lon="14.1168233"><ele>229.0</ele><time>2026-04-26T13:45:21.404Z</time></trkpt><trkpt lat="42.2925217" lon="14.1166483"><ele>229.0</ele><time>2026-04-26T13:45:22.4Z</time></trkpt><trkpt lat="42.2924233" lon="14.11648"><ele>229.0</ele><time>2026-04-26T13:45:23.399Z</time></trkpt><trkpt lat="42.2923183" lon="14.11632"><ele>224.33333333333331</ele><time>2026-04-26T13:45:24.393Z</time></trkpt><trkpt lat="42.2922067" lon="14.1161717"><ele>219.66666666666669</ele><time>2026-04-26T13:45:25.404Z</time></trkpt><trkpt lat="42.292085" lon="14.11602"><ele>215.0</ele><time>2026-04-26T13:45:26.443Z</time></trkpt><trkpt lat="42.2919583" lon="14.11586"><ele>214.0</ele><time>2026-04-26T13:45:27.392Z</time></trkpt><trkpt lat="42.2918367" lon="14.1156917"><ele>213.0</ele><time>2026-04-26T13:45:28.398Z</time></trkpt><trkpt lat="42.2917233" lon="14.1155217"><ele>212.0</ele><time>2026-04-26T13:45:29.404Z</time></trkpt><trkpt lat="42.291615" lon="14.115345"><ele>212.0</ele><time>2026-04-26T13:45:30.405Z</time></trkpt><trkpt lat="42.29151" lon="14.1151633"><ele>212.0</ele><time>2026-04-26T13:45:31.404Z</time></trkpt><trkpt lat="42.29141" lon="14.1149767"><ele>212.0</ele><time>2026-04-26T13:45:32.455Z</time></trkpt><trkpt lat="42.2913117" lon="14.1147883"><ele>214.0</ele><time>2026-04-26T13:45:33.403Z</time></trkpt><trkpt lat="42.29122" lon="14.1145967"><ele>216.0</ele><time>2026-04-26T13:45:34.405Z</time></trkpt><trkpt lat="42.2911333" lon="14.1143983"><ele>218.0</ele><time>2026-04-26T13:45:35.408Z</time></trkpt><trkpt lat="42.29104" lon="14.1142017"><ele>216.66666666666669</ele><time>2026-04-26T13:45:36.399Z</time></trkpt><trkpt lat="42.2909483" lon="14.1140083"><ele>215.33333333333331</ele><time>2026-04-26T13:45:37.391Z</time></trkpt><trkpt lat="42.2908567" lon="14.1138217"><ele>214.0</ele><time>2026-04-26T13:45:38.453Z</time></trkpt><trkpt lat="42.2907733" lon="14.1136383"><ele>214.0</ele><time>2026-04-26T13:45:39.4Z</time></trkpt><trkpt lat="42.2906933" lon="14.1134517"><ele>214.0</ele><time>2026-04-26T13:45:40.404Z</time></trkpt><trkpt lat="42.29062" lon="14.1132633"><ele>214.0</ele><time>2026-04-26T13:45:41.403Z</time></trkpt><trkpt lat="42.2905517" lon="14.1130667"><ele>215.66666666666666</ele><time>2026-04-26T13:45:42.402Z</time></trkpt><trkpt lat="42.2904867" lon="14.112855"><ele>217.33333333333331</ele><time>2026-04-26T13:45:43.403Z</time></trkpt><trkpt lat="42.2904217" lon="14.1126283"><ele>219.0</ele><time>2026-04-26T13:45:44.453Z</time></trkpt><trkpt lat="42.2903583" lon="14.1123783"><ele>219.0</ele><time>2026-04-26T13:45:45.398Z</time></trkpt><trkpt lat="42.2903" lon="14.1121183"><ele>219.0</ele><time>2026-04-26T13:45:46.402Z</time></trkpt><trkpt lat="42.29025" lon="14.1118733"><ele>219.0</ele><time>2026-04-26T13:45:47.406Z</time></trkpt><trkpt lat="42.2902067" lon="14.11164"><ele>217.25</ele><time>2026-04-26T13:45:48.4Z</time></trkpt><trkpt lat="42.2901733" lon="14.11143"><ele>215.5</ele><time>2026-04-26T13:45:49.401Z</time></trkpt><trkpt lat="42.290155" lon="14.111235"><ele>213.75</ele><time>2026-04-26T13:45:50.45Z</time></trkpt><trkpt lat="42.29016" lon="14.1110617"><ele>212.0</ele><time>2026-04-26T13:45:51.394Z</time></trkpt><trkpt lat="42.2901833" lon="14.1108983"><ele>209.25</ele><time>2026-04-26T13:45:52.4Z</time></trkpt><trkpt lat="42.2902267" lon="14.11074"><ele>206.5</ele><time>2026-04-26T13:45:53.393Z</time></trkpt><trkpt lat="42.2902867" lon="14.110585"><ele>203.75</ele><time>2026-04-26T13:45:54.397Z</time></trkpt><trkpt lat="42.29035" lon="14.11044"><ele>201.0</ele><time>2026-04-26T13:45:55.404Z</time></trkpt><trkpt lat="42.2904317" lon="14.1103183"><ele>201.0</ele><time>2026-04-26T13:45:56.453Z</time></trkpt><trkpt lat="42.2905367" lon="14.1102083"><ele>201.0</ele><time>2026-04-26T13:45:57.401Z</time></trkpt><trkpt lat="42.2906617" lon="14.1101033"><ele>201.0</ele><time>2026-04-26T13:45:58.402Z</time></trkpt><trkpt lat="42.2907983" lon="14.1099833"><ele>201.0</ele><time>2026-04-26T13:45:59.403Z</time></trkpt><trkpt lat="42.2909417" lon="14.1098433"><ele>203.0</ele><time>2026-04-26T13:46:00.402Z</time></trkpt><trkpt lat="42.2910967" lon="14.1096733"><ele>205.0</ele><time>2026-04-26T13:46:01.391Z</time></trkpt><trkpt lat="42.291245" lon="14.1095017"><ele>207.0</ele><time>2026-04-26T13:46:02.452Z</time></trkpt><trkpt lat="42.2913883" lon="14.1093567"><ele>212.66666666666669</ele><time>2026-04-26T13:46:03.398Z</time></trkpt><trkpt lat="42.2915333" lon="14.1092383"><ele>218.33333333333334</ele><time>2026-04-26T13:46:04.401Z</time></trkpt><trkpt lat="42.291675" lon="14.1091417"><ele>224.0</ele><time>2026-04-26T13:46:05.403Z</time></trkpt><trkpt lat="42.2918033" lon="14.1090617"><ele>223.5</ele><time>2026-04-26T13:46:06.397Z</time></trkpt><trkpt lat="42.2919267" lon="14.1089767"><ele>223.0</ele><time>2026-04-26T13:46:07.407Z</time></trkpt><trkpt lat="42.292055" lon="14.1088733"><ele>222.5</ele><time>2026-04-26T13:46:08.452Z</time></trkpt><trkpt lat="42.2921767" lon="14.1087567"><ele>222.0</ele><time>2026-04-26T13:46:09.39Z</time></trkpt><trkpt lat="42.2922867" lon="14.108615"><ele>222.0</ele><time>2026-04-26T13:46:10.39Z</time></trkpt><trkpt lat="42.2923917" lon="14.1084617"><ele>222.0</ele><time>2026-04-26T13:46:11.395Z</time></trkpt><trkpt lat="42.2924883" lon="14.1082883"><ele>222.0</ele><time>2026-04-26T13:46:12.402Z</time></trkpt><trkpt lat="42.292585" lon="14.10809"><ele>223.66666666666669</ele><time>2026-04-26T13:46:13.401Z</time></trkpt><trkpt lat="42.2926733" lon="14.10787"><ele>225.33333333333334</ele><time>2026-04-26T13:46:14.448Z</time></trkpt><trkpt lat="42.2927583" lon="14.10763"><ele>227.0</ele><time>2026-04-26T13:46:15.395Z</time></trkpt><trkpt lat="42.2928533" lon="14.10738"><ele>228.0</ele><time>2026-04-26T13:46:16.399Z</time></trkpt><trkpt lat="42.2929433" lon="14.107125"><ele>229.0</ele><time>2026-04-26T13:46:17.396Z</time></trkpt><trkpt lat="42.29303" lon="14.1068883"><ele>230.0</ele><time>2026-04-26T13:46:18.39Z</time></trkpt><trkpt lat="42.2931167" lon="14.106655"><ele>225.66666666666669</ele><time>2026-04-26T13:46:19.403Z</time></trkpt><trkpt lat="42.2932033" lon="14.106425"><ele>221.33333333333331</ele><time>2026-04-26T13:46:20.458Z</time></trkpt><trkpt lat="42.2932917" lon="14.1062117"><ele>217.0</ele><time>2026-04-26T13:46:21.403Z</time></trkpt><trkpt lat="42.2933883" lon="14.1060117"><ele>217.0</ele><time>2026-04-26T13:46:22.4Z</time></trkpt><trkpt lat="42.2934967" lon="14.10583"><ele>217.0</ele><time>2026-04-26T13:46:23.395Z</time></trkpt><trkpt lat="42.29362" lon="14.105655"><ele>217.0</ele><time>2026-04-26T13:46:24.402Z</time></trkpt><trkpt lat="42.2937467" lon="14.1054783"><ele>218.0</ele><time>2026-04-26T13:46:25.399Z</time></trkpt><trkpt lat="42.2938683" lon="14.1052917"><ele>219.0</ele><time>2026-04-26T13:46:26.454Z</time></trkpt><trkpt lat="42.2939833" lon="14.1050933"><ele>220.0</ele><time>2026-04-26T13:46:27.397Z</time></trkpt><trkpt lat="42.2940933" lon="14.1048817"><ele>216.33333333333331</ele><time>2026-04-26T13:46:28.4Z</time></trkpt><trkpt lat="42.2942033" lon="14.104665"><ele>212.66666666666669</ele><time>2026-04-26T13:46:29.401Z</time></trkpt><trkpt lat="42.2943117" lon="14.1044483"><ele>209.0</ele><time>2026-04-26T13:46:30.395Z</time></trkpt><trkpt lat="42.29442" lon="14.1042317"><ele>209.0</ele><time>2026-04-26T13:46:31.399Z</time></trkpt><trkpt lat="42.29453" lon="14.1040167"><ele>209.0</ele><time>2026-04-26T13:46:32.46Z</time></trkpt><trkpt lat="42.2946367" lon="14.1038017"><ele>209.0</ele><time>2026-04-26T13:46:33.401Z</time></trkpt><trkpt lat="42.294745" lon="14.1035833"><ele>207.33333333333334</ele><time>2026-04-26T13:46:34.404Z</time></trkpt><trkpt lat="42.2948483" lon="14.103365"><ele>205.66666666666669</ele><time>2026-04-26T13:46:35.407Z</time></trkpt><trkpt lat="42.29495" lon="14.1031483"><ele>204.0</ele><time>2026-04-26T13:46:36.397Z</time></trkpt><trkpt lat="42.295055" lon="14.1029383"><ele>204.0</ele><time>2026-04-26T13:46:37.4Z</time></trkpt><trkpt lat="42.2951633" lon="14.102735"><ele>204.0</ele><time>2026-04-26T13:46:38.456Z</time></trkpt><trkpt lat="42.295275" lon="14.1025367"><ele>204.0</ele><time>2026-04-26T13:46:39.403Z</time></trkpt><trkpt lat="42.2953917" lon="14.1023483"><ele>203.66666666666669</ele><time>2026-04-26T13:46:40.403Z</time></trkpt><trkpt lat="42.2955133" lon="14.1021667"><ele>203.33333333333334</ele><time>2026-04-26T13:46:41.401Z</time></trkpt><trkpt lat="42.2956367" lon="14.10199"><ele>203.0</ele><time>2026-04-26T13:46:42.403Z</time></trkpt><trkpt lat="42.2957633" lon="14.101825"><ele>202.66666666666669</ele><time>2026-04-26T13:46:43.404Z</time></trkpt><trkpt lat="42.2958917" lon="14.1016617"><ele>202.33333333333331</ele><time>2026-04-26T13:46:44.462Z</time></trkpt><trkpt lat="42.29602" lon="14.1014967"><ele>202.0</ele><time>2026-04-26T13:46:45.4Z</time></trkpt><trkpt lat="42.2961467" lon="14.1013233"><ele>203.0</ele><time>2026-04-26T13:46:46.404Z</time></trkpt><trkpt lat="42.29627" lon="14.101145"><ele>204.0</ele><time>2026-04-26T13:46:47.402Z</time></trkpt><trkpt lat="42.2963933" lon="14.1009717"><ele>205.0</ele><time>2026-04-26T13:46:48.402Z</time></trkpt><trkpt lat="42.2965167" lon="14.1008117"><ele>203.33333333333331</ele><time>2026-04-26T13:46:49.403Z</time></trkpt><trkpt lat="42.2966483" lon="14.1006617"><ele>201.66666666666669</ele><time>2026-04-26T13:46:50.447Z</time></trkpt><trkpt lat="42.2967883" lon="14.1005333"><ele>200.0</ele><time>2026-04-26T13:46:51.396Z</time></trkpt><trkpt lat="42.2969267" lon="14.1004133"><ele>200.0</ele><time>2026-04-26T13:46:52.4Z</time></trkpt><trkpt lat="42.29706" lon="14.100285"><ele>200.0</ele><time>2026-04-26T13:46:53.404Z</time></trkpt><trkpt lat="42.2971883" lon="14.1001367"><ele>200.0</ele><time>2026-04-26T13:46:54.394Z</time></trkpt><trkpt lat="42.2973033" lon="14.0999733"><ele>194.66666666666669</ele><time>2026-04-26T13:46:55.391Z</time></trkpt><trkpt lat="42.2974067" lon="14.0997983"><ele>189.33333333333334</ele><time>2026-04-26T13:46:56.455Z</time></trkpt><trkpt lat="42.2974967" lon="14.0996067"><ele>184.0</ele><time>2026-04-26T13:46:57.392Z</time></trkpt><trkpt lat="42.29757" lon="14.0994033"><ele>184.0</ele><time>2026-04-26T13:46:58.397Z</time></trkpt><trkpt lat="42.2976217" lon="14.0992017"><ele>184.0</ele><time>2026-04-26T13:46:59.4Z</time></trkpt><trkpt lat="42.2976533" lon="14.0989967"><ele>184.0</ele><time>2026-04-26T13:47:00.401Z</time></trkpt><trkpt lat="42.297665" lon="14.0987867"><ele>183.0</ele><time>2026-04-26T13:47:01.404Z</time></trkpt><trkpt lat="42.2976633" lon="14.09858"><ele>182.0</ele><time>2026-04-26T13:47:02.454Z</time></trkpt><trkpt lat="42.2976567" lon="14.0983867"><ele>181.0</ele><time>2026-04-26T13:47:03.403Z</time></trkpt><trkpt lat="42.297655" lon="14.0982067"><ele>180.0</ele><time>2026-04-26T13:47:04.402Z</time></trkpt><trkpt lat="42.2976633" lon="14.098045"><ele>180.0</ele><time>2026-04-26T13:47:05.402Z</time></trkpt><trkpt lat="42.2976833" lon="14.097905"><ele>180.0</ele><time>2026-04-26T13:47:06.404Z</time></trkpt><trkpt lat="42.29771" lon="14.097785"><ele>180.0</ele><time>2026-04-26T13:47:07.392Z</time></trkpt><trkpt lat="42.29774" lon="14.0976933"><ele>180.0</ele><time>2026-04-26T13:47:08.451Z</time></trkpt><trkpt lat="42.2977983" lon="14.097615"><ele>180.0</ele><time>2026-04-26T13:47:10.392Z</time></trkpt><trkpt lat="42.29781" lon="14.0977333"><ele>180.0</ele><time>2026-04-26T13:47:13.401Z</time></trkpt><trkpt lat="42.2978267" lon="14.0979017"><ele>180.0</ele><time>2026-04-26T13:47:15.394Z</time></trkpt><trkpt lat="42.29788" lon="14.097985"><ele>180.0</ele><time>2026-04-26T13:47:16.4Z</time></trkpt><trkpt lat="42.2979567" lon="14.098055"><ele>180.0</ele><time>2026-04-26T13:47:17.396Z</time></trkpt><trkpt lat="42.29805" lon="14.0981167"><ele>180.0</ele><time>2026-04-26T13:47:18.4Z</time></trkpt><trkpt lat="42.29814" lon="14.09818"><ele>180.0</ele><time>2026-04-26T13:47:19.403Z</time></trkpt><trkpt lat="42.2982183" lon="14.098255"><ele>176.0</ele><time>2026-04-26T13:47:20.45Z</time></trkpt><trkpt lat="42.298295" lon="14.09833"><ele>172.0</ele><time>2026-04-26T13:47:21.396Z</time></trkpt><trkpt lat="42.2983867" lon="14.09841"><ele>168.0</ele><time>2026-04-26T13:47:22.4Z</time></trkpt><trkpt lat="42.2984933" lon="14.0984833"><ele>164.0</ele><time>2026-04-26T13:47:23.401Z</time></trkpt><trkpt lat="42.2986067" lon="14.098545"><ele>160.0</ele><time>2026-04-26T13:47:24.399Z</time></trkpt><trkpt lat="42.2987283" lon="14.0985933"><ele>160.0</ele><time>2026-04-26T13:47:25.402Z</time></trkpt><trkpt lat="42.2988733" lon="14.098635"><ele>160.0</ele><time>2026-04-26T13:47:26.45Z</time></trkpt><trkpt lat="42.2990267" lon="14.0986733"><ele>160.0</ele><time>2026-04-26T13:47:27.394Z</time></trkpt><trkpt lat="42.2991767" lon="14.09871"><ele>154.75</ele><time>2026-04-26T13:47:28.4Z</time></trkpt><trkpt lat="42.2993183" lon="14.0987367"><ele>149.5</ele><time>2026-04-26T13:47:29.396Z</time></trkpt><trkpt lat="42.2994617" lon="14.0987483"><ele>144.25</ele><time>2026-04-26T13:47:30.402Z</time></trkpt><trkpt lat="42.2996133" lon="14.0987467"><ele>139.0</ele><time>2026-04-26T13:47:31.405Z</time></trkpt><trkpt lat="42.2997733" lon="14.098725"><ele>135.75</ele><time>2026-04-26T13:47:32.444Z</time></trkpt><trkpt lat="42.2999233" lon="14.0986917"><ele>132.5</ele><time>2026-04-26T13:47:33.393Z</time></trkpt><trkpt lat="42.30006" lon="14.09865"><ele>129.25</ele><time>2026-04-26T13:47:34.399Z</time></trkpt><trkpt lat="42.30019" lon="14.0985983"><ele>126.0</ele><time>2026-04-26T13:47:35.4Z</time></trkpt><trkpt lat="42.3003183" lon="14.098535"><ele>126.0</ele><time>2026-04-26T13:47:36.404Z</time></trkpt><trkpt lat="42.30044" lon="14.0984567"><ele>126.0</ele><time>2026-04-26T13:47:37.403Z</time></trkpt><trkpt lat="42.3005533" lon="14.0983617"><ele>126.0</ele><time>2026-04-26T13:47:38.455Z</time></trkpt><trkpt lat="42.30066" lon="14.0982517"><ele>126.0</ele><time>2026-04-26T13:47:39.402Z</time></trkpt><trkpt lat="42.30076" lon="14.0981367"><ele>122.25</ele><time>2026-04-26T13:47:40.4Z</time></trkpt><trkpt lat="42.3008567" lon="14.0980367"><ele>118.5</ele><time>2026-04-26T13:47:41.404Z</time></trkpt><trkpt lat="42.3009567" lon="14.097955"><ele>114.75</ele><time>2026-04-26T13:47:42.403Z</time></trkpt><trkpt lat="42.3010667" lon="14.0978917"><ele>111.0</ele><time>2026-04-26T13:47:43.4Z</time></trkpt><trkpt lat="42.30119" lon="14.0978433"><ele>111.0</ele><time>2026-04-26T13:47:44.454Z</time></trkpt><trkpt lat="42.3013167" lon="14.0978117"><ele>111.0</ele><time>2026-04-26T13:47:45.402Z</time></trkpt><trkpt lat="42.3014333" lon="14.0978033"><ele>111.0</ele><time>2026-04-26T13:47:46.4Z</time></trkpt><trkpt lat="42.30153" lon="14.0978"><ele>111.0</ele><time>2026-04-26T13:47:47.401Z</time></trkpt><trkpt lat="42.3016067" lon="14.097795"><ele>111.0</ele><time>2026-04-26T13:47:48.402Z</time></trkpt><trkpt lat="42.3017083" lon="14.0977417"><ele>109.75</ele><time>2026-04-26T13:47:50.454Z</time></trkpt><trkpt lat="42.3017433" lon="14.0975767"><ele>108.5</ele><time>2026-04-26T13:47:52.402Z</time></trkpt><trkpt lat="42.301755" lon="14.0974283"><ele>107.25</ele><time>2026-04-26T13:47:53.402Z</time></trkpt><trkpt lat="42.3017717" lon="14.09726"><ele>106.0</ele><time>2026-04-26T13:47:54.406Z</time></trkpt><trkpt lat="42.30179" lon="14.0970733"><ele>105.66666666666667</ele><time>2026-04-26T13:47:55.401Z</time></trkpt><trkpt lat="42.3018183" lon="14.096875"><ele>105.33333333333334</ele><time>2026-04-26T13:47:56.448Z</time></trkpt><trkpt lat="42.3018467" lon="14.096665"><ele>105.0</ele><time>2026-04-26T13:47:57.397Z</time></trkpt><trkpt lat="42.301875" lon="14.096445"><ele>105.33333333333334</ele><time>2026-04-26T13:47:58.399Z</time></trkpt><trkpt lat="42.301905" lon="14.0962183"><ele>105.66666666666667</ele><time>2026-04-26T13:47:59.4Z</time></trkpt><trkpt lat="42.301935" lon="14.0959867"><ele>106.0</ele><time>2026-04-26T13:48:00.392Z</time></trkpt><trkpt lat="42.3019633" lon="14.09575"><ele>106.0</ele><time>2026-04-26T13:48:01.401Z</time></trkpt><trkpt lat="42.3019933" lon="14.0955133"><ele>106.0</ele><time>2026-04-26T13:48:02.445Z</time></trkpt><trkpt lat="42.3020217" lon="14.095285"><ele>106.0</ele><time>2026-04-26T13:48:03.396Z</time></trkpt><trkpt lat="42.3020483" lon="14.0950733"><ele>105.75</ele><time>2026-04-26T13:48:04.397Z</time></trkpt><trkpt lat="42.30207" lon="14.0948817"><ele>105.5</ele><time>2026-04-26T13:48:05.399Z</time></trkpt><trkpt lat="42.3020833" lon="14.0947133"><ele>105.25</ele><time>2026-04-26T13:48:06.407Z</time></trkpt><trkpt lat="42.3020783" lon="14.0945633"><ele>105.0</ele><time>2026-04-26T13:48:07.404Z</time></trkpt><trkpt lat="42.3020533" lon="14.0944133"><ele>105.0</ele><time>2026-04-26T13:48:08.451Z</time></trkpt><trkpt lat="42.3020217" lon="14.0942567"><ele>105.0</ele><time>2026-04-26T13:48:09.399Z</time></trkpt><trkpt lat="42.3019933" lon="14.0941033"><ele>105.0</ele><time>2026-04-26T13:48:10.4Z</time></trkpt><trkpt lat="42.3019533" lon="14.09396"><ele>105.0</ele><time>2026-04-26T13:48:11.402Z</time></trkpt><trkpt lat="42.30189" lon="14.093825"><ele>105.2</ele><time>2026-04-26T13:48:12.407Z</time></trkpt><trkpt lat="42.3018167" lon="14.0936917"><ele>105.4</ele><time>2026-04-26T13:48:13.404Z</time></trkpt><trkpt lat="42.3017417" lon="14.0935733"><ele>105.6</ele><time>2026-04-26T13:48:14.454Z</time></trkpt><trkpt lat="42.3016883" lon="14.0934667"><ele>105.8</ele><time>2026-04-26T13:48:15.4Z</time></trkpt><trkpt lat="42.301725" lon="14.0933183"><ele>106.0</ele><time>2026-04-26T13:48:17.393Z</time></trkpt><trkpt lat="42.30178" lon="14.09326"><ele>108.25</ele><time>2026-04-26T13:48:18.404Z</time></trkpt><trkpt lat="42.3018833" lon="14.0932167"><ele>110.5</ele><time>2026-04-26T13:48:19.404Z</time></trkpt><trkpt lat="42.302005" lon="14.0931633"><ele>112.75</ele><time>2026-04-26T13:48:20.444Z</time></trkpt><trkpt lat="42.302135" lon="14.0931"><ele>115.0</ele><time>2026-04-26T13:48:21.396Z</time></trkpt><trkpt lat="42.302275" lon="14.0930333"><ele>115.0</ele><time>2026-04-26T13:48:22.403Z</time></trkpt><trkpt lat="42.302415" lon="14.0929667"><ele>115.0</ele><time>2026-04-26T13:48:23.4Z</time></trkpt><trkpt lat="42.3025433" lon="14.092905"><ele>115.0</ele><time>2026-04-26T13:48:24.397Z</time></trkpt><trkpt lat="42.3026633" lon="14.0928417"><ele>115.0</ele><time>2026-04-26T13:48:25.397Z</time></trkpt><trkpt lat="42.3027767" lon="14.0927717"><ele>115.0</ele><time>2026-04-26T13:48:26.453Z</time></trkpt><trkpt lat="42.3028817" lon="14.0926883"><ele>115.0</ele><time>2026-04-26T13:48:27.401Z</time></trkpt><trkpt lat="42.302985" lon="14.09258"><ele>115.0</ele><time>2026-04-26T13:48:28.394Z</time></trkpt><trkpt lat="42.3030883" lon="14.092445"><ele>115.0</ele><time>2026-04-26T13:48:29.391Z</time></trkpt><trkpt lat="42.3031967" lon="14.0922933"><ele>113.66666666666667</ele><time>2026-04-26T13:48:30.399Z</time></trkpt><trkpt lat="42.30331" lon="14.0921383"><ele>112.33333333333334</ele><time>2026-04-26T13:48:31.39Z</time></trkpt><trkpt lat="42.30343" lon="14.0919917"><ele>111.0</ele><time>2026-04-26T13:48:32.45Z</time></trkpt><trkpt lat="42.3035633" lon="14.09186"><ele>111.0</ele><time>2026-04-26T13:48:33.397Z</time></trkpt><trkpt lat="42.3037067" lon="14.0917533"><ele>111.0</ele><time>2026-04-26T13:48:34.399Z</time></trkpt><trkpt lat="42.30386" lon="14.0916633"><ele>111.0</ele><time>2026-04-26T13:48:35.394Z</time></trkpt><trkpt lat="42.304025" lon="14.0915733"><ele>111.33333333333334</ele><time>2026-04-26T13:48:36.392Z</time></trkpt><trkpt lat="42.3041933" lon="14.09148"><ele>111.66666666666667</ele><time>2026-04-26T13:48:37.399Z</time></trkpt><trkpt lat="42.3043667" lon="14.091385"><ele>112.0</ele><time>2026-04-26T13:48:38.448Z</time></trkpt><trkpt lat="42.3045417" lon="14.0912867"><ele>112.0</ele><time>2026-04-26T13:48:39.395Z</time></trkpt><trkpt lat="42.304715" lon="14.0911867"><ele>112.0</ele><time>2026-04-26T13:48:40.397Z</time></trkpt><trkpt lat="42.30489" lon="14.09108"><ele>112.0</ele><time>2026-04-26T13:48:41.4Z</time></trkpt><trkpt lat="42.3050567" lon="14.0909767"><ele>110.66666666666667</ele><time>2026-04-26T13:48:42.406Z</time></trkpt><trkpt lat="42.305215" lon="14.0908783"><ele>109.33333333333334</ele><time>2026-04-26T13:48:43.397Z</time></trkpt><trkpt lat="42.3053667" lon="14.090785"><ele>108.0</ele><time>2026-04-26T13:48:44.455Z</time></trkpt><trkpt lat="42.305515" lon="14.0906967"><ele>104.0</ele><time>2026-04-26T13:48:45.404Z</time></trkpt><trkpt lat="42.3056567" lon="14.090605"><ele>100.0</ele><time>2026-04-26T13:48:46.389Z</time></trkpt><trkpt lat="42.3057933" lon="14.0905083"><ele>96.0</ele><time>2026-04-26T13:48:47.394Z</time></trkpt><trkpt lat="42.3059267" lon="14.0904117"><ele>96.0</ele><time>2026-04-26T13:48:48.403Z</time></trkpt><trkpt lat="42.306055" lon="14.0903083"><ele>96.0</ele><time>2026-04-26T13:48:49.404Z</time></trkpt><trkpt lat="42.30618" lon="14.090205"><ele>96.0</ele><time>2026-04-26T13:48:50.46Z</time></trkpt><trkpt lat="42.3063017" lon="14.0901"><ele>96.0</ele><time>2026-04-26T13:48:51.401Z</time></trkpt><trkpt lat="42.3064133" lon="14.0899833"><ele>95.25</ele><time>2026-04-26T13:48:52.402Z</time></trkpt><trkpt lat="42.3065067" lon="14.0898417"><ele>94.5</ele><time>2026-04-26T13:48:53.402Z</time></trkpt><trkpt lat="42.3065683" lon="14.08967"><ele>93.75</ele><time>2026-04-26T13:48:54.399Z</time></trkpt><trkpt lat="42.306625" lon="14.0895167"><ele>93.0</ele><time>2026-04-26T13:48:55.401Z</time></trkpt><trkpt lat="42.3066867" lon="14.08939"><ele>93.0</ele><time>2026-04-26T13:48:56.451Z</time></trkpt><trkpt lat="42.306755" lon="14.0893317"><ele>93.0</ele><time>2026-04-26T13:48:57.401Z</time></trkpt><trkpt lat="42.3068233" lon="14.0893217"><ele>93.0</ele><time>2026-04-26T13:48:58.404Z</time></trkpt><trkpt lat="42.3068867" lon="14.0893333"><ele>93.0</ele><time>2026-04-26T13:48:59.405Z</time></trkpt><trkpt lat="42.3069567" lon="14.0893767"><ele>93.0</ele><time>2026-04-26T13:49:00.402Z</time></trkpt><trkpt lat="42.3070333" lon="14.089435"><ele>93.0</ele><time>2026-04-26T13:49:01.402Z</time></trkpt><trkpt lat="42.30712" lon="14.0894933"><ele>93.0</ele><time>2026-04-26T13:49:02.444Z</time></trkpt><trkpt lat="42.3072183" lon="14.0895467"><ele>93.0</ele><time>2026-04-26T13:49:03.396Z</time></trkpt><trkpt lat="42.3073233" lon="14.08958"><ele>93.0</ele><time>2026-04-26T13:49:04.398Z</time></trkpt><trkpt lat="42.3074333" lon="14.0896033"><ele>93.0</ele><time>2026-04-26T13:49:05.404Z</time></trkpt><trkpt lat="42.307555" lon="14.0896333"><ele>93.0</ele><time>2026-04-26T13:49:06.407Z</time></trkpt><trkpt lat="42.3076817" lon="14.0896733"><ele>92.66666666666667</ele><time>2026-04-26T13:49:07.396Z</time></trkpt><trkpt lat="42.3078233" lon="14.0897217"><ele>92.33333333333334</ele><time>2026-04-26T13:49:08.457Z</time></trkpt><trkpt lat="42.30799" lon="14.0897767"><ele>92.0</ele><time>2026-04-26T13:49:09.405Z</time></trkpt><trkpt lat="42.3081633" lon="14.0898317"><ele>90.33333333333334</ele><time>2026-04-26T13:49:10.399Z</time></trkpt><trkpt lat="42.30833" lon="14.0898817"><ele>88.66666666666667</ele><time>2026-04-26T13:49:11.404Z</time></trkpt><trkpt lat="42.3084883" lon="14.0899283"><ele>87.0</ele><time>2026-04-26T13:49:12.393Z</time></trkpt><trkpt lat="42.308635" lon="14.0899767"><ele>86.0</ele><time>2026-04-26T13:49:13.392Z</time></trkpt><trkpt lat="42.3087667" lon="14.0900183"><ele>85.0</ele><time>2026-04-26T13:49:14.447Z</time></trkpt><trkpt lat="42.308875" lon="14.090055"><ele>84.0</ele><time>2026-04-26T13:49:15.393Z</time></trkpt><trkpt lat="42.3089633" lon="14.0900933"><ele>83.0</ele><time>2026-04-26T13:49:17.397Z</time></trkpt><trkpt lat="42.30905" lon="14.0900983"><ele>82.0</ele><time>2026-04-26T13:49:26.454Z</time></trkpt><trkpt lat="42.309125" lon="14.0901467"><ele>81.33333333333333</ele><time>2026-04-26T13:49:28.398Z</time></trkpt><trkpt lat="42.3092033" lon="14.0902867"><ele>80.66666666666666</ele><time>2026-04-26T13:49:30.389Z</time></trkpt><trkpt lat="42.3092333" lon="14.0903867"><ele>80.0</ele><time>2026-04-26T13:49:31.401Z</time></trkpt><trkpt lat="42.30926" lon="14.0904867"><ele>79.33333333333333</ele><time>2026-04-26T13:49:32.456Z</time></trkpt><trkpt lat="42.309275" lon="14.090575"><ele>78.66666666666667</ele><time>2026-04-26T13:49:33.398Z</time></trkpt><trkpt lat="42.3092883" lon="14.0906633"><ele>78.0</ele><time>2026-04-26T13:49:34.398Z</time></trkpt><trkpt lat="42.3093083" lon="14.0907533"><ele>77.66666666666667</ele><time>2026-04-26T13:49:35.394Z</time></trkpt><trkpt lat="42.3093383" lon="14.0908383"><ele>77.33333333333333</ele><time>2026-04-26T13:49:36.401Z</time></trkpt><trkpt lat="42.309385" lon="14.0909067"><ele>77.0</ele><time>2026-04-26T13:49:37.4Z</time></trkpt><trkpt lat="42.3094383" lon="14.0909567"><ele>76.66666666666666</ele><time>2026-04-26T13:49:38.451Z</time></trkpt><trkpt lat="42.309495" lon="14.091"><ele>76.33333333333333</ele><time>2026-04-26T13:49:39.403Z</time></trkpt><trkpt lat="42.3095917" lon="14.0910867"><ele>76.0</ele><time>2026-04-26T13:49:41.392Z</time></trkpt><trkpt lat="42.30964" lon="14.09115"><ele>76.0</ele><time>2026-04-26T13:49:42.405Z</time></trkpt><trkpt lat="42.3096933" lon="14.0912217"><ele>76.0</ele><time>2026-04-26T13:49:43.392Z</time></trkpt><trkpt lat="42.3097483" lon="14.0912933"><ele>76.0</ele><time>2026-04-26T13:49:44.445Z</time></trkpt><trkpt lat="42.3098033" lon="14.0913583"><ele>76.0</ele><time>2026-04-26T13:49:45.395Z</time></trkpt><trkpt lat="42.309855" lon="14.0914333"><ele>76.0</ele><time>2026-04-26T13:49:46.399Z</time></trkpt><trkpt lat="42.3099133" lon="14.0915217"><ele>76.0</ele><time>2026-04-26T13:49:47.401Z</time></trkpt><trkpt lat="42.30997" lon="14.0916167"><ele>78.0</ele><time>2026-04-26T13:49:48.399Z</time></trkpt><trkpt lat="42.3100267" lon="14.0917217"><ele>80.0</ele><time>2026-04-26T13:49:49.402Z</time></trkpt><trkpt lat="42.3100833" lon="14.09183"><ele>82.0</ele><time>2026-04-26T13:49:50.464Z</time></trkpt><trkpt lat="42.3101483" lon="14.09194"><ele>84.0</ele><time>2026-04-26T13:49:51.393Z</time></trkpt><trkpt lat="42.31022" lon="14.0920517"><ele>86.0</ele><time>2026-04-26T13:49:52.4Z</time></trkpt><trkpt lat="42.3103017" lon="14.09217"><ele>86.0</ele><time>2026-04-26T13:49:53.407Z</time></trkpt><trkpt lat="42.3103767" lon="14.0922867"><ele>86.0</ele><time>2026-04-26T13:49:54.404Z</time></trkpt><trkpt lat="42.310445" lon="14.0923983"><ele>86.0</ele><time>2026-04-26T13:49:55.393Z</time></trkpt><trkpt lat="42.3105167" lon="14.0925183"><ele>86.0</ele><time>2026-04-26T13:49:56.455Z</time></trkpt><trkpt lat="42.3105933" lon="14.0926467"><ele>87.5</ele><time>2026-04-26T13:49:57.404Z</time></trkpt><trkpt lat="42.3106767" lon="14.09278"><ele>89.0</ele><time>2026-04-26T13:49:58.39Z</time></trkpt><trkpt lat="42.310765" lon="14.09292"><ele>90.5</ele><time>2026-04-26T13:49:59.401Z</time></trkpt><trkpt lat="42.3108533" lon="14.09306"><ele>92.0</ele><time>2026-04-26T13:50:00.407Z</time></trkpt><trkpt lat="42.3109417" lon="14.0931917"><ele>93.0</ele><time>2026-04-26T13:50:01.401Z</time></trkpt><trkpt lat="42.311025" lon="14.0933083"><ele>94.0</ele><time>2026-04-26T13:50:02.455Z</time></trkpt><trkpt lat="42.3111" lon="14.093415"><ele>95.0</ele><time>2026-04-26T13:50:03.393Z</time></trkpt><trkpt lat="42.3111717" lon="14.0935267"><ele>96.0</ele><time>2026-04-26T13:50:04.4Z</time></trkpt><trkpt lat="42.31124" lon="14.09364"><ele>97.0</ele><time>2026-04-26T13:50:05.393Z</time></trkpt><trkpt lat="42.3113033" lon="14.0937367"><ele>97.00000000000001</ele><time>2026-04-26T13:50:06.4Z</time></trkpt><trkpt lat="42.3113583" lon="14.093815"><ele>97.0</ele><time>2026-04-26T13:50:07.405Z</time></trkpt><trkpt lat="42.3114333" lon="14.0938883"><ele>97.0</ele><time>2026-04-26T13:50:09.402Z</time></trkpt><trkpt lat="42.3114867" lon="14.0938283"><ele>97.0</ele><time>2026-04-26T13:50:12.399Z</time></trkpt><trkpt lat="42.31151" lon="14.0937167"><ele>97.00000000000001</ele><time>2026-04-26T13:50:15.394Z</time></trkpt><trkpt lat="42.3115433" lon="14.09363"><ele>97.0</ele><time>2026-04-26T13:50:16.389Z</time></trkpt><trkpt lat="42.3115933" lon="14.0935133"><ele>96.75</ele><time>2026-04-26T13:50:17.387Z</time></trkpt><trkpt lat="42.3116617" lon="14.09337"><ele>96.5</ele><time>2026-04-26T13:50:18.396Z</time></trkpt><trkpt lat="42.3117467" lon="14.0932083"><ele>96.25</ele><time>2026-04-26T13:50:19.403Z</time></trkpt><trkpt lat="42.3118467" lon="14.0930333"><ele>96.0</ele><time>2026-04-26T13:50:20.457Z</time></trkpt><trkpt lat="42.3119533" lon="14.0928483"><ele>94.66666666666667</ele><time>2026-04-26T13:50:21.4Z</time></trkpt><trkpt lat="42.312055" lon="14.0926683"><ele>93.33333333333334</ele><time>2026-04-26T13:50:22.406Z</time></trkpt><trkpt lat="42.312145" lon="14.092505"><ele>92.0</ele><time>2026-04-26T13:50:23.404Z</time></trkpt><trkpt lat="42.3122267" lon="14.09236"><ele>92.39999999999999</ele><time>2026-04-26T13:50:24.407Z</time></trkpt><trkpt lat="42.312305" lon="14.0922333"><ele>92.8</ele><time>2026-04-26T13:50:25.392Z</time></trkpt><trkpt lat="42.3123783" lon="14.0921267"><ele>93.2</ele><time>2026-04-26T13:50:26.448Z</time></trkpt><trkpt lat="42.31245" lon="14.0920317"><ele>93.6</ele><time>2026-04-26T13:50:27.397Z</time></trkpt><trkpt lat="42.3125317" lon="14.0919417"><ele>94.0</ele><time>2026-04-26T13:50:28.398Z</time></trkpt><trkpt lat="42.3126267" lon="14.0918517"><ele>94.0</ele><time>2026-04-26T13:50:29.4Z</time></trkpt><trkpt lat="42.3127317" lon="14.09176"><ele>94.0</ele><time>2026-04-26T13:50:30.402Z</time></trkpt><trkpt lat="42.3128383" lon="14.091665"><ele>94.0</ele><time>2026-04-26T13:50:31.403Z</time></trkpt><trkpt lat="42.31293" lon="14.0915667"><ele>94.0</ele><time>2026-04-26T13:50:32.457Z</time></trkpt><trkpt lat="42.31301" lon="14.0914567"><ele>94.0</ele><time>2026-04-26T13:50:33.399Z</time></trkpt><trkpt lat="42.3130717" lon="14.09132"><ele>94.0</ele><time>2026-04-26T13:50:34.403Z</time></trkpt><trkpt lat="42.3131167" lon="14.0911533"><ele>94.0</ele><time>2026-04-26T13:50:35.399Z</time></trkpt><trkpt lat="42.3131533" lon="14.0909417"><ele>94.0</ele><time>2026-04-26T13:50:36.389Z</time></trkpt><trkpt lat="42.31319" lon="14.09069"><ele>94.0</ele><time>2026-04-26T13:50:37.401Z</time></trkpt><trkpt lat="42.3132233" lon="14.0904433"><ele>94.0</ele><time>2026-04-26T13:50:38.45Z</time></trkpt><trkpt lat="42.31325" lon="14.0902233"><ele>94.0</ele><time>2026-04-26T13:50:39.392Z</time></trkpt><trkpt lat="42.3132717" lon="14.090025"><ele>93.5</ele><time>2026-04-26T13:50:40.394Z</time></trkpt><trkpt lat="42.3132967" lon="14.0898317"><ele>93.0</ele><time>2026-04-26T13:50:41.398Z</time></trkpt><trkpt lat="42.3133267" lon="14.0896417"><ele>92.5</ele><time>2026-04-26T13:50:42.399Z</time></trkpt><trkpt lat="42.3133633" lon="14.0894617"><ele>92.0</ele><time>2026-04-26T13:50:43.396Z</time></trkpt><trkpt lat="42.3134083" lon="14.0892883"><ele>92.0</ele><time>2026-04-26T13:50:44.442Z</time></trkpt><trkpt lat="42.3134617" lon="14.089115"><ele>92.0</ele><time>2026-04-26T13:50:45.391Z</time></trkpt><trkpt lat="42.3135183" lon="14.0889417"><ele>92.0</ele><time>2026-04-26T13:50:46.396Z</time></trkpt><trkpt lat="42.3135783" lon="14.08877"><ele>92.0</ele><time>2026-04-26T13:50:47.4Z</time></trkpt><trkpt lat="42.3136433" lon="14.0886"><ele>91.33333333333334</ele><time>2026-04-26T13:50:48.398Z</time></trkpt><trkpt lat="42.31372" lon="14.0884333"><ele>90.66666666666667</ele><time>2026-04-26T13:50:49.399Z</time></trkpt><trkpt lat="42.31381" lon="14.0882733"><ele>90.0</ele><time>2026-04-26T13:50:50.45Z</time></trkpt><trkpt lat="42.31392" lon="14.0881133"><ele>88.0</ele><time>2026-04-26T13:50:51.394Z</time></trkpt><trkpt lat="42.31405" lon="14.0879433"><ele>86.0</ele><time>2026-04-26T13:50:52.403Z</time></trkpt><trkpt lat="42.3141917" lon="14.087755"><ele>84.0</ele><time>2026-04-26T13:50:53.399Z</time></trkpt><trkpt lat="42.3143333" lon="14.08757"><ele>83.33333333333333</ele><time>2026-04-26T13:50:54.4Z</time></trkpt><trkpt lat="42.314465" lon="14.0874033"><ele>82.66666666666666</ele><time>2026-04-26T13:50:55.401Z</time></trkpt><trkpt lat="42.31459" lon="14.08725"><ele>82.0</ele><time>2026-04-26T13:50:56.441Z</time></trkpt><trkpt lat="42.3147117" lon="14.0871133"><ele>81.25</ele><time>2026-04-26T13:50:57.395Z</time></trkpt><trkpt lat="42.31483" lon="14.0869933"><ele>80.5</ele><time>2026-04-26T13:50:58.397Z</time></trkpt><trkpt lat="42.314945" lon="14.08689"><ele>79.75</ele><time>2026-04-26T13:50:59.403Z</time></trkpt><trkpt lat="42.31506" lon="14.086805"><ele>79.0</ele><time>2026-04-26T13:51:00.403Z</time></trkpt><trkpt lat="42.3151733" lon="14.0867383"><ele>79.0</ele><time>2026-04-26T13:51:01.401Z</time></trkpt><trkpt lat="42.31529" lon="14.0866883"><ele>79.0</ele><time>2026-04-26T13:51:02.445Z</time></trkpt><trkpt lat="42.31541" lon="14.086665"><ele>79.0</ele><time>2026-04-26T13:51:03.391Z</time></trkpt><trkpt lat="42.315535" lon="14.086675"><ele>79.0</ele><time>2026-04-26T13:51:04.395Z</time></trkpt><trkpt lat="42.3156633" lon="14.0867"><ele>79.25</ele><time>2026-04-26T13:51:05.402Z</time></trkpt><trkpt lat="42.3158" lon="14.08673"><ele>79.5</ele><time>2026-04-26T13:51:06.4Z</time></trkpt><trkpt lat="42.315945" lon="14.08675"><ele>79.75</ele><time>2026-04-26T13:51:07.4Z</time></trkpt><trkpt lat="42.31609" lon="14.08677"><ele>80.0</ele><time>2026-04-26T13:51:08.451Z</time></trkpt><trkpt lat="42.3162233" lon="14.086795"><ele>80.0</ele><time>2026-04-26T13:51:09.396Z</time></trkpt><trkpt lat="42.3163533" lon="14.086835"><ele>80.0</ele><time>2026-04-26T13:51:10.391Z</time></trkpt><trkpt lat="42.3164817" lon="14.086895"><ele>80.0</ele><time>2026-04-26T13:51:11.402Z</time></trkpt><trkpt lat="42.31662" lon="14.0869717"><ele>80.0</ele><time>2026-04-26T13:51:12.396Z</time></trkpt><trkpt lat="42.3167617" lon="14.0870583"><ele>79.0</ele><time>2026-04-26T13:51:13.389Z</time></trkpt><trkpt lat="42.3169117" lon="14.0871467"><ele>78.0</ele><time>2026-04-26T13:51:14.449Z</time></trkpt><trkpt lat="42.3170633" lon="14.0872333"><ele>77.0</ele><time>2026-04-26T13:51:15.391Z</time></trkpt><trkpt lat="42.3172133" lon="14.0873167"><ele>73.66666666666667</ele><time>2026-04-26T13:51:16.405Z</time></trkpt><trkpt lat="42.3173583" lon="14.0874017"><ele>70.33333333333333</ele><time>2026-04-26T13:51:17.401Z</time></trkpt><trkpt lat="42.3174933" lon="14.08749"><ele>67.0</ele><time>2026-04-26T13:51:18.399Z</time></trkpt><trkpt lat="42.3176183" lon="14.0875817"><ele>67.0</ele><time>2026-04-26T13:51:19.393Z</time></trkpt><trkpt lat="42.3177317" lon="14.08768"><ele>67.0</ele><time>2026-04-26T13:51:20.451Z</time></trkpt><trkpt lat="42.3178333" lon="14.0877833"><ele>67.0</ele><time>2026-04-26T13:51:21.397Z</time></trkpt><trkpt lat="42.3179233" lon="14.0878933"><ele>67.0</ele><time>2026-04-26T13:51:22.399Z</time></trkpt><trkpt lat="42.3180083" lon="14.0880083"><ele>66.4</ele><time>2026-04-26T13:51:23.397Z</time></trkpt><trkpt lat="42.31809" lon="14.0881167"><ele>65.80000000000001</ele><time>2026-04-26T13:51:24.397Z</time></trkpt><trkpt lat="42.3181733" lon="14.0882067"><ele>65.2</ele><time>2026-04-26T13:51:25.404Z</time></trkpt><trkpt lat="42.3182583" lon="14.08827"><ele>64.60000000000001</ele><time>2026-04-26T13:51:26.451Z</time></trkpt><trkpt lat="42.31835" lon="14.0883033"><ele>64.0</ele><time>2026-04-26T13:51:27.399Z</time></trkpt><trkpt lat="42.3184517" lon="14.0883167"><ele>64.0</ele><time>2026-04-26T13:51:28.4Z</time></trkpt><trkpt lat="42.318565" lon="14.0883333"><ele>64.0</ele><time>2026-04-26T13:51:29.389Z</time></trkpt><trkpt lat="42.318685" lon="14.0883617"><ele>64.0</ele><time>2026-04-26T13:51:30.399Z</time></trkpt><trkpt lat="42.3188117" lon="14.0884067"><ele>64.0</ele><time>2026-04-26T13:51:31.4Z</time></trkpt><trkpt lat="42.3189383" lon="14.0884517"><ele>63.5</ele><time>2026-04-26T13:51:32.45Z</time></trkpt><trkpt lat="42.319065" lon="14.0885"><ele>63.0</ele><time>2026-04-26T13:51:33.392Z</time></trkpt><trkpt lat="42.3191867" lon="14.0885383"><ele>62.5</ele><time>2026-04-26T13:51:34.392Z</time></trkpt><trkpt lat="42.3192983" lon="14.0885733"><ele>62.0</ele><time>2026-04-26T13:51:35.392Z</time></trkpt><trkpt lat="42.3193933" lon="14.0886017"><ele>62.00000000000001</ele><time>2026-04-26T13:51:36.399Z</time></trkpt><trkpt lat="42.3194717" lon="14.0886233"><ele>62.0</ele><time>2026-04-26T13:51:37.4Z</time></trkpt><trkpt lat="42.3195733" lon="14.0886067"><ele>62.0</ele><time>2026-04-26T13:51:39.401Z</time></trkpt><trkpt lat="42.31961" lon="14.0885317"><ele>62.0</ele><time>2026-04-26T13:51:40.396Z</time></trkpt><trkpt lat="42.319655" lon="14.0884367"><ele>62.00000000000001</ele><time>2026-04-26T13:51:41.402Z</time></trkpt><trkpt lat="42.3197133" lon="14.088325"><ele>62.0</ele><time>2026-04-26T13:51:42.401Z</time></trkpt><trkpt lat="42.3197817" lon="14.0881883"><ele>61.75</ele><time>2026-04-26T13:51:43.401Z</time></trkpt><trkpt lat="42.319855" lon="14.0880383"><ele>61.5</ele><time>2026-04-26T13:51:44.45Z</time></trkpt><trkpt lat="42.3199317" lon="14.0878883"><ele>61.25</ele><time>2026-04-26T13:51:45.401Z</time></trkpt><trkpt lat="42.3200017" lon="14.0877517"><ele>61.0</ele><time>2026-04-26T13:51:46.405Z</time></trkpt><trkpt lat="42.3200667" lon="14.0876233"><ele>60.99999999999999</ele><time>2026-04-26T13:51:47.397Z</time></trkpt><trkpt lat="42.3201317" lon="14.0875067"><ele>61.0</ele><time>2026-04-26T13:51:48.391Z</time></trkpt><trkpt lat="42.3201983" lon="14.08742"><ele>61.0</ele><time>2026-04-26T13:51:49.401Z</time></trkpt><trkpt lat="42.3202583" lon="14.0873617"><ele>61.0</ele><time>2026-04-26T13:51:50.454Z</time></trkpt><trkpt lat="42.320325" lon="14.087315"><ele>60.99999999999999</ele><time>2026-04-26T13:51:52.399Z</time></trkpt><trkpt lat="42.3203833" lon="14.08736"><ele>61.0</ele><time>2026-04-26T13:52:04.395Z</time></trkpt><trkpt lat="42.3204683" lon="14.0875317"><ele>61.0</ele><time>2026-04-26T13:52:06.398Z</time></trkpt><trkpt lat="42.3205267" lon="14.087655"><ele>61.0</ele><time>2026-04-26T13:52:07.4Z</time></trkpt><trkpt lat="42.3205917" lon="14.0877867"><ele>61.0</ele><time>2026-04-26T13:52:08.45Z</time></trkpt><trkpt lat="42.3206583" lon="14.0879283"><ele>61.0</ele><time>2026-04-26T13:52:09.401Z</time></trkpt><trkpt lat="42.3207317" lon="14.0880767"><ele>60.75</ele><time>2026-04-26T13:52:10.398Z</time></trkpt><trkpt lat="42.320805" lon="14.08823"><ele>60.5</ele><time>2026-04-26T13:52:11.387Z</time></trkpt><trkpt lat="42.3208767" lon="14.08838"><ele>60.25</ele><time>2026-04-26T13:52:12.392Z</time></trkpt><trkpt lat="42.320945" lon="14.0885233"><ele>60.0</ele><time>2026-04-26T13:52:13.394Z</time></trkpt><trkpt lat="42.321015" lon="14.0886667"><ele>60.0</ele><time>2026-04-26T13:52:14.452Z</time></trkpt><trkpt lat="42.321085" lon="14.0888083"><ele>60.0</ele><time>2026-04-26T13:52:15.397Z</time></trkpt><trkpt lat="42.3211517" lon="14.0889467"><ele>60.0</ele><time>2026-04-26T13:52:16.401Z</time></trkpt><trkpt lat="42.321215" lon="14.0890817"><ele>60.0</ele><time>2026-04-26T13:52:17.4Z</time></trkpt><trkpt lat="42.3212767" lon="14.0892167"><ele>59.75</ele><time>2026-04-26T13:52:18.389Z</time></trkpt><trkpt lat="42.3213383" lon="14.0893533"><ele>59.5</ele><time>2026-04-26T13:52:19.39Z</time></trkpt><trkpt lat="42.3214033" lon="14.0894867"><ele>59.25</ele><time>2026-04-26T13:52:20.446Z</time></trkpt><trkpt lat="42.3214683" lon="14.0896217"><ele>59.0</ele><time>2026-04-26T13:52:21.393Z</time></trkpt><trkpt lat="42.3215333" lon="14.0897567"><ele>59.0</ele><time>2026-04-26T13:52:22.392Z</time></trkpt><trkpt lat="42.3215967" lon="14.08989"><ele>59.0</ele><time>2026-04-26T13:52:23.399Z</time></trkpt><trkpt lat="42.3216567" lon="14.0900183"><ele>59.0</ele><time>2026-04-26T13:52:24.397Z</time></trkpt><trkpt lat="42.3217167" lon="14.090145"><ele>59.0</ele><time>2026-04-26T13:52:25.398Z</time></trkpt><trkpt lat="42.32178" lon="14.0902733"><ele>58.75</ele><time>2026-04-26T13:52:26.45Z</time></trkpt><trkpt lat="42.3218417" lon="14.090405"><ele>58.5</ele><time>2026-04-26T13:52:27.401Z</time></trkpt><trkpt lat="42.321905" lon="14.0905367"><ele>58.25</ele><time>2026-04-26T13:52:28.388Z</time></trkpt><trkpt lat="42.3219667" lon="14.0906617"><ele>58.0</ele><time>2026-04-26T13:52:29.389Z</time></trkpt><trkpt lat="42.322025" lon="14.090785"><ele>58.0</ele><time>2026-04-26T13:52:30.393Z</time></trkpt><trkpt lat="42.3220833" lon="14.0909033"><ele>58.0</ele><time>2026-04-26T13:52:31.394Z</time></trkpt><trkpt lat="42.32214" lon="14.091025"><ele>58.0</ele><time>2026-04-26T13:52:32.449Z</time></trkpt><trkpt lat="42.3221983" lon="14.09115"><ele>58.0</ele><time>2026-04-26T13:52:33.392Z</time></trkpt><trkpt lat="42.32226" lon="14.0912767"><ele>58.0</ele><time>2026-04-26T13:52:34.401Z</time></trkpt><trkpt lat="42.32232" lon="14.0914017"><ele>58.2</ele><time>2026-04-26T13:52:35.397Z</time></trkpt><trkpt lat="42.32238" lon="14.091525"><ele>58.4</ele><time>2026-04-26T13:52:36.4Z</time></trkpt><trkpt lat="42.3224383" lon="14.0916483"><ele>58.60000000000001</ele><time>2026-04-26T13:52:37.398Z</time></trkpt><trkpt lat="42.322495" lon="14.0917717"><ele>58.800000000000004</ele><time>2026-04-26T13:52:38.455Z</time></trkpt><trkpt lat="42.3225483" lon="14.0918967"><ele>59.0</ele><time>2026-04-26T13:52:39.398Z</time></trkpt><trkpt lat="42.3226083" lon="14.0920217"><ele>59.0</ele><time>2026-04-26T13:52:40.403Z</time></trkpt><trkpt lat="42.3226667" lon="14.0921517"><ele>59.0</ele><time>2026-04-26T13:52:41.397Z</time></trkpt><trkpt lat="42.3227283" lon="14.0922817"><ele>59.0</ele><time>2026-04-26T13:52:42.4Z</time></trkpt><trkpt lat="42.3227917" lon="14.09241"><ele>59.0</ele><time>2026-04-26T13:52:43.394Z</time></trkpt><trkpt lat="42.322855" lon="14.0925383"><ele>58.75</ele><time>2026-04-26T13:52:44.449Z</time></trkpt><trkpt lat="42.3229167" lon="14.0926683"><ele>58.5</ele><time>2026-04-26T13:52:45.392Z</time></trkpt><trkpt lat="42.32298" lon="14.0928017"><ele>58.25</ele><time>2026-04-26T13:52:46.396Z</time></trkpt><trkpt lat="42.3230483" lon="14.0929367"><ele>58.0</ele><time>2026-04-26T13:52:47.398Z</time></trkpt><trkpt lat="42.323115" lon="14.0930733"><ele>58.0</ele><time>2026-04-26T13:52:48.392Z</time></trkpt><trkpt lat="42.3231783" lon="14.0932083"><ele>58.0</ele><time>2026-04-26T13:52:49.397Z</time></trkpt><trkpt lat="42.3232383" lon="14.09334"><ele>58.0</ele><time>2026-04-26T13:52:50.451Z</time></trkpt><trkpt lat="42.3233" lon="14.0934733"><ele>58.0</ele><time>2026-04-26T13:52:51.402Z</time></trkpt><trkpt lat="42.3233633" lon="14.093605"><ele>58.0</ele><time>2026-04-26T13:52:52.392Z</time></trkpt><trkpt lat="42.3234267" lon="14.0937433"><ele>58.0</ele><time>2026-04-26T13:52:53.394Z</time></trkpt><trkpt lat="42.32349" lon="14.093885"><ele>58.0</ele><time>2026-04-26T13:52:54.401Z</time></trkpt><trkpt lat="42.3235517" lon="14.094025"><ele>58.0</ele><time>2026-04-26T13:52:55.393Z</time></trkpt><trkpt lat="42.323605" lon="14.0941683"><ele>58.0</ele><time>2026-04-26T13:52:56.443Z</time></trkpt><trkpt lat="42.3236483" lon="14.0943133"><ele>58.0</ele><time>2026-04-26T13:52:57.393Z</time></trkpt><trkpt lat="42.3236833" lon="14.094465"><ele>58.0</ele><time>2026-04-26T13:52:58.395Z</time></trkpt><trkpt lat="42.3237167" lon="14.0946167"><ele>58.0</ele><time>2026-04-26T13:52:59.399Z</time></trkpt><trkpt lat="42.3237483" lon="14.094765"><ele>58.0</ele><time>2026-04-26T13:53:00.39Z</time></trkpt><trkpt lat="42.3237767" lon="14.09491"><ele>58.0</ele><time>2026-04-26T13:53:01.39Z</time></trkpt><trkpt lat="42.323805" lon="14.095055"><ele>58.0</ele><time>2026-04-26T13:53:02.445Z</time></trkpt><trkpt lat="42.323835" lon="14.0951983"><ele>58.0</ele><time>2026-04-26T13:53:03.387Z</time></trkpt><trkpt lat="42.3238617" lon="14.0953467"><ele>58.0</ele><time>2026-04-26T13:53:04.394Z</time></trkpt><trkpt lat="42.3238883" lon="14.095495"><ele>58.0</ele><time>2026-04-26T13:53:05.394Z</time></trkpt><trkpt lat="42.3239217" lon="14.0956483"><ele>58.0</ele><time>2026-04-26T13:53:06.394Z</time></trkpt><trkpt lat="42.32396" lon="14.0958083"><ele>58.0</ele><time>2026-04-26T13:53:07.392Z</time></trkpt><trkpt lat="42.324005" lon="14.09598"><ele>58.0</ele><time>2026-04-26T13:53:08.447Z</time></trkpt><trkpt lat="42.3240483" lon="14.0961567"><ele>58.0</ele><time>2026-04-26T13:53:09.395Z</time></trkpt><trkpt lat="42.324085" lon="14.0963333"><ele>58.0</ele><time>2026-04-26T13:53:10.397Z</time></trkpt><trkpt lat="42.3241183" lon="14.0965017"><ele>58.0</ele><time>2026-04-26T13:53:11.395Z</time></trkpt><trkpt lat="42.3241483" lon="14.0966633"><ele>58.0</ele><time>2026-04-26T13:53:12.401Z</time></trkpt><trkpt lat="42.32418" lon="14.0968117"><ele>58.0</ele><time>2026-04-26T13:53:13.395Z</time></trkpt><trkpt lat="42.3242033" lon="14.0969617"><ele>58.0</ele><time>2026-04-26T13:53:14.448Z</time></trkpt><trkpt lat="42.3242333" lon="14.097105"><ele>58.0</ele><time>2026-04-26T13:53:15.398Z</time></trkpt><trkpt lat="42.3242617" lon="14.0972517"><ele>58.0</ele><time>2026-04-26T13:53:16.399Z</time></trkpt><trkpt lat="42.32429" lon="14.097405"><ele>57.75</ele><time>2026-04-26T13:53:17.39Z</time></trkpt><trkpt lat="42.3243283" lon="14.097565"><ele>57.5</ele><time>2026-04-26T13:53:18.394Z</time></trkpt><trkpt lat="42.32438" lon="14.097735"><ele>57.25</ele><time>2026-04-26T13:53:19.4Z</time></trkpt><trkpt lat="42.3244483" lon="14.0979167"><ele>57.0</ele><time>2026-04-26T13:53:20.444Z</time></trkpt><trkpt lat="42.324535" lon="14.098105"><ele>58.0</ele><time>2026-04-26T13:53:21.394Z</time></trkpt><trkpt lat="42.3246383" lon="14.09829"><ele>59.0</ele><time>2026-04-26T13:53:22.395Z</time></trkpt><trkpt lat="42.3247483" lon="14.0984783"><ele>60.0</ele><time>2026-04-26T13:53:23.399Z</time></trkpt><trkpt lat="42.3248583" lon="14.0986617"><ele>58.66666666666667</ele><time>2026-04-26T13:53:24.4Z</time></trkpt><trkpt lat="42.3249633" lon="14.0988383"><ele>57.333333333333336</ele><time>2026-04-26T13:53:25.404Z</time></trkpt><trkpt lat="42.325065" lon="14.099005"><ele>56.0</ele><time>2026-04-26T13:53:26.43Z</time></trkpt><trkpt lat="42.3251633" lon="14.099165"><ele>56.0</ele><time>2026-04-26T13:53:27.396Z</time></trkpt><trkpt lat="42.32526" lon="14.0993183"><ele>56.0</ele><time>2026-04-26T13:53:28.388Z</time></trkpt><trkpt lat="42.325355" lon="14.09946"><ele>56.0</ele><time>2026-04-26T13:53:29.391Z</time></trkpt><trkpt lat="42.32545" lon="14.0996033"><ele>56.0</ele><time>2026-04-26T13:53:30.39Z</time></trkpt><trkpt lat="42.3255483" lon="14.0997567"><ele>55.0</ele><time>2026-04-26T13:53:31.399Z</time></trkpt><trkpt lat="42.3256483" lon="14.0999183"><ele>54.0</ele><time>2026-04-26T13:53:32.452Z</time></trkpt><trkpt lat="42.3257483" lon="14.1000783"><ele>53.0</ele><time>2026-04-26T13:53:33.401Z</time></trkpt><trkpt lat="42.3258433" lon="14.1002333"><ele>53.0</ele><time>2026-04-26T13:53:34.398Z</time></trkpt><trkpt lat="42.3259317" lon="14.10038"><ele>53.0</ele><time>2026-04-26T13:53:35.388Z</time></trkpt><trkpt lat="42.3260083" lon="14.1005217"><ele>53.0</ele><time>2026-04-26T13:53:36.389Z</time></trkpt><trkpt lat="42.3260733" lon="14.10066"><ele>53.0</ele><time>2026-04-26T13:53:37.398Z</time></trkpt><trkpt lat="42.32612" lon="14.1007933"><ele>53.333333333333336</ele><time>2026-04-26T13:53:38.451Z</time></trkpt><trkpt lat="42.3261533" lon="14.1009183"><ele>53.66666666666667</ele><time>2026-04-26T13:53:39.395Z</time></trkpt><trkpt lat="42.32618" lon="14.1010283"><ele>54.0</ele><time>2026-04-26T13:53:40.396Z</time></trkpt><trkpt lat="42.3262167" lon="14.1011183"><ele>54.33333333333333</ele><time>2026-04-26T13:53:41.396Z</time></trkpt><trkpt lat="42.3262717" lon="14.1011917"><ele>54.666666666666664</ele><time>2026-04-26T13:53:42.397Z</time></trkpt><trkpt lat="42.3263517" lon="14.10125"><ele>55.0</ele><time>2026-04-26T13:53:43.386Z</time></trkpt><trkpt lat="42.3264433" lon="14.101315"><ele>55.0</ele><time>2026-04-26T13:53:44.447Z</time></trkpt><trkpt lat="42.3265383" lon="14.101395"><ele>55.0</ele><time>2026-04-26T13:53:45.391Z</time></trkpt><trkpt lat="42.32663" lon="14.101505"><ele>55.0</ele><time>2026-04-26T13:53:46.392Z</time></trkpt><trkpt lat="42.3267183" lon="14.10164"><ele>55.0</ele><time>2026-04-26T13:53:47.397Z</time></trkpt><trkpt lat="42.3268083" lon="14.1017833"><ele>55.0</ele><time>2026-04-26T13:53:48.394Z</time></trkpt><trkpt lat="42.3269" lon="14.1019283"><ele>55.0</ele><time>2026-04-26T13:53:49.39Z</time></trkpt><trkpt lat="42.32699" lon="14.102075"><ele>55.0</ele><time>2026-04-26T13:53:50.444Z</time></trkpt><trkpt lat="42.327075" lon="14.102225"><ele>55.0</ele><time>2026-04-26T13:53:51.389Z</time></trkpt><trkpt lat="42.32715" lon="14.1023817"><ele>55.5</ele><time>2026-04-26T13:53:52.395Z</time></trkpt><trkpt lat="42.3272183" lon="14.102545"><ele>56.0</ele><time>2026-04-26T13:53:53.398Z</time></trkpt><trkpt lat="42.32728" lon="14.1027083"><ele>56.5</ele><time>2026-04-26T13:53:54.4Z</time></trkpt><trkpt lat="42.3273367" lon="14.1028733"><ele>57.0</ele><time>2026-04-26T13:53:55.399Z</time></trkpt><trkpt lat="42.3273933" lon="14.1030383"><ele>55.0</ele><time>2026-04-26T13:53:56.451Z</time></trkpt><trkpt lat="42.327445" lon="14.1032"><ele>53.0</ele><time>2026-04-26T13:53:57.396Z</time></trkpt><trkpt lat="42.327495" lon="14.1033633"><ele>51.0</ele><time>2026-04-26T13:53:58.398Z</time></trkpt><trkpt lat="42.3275433" lon="14.1035167"><ele>49.0</ele><time>2026-04-26T13:53:59.391Z</time></trkpt><trkpt lat="42.3275867" lon="14.1036717"><ele>49.0</ele><time>2026-04-26T13:54:00.393Z</time></trkpt><trkpt lat="42.3276367" lon="14.10382"><ele>49.0</ele><time>2026-04-26T13:54:01.393Z</time></trkpt><trkpt lat="42.3276833" lon="14.1039667"><ele>49.0</ele><time>2026-04-26T13:54:02.451Z</time></trkpt><trkpt lat="42.3277317" lon="14.104115"><ele>49.0</ele><time>2026-04-26T13:54:03.395Z</time></trkpt><trkpt lat="42.327775" lon="14.10426"><ele>48.5</ele><time>2026-04-26T13:54:04.391Z</time></trkpt><trkpt lat="42.32782" lon="14.1044067"><ele>48.0</ele><time>2026-04-26T13:54:05.388Z</time></trkpt><trkpt lat="42.327865" lon="14.10455"><ele>47.5</ele><time>2026-04-26T13:54:06.395Z</time></trkpt><trkpt lat="42.32791" lon="14.1046917"><ele>47.0</ele><time>2026-04-26T13:54:07.4Z</time></trkpt><trkpt lat="42.327955" lon="14.1048317"><ele>46.8</ele><time>2026-04-26T13:54:08.445Z</time></trkpt><trkpt lat="42.328" lon="14.10497"><ele>46.6</ele><time>2026-04-26T13:54:09.39Z</time></trkpt><trkpt lat="42.3280433" lon="14.105105"><ele>46.4</ele><time>2026-04-26T13:54:10.395Z</time></trkpt><trkpt lat="42.3280867" lon="14.1052417"><ele>46.199999999999996</ele><time>2026-04-26T13:54:11.4Z</time></trkpt><trkpt lat="42.3281233" lon="14.105375"><ele>46.0</ele><time>2026-04-26T13:54:12.397Z</time></trkpt><trkpt lat="42.3281617" lon="14.1055"><ele>46.0</ele><time>2026-04-26T13:54:13.389Z</time></trkpt><trkpt lat="42.3282" lon="14.1056183"><ele>46.0</ele><time>2026-04-26T13:54:14.449Z</time></trkpt><trkpt lat="42.3282367" lon="14.105735"><ele>46.0</ele><time>2026-04-26T13:54:15.398Z</time></trkpt><trkpt lat="42.3282717" lon="14.1058533"><ele>46.0</ele><time>2026-04-26T13:54:16.396Z</time></trkpt><trkpt lat="42.3283033" lon="14.10597"><ele>46.0</ele><time>2026-04-26T13:54:17.4Z</time></trkpt><trkpt lat="42.3283383" lon="14.1060917"><ele>46.0</ele><time>2026-04-26T13:54:18.393Z</time></trkpt><trkpt lat="42.3283767" lon="14.106215"><ele>46.0</ele><time>2026-04-26T13:54:19.398Z</time></trkpt><trkpt lat="42.328415" lon="14.106335"><ele>46.0</ele><time>2026-04-26T13:54:20.447Z</time></trkpt><trkpt lat="42.32845" lon="14.1064667"><ele>46.0</ele><time>2026-04-26T13:54:21.393Z</time></trkpt><trkpt lat="42.3284883" lon="14.1065983"><ele>46.0</ele><time>2026-04-26T13:54:22.393Z</time></trkpt><trkpt lat="42.328525" lon="14.10672"><ele>46.0</ele><time>2026-04-26T13:54:23.399Z</time></trkpt><trkpt lat="42.3285633" lon="14.106845"><ele>46.0</ele><time>2026-04-26T13:54:24.4Z</time></trkpt><trkpt lat="42.3286" lon="14.1069683"><ele>46.0</ele><time>2026-04-26T13:54:25.401Z</time></trkpt><trkpt lat="42.3286383" lon="14.1070917"><ele>46.0</ele><time>2026-04-26T13:54:26.452Z</time></trkpt><trkpt lat="42.3286817" lon="14.1072183"><ele>46.0</ele><time>2026-04-26T13:54:27.397Z</time></trkpt><trkpt lat="42.3287267" lon="14.1073483"><ele>46.0</ele><time>2026-04-26T13:54:28.397Z</time></trkpt><trkpt lat="42.3287717" lon="14.1074783"><ele>46.0</ele><time>2026-04-26T13:54:29.396Z</time></trkpt><trkpt lat="42.3288117" lon="14.1076083"><ele>46.0</ele><time>2026-04-26T13:54:30.394Z</time></trkpt><trkpt lat="42.3288517" lon="14.1077317"><ele>46.0</ele><time>2026-04-26T13:54:31.397Z</time></trkpt><trkpt lat="42.3288917" lon="14.1078583"><ele>46.0</ele><time>2026-04-26T13:54:32.454Z</time></trkpt><trkpt lat="42.3289317" lon="14.1079883"><ele>45.0</ele><time>2026-04-26T13:54:33.398Z</time></trkpt><trkpt lat="42.3289717" lon="14.1081167"><ele>44.0</ele><time>2026-04-26T13:54:34.397Z</time></trkpt><trkpt lat="42.32901" lon="14.108245"><ele>43.0</ele><time>2026-04-26T13:54:35.4Z</time></trkpt><trkpt lat="42.3290517" lon="14.1083783"><ele>42.0</ele><time>2026-04-26T13:54:36.4Z</time></trkpt><trkpt lat="42.3290933" lon="14.1085117"><ele>41.0</ele><time>2026-04-26T13:54:37.394Z</time></trkpt><trkpt lat="42.3291317" lon="14.108645"><ele>41.0</ele><time>2026-04-26T13:54:38.446Z</time></trkpt><trkpt lat="42.32917" lon="14.108775"><ele>41.0</ele><time>2026-04-26T13:54:39.394Z</time></trkpt><trkpt lat="42.32921" lon="14.108905"><ele>41.0</ele><time>2026-04-26T13:54:40.397Z</time></trkpt><trkpt lat="42.3292483" lon="14.1090333"><ele>41.0</ele><time>2026-04-26T13:54:41.399Z</time></trkpt><trkpt lat="42.3292867" lon="14.1091567"><ele>41.0</ele><time>2026-04-26T13:54:42.399Z</time></trkpt><trkpt lat="42.3293267" lon="14.1092783"><ele>41.5</ele><time>2026-04-26T13:54:43.394Z</time></trkpt><trkpt lat="42.3293667" lon="14.1094033"><ele>42.0</ele><time>2026-04-26T13:54:44.454Z</time></trkpt><trkpt lat="42.3294117" lon="14.10954"><ele>42.5</ele><time>2026-04-26T13:54:45.4Z</time></trkpt><trkpt lat="42.32946" lon="14.1096933"><ele>43.0</ele><time>2026-04-26T13:54:46.388Z</time></trkpt><trkpt lat="42.3295183" lon="14.1098583"><ele>43.333333333333336</ele><time>2026-04-26T13:54:47.396Z</time></trkpt><trkpt lat="42.329575" lon="14.110035"><ele>43.666666666666664</ele><time>2026-04-26T13:54:48.4Z</time></trkpt><trkpt lat="42.32964" lon="14.1102217"><ele>44.0</ele><time>2026-04-26T13:54:49.388Z</time></trkpt><trkpt lat="42.3297083" lon="14.1104167"><ele>43.33333333333333</ele><time>2026-04-26T13:54:50.449Z</time></trkpt><trkpt lat="42.3297717" lon="14.1106117"><ele>42.666666666666664</ele><time>2026-04-26T13:54:51.395Z</time></trkpt><trkpt lat="42.3298317" lon="14.110805"><ele>42.0</ele><time>2026-04-26T13:54:52.39Z</time></trkpt><trkpt lat="42.32989" lon="14.111"><ele>42.0</ele><time>2026-04-26T13:54:53.388Z</time></trkpt><trkpt lat="42.3299517" lon="14.1111983"><ele>42.0</ele><time>2026-04-26T13:54:54.393Z</time></trkpt><trkpt lat="42.3300167" lon="14.1113983"><ele>42.0</ele><time>2026-04-26T13:54:55.396Z</time></trkpt><trkpt lat="42.3300817" lon="14.111595"><ele>42.333333333333336</ele><time>2026-04-26T13:54:56.442Z</time></trkpt><trkpt lat="42.3301433" lon="14.1117867"><ele>42.66666666666667</ele><time>2026-04-26T13:54:57.39Z</time></trkpt><trkpt lat="42.330205" lon="14.1119783"><ele>43.0</ele><time>2026-04-26T13:54:58.395Z</time></trkpt><trkpt lat="42.3302617" lon="14.1121633"><ele>43.0</ele><time>2026-04-26T13:54:59.398Z</time></trkpt><trkpt lat="42.3303167" lon="14.1123383"><ele>43.0</ele><time>2026-04-26T13:55:00.398Z</time></trkpt><trkpt lat="42.3303667" lon="14.1125"><ele>43.0</ele><time>2026-04-26T13:55:01.402Z</time></trkpt><trkpt lat="42.3304033" lon="14.1126583"><ele>43.0</ele><time>2026-04-26T13:55:02.451Z</time></trkpt><trkpt lat="42.3304367" lon="14.1128017"><ele>43.0</ele><time>2026-04-26T13:55:03.396Z</time></trkpt><trkpt lat="42.3304583" lon="14.11294"><ele>43.0</ele><time>2026-04-26T13:55:04.393Z</time></trkpt><trkpt lat="42.330475" lon="14.1130683"><ele>43.0</ele><time>2026-04-26T13:55:05.398Z</time></trkpt><trkpt lat="42.3305017" lon="14.1131783"><ele>43.0</ele><time>2026-04-26T13:55:06.396Z</time></trkpt><trkpt lat="42.3305467" lon="14.11328"><ele>43.0</ele><time>2026-04-26T13:55:07.399Z</time></trkpt><trkpt lat="42.3306067" lon="14.1133767"><ele>41.75</ele><time>2026-04-26T13:55:08.452Z</time></trkpt><trkpt lat="42.3306667" lon="14.1134867"><ele>40.5</ele><time>2026-04-26T13:55:09.388Z</time></trkpt><trkpt lat="42.3307167" lon="14.1136217"><ele>39.25</ele><time>2026-04-26T13:55:10.398Z</time></trkpt><trkpt lat="42.3307633" lon="14.1137767"><ele>38.0</ele><time>2026-04-26T13:55:11.402Z</time></trkpt><trkpt lat="42.3308083" lon="14.11394"><ele>38.0</ele><time>2026-04-26T13:55:12.396Z</time></trkpt><trkpt lat="42.3308583" lon="14.1141067"><ele>38.0</ele><time>2026-04-26T13:55:13.401Z</time></trkpt><trkpt lat="42.3309133" lon="14.11428"><ele>38.0</ele><time>2026-04-26T13:55:14.45Z</time></trkpt><trkpt lat="42.3309683" lon="14.1144583"><ele>38.0</ele><time>2026-04-26T13:55:15.394Z</time></trkpt><trkpt lat="42.331025" lon="14.1146483"><ele>38.0</ele><time>2026-04-26T13:55:16.4Z</time></trkpt><trkpt lat="42.3310817" lon="14.1148367"><ele>38.0</ele><time>2026-04-26T13:55:17.402Z</time></trkpt><trkpt lat="42.3311417" lon="14.115025"><ele>38.0</ele><time>2026-04-26T13:55:18.4Z</time></trkpt><trkpt lat="42.3312033" lon="14.115215"><ele>38.0</ele><time>2026-04-26T13:55:19.402Z</time></trkpt><trkpt lat="42.331265" lon="14.115405"><ele>38.0</ele><time>2026-04-26T13:55:20.454Z</time></trkpt><trkpt lat="42.331325" lon="14.11559"><ele>38.0</ele><time>2026-04-26T13:55:21.389Z</time></trkpt><trkpt lat="42.3313833" lon="14.11578"><ele>38.0</ele><time>2026-04-26T13:55:22.395Z</time></trkpt><trkpt lat="42.3314433" lon="14.1159683"><ele>38.0</ele><time>2026-04-26T13:55:23.4Z</time></trkpt><trkpt lat="42.3315017" lon="14.1161567"><ele>38.0</ele><time>2026-04-26T13:55:24.398Z</time></trkpt><trkpt lat="42.33156" lon="14.11634"><ele>38.0</ele><time>2026-04-26T13:55:25.398Z</time></trkpt><trkpt lat="42.3316133" lon="14.11652"><ele>38.0</ele><time>2026-04-26T13:55:26.45Z</time></trkpt><trkpt lat="42.3316683" lon="14.1167017"><ele>38.0</ele><time>2026-04-26T13:55:27.394Z</time></trkpt><trkpt lat="42.331725" lon="14.116885"><ele>38.0</ele><time>2026-04-26T13:55:28.397Z</time></trkpt><trkpt lat="42.3317833" lon="14.1170717"><ele>38.0</ele><time>2026-04-26T13:55:29.401Z</time></trkpt><trkpt lat="42.33184" lon="14.117255"><ele>38.0</ele><time>2026-04-26T13:55:30.4Z</time></trkpt><trkpt lat="42.3319" lon="14.1174383"><ele>38.0</ele><time>2026-04-26T13:55:31.4Z</time></trkpt><trkpt lat="42.3319567" lon="14.117625"><ele>38.0</ele><time>2026-04-26T13:55:32.448Z</time></trkpt><trkpt lat="42.332015" lon="14.11781"><ele>38.0</ele><time>2026-04-26T13:55:33.397Z</time></trkpt><trkpt lat="42.3320717" lon="14.1179967"><ele>38.0</ele><time>2026-04-26T13:55:34.398Z</time></trkpt><trkpt lat="42.33213" lon="14.1181833"><ele>38.0</ele><time>2026-04-26T13:55:35.398Z</time></trkpt><trkpt lat="42.3321883" lon="14.11837"><ele>38.0</ele><time>2026-04-26T13:55:36.394Z</time></trkpt><trkpt lat="42.3322467" lon="14.1185583"><ele>38.0</ele><time>2026-04-26T13:55:37.4Z</time></trkpt><trkpt lat="42.332305" lon="14.1187417"><ele>38.0</ele><time>2026-04-26T13:55:38.451Z</time></trkpt><trkpt lat="42.3323633" lon="14.1189283"><ele>38.0</ele><time>2026-04-26T13:55:39.398Z</time></trkpt><trkpt lat="42.33242" lon="14.1191133"><ele>38.0</ele><time>2026-04-26T13:55:40.397Z</time></trkpt><trkpt lat="42.3324783" lon="14.1192983"><ele>37.75</ele><time>2026-04-26T13:55:41.4Z</time></trkpt><trkpt lat="42.332535" lon="14.1194867"><ele>37.5</ele><time>2026-04-26T13:55:42.402Z</time></trkpt><trkpt lat="42.3325933" lon="14.1196733"><ele>37.25</ele><time>2026-04-26T13:55:43.397Z</time></trkpt><trkpt lat="42.33265" lon="14.1198567"><ele>37.0</ele><time>2026-04-26T13:55:44.445Z</time></trkpt><trkpt lat="42.3327033" lon="14.1200367"><ele>37.75</ele><time>2026-04-26T13:55:45.39Z</time></trkpt><trkpt lat="42.33276" lon="14.1202167"><ele>38.5</ele><time>2026-04-26T13:55:46.395Z</time></trkpt><trkpt lat="42.33282" lon="14.120395"><ele>39.25</ele><time>2026-04-26T13:55:47.391Z</time></trkpt><trkpt lat="42.3328783" lon="14.1205717"><ele>40.0</ele><time>2026-04-26T13:55:48.39Z</time></trkpt><trkpt lat="42.332935" lon="14.1207433"><ele>40.0</ele><time>2026-04-26T13:55:49.394Z</time></trkpt><trkpt lat="42.3329933" lon="14.1209183"><ele>40.0</ele><time>2026-04-26T13:55:50.444Z</time></trkpt><trkpt lat="42.33305" lon="14.121085"><ele>40.0</ele><time>2026-04-26T13:55:51.395Z</time></trkpt><trkpt lat="42.3331067" lon="14.1212617"><ele>40.0</ele><time>2026-04-26T13:55:52.391Z</time></trkpt><trkpt lat="42.3331667" lon="14.12144"><ele>40.5</ele><time>2026-04-26T13:55:53.39Z</time></trkpt><trkpt lat="42.3332283" lon="14.1216167"><ele>41.0</ele><time>2026-04-26T13:55:54.395Z</time></trkpt><trkpt lat="42.3332967" lon="14.1218"><ele>41.5</ele><time>2026-04-26T13:55:55.396Z</time></trkpt><trkpt lat="42.3333567" lon="14.12199"><ele>42.0</ele><time>2026-04-26T13:55:56.458Z</time></trkpt><trkpt lat="42.3334117" lon="14.1221867"><ele>42.0</ele><time>2026-04-26T13:55:57.394Z</time></trkpt><trkpt lat="42.3334683" lon="14.1223883"><ele>42.0</ele><time>2026-04-26T13:55:58.395Z</time></trkpt><trkpt lat="42.3335283" lon="14.1225883"><ele>42.0</ele><time>2026-04-26T13:55:59.399Z</time></trkpt><trkpt lat="42.33359" lon="14.122785"><ele>42.333333333333336</ele><time>2026-04-26T13:56:00.395Z</time></trkpt><trkpt lat="42.3336517" lon="14.12299"><ele>42.66666666666667</ele><time>2026-04-26T13:56:01.394Z</time></trkpt><trkpt lat="42.3337167" lon="14.123195"><ele>43.0</ele><time>2026-04-26T13:56:02.448Z</time></trkpt><trkpt lat="42.3337833" lon="14.1233983"><ele>43.0</ele><time>2026-04-26T13:56:03.394Z</time></trkpt><trkpt lat="42.3338517" lon="14.1236033"><ele>43.0</ele><time>2026-04-26T13:56:04.392Z</time></trkpt><trkpt lat="42.3339183" lon="14.1238117"><ele>43.0</ele><time>2026-04-26T13:56:05.392Z</time></trkpt><trkpt lat="42.3339883" lon="14.1240233"><ele>42.333333333333336</ele><time>2026-04-26T13:56:06.388Z</time></trkpt><trkpt lat="42.3340567" lon="14.1242333"><ele>41.666666666666664</ele><time>2026-04-26T13:56:07.395Z</time></trkpt><trkpt lat="42.3341217" lon="14.124445"><ele>41.0</ele><time>2026-04-26T13:56:08.446Z</time></trkpt><trkpt lat="42.3341867" lon="14.1246567"><ele>41.0</ele><time>2026-04-26T13:56:09.398Z</time></trkpt><trkpt lat="42.3342533" lon="14.124865"><ele>41.0</ele><time>2026-04-26T13:56:10.396Z</time></trkpt><trkpt lat="42.33432" lon="14.12507"><ele>41.0</ele><time>2026-04-26T13:56:11.412Z</time></trkpt><trkpt lat="42.334385" lon="14.125275"><ele>41.666666666666664</ele><time>2026-04-26T13:56:12.395Z</time></trkpt><trkpt lat="42.3344483" lon="14.125475"><ele>42.333333333333336</ele><time>2026-04-26T13:56:13.4Z</time></trkpt><trkpt lat="42.3345117" lon="14.1256733"><ele>43.0</ele><time>2026-04-26T13:56:14.449Z</time></trkpt><trkpt lat="42.3345733" lon="14.12587"><ele>43.66666666666667</ele><time>2026-04-26T13:56:15.387Z</time></trkpt><trkpt lat="42.3346333" lon="14.126065"><ele>44.333333333333336</ele><time>2026-04-26T13:56:16.396Z</time></trkpt><trkpt lat="42.334695" lon="14.1262617"><ele>45.0</ele><time>2026-04-26T13:56:17.391Z</time></trkpt><trkpt lat="42.3347567" lon="14.1264583"><ele>45.333333333333336</ele><time>2026-04-26T13:56:18.392Z</time></trkpt><trkpt lat="42.33482" lon="14.126655"><ele>45.66666666666667</ele><time>2026-04-26T13:56:19.39Z</time></trkpt><trkpt lat="42.334885" lon="14.1268483"><ele>46.0</ele><time>2026-04-26T13:56:20.445Z</time></trkpt><trkpt lat="42.3349483" lon="14.127045"><ele>46.0</ele><time>2026-04-26T13:56:21.393Z</time></trkpt><trkpt lat="42.3350083" lon="14.12724"><ele>46.0</ele><time>2026-04-26T13:56:22.397Z</time></trkpt><trkpt lat="42.33507" lon="14.1274367"><ele>46.0</ele><time>2026-04-26T13:56:23.396Z</time></trkpt><trkpt lat="42.3351317" lon="14.1276333"><ele>46.66666666666667</ele><time>2026-04-26T13:56:24.387Z</time></trkpt><trkpt lat="42.3351933" lon="14.12783"><ele>47.333333333333336</ele><time>2026-04-26T13:56:25.388Z</time></trkpt><trkpt lat="42.3352533" lon="14.1280267"><ele>48.0</ele><time>2026-04-26T13:56:26.447Z</time></trkpt><trkpt lat="42.3353133" lon="14.12822"><ele>48.33333333333333</ele><time>2026-04-26T13:56:27.389Z</time></trkpt><trkpt lat="42.335375" lon="14.128415"><ele>48.666666666666664</ele><time>2026-04-26T13:56:28.396Z</time></trkpt><trkpt lat="42.3354383" lon="14.1286117"><ele>49.0</ele><time>2026-04-26T13:56:29.393Z</time></trkpt><trkpt lat="42.3355017" lon="14.12881"><ele>49.0</ele><time>2026-04-26T13:56:30.394Z</time></trkpt><trkpt lat="42.33556" lon="14.1290067"><ele>49.0</ele><time>2026-04-26T13:56:31.391Z</time></trkpt><trkpt lat="42.3356183" lon="14.1292033"><ele>49.0</ele><time>2026-04-26T13:56:32.449Z</time></trkpt><trkpt lat="42.3356767" lon="14.129395"><ele>49.33333333333333</ele><time>2026-04-26T13:56:33.399Z</time></trkpt><trkpt lat="42.3357333" lon="14.1295867"><ele>49.66666666666667</ele><time>2026-04-26T13:56:34.396Z</time></trkpt><trkpt lat="42.3357933" lon="14.129775"><ele>50.0</ele><time>2026-04-26T13:56:35.393Z</time></trkpt><trkpt lat="42.33585" lon="14.12996"><ele>50.5</ele><time>2026-04-26T13:56:36.391Z</time></trkpt><trkpt lat="42.335905" lon="14.13014"><ele>51.0</ele><time>2026-04-26T13:56:37.391Z</time></trkpt><trkpt lat="42.3359617" lon="14.13032"><ele>51.5</ele><time>2026-04-26T13:56:38.446Z</time></trkpt><trkpt lat="42.3360183" lon="14.1305033"><ele>52.0</ele><time>2026-04-26T13:56:39.388Z</time></trkpt><trkpt lat="42.336075" lon="14.13069"><ele>52.0</ele><time>2026-04-26T13:56:40.391Z</time></trkpt><trkpt lat="42.3361333" lon="14.130875"><ele>52.0</ele><time>2026-04-26T13:56:41.389Z</time></trkpt><trkpt lat="42.3361917" lon="14.13106"><ele>52.0</ele><time>2026-04-26T13:56:42.393Z</time></trkpt><trkpt lat="42.336255" lon="14.1312433"><ele>52.0</ele><time>2026-04-26T13:56:43.394Z</time></trkpt><trkpt lat="42.3363133" lon="14.1314283"><ele>52.0</ele><time>2026-04-26T13:56:44.449Z</time></trkpt><trkpt lat="42.3363733" lon="14.13161"><ele>52.0</ele><time>2026-04-26T13:56:45.396Z</time></trkpt><trkpt lat="42.336435" lon="14.1317867"><ele>52.0</ele><time>2026-04-26T13:56:46.387Z</time></trkpt><trkpt lat="42.3364983" lon="14.1319533"><ele>52.0</ele><time>2026-04-26T13:56:47.387Z</time></trkpt><trkpt lat="42.336565" lon="14.1321067"><ele>52.0</ele><time>2026-04-26T13:56:48.396Z</time></trkpt><trkpt lat="42.3366433" lon="14.1322467"><ele>52.0</ele><time>2026-04-26T13:56:49.387Z</time></trkpt><trkpt lat="42.3367317" lon="14.1323767"><ele>52.0</ele><time>2026-04-26T13:56:50.448Z</time></trkpt><trkpt lat="42.336835" lon="14.132495"><ele>52.0</ele><time>2026-04-26T13:56:51.389Z</time></trkpt><trkpt lat="42.3369467" lon="14.1326033"><ele>52.5</ele><time>2026-04-26T13:56:52.396Z</time></trkpt><trkpt lat="42.337065" lon="14.132705"><ele>53.0</ele><time>2026-04-26T13:56:53.4Z</time></trkpt><trkpt lat="42.3371917" lon="14.1327967"><ele>53.5</ele><time>2026-04-26T13:56:54.389Z</time></trkpt><trkpt lat="42.337325" lon="14.132875"><ele>54.0</ele><time>2026-04-26T13:56:55.388Z</time></trkpt><trkpt lat="42.337465" lon="14.1329367"><ele>54.33333333333333</ele><time>2026-04-26T13:56:56.451Z</time></trkpt><trkpt lat="42.3376117" lon="14.1329867"><ele>54.666666666666664</ele><time>2026-04-26T13:56:57.394Z</time></trkpt><trkpt lat="42.3377617" lon="14.1330267"><ele>55.0</ele><time>2026-04-26T13:56:58.401Z</time></trkpt><trkpt lat="42.3379167" lon="14.1330667"><ele>55.0</ele><time>2026-04-26T13:56:59.4Z</time></trkpt><trkpt lat="42.3380733" lon="14.1331083"><ele>55.0</ele><time>2026-04-26T13:57:00.387Z</time></trkpt><trkpt lat="42.33823" lon="14.13315"><ele>55.0</ele><time>2026-04-26T13:57:01.398Z</time></trkpt><trkpt lat="42.3383867" lon="14.133195"><ele>55.0</ele><time>2026-04-26T13:57:02.452Z</time></trkpt><trkpt lat="42.3385433" lon="14.1332433"><ele>55.0</ele><time>2026-04-26T13:57:03.394Z</time></trkpt><trkpt lat="42.3387" lon="14.1332883"><ele>55.0</ele><time>2026-04-26T13:57:04.396Z</time></trkpt><trkpt lat="42.3388567" lon="14.1333333"><ele>55.33333333333333</ele><time>2026-04-26T13:57:05.398Z</time></trkpt><trkpt lat="42.3390133" lon="14.13338"><ele>55.66666666666667</ele><time>2026-04-26T13:57:06.398Z</time></trkpt><trkpt lat="42.3391683" lon="14.133425"><ele>56.0</ele><time>2026-04-26T13:57:07.396Z</time></trkpt><trkpt lat="42.3393233" lon="14.133475"><ele>56.0</ele><time>2026-04-26T13:57:08.45Z</time></trkpt><trkpt lat="42.3394783" lon="14.133525"><ele>56.0</ele><time>2026-04-26T13:57:09.4Z</time></trkpt><trkpt lat="42.3396283" lon="14.133575"><ele>56.0</ele><time>2026-04-26T13:57:10.395Z</time></trkpt><trkpt lat="42.33977" lon="14.13362"><ele>55.75</ele><time>2026-04-26T13:57:11.402Z</time></trkpt><trkpt lat="42.3399033" lon="14.1336583"><ele>55.5</ele><time>2026-04-26T13:57:12.396Z</time></trkpt><trkpt lat="42.3400267" lon="14.1336983"><ele>55.25</ele><time>2026-04-26T13:57:13.399Z</time></trkpt><trkpt lat="42.340145" lon="14.1337383"><ele>55.0</ele><time>2026-04-26T13:57:14.452Z</time></trkpt><trkpt lat="42.3402583" lon="14.1337767"><ele>54.99999999999999</ele><time>2026-04-26T13:57:15.396Z</time></trkpt><trkpt lat="42.3403583" lon="14.1338117"><ele>55.0</ele><time>2026-04-26T13:57:16.388Z</time></trkpt><trkpt lat="42.3404367" lon="14.1338533"><ele>55.0</ele><time>2026-04-26T13:57:17.386Z</time></trkpt><trkpt lat="42.3405" lon="14.1339017"><ele>55.0</ele><time>2026-04-26T13:57:18.391Z</time></trkpt><trkpt lat="42.3405533" lon="14.13395"><ele>54.99999999999999</ele><time>2026-04-26T13:57:19.395Z</time></trkpt><trkpt lat="42.3406567" lon="14.1340083"><ele>55.0</ele><time>2026-04-26T13:57:21.398Z</time></trkpt><trkpt lat="42.340755" lon="14.13399"><ele>54.666666666666664</ele><time>2026-04-26T13:57:23.398Z</time></trkpt><trkpt lat="42.3408367" lon="14.1339783"><ele>54.33333333333333</ele><time>2026-04-26T13:57:25.398Z</time></trkpt><trkpt lat="42.3409133" lon="14.134"><ele>54.0</ele><time>2026-04-26T13:57:28.397Z</time></trkpt><trkpt lat="42.3409817" lon="14.13401"><ele>53.66666666666667</ele><time>2026-04-26T13:57:31.401Z</time></trkpt><trkpt lat="42.3410533" lon="14.1340183"><ele>53.333333333333336</ele><time>2026-04-26T13:57:34.386Z</time></trkpt><trkpt lat="42.34103" lon="14.133935"><ele>53.0</ele><time>2026-04-26T13:57:39.394Z</time></trkpt><trkpt lat="42.340905" lon="14.1338933"><ele>53.0</ele><time>2026-04-26T13:57:41.397Z</time></trkpt><trkpt lat="42.3408433" lon="14.1338583"><ele>53.0</ele><time>2026-04-26T13:57:42.393Z</time></trkpt><trkpt lat="42.340785" lon="14.1337983"><ele>53.0</ele><time>2026-04-26T13:57:43.387Z</time></trkpt><trkpt lat="42.3407367" lon="14.133715"><ele>53.0</ele><time>2026-04-26T13:57:44.453Z</time></trkpt><trkpt lat="42.340705" lon="14.1336317"><ele>53.0</ele><time>2026-04-26T13:57:45.388Z</time></trkpt><trkpt lat="42.3407133" lon="14.13354"><ele>53.0</ele><time>2026-04-26T13:57:46.392Z</time></trkpt><trkpt lat="42.3407367" lon="14.1334467"><ele>53.0</ele><time>2026-04-26T13:57:47.396Z</time></trkpt><trkpt lat="42.3407817" lon="14.1333383"><ele>52.5</ele><time>2026-04-26T13:57:48.399Z</time></trkpt><trkpt lat="42.3408417" lon="14.1332167"><ele>52.0</ele><time>2026-04-26T13:57:49.398Z</time></trkpt><trkpt lat="42.3409183" lon="14.1330817"><ele>51.5</ele><time>2026-04-26T13:57:50.45Z</time></trkpt><trkpt lat="42.3409983" lon="14.13294"><ele>51.0</ele><time>2026-04-26T13:57:51.395Z</time></trkpt><trkpt lat="42.3410867" lon="14.1327983"><ele>51.0</ele><time>2026-04-26T13:57:52.399Z</time></trkpt><trkpt lat="42.3411783" lon="14.1326583"><ele>51.0</ele><time>2026-04-26T13:57:53.4Z</time></trkpt><trkpt lat="42.34127" lon="14.1325183"><ele>51.0</ele><time>2026-04-26T13:57:54.399Z</time></trkpt><trkpt lat="42.3413583" lon="14.1323783"><ele>51.0</ele><time>2026-04-26T13:57:55.402Z</time></trkpt><trkpt lat="42.3414383" lon="14.132235"><ele>50.25</ele><time>2026-04-26T13:57:56.45Z</time></trkpt><trkpt lat="42.3415067" lon="14.1320883"><ele>49.5</ele><time>2026-04-26T13:57:57.397Z</time></trkpt><trkpt lat="42.3415683" lon="14.1319383"><ele>48.75</ele><time>2026-04-26T13:57:58.392Z</time></trkpt><trkpt lat="42.3416217" lon="14.1317817"><ele>48.0</ele><time>2026-04-26T13:57:59.399Z</time></trkpt><trkpt lat="42.3416767" lon="14.1316283"><ele>47.8</ele><time>2026-04-26T13:58:00.398Z</time></trkpt><trkpt lat="42.3417117" lon="14.131465"><ele>47.599999999999994</ele><time>2026-04-26T13:58:01.397Z</time></trkpt><trkpt lat="42.3417633" lon="14.131335"><ele>47.400000000000006</ele><time>2026-04-26T13:58:02.446Z</time></trkpt><trkpt lat="42.3418183" lon="14.1312183"><ele>47.2</ele><time>2026-04-26T13:58:03.398Z</time></trkpt><trkpt lat="42.3418667" lon="14.1311"><ele>47.0</ele><time>2026-04-26T13:58:04.397Z</time></trkpt><trkpt lat="42.3419017" lon="14.130975"><ele>47.0</ele><time>2026-04-26T13:58:05.397Z</time></trkpt><trkpt lat="42.3419333" lon="14.130845"><ele>47.0</ele><time>2026-04-26T13:58:06.399Z</time></trkpt><trkpt lat="42.3419583" lon="14.130705"><ele>47.0</ele><time>2026-04-26T13:58:07.396Z</time></trkpt><trkpt lat="42.3419867" lon="14.1305667"><ele>47.0</ele><time>2026-04-26T13:58:08.448Z</time></trkpt><trkpt lat="42.342015" lon="14.1304317"><ele>47.0</ele><time>2026-04-26T13:58:09.389Z</time></trkpt><trkpt lat="42.3420433" lon="14.130305"><ele>46.8</ele><time>2026-04-26T13:58:10.393Z</time></trkpt><trkpt lat="42.342065" lon="14.130185"><ele>46.6</ele><time>2026-04-26T13:58:11.403Z</time></trkpt><trkpt lat="42.3420867" lon="14.1300667"><ele>46.4</ele><time>2026-04-26T13:58:12.399Z</time></trkpt><trkpt lat="42.3420967" lon="14.12996"><ele>46.199999999999996</ele><time>2026-04-26T13:58:13.397Z</time></trkpt><trkpt lat="42.342105" lon="14.129805"><ele>46.0</ele><time>2026-04-26T13:58:15.395Z</time></trkpt><trkpt lat="42.3421383" lon="14.1296833"><ele>45.714285714285715</ele><time>2026-04-26T13:58:17.398Z</time></trkpt><trkpt lat="42.34217" lon="14.1296083"><ele>45.42857142857142</ele><time>2026-04-26T13:58:18.39Z</time></trkpt><trkpt lat="42.3421967" lon="14.1295167"><ele>45.14285714285714</ele><time>2026-04-26T13:58:19.386Z</time></trkpt><trkpt lat="42.3422083" lon="14.1294167"><ele>44.85714285714286</ele><time>2026-04-26T13:58:20.446Z</time></trkpt><trkpt lat="42.3422" lon="14.1293167"><ele>44.57142857142857</ele><time>2026-04-26T13:58:21.39Z</time></trkpt><trkpt lat="42.3421667" lon="14.1292233"><ele>44.285714285714285</ele><time>2026-04-26T13:58:22.395Z</time></trkpt><trkpt lat="42.3421133" lon="14.1291367"><ele>44.0</ele><time>2026-04-26T13:58:23.393Z</time></trkpt><trkpt lat="42.3420417" lon="14.1290517"><ele>42.75</ele><time>2026-04-26T13:58:24.396Z</time></trkpt><trkpt lat="42.3419717" lon="14.128955"><ele>41.5</ele><time>2026-04-26T13:58:25.398Z</time></trkpt><trkpt lat="42.341915" lon="14.1288317"><ele>40.25</ele><time>2026-04-26T13:58:26.448Z</time></trkpt><trkpt lat="42.3418633" lon="14.1286733"><ele>39.0</ele><time>2026-04-26T13:58:27.396Z</time></trkpt><trkpt lat="42.3418217" lon="14.128475"><ele>39.0</ele><time>2026-04-26T13:58:28.392Z</time></trkpt><trkpt lat="42.3417717" lon="14.1282517"><ele>39.0</ele><time>2026-04-26T13:58:29.396Z</time></trkpt><trkpt lat="42.3417233" lon="14.127995"><ele>39.0</ele><time>2026-04-26T13:58:30.394Z</time></trkpt><trkpt lat="42.3416767" lon="14.1277217"><ele>38.333333333333336</ele><time>2026-04-26T13:58:31.402Z</time></trkpt><trkpt lat="42.3416283" lon="14.1274367"><ele>37.66666666666667</ele><time>2026-04-26T13:58:32.453Z</time></trkpt><trkpt lat="42.3415817" lon="14.1271467"><ele>37.0</ele><time>2026-04-26T13:58:33.389Z</time></trkpt><trkpt lat="42.3415317" lon="14.12686"><ele>36.333333333333336</ele><time>2026-04-26T13:58:34.397Z</time></trkpt><trkpt lat="42.3414867" lon="14.1265683"><ele>35.666666666666664</ele><time>2026-04-26T13:58:35.403Z</time></trkpt><trkpt lat="42.3414417" lon="14.12628"><ele>35.0</ele><time>2026-04-26T13:58:36.397Z</time></trkpt><trkpt lat="42.3413967" lon="14.126"><ele>34.666666666666664</ele><time>2026-04-26T13:58:37.388Z</time></trkpt><trkpt lat="42.3413533" lon="14.1257267"><ele>34.333333333333336</ele><time>2026-04-26T13:58:38.454Z</time></trkpt><trkpt lat="42.34131" lon="14.125465"><ele>34.0</ele><time>2026-04-26T13:58:39.395Z</time></trkpt><trkpt lat="42.341265" lon="14.1252067"><ele>34.0</ele><time>2026-04-26T13:58:40.401Z</time></trkpt><trkpt lat="42.3412217" lon="14.12495"><ele>34.0</ele><time>2026-04-26T13:58:41.399Z</time></trkpt><trkpt lat="42.34118" lon="14.1246983"><ele>34.0</ele><time>2026-04-26T13:58:42.4Z</time></trkpt><trkpt lat="42.3411367" lon="14.1244433"><ele>34.333333333333336</ele><time>2026-04-26T13:58:43.39Z</time></trkpt><trkpt lat="42.3410933" lon="14.1241883"><ele>34.666666666666664</ele><time>2026-04-26T13:58:44.446Z</time></trkpt><trkpt lat="42.34105" lon="14.1239333"><ele>35.0</ele><time>2026-04-26T13:58:45.392Z</time></trkpt><trkpt lat="42.3410067" lon="14.1236817"><ele>35.0</ele><time>2026-04-26T13:58:46.395Z</time></trkpt><trkpt lat="42.3409667" lon="14.123435"><ele>35.0</ele><time>2026-04-26T13:58:47.396Z</time></trkpt><trkpt lat="42.3409283" lon="14.1231933"><ele>35.0</ele><time>2026-04-26T13:58:48.386Z</time></trkpt><trkpt lat="42.3408917" lon="14.1229567"><ele>35.0</ele><time>2026-04-26T13:58:49.388Z</time></trkpt><trkpt lat="42.3408567" lon="14.1227283"><ele>35.0</ele><time>2026-04-26T13:58:50.447Z</time></trkpt><trkpt lat="42.3408317" lon="14.1225167"><ele>35.0</ele><time>2026-04-26T13:58:51.391Z</time></trkpt><trkpt lat="42.3408217" lon="14.1223117"><ele>34.75</ele><time>2026-04-26T13:58:52.393Z</time></trkpt><trkpt lat="42.34083" lon="14.12211"><ele>34.5</ele><time>2026-04-26T13:58:53.398Z</time></trkpt><trkpt lat="42.3408567" lon="14.1219167"><ele>34.25</ele><time>2026-04-26T13:58:54.401Z</time></trkpt><trkpt lat="42.3408967" lon="14.1217533"><ele>34.0</ele><time>2026-04-26T13:58:55.398Z</time></trkpt><trkpt lat="42.3409467" lon="14.1216283"><ele>33.333333333333336</ele><time>2026-04-26T13:58:56.45Z</time></trkpt><trkpt lat="42.3410183" lon="14.12155"><ele>32.66666666666667</ele><time>2026-04-26T13:58:57.398Z</time></trkpt><trkpt lat="42.3411" lon="14.1214883"><ele>32.0</ele><time>2026-04-26T13:58:58.396Z</time></trkpt><trkpt lat="42.3411683" lon="14.12142"><ele>31.333333333333336</ele><time>2026-04-26T13:58:59.397Z</time></trkpt><trkpt lat="42.3412167" lon="14.1213333"><ele>30.666666666666668</ele><time>2026-04-26T13:59:00.39Z</time></trkpt><trkpt lat="42.3412483" lon="14.121225"><ele>30.0</ele><time>2026-04-26T13:59:01.396Z</time></trkpt><trkpt lat="42.3412717" lon="14.1210933"><ele>30.0</ele><time>2026-04-26T13:59:02.449Z</time></trkpt><trkpt lat="42.3413017" lon="14.120955"><ele>30.0</ele><time>2026-04-26T13:59:03.398Z</time></trkpt><trkpt lat="42.341355" lon="14.1208033"><ele>30.0</ele><time>2026-04-26T13:59:04.396Z</time></trkpt><trkpt lat="42.3414333" lon="14.1206433"><ele>30.0</ele><time>2026-04-26T13:59:05.399Z</time></trkpt><trkpt lat="42.34154" lon="14.1204617"><ele>30.333333333333336</ele><time>2026-04-26T13:59:06.399Z</time></trkpt><trkpt lat="42.3416533" lon="14.1202617"><ele>30.666666666666668</ele><time>2026-04-26T13:59:07.402Z</time></trkpt><trkpt lat="42.3417767" lon="14.1200367"><ele>31.0</ele><time>2026-04-26T13:59:08.452Z</time></trkpt><trkpt lat="42.3419067" lon="14.1197933"><ele>31.0</ele><time>2026-04-26T13:59:09.394Z</time></trkpt><trkpt lat="42.3420333" lon="14.11956"><ele>31.0</ele><time>2026-04-26T13:59:10.397Z</time></trkpt><trkpt lat="42.3421517" lon="14.1193433"><ele>31.0</ele><time>2026-04-26T13:59:11.4Z</time></trkpt><trkpt lat="42.3422583" lon="14.11914"><ele>31.666666666666668</ele><time>2026-04-26T13:59:12.4Z</time></trkpt><trkpt lat="42.342355" lon="14.11894"><ele>32.333333333333336</ele><time>2026-04-26T13:59:13.399Z</time></trkpt><trkpt lat="42.3424417" lon="14.11873"><ele>33.0</ele><time>2026-04-26T13:59:14.45Z</time></trkpt><trkpt lat="42.342515" lon="14.1185117"><ele>33.0</ele><time>2026-04-26T13:59:15.39Z</time></trkpt><trkpt lat="42.342575" lon="14.1182867"><ele>33.0</ele><time>2026-04-26T13:59:16.399Z</time></trkpt><trkpt lat="42.3426233" lon="14.11806"><ele>33.0</ele><time>2026-04-26T13:59:17.397Z</time></trkpt><trkpt lat="42.3426667" lon="14.1178267"><ele>35.0</ele><time>2026-04-26T13:59:18.401Z</time></trkpt><trkpt lat="42.3427083" lon="14.117595"><ele>37.0</ele><time>2026-04-26T13:59:19.4Z</time></trkpt><trkpt lat="42.34275" lon="14.1173617"><ele>39.0</ele><time>2026-04-26T13:59:20.449Z</time></trkpt><trkpt lat="42.3427983" lon="14.1171333"><ele>41.0</ele><time>2026-04-26T13:59:21.397Z</time></trkpt><trkpt lat="42.3428467" lon="14.1169033"><ele>43.0</ele><time>2026-04-26T13:59:22.399Z</time></trkpt><trkpt lat="42.3428917" lon="14.1166733"><ele>45.0</ele><time>2026-04-26T13:59:23.399Z</time></trkpt><trkpt lat="42.3429333" lon="14.1164367"><ele>45.333333333333336</ele><time>2026-04-26T13:59:24.405Z</time></trkpt><trkpt lat="42.342975" lon="14.1162033"><ele>45.66666666666667</ele><time>2026-04-26T13:59:25.4Z</time></trkpt><trkpt lat="42.3430117" lon="14.1159733"><ele>46.0</ele><time>2026-04-26T13:59:26.452Z</time></trkpt><trkpt lat="42.343045" lon="14.1157417"><ele>46.66666666666667</ele><time>2026-04-26T13:59:27.396Z</time></trkpt><trkpt lat="42.3430817" lon="14.1155133"><ele>47.333333333333336</ele><time>2026-04-26T13:59:28.388Z</time></trkpt><trkpt lat="42.3431167" lon="14.1152967"><ele>48.0</ele><time>2026-04-26T13:59:29.387Z</time></trkpt><trkpt lat="42.3431467" lon="14.115095"><ele>48.0</ele><time>2026-04-26T13:59:30.39Z</time></trkpt><trkpt lat="42.3431733" lon="14.1149033"><ele>48.0</ele><time>2026-04-26T13:59:31.397Z</time></trkpt><trkpt lat="42.343195" lon="14.11472"><ele>48.0</ele><time>2026-04-26T13:59:32.445Z</time></trkpt><trkpt lat="42.343215" lon="14.1145417"><ele>48.0</ele><time>2026-04-26T13:59:33.394Z</time></trkpt><trkpt lat="42.3432367" lon="14.1143633"><ele>48.0</ele><time>2026-04-26T13:59:34.386Z</time></trkpt><trkpt lat="42.3432567" lon="14.1141783"><ele>48.0</ele><time>2026-04-26T13:59:35.39Z</time></trkpt><trkpt lat="42.3432783" lon="14.1139917"><ele>48.0</ele><time>2026-04-26T13:59:36.387Z</time></trkpt><trkpt lat="42.3433" lon="14.1137967"><ele>48.0</ele><time>2026-04-26T13:59:37.397Z</time></trkpt><trkpt lat="42.3433283" lon="14.1135883"><ele>47.666666666666664</ele><time>2026-04-26T13:59:38.391Z</time></trkpt><trkpt lat="42.3433567" lon="14.1133617"><ele>47.33333333333333</ele><time>2026-04-26T13:59:39.398Z</time></trkpt><trkpt lat="42.34339" lon="14.11312"><ele>47.0</ele><time>2026-04-26T13:59:40.396Z</time></trkpt><trkpt lat="42.3434233" lon="14.1128717"><ele>47.0</ele><time>2026-04-26T13:59:41.395Z</time></trkpt><trkpt lat="42.3434533" lon="14.112625"><ele>47.0</ele><time>2026-04-26T13:59:42.399Z</time></trkpt><trkpt lat="42.3434833" lon="14.11239"><ele>47.0</ele><time>2026-04-26T13:59:43.39Z</time></trkpt><trkpt lat="42.3435117" lon="14.11217"><ele>47.0</ele><time>2026-04-26T13:59:44.395Z</time></trkpt><trkpt lat="42.3435383" lon="14.11197"><ele>47.0</ele><time>2026-04-26T13:59:45.386Z</time></trkpt><trkpt lat="42.343565" lon="14.1117917"><ele>47.0</ele><time>2026-04-26T13:59:46.395Z</time></trkpt><trkpt lat="42.3435917" lon="14.111645"><ele>47.0</ele><time>2026-04-26T13:59:47.399Z</time></trkpt><trkpt lat="42.343625" lon="14.1115283"><ele>47.2</ele><time>2026-04-26T13:59:48.393Z</time></trkpt><trkpt lat="42.3436633" lon="14.11144"><ele>47.400000000000006</ele><time>2026-04-26T13:59:49.396Z</time></trkpt><trkpt lat="42.3437817" lon="14.1114267"><ele>47.599999999999994</ele><time>2026-04-26T13:59:51.395Z</time></trkpt><trkpt lat="42.3438617" lon="14.111465"><ele>47.8</ele><time>2026-04-26T13:59:52.39Z</time></trkpt><trkpt lat="42.3439633" lon="14.1115333"><ele>48.0</ele><time>2026-04-26T13:59:53.397Z</time></trkpt><trkpt lat="42.3440867" lon="14.1116233"><ele>48.0</ele><time>2026-04-26T13:59:54.399Z</time></trkpt><trkpt lat="42.34422" lon="14.1117117"><ele>48.0</ele><time>2026-04-26T13:59:55.399Z</time></trkpt><trkpt lat="42.344365" lon="14.1118067"><ele>48.0</ele><time>2026-04-26T13:59:56.455Z</time></trkpt><trkpt lat="42.3445167" lon="14.111905"><ele>48.0</ele><time>2026-04-26T13:59:57.394Z</time></trkpt><trkpt lat="42.34467" lon="14.1120017"><ele>48.0</ele><time>2026-04-26T13:59:58.395Z</time></trkpt><trkpt lat="42.3448217" lon="14.1120967"><ele>48.0</ele><time>2026-04-26T13:59:59.402Z</time></trkpt><trkpt lat="42.3449717" lon="14.1121867"><ele>47.0</ele><time>2026-04-26T14:00:00.396Z</time></trkpt><trkpt lat="42.3451183" lon="14.11227"><ele>46.0</ele><time>2026-04-26T14:00:01.398Z</time></trkpt><trkpt lat="42.34527" lon="14.11234"><ele>45.0</ele><time>2026-04-26T14:00:02.449Z</time></trkpt><trkpt lat="42.345425" lon="14.1124017"><ele>45.333333333333336</ele><time>2026-04-26T14:00:03.393Z</time></trkpt><trkpt lat="42.3455833" lon="14.112455"><ele>45.66666666666667</ele><time>2026-04-26T14:00:04.397Z</time></trkpt><trkpt lat="42.3457483" lon="14.1125067"><ele>46.0</ele><time>2026-04-26T14:00:05.395Z</time></trkpt><trkpt lat="42.345915" lon="14.11256"><ele>46.0</ele><time>2026-04-26T14:00:06.396Z</time></trkpt><trkpt lat="42.3460833" lon="14.1126183"><ele>46.0</ele><time>2026-04-26T14:00:07.398Z</time></trkpt><trkpt lat="42.3462533" lon="14.1126867"><ele>46.0</ele><time>2026-04-26T14:00:08.398Z</time></trkpt><trkpt lat="42.3464233" lon="14.11276"><ele>45.333333333333336</ele><time>2026-04-26T14:00:09.396Z</time></trkpt><trkpt lat="42.346595" lon="14.1128383"><ele>44.666666666666664</ele><time>2026-04-26T14:00:10.398Z</time></trkpt><trkpt lat="42.3467717" lon="14.11292"><ele>44.0</ele><time>2026-04-26T14:00:11.386Z</time></trkpt><trkpt lat="42.3469517" lon="14.113005"><ele>44.0</ele><time>2026-04-26T14:00:12.397Z</time></trkpt><trkpt lat="42.347135" lon="14.113095"><ele>44.0</ele><time>2026-04-26T14:00:13.388Z</time></trkpt><trkpt lat="42.3473183" lon="14.11318"><ele>44.0</ele><time>2026-04-26T14:00:14.395Z</time></trkpt><trkpt lat="42.3474983" lon="14.1132683"><ele>44.33333333333333</ele><time>2026-04-26T14:00:15.396Z</time></trkpt><trkpt lat="42.34767" lon="14.1133517"><ele>44.666666666666664</ele><time>2026-04-26T14:00:16.396Z</time></trkpt><trkpt lat="42.34783" lon="14.1134283"><ele>45.0</ele><time>2026-04-26T14:00:17.392Z</time></trkpt><trkpt lat="42.3479783" lon="14.1134967"><ele>45.0</ele><time>2026-04-26T14:00:18.397Z</time></trkpt><trkpt lat="42.3481217" lon="14.113555"><ele>45.0</ele><time>2026-04-26T14:00:19.396Z</time></trkpt><trkpt lat="42.3482567" lon="14.113595"><ele>45.0</ele><time>2026-04-26T14:00:20.397Z</time></trkpt><trkpt lat="42.3483883" lon="14.1136083"><ele>45.0</ele><time>2026-04-26T14:00:21.388Z</time></trkpt><trkpt lat="42.34852" lon="14.1135867"><ele>45.0</ele><time>2026-04-26T14:00:22.387Z</time></trkpt><trkpt lat="42.3486517" lon="14.113535"><ele>45.0</ele><time>2026-04-26T14:00:23.388Z</time></trkpt><trkpt lat="42.3487867" lon="14.11346"><ele>45.0</ele><time>2026-04-26T14:00:24.39Z</time></trkpt><trkpt lat="42.3489267" lon="14.1133717"><ele>45.0</ele><time>2026-04-26T14:00:25.385Z</time></trkpt><trkpt lat="42.3490717" lon="14.1132833"><ele>43.666666666666664</ele><time>2026-04-26T14:00:26.439Z</time></trkpt><trkpt lat="42.3492167" lon="14.1131917"><ele>42.33333333333333</ele><time>2026-04-26T14:00:27.391Z</time></trkpt><trkpt lat="42.34936" lon="14.113095"><ele>41.0</ele><time>2026-04-26T14:00:28.392Z</time></trkpt><trkpt lat="42.3495017" lon="14.1129983"><ele>41.0</ele><time>2026-04-26T14:00:29.394Z</time></trkpt><trkpt lat="42.34964" lon="14.1129067"><ele>41.0</ele><time>2026-04-26T14:00:30.394Z</time></trkpt><trkpt lat="42.3497733" lon="14.1128133"><ele>41.0</ele><time>2026-04-26T14:00:31.386Z</time></trkpt><trkpt lat="42.34991" lon="14.1127233"><ele>42.0</ele><time>2026-04-26T14:00:32.443Z</time></trkpt><trkpt lat="42.3500533" lon="14.11264"><ele>43.0</ele><time>2026-04-26T14:00:33.389Z</time></trkpt><trkpt lat="42.3502017" lon="14.1125733"><ele>44.0</ele><time>2026-04-26T14:00:34.394Z</time></trkpt><trkpt lat="42.3503567" lon="14.1125233"><ele>44.0</ele><time>2026-04-26T14:00:35.395Z</time></trkpt><trkpt lat="42.3505167" lon="14.1124933"><ele>44.0</ele><time>2026-04-26T14:00:36.394Z</time></trkpt><trkpt lat="42.350685" lon="14.1124867"><ele>44.0</ele><time>2026-04-26T14:00:37.4Z</time></trkpt><trkpt lat="42.3508583" lon="14.1125033"><ele>44.0</ele><time>2026-04-26T14:00:38.386Z</time></trkpt><trkpt lat="42.3510383" lon="14.1125433"><ele>44.0</ele><time>2026-04-26T14:00:39.385Z</time></trkpt><trkpt lat="42.3512283" lon="14.1126"><ele>44.0</ele><time>2026-04-26T14:00:40.399Z</time></trkpt><trkpt lat="42.35143" lon="14.11267"><ele>42.0</ele><time>2026-04-26T14:00:41.396Z</time></trkpt><trkpt lat="42.3516417" lon="14.112755"><ele>40.0</ele><time>2026-04-26T14:00:42.386Z</time></trkpt><trkpt lat="42.3518683" lon="14.1128483"><ele>40.0</ele><time>2026-04-26T14:00:43.385Z</time></trkpt><trkpt lat="42.3521017" lon="14.112945"><ele>40.0</ele><time>2026-04-26T14:00:44.397Z</time></trkpt><trkpt lat="42.352335" lon="14.113045"><ele>38.0</ele><time>2026-04-26T14:00:45.396Z</time></trkpt><trkpt lat="42.352575" lon="14.1131467"><ele>36.0</ele><time>2026-04-26T14:00:46.397Z</time></trkpt><trkpt lat="42.35283" lon="14.113255"><ele>35.5</ele><time>2026-04-26T14:00:47.399Z</time></trkpt><trkpt lat="42.3530983" lon="14.113365"><ele>35.0</ele><time>2026-04-26T14:00:48.396Z</time></trkpt><trkpt lat="42.3533817" lon="14.1134783"><ele>35.0</ele><time>2026-04-26T14:00:49.399Z</time></trkpt><trkpt lat="42.35366" lon="14.1135917"><ele>35.0</ele><time>2026-04-26T14:00:50.4Z</time></trkpt><trkpt lat="42.3539167" lon="14.113695"><ele>35.5</ele><time>2026-04-26T14:00:51.385Z</time></trkpt><trkpt lat="42.354155" lon="14.1137917"><ele>36.0</ele><time>2026-04-26T14:00:52.394Z</time></trkpt><trkpt lat="42.3543867" lon="14.1138817"><ele>36.0</ele><time>2026-04-26T14:00:53.384Z</time></trkpt><trkpt lat="42.354615" lon="14.11397"><ele>36.0</ele><time>2026-04-26T14:00:54.396Z</time></trkpt><trkpt lat="42.3548483" lon="14.114065"><ele>36.5</ele><time>2026-04-26T14:00:55.396Z</time></trkpt><trkpt lat="42.35508" lon="14.11416"><ele>37.0</ele><time>2026-04-26T14:00:56.444Z</time></trkpt><trkpt lat="42.355315" lon="14.114255"><ele>42.0</ele><time>2026-04-26T14:00:57.395Z</time></trkpt><trkpt lat="42.3555467" lon="14.11435"><ele>47.0</ele><time>2026-04-26T14:00:58.395Z</time></trkpt><trkpt lat="42.35577" lon="14.11444"><ele>47.0</ele><time>2026-04-26T14:00:59.398Z</time></trkpt><trkpt lat="42.3559867" lon="14.11453"><ele>47.0</ele><time>2026-04-26T14:01:00.396Z</time></trkpt><trkpt lat="42.3562017" lon="14.114615"><ele>47.666666666666664</ele><time>2026-04-26T14:01:01.4Z</time></trkpt><trkpt lat="42.3564133" lon="14.1146983"><ele>48.33333333333333</ele><time>2026-04-26T14:01:02.444Z</time></trkpt><trkpt lat="42.3566217" lon="14.1147783"><ele>49.0</ele><time>2026-04-26T14:01:03.392Z</time></trkpt><trkpt lat="42.356825" lon="14.11486"><ele>46.33333333333333</ele><time>2026-04-26T14:01:04.394Z</time></trkpt><trkpt lat="42.3570267" lon="14.1149417"><ele>43.666666666666664</ele><time>2026-04-26T14:01:05.394Z</time></trkpt><trkpt lat="42.357225" lon="14.1150217"><ele>41.0</ele><time>2026-04-26T14:01:06.398Z</time></trkpt><trkpt lat="42.3574217" lon="14.1151"><ele>41.0</ele><time>2026-04-26T14:01:07.399Z</time></trkpt><trkpt lat="42.357615" lon="14.1151767"><ele>41.0</ele><time>2026-04-26T14:01:08.399Z</time></trkpt><trkpt lat="42.3578067" lon="14.1152517"><ele>41.0</ele><time>2026-04-26T14:01:09.386Z</time></trkpt><trkpt lat="42.3579983" lon="14.1153283"><ele>41.0</ele><time>2026-04-26T14:01:10.384Z</time></trkpt><trkpt lat="42.3581883" lon="14.1154033"><ele>41.0</ele><time>2026-04-26T14:01:11.394Z</time></trkpt><trkpt lat="42.3583817" lon="14.1154817"><ele>41.0</ele><time>2026-04-26T14:01:12.4Z</time></trkpt><trkpt lat="42.3585767" lon="14.1155617"><ele>41.0</ele><time>2026-04-26T14:01:13.397Z</time></trkpt><trkpt lat="42.3587733" lon="14.1156417"><ele>41.0</ele><time>2026-04-26T14:01:14.408Z</time></trkpt><trkpt lat="42.3589733" lon="14.1157217"><ele>41.0</ele><time>2026-04-26T14:01:15.396Z</time></trkpt><trkpt lat="42.3591733" lon="14.1158033"><ele>39.666666666666664</ele><time>2026-04-26T14:01:16.396Z</time></trkpt><trkpt lat="42.3593733" lon="14.1158883"><ele>38.333333333333336</ele><time>2026-04-26T14:01:17.396Z</time></trkpt><trkpt lat="42.3595717" lon="14.1159717"><ele>37.0</ele><time>2026-04-26T14:01:18.397Z</time></trkpt><trkpt lat="42.3597683" lon="14.1160583"><ele>37.0</ele><time>2026-04-26T14:01:19.387Z</time></trkpt><trkpt lat="42.3599667" lon="14.1161433"><ele>37.0</ele><time>2026-04-26T14:01:20.391Z</time></trkpt><trkpt lat="42.3601633" lon="14.1162283"><ele>37.0</ele><time>2026-04-26T14:01:21.389Z</time></trkpt><trkpt lat="42.3603583" lon="14.1163183"><ele>38.66666666666667</ele><time>2026-04-26T14:01:22.392Z</time></trkpt><trkpt lat="42.3605533" lon="14.1164067"><ele>40.333333333333336</ele><time>2026-04-26T14:01:23.392Z</time></trkpt><trkpt lat="42.3607467" lon="14.1164967"><ele>42.0</ele><time>2026-04-26T14:01:24.396Z</time></trkpt><trkpt lat="42.36094" lon="14.116585"><ele>40.0</ele><time>2026-04-26T14:01:25.394Z</time></trkpt><trkpt lat="42.36113" lon="14.1166683"><ele>38.0</ele><time>2026-04-26T14:01:26.449Z</time></trkpt><trkpt lat="42.3613233" lon="14.116755"><ele>36.0</ele><time>2026-04-26T14:01:27.394Z</time></trkpt><trkpt lat="42.3615133" lon="14.11684"><ele>36.0</ele><time>2026-04-26T14:01:28.394Z</time></trkpt><trkpt lat="42.3617" lon="14.1169283"><ele>36.0</ele><time>2026-04-26T14:01:29.387Z</time></trkpt><trkpt lat="42.3618883" lon="14.11702"><ele>36.0</ele><time>2026-04-26T14:01:30.393Z</time></trkpt><trkpt lat="42.362075" lon="14.11711"><ele>39.0</ele><time>2026-04-26T14:01:31.394Z</time></trkpt><trkpt lat="42.36226" lon="14.117195"><ele>42.0</ele><time>2026-04-26T14:01:32.452Z</time></trkpt><trkpt lat="42.3624467" lon="14.117275"><ele>45.0</ele><time>2026-04-26T14:01:33.398Z</time></trkpt><trkpt lat="42.3626333" lon="14.117345"><ele>45.0</ele><time>2026-04-26T14:01:34.387Z</time></trkpt><trkpt lat="42.36282" lon="14.1174"><ele>45.0</ele><time>2026-04-26T14:01:35.386Z</time></trkpt><trkpt lat="42.36301" lon="14.1174383"><ele>45.0</ele><time>2026-04-26T14:01:36.392Z</time></trkpt><trkpt lat="42.3632033" lon="14.1174533"><ele>40.333333333333336</ele><time>2026-04-26T14:01:37.397Z</time></trkpt><trkpt lat="42.3634" lon="14.1174583"><ele>35.66666666666667</ele><time>2026-04-26T14:01:38.403Z</time></trkpt><trkpt lat="42.3636" lon="14.117455"><ele>31.0</ele><time>2026-04-26T14:01:39.397Z</time></trkpt><trkpt lat="42.3637983" lon="14.1174583"><ele>31.666666666666668</ele><time>2026-04-26T14:01:40.394Z</time></trkpt><trkpt lat="42.3639917" lon="14.1174667"><ele>32.333333333333336</ele><time>2026-04-26T14:01:41.4Z</time></trkpt><trkpt lat="42.36418" lon="14.1174883"><ele>33.0</ele><time>2026-04-26T14:01:42.396Z</time></trkpt><trkpt lat="42.3643633" lon="14.11753"><ele>33.0</ele><time>2026-04-26T14:01:43.39Z</time></trkpt><trkpt lat="42.3645433" lon="14.1176017"><ele>33.0</ele><time>2026-04-26T14:01:44.4Z</time></trkpt><trkpt lat="42.3647167" lon="14.1176983"><ele>33.0</ele><time>2026-04-26T14:01:45.397Z</time></trkpt><trkpt lat="42.3648917" lon="14.11781"><ele>32.666666666666664</ele><time>2026-04-26T14:01:46.394Z</time></trkpt><trkpt lat="42.36507" lon="14.1179283"><ele>32.33333333333333</ele><time>2026-04-26T14:01:47.391Z</time></trkpt><trkpt lat="42.36525" lon="14.1180517"><ele>32.0</ele><time>2026-04-26T14:01:48.392Z</time></trkpt><trkpt lat="42.36543" lon="14.1181767"><ele>30.666666666666664</ele><time>2026-04-26T14:01:49.394Z</time></trkpt><trkpt lat="42.3656117" lon="14.1183033"><ele>29.333333333333336</ele><time>2026-04-26T14:01:50.4Z</time></trkpt><trkpt lat="42.365795" lon="14.1184283"><ele>28.0</ele><time>2026-04-26T14:01:51.404Z</time></trkpt><trkpt lat="42.3659817" lon="14.1185567"><ele>28.0</ele><time>2026-04-26T14:01:52.389Z</time></trkpt><trkpt lat="42.3661717" lon="14.118685"><ele>28.0</ele><time>2026-04-26T14:01:53.394Z</time></trkpt><trkpt lat="42.3663617" lon="14.118815"><ele>28.0</ele><time>2026-04-26T14:01:54.394Z</time></trkpt><trkpt lat="42.36655" lon="14.1189417"><ele>27.666666666666668</ele><time>2026-04-26T14:01:55.391Z</time></trkpt><trkpt lat="42.3667367" lon="14.1190717"><ele>27.333333333333336</ele><time>2026-04-26T14:01:56.452Z</time></trkpt><trkpt lat="42.36692" lon="14.1192"><ele>27.0</ele><time>2026-04-26T14:01:57.392Z</time></trkpt><trkpt lat="42.3671033" lon="14.119325"><ele>27.333333333333336</ele><time>2026-04-26T14:01:58.398Z</time></trkpt><trkpt lat="42.3672867" lon="14.1194517"><ele>27.666666666666668</ele><time>2026-04-26T14:01:59.406Z</time></trkpt><trkpt lat="42.367465" lon="14.1195767"><ele>28.0</ele><time>2026-04-26T14:02:00.389Z</time></trkpt><trkpt lat="42.3676417" lon="14.1197017"><ele>28.0</ele><time>2026-04-26T14:02:01.398Z</time></trkpt><trkpt lat="42.36781" lon="14.1198217"><ele>28.0</ele><time>2026-04-26T14:02:02.452Z</time></trkpt><trkpt lat="42.36797" lon="14.1199317"><ele>28.0</ele><time>2026-04-26T14:02:03.396Z</time></trkpt><trkpt lat="42.3681267" lon="14.1200317"><ele>28.333333333333336</ele><time>2026-04-26T14:02:04.393Z</time></trkpt><trkpt lat="42.36828" lon="14.1201167"><ele>28.666666666666664</ele><time>2026-04-26T14:02:05.395Z</time></trkpt><trkpt lat="42.368435" lon="14.120185"><ele>29.0</ele><time>2026-04-26T14:02:06.399Z</time></trkpt><trkpt lat="42.36859" lon="14.1202317"><ele>29.0</ele><time>2026-04-26T14:02:07.397Z</time></trkpt><trkpt lat="42.368745" lon="14.1202667"><ele>29.0</ele><time>2026-04-26T14:02:08.406Z</time></trkpt><trkpt lat="42.368905" lon="14.1202967"><ele>29.0</ele><time>2026-04-26T14:02:09.4Z</time></trkpt><trkpt lat="42.369075" lon="14.120325"><ele>31.666666666666664</ele><time>2026-04-26T14:02:10.391Z</time></trkpt><trkpt lat="42.3692567" lon="14.1203467"><ele>34.333333333333336</ele><time>2026-04-26T14:02:11.395Z</time></trkpt><trkpt lat="42.36945" lon="14.12037"><ele>37.0</ele><time>2026-04-26T14:02:12.386Z</time></trkpt><trkpt lat="42.369655" lon="14.1203933"><ele>37.0</ele><time>2026-04-26T14:02:13.394Z</time></trkpt><trkpt lat="42.36987" lon="14.120415"><ele>37.0</ele><time>2026-04-26T14:02:14.406Z</time></trkpt><trkpt lat="42.3700917" lon="14.1204383"><ele>37.0</ele><time>2026-04-26T14:02:15.388Z</time></trkpt><trkpt lat="42.3703133" lon="14.1204617"><ele>37.333333333333336</ele><time>2026-04-26T14:02:16.397Z</time></trkpt><trkpt lat="42.3705317" lon="14.1204867"><ele>37.666666666666664</ele><time>2026-04-26T14:02:17.398Z</time></trkpt><trkpt lat="42.370745" lon="14.120525"><ele>38.0</ele><time>2026-04-26T14:02:18.385Z</time></trkpt><trkpt lat="42.3709583" lon="14.120575"><ele>38.0</ele><time>2026-04-26T14:02:19.397Z</time></trkpt><trkpt lat="42.3711683" lon="14.1206483"><ele>38.0</ele><time>2026-04-26T14:02:20.408Z</time></trkpt><trkpt lat="42.371375" lon="14.1207317"><ele>38.0</ele><time>2026-04-26T14:02:21.403Z</time></trkpt><trkpt lat="42.3715733" lon="14.1208217"><ele>36.33333333333333</ele><time>2026-04-26T14:02:22.408Z</time></trkpt><trkpt lat="42.3717683" lon="14.1209167"><ele>34.666666666666664</ele><time>2026-04-26T14:02:23.399Z</time></trkpt><trkpt lat="42.371955" lon="14.1210167"><ele>33.0</ele><time>2026-04-26T14:02:24.389Z</time></trkpt><trkpt lat="42.3721367" lon="14.1211267"><ele>36.333333333333336</ele><time>2026-04-26T14:02:25.387Z</time></trkpt><trkpt lat="42.372315" lon="14.1212483"><ele>39.66666666666667</ele><time>2026-04-26T14:02:26.453Z</time></trkpt><trkpt lat="42.3724883" lon="14.1213817"><ele>43.0</ele><time>2026-04-26T14:02:27.394Z</time></trkpt><trkpt lat="42.3726617" lon="14.1215183"><ele>42.333333333333336</ele><time>2026-04-26T14:02:28.397Z</time></trkpt><trkpt lat="42.3728333" lon="14.1216533"><ele>41.666666666666664</ele><time>2026-04-26T14:02:29.396Z</time></trkpt><trkpt lat="42.3729967" lon="14.1217833"><ele>41.0</ele><time>2026-04-26T14:02:30.396Z</time></trkpt><trkpt lat="42.3731467" lon="14.1219067"><ele>41.0</ele><time>2026-04-26T14:02:31.397Z</time></trkpt><trkpt lat="42.37329" lon="14.12202"><ele>41.0</ele><time>2026-04-26T14:02:32.452Z</time></trkpt><trkpt lat="42.3734217" lon="14.1221217"><ele>41.0</ele><time>2026-04-26T14:02:33.4Z</time></trkpt><trkpt lat="42.3735433" lon="14.1222167"><ele>41.0</ele><time>2026-04-26T14:02:34.388Z</time></trkpt><trkpt lat="42.3736567" lon="14.122305"><ele>41.0</ele><time>2026-04-26T14:02:35.399Z</time></trkpt><trkpt lat="42.3737633" lon="14.1223867"><ele>41.0</ele><time>2026-04-26T14:02:36.384Z</time></trkpt><trkpt lat="42.373855" lon="14.1224583"><ele>41.0</ele><time>2026-04-26T14:02:37.394Z</time></trkpt><trkpt lat="42.3739333" lon="14.1225167"><ele>41.0</ele><time>2026-04-26T14:02:38.407Z</time></trkpt><trkpt lat="42.3739917" lon="14.1225583"><ele>41.0</ele><time>2026-04-26T14:02:39.388Z</time></trkpt><trkpt lat="42.3740583" lon="14.1226067"><ele>41.0</ele><time>2026-04-26T14:02:41.388Z</time></trkpt><trkpt lat="42.3741517" lon="14.12266"><ele>41.0</ele><time>2026-04-26T14:02:52.387Z</time></trkpt><trkpt lat="42.374215" lon="14.1227083"><ele>41.0</ele><time>2026-04-26T14:02:53.389Z</time></trkpt><trkpt lat="42.3742983" lon="14.122775"><ele>41.0</ele><time>2026-04-26T14:02:54.387Z</time></trkpt><trkpt lat="42.374395" lon="14.122855"><ele>41.0</ele><time>2026-04-26T14:02:55.392Z</time></trkpt><trkpt lat="42.3745067" lon="14.1229533"><ele>41.0</ele><time>2026-04-26T14:02:56.449Z</time></trkpt><trkpt lat="42.3746333" lon="14.1230617"><ele>41.0</ele><time>2026-04-26T14:02:57.393Z</time></trkpt><trkpt lat="42.3747733" lon="14.123175"><ele>41.0</ele><time>2026-04-26T14:02:58.395Z</time></trkpt><trkpt lat="42.37492" lon="14.1232883"><ele>40.33333333333333</ele><time>2026-04-26T14:02:59.392Z</time></trkpt><trkpt lat="42.3750667" lon="14.1234"><ele>39.666666666666664</ele><time>2026-04-26T14:03:00.402Z</time></trkpt><trkpt lat="42.37521" lon="14.123515"><ele>39.0</ele><time>2026-04-26T14:03:01.397Z</time></trkpt><trkpt lat="42.3753467" lon="14.1236233"><ele>39.0</ele><time>2026-04-26T14:03:02.451Z</time></trkpt><trkpt lat="42.37548" lon="14.1237233"><ele>39.0</ele><time>2026-04-26T14:03:03.39Z</time></trkpt><trkpt lat="42.3756083" lon="14.12381"><ele>39.0</ele><time>2026-04-26T14:03:04.389Z</time></trkpt><trkpt lat="42.3757367" lon="14.123885"><ele>39.0</ele><time>2026-04-26T14:03:05.396Z</time></trkpt><trkpt lat="42.3758617" lon="14.1239417"><ele>38.8</ele><time>2026-04-26T14:03:06.394Z</time></trkpt><trkpt lat="42.3759833" lon="14.1239867"><ele>38.599999999999994</ele><time>2026-04-26T14:03:07.384Z</time></trkpt><trkpt lat="42.3760983" lon="14.1240217"><ele>38.4</ele><time>2026-04-26T14:03:08.403Z</time></trkpt><trkpt lat="42.3762" lon="14.12406"><ele>38.199999999999996</ele><time>2026-04-26T14:03:09.394Z</time></trkpt><trkpt lat="42.3762817" lon="14.1241117"><ele>38.0</ele><time>2026-04-26T14:03:10.384Z</time></trkpt><trkpt lat="42.3763383" lon="14.1241783"><ele>37.8</ele><time>2026-04-26T14:03:11.395Z</time></trkpt><trkpt lat="42.3763833" lon="14.1242833"><ele>37.599999999999994</ele><time>2026-04-26T14:03:13.393Z</time></trkpt><trkpt lat="42.3764283" lon="14.1244017"><ele>37.400000000000006</ele><time>2026-04-26T14:03:17.398Z</time></trkpt><trkpt lat="42.37652" lon="14.1244967"><ele>37.2</ele><time>2026-04-26T14:03:19.393Z</time></trkpt><trkpt lat="42.3766467" lon="14.1244367"><ele>37.0</ele><time>2026-04-26T14:03:21.392Z</time></trkpt><trkpt lat="42.3767083" lon="14.1243367"><ele>37.0</ele><time>2026-04-26T14:03:22.386Z</time></trkpt><trkpt lat="42.3767767" lon="14.1242167"><ele>37.0</ele><time>2026-04-26T14:03:23.394Z</time></trkpt><trkpt lat="42.376865" lon="14.1240717"><ele>37.0</ele><time>2026-04-26T14:03:24.387Z</time></trkpt><trkpt lat="42.3769733" lon="14.1239"><ele>37.0</ele><time>2026-04-26T14:03:25.395Z</time></trkpt><trkpt lat="42.37708" lon="14.1237367"><ele>38.75</ele><time>2026-04-26T14:03:26.438Z</time></trkpt><trkpt lat="42.3771817" lon="14.123585"><ele>40.5</ele><time>2026-04-26T14:03:27.392Z</time></trkpt><trkpt lat="42.3772917" lon="14.123455"><ele>42.25</ele><time>2026-04-26T14:03:28.389Z</time></trkpt><trkpt lat="42.3774133" lon="14.1233583"><ele>44.0</ele><time>2026-04-26T14:03:29.391Z</time></trkpt><trkpt lat="42.3775683" lon="14.12334"><ele>44.666666666666664</ele><time>2026-04-26T14:03:30.384Z</time></trkpt><trkpt lat="42.377735" lon="14.1233517"><ele>45.333333333333336</ele><time>2026-04-26T14:03:31.389Z</time></trkpt><trkpt lat="42.3779267" lon="14.12339"><ele>46.0</ele><time>2026-04-26T14:03:32.449Z</time></trkpt><trkpt lat="42.3781333" lon="14.123435"><ele>49.0</ele><time>2026-04-26T14:03:33.398Z</time></trkpt><trkpt lat="42.3783533" lon="14.123475"><ele>52.0</ele><time>2026-04-26T14:03:34.384Z</time></trkpt><trkpt lat="42.3785783" lon="14.1235133"><ele>55.0</ele><time>2026-04-26T14:03:35.394Z</time></trkpt><trkpt lat="42.3788" lon="14.1235517"><ele>56.33333333333333</ele><time>2026-04-26T14:03:36.392Z</time></trkpt><trkpt lat="42.379005" lon="14.1235917"><ele>57.66666666666667</ele><time>2026-04-26T14:03:37.394Z</time></trkpt><trkpt lat="42.37919" lon="14.1236367"><ele>59.0</ele><time>2026-04-26T14:03:38.417Z</time></trkpt><trkpt lat="42.37935" lon="14.1236933"><ele>59.0</ele><time>2026-04-26T14:03:39.398Z</time></trkpt><trkpt lat="42.379475" lon="14.1237733"><ele>59.0</ele><time>2026-04-26T14:03:40.393Z</time></trkpt><trkpt lat="42.3795867" lon="14.12387"><ele>59.0</ele><time>2026-04-26T14:03:41.384Z</time></trkpt><trkpt lat="42.3797" lon="14.123985"><ele>59.0</ele><time>2026-04-26T14:03:42.398Z</time></trkpt><trkpt lat="42.3798217" lon="14.124105"><ele>56.66666666666667</ele><time>2026-04-26T14:03:43.393Z</time></trkpt><trkpt lat="42.3799583" lon="14.12423"><ele>54.33333333333333</ele><time>2026-04-26T14:03:44.411Z</time></trkpt><trkpt lat="42.3801083" lon="14.124355"><ele>52.0</ele><time>2026-04-26T14:03:45.392Z</time></trkpt><trkpt lat="42.3802683" lon="14.1244767"><ele>52.0</ele><time>2026-04-26T14:03:46.39Z</time></trkpt><trkpt lat="42.3804383" lon="14.1246017"><ele>52.0</ele><time>2026-04-26T14:03:47.387Z</time></trkpt><trkpt lat="42.3806133" lon="14.1247317"><ele>52.0</ele><time>2026-04-26T14:03:48.386Z</time></trkpt><trkpt lat="42.3807867" lon="14.1248633"><ele>50.666666666666664</ele><time>2026-04-26T14:03:49.386Z</time></trkpt><trkpt lat="42.3809583" lon="14.124995"><ele>49.33333333333333</ele><time>2026-04-26T14:03:50.405Z</time></trkpt><trkpt lat="42.3811283" lon="14.1251233"><ele>48.0</ele><time>2026-04-26T14:03:51.383Z</time></trkpt><trkpt lat="42.3812967" lon="14.1252417"><ele>49.66666666666667</ele><time>2026-04-26T14:03:52.384Z</time></trkpt><trkpt lat="42.3814617" lon="14.1253617"><ele>51.333333333333336</ele><time>2026-04-26T14:03:53.395Z</time></trkpt><trkpt lat="42.3816183" lon="14.12548"><ele>53.0</ele><time>2026-04-26T14:03:54.395Z</time></trkpt><trkpt lat="42.38177" lon="14.1256"><ele>53.0</ele><time>2026-04-26T14:03:55.392Z</time></trkpt><trkpt lat="42.3819217" lon="14.1257217"><ele>53.0</ele><time>2026-04-26T14:03:56.448Z</time></trkpt><trkpt lat="42.3820683" lon="14.125845"><ele>53.0</ele><time>2026-04-26T14:03:57.391Z</time></trkpt><trkpt lat="42.3822083" lon="14.1259683"><ele>53.0</ele><time>2026-04-26T14:03:58.39Z</time></trkpt><trkpt lat="42.3823433" lon="14.12609"><ele>53.0</ele><time>2026-04-26T14:03:59.395Z</time></trkpt><trkpt lat="42.3824717" lon="14.1261983"><ele>53.0</ele><time>2026-04-26T14:04:00.399Z</time></trkpt><trkpt lat="42.3825983" lon="14.1262917"><ele>53.0</ele><time>2026-04-26T14:04:01.399Z</time></trkpt><trkpt lat="42.3827267" lon="14.126365"><ele>53.0</ele><time>2026-04-26T14:04:02.451Z</time></trkpt><trkpt lat="42.38286" lon="14.1264217"><ele>53.0</ele><time>2026-04-26T14:04:03.395Z</time></trkpt><trkpt lat="42.3829967" lon="14.12646"><ele>53.0</ele><time>2026-04-26T14:04:04.398Z</time></trkpt><trkpt lat="42.3831233" lon="14.12647"><ele>53.0</ele><time>2026-04-26T14:04:05.395Z</time></trkpt><trkpt lat="42.3832583" lon="14.126455"><ele>53.0</ele><time>2026-04-26T14:04:06.397Z</time></trkpt><trkpt lat="42.3833817" lon="14.1264567"><ele>53.0</ele><time>2026-04-26T14:04:07.397Z</time></trkpt><trkpt lat="42.3835033" lon="14.1264683"><ele>53.0</ele><time>2026-04-26T14:04:08.409Z</time></trkpt><trkpt lat="42.3836183" lon="14.1265067"><ele>50.25</ele><time>2026-04-26T14:04:09.397Z</time></trkpt><trkpt lat="42.3837333" lon="14.1265683"><ele>47.5</ele><time>2026-04-26T14:04:10.396Z</time></trkpt><trkpt lat="42.3838533" lon="14.1266467"><ele>44.75</ele><time>2026-04-26T14:04:11.396Z</time></trkpt><trkpt lat="42.38398" lon="14.1267183"><ele>42.0</ele><time>2026-04-26T14:04:12.397Z</time></trkpt><trkpt lat="42.384115" lon="14.126785"><ele>42.0</ele><time>2026-04-26T14:04:13.395Z</time></trkpt><trkpt lat="42.3842567" lon="14.1268533"><ele>42.0</ele><time>2026-04-26T14:04:14.404Z</time></trkpt><trkpt lat="42.3844033" lon="14.1269167"><ele>42.0</ele><time>2026-04-26T14:04:15.39Z</time></trkpt><trkpt lat="42.3845467" lon="14.126975"><ele>42.75</ele><time>2026-04-26T14:04:16.386Z</time></trkpt><trkpt lat="42.3846833" lon="14.1270333"><ele>43.5</ele><time>2026-04-26T14:04:17.397Z</time></trkpt><trkpt lat="42.3848133" lon="14.1270867"><ele>44.25</ele><time>2026-04-26T14:04:18.394Z</time></trkpt><trkpt lat="42.3849367" lon="14.12715"><ele>45.0</ele><time>2026-04-26T14:04:19.389Z</time></trkpt><trkpt lat="42.38506" lon="14.1272333"><ele>45.0</ele><time>2026-04-26T14:04:20.414Z</time></trkpt><trkpt lat="42.3851817" lon="14.127335"><ele>45.0</ele><time>2026-04-26T14:04:21.387Z</time></trkpt><trkpt lat="42.3853033" lon="14.1274533"><ele>45.0</ele><time>2026-04-26T14:04:22.387Z</time></trkpt><trkpt lat="42.3854217" lon="14.1275767"><ele>45.0</ele><time>2026-04-26T14:04:23.39Z</time></trkpt><trkpt lat="42.385545" lon="14.1277133"><ele>42.0</ele><time>2026-04-26T14:04:24.398Z</time></trkpt><trkpt lat="42.3856683" lon="14.127845"><ele>39.0</ele><time>2026-04-26T14:04:25.385Z</time></trkpt><trkpt lat="42.3857917" lon="14.12797"><ele>36.0</ele><time>2026-04-26T14:04:26.451Z</time></trkpt><trkpt lat="42.3859167" lon="14.128085"><ele>36.0</ele><time>2026-04-26T14:04:27.395Z</time></trkpt><trkpt lat="42.3860383" lon="14.1281967"><ele>36.0</ele><time>2026-04-26T14:04:28.394Z</time></trkpt><trkpt lat="42.3861517" lon="14.128305"><ele>36.0</ele><time>2026-04-26T14:04:29.396Z</time></trkpt><trkpt lat="42.386255" lon="14.128415"><ele>36.0</ele><time>2026-04-26T14:04:30.391Z</time></trkpt><trkpt lat="42.3863483" lon="14.1285383"><ele>36.25</ele><time>2026-04-26T14:04:31.395Z</time></trkpt><trkpt lat="42.386435" lon="14.1286717"><ele>36.5</ele><time>2026-04-26T14:04:32.45Z</time></trkpt><trkpt lat="42.3865167" lon="14.12881"><ele>36.75</ele><time>2026-04-26T14:04:33.391Z</time></trkpt><trkpt lat="42.3866" lon="14.128945"><ele>37.0</ele><time>2026-04-26T14:04:34.385Z</time></trkpt><trkpt lat="42.3866833" lon="14.12908"><ele>36.0</ele><time>2026-04-26T14:04:35.395Z</time></trkpt><trkpt lat="42.3867683" lon="14.1292083"><ele>35.0</ele><time>2026-04-26T14:04:36.393Z</time></trkpt><trkpt lat="42.3868617" lon="14.1293367"><ele>34.0</ele><time>2026-04-26T14:04:37.396Z</time></trkpt><trkpt lat="42.3869667" lon="14.129465"><ele>33.0</ele><time>2026-04-26T14:04:38.412Z</time></trkpt><trkpt lat="42.3870867" lon="14.12959"><ele>32.666666666666664</ele><time>2026-04-26T14:04:39.397Z</time></trkpt><trkpt lat="42.3872133" lon="14.1297183"><ele>32.33333333333333</ele><time>2026-04-26T14:04:40.384Z</time></trkpt><trkpt lat="42.387345" lon="14.12985"><ele>32.0</ele><time>2026-04-26T14:04:41.391Z</time></trkpt><trkpt lat="42.387475" lon="14.12998"><ele>32.0</ele><time>2026-04-26T14:04:42.394Z</time></trkpt><trkpt lat="42.3876017" lon="14.1301083"><ele>32.0</ele><time>2026-04-26T14:04:43.4Z</time></trkpt><trkpt lat="42.3877217" lon="14.130225"><ele>32.0</ele><time>2026-04-26T14:04:44.406Z</time></trkpt><trkpt lat="42.3878283" lon="14.1303283"><ele>32.0</ele><time>2026-04-26T14:04:45.398Z</time></trkpt><trkpt lat="42.387925" lon="14.1304133"><ele>31.5</ele><time>2026-04-26T14:04:46.398Z</time></trkpt><trkpt lat="42.3880167" lon="14.13048"><ele>31.0</ele><time>2026-04-26T14:04:47.395Z</time></trkpt><trkpt lat="42.3881117" lon="14.1305383"><ele>30.5</ele><time>2026-04-26T14:04:48.405Z</time></trkpt><trkpt lat="42.3882217" lon="14.1305917"><ele>30.0</ele><time>2026-04-26T14:04:49.395Z</time></trkpt><trkpt lat="42.388345" lon="14.1306517"><ele>30.0</ele><time>2026-04-26T14:04:50.415Z</time></trkpt><trkpt lat="42.3884833" lon="14.1307233"><ele>30.0</ele><time>2026-04-26T14:04:51.399Z</time></trkpt><trkpt lat="42.3886333" lon="14.1308083"><ele>30.0</ele><time>2026-04-26T14:04:52.392Z</time></trkpt><trkpt lat="42.388795" lon="14.1309067"><ele>31.0</ele><time>2026-04-26T14:04:53.399Z</time></trkpt><trkpt lat="42.3889583" lon="14.1310133"><ele>32.0</ele><time>2026-04-26T14:04:54.396Z</time></trkpt><trkpt lat="42.3891217" lon="14.131125"><ele>33.0</ele><time>2026-04-26T14:04:55.4Z</time></trkpt><trkpt lat="42.389285" lon="14.13124"><ele>33.0</ele><time>2026-04-26T14:04:56.456Z</time></trkpt><trkpt lat="42.389445" lon="14.131365"><ele>33.0</ele><time>2026-04-26T14:04:57.393Z</time></trkpt><trkpt lat="42.3896033" lon="14.1314933"><ele>33.0</ele><time>2026-04-26T14:04:58.399Z</time></trkpt><trkpt lat="42.3897583" lon="14.1316267"><ele>32.333333333333336</ele><time>2026-04-26T14:04:59.396Z</time></trkpt><trkpt lat="42.3899167" lon="14.1317633"><ele>31.666666666666668</ele><time>2026-04-26T14:05:00.389Z</time></trkpt><trkpt lat="42.3900767" lon="14.1319017"><ele>31.0</ele><time>2026-04-26T14:05:01.397Z</time></trkpt><trkpt lat="42.3902333" lon="14.1320417"><ele>31.0</ele><time>2026-04-26T14:05:02.45Z</time></trkpt><trkpt lat="42.3903883" lon="14.1321817"><ele>31.0</ele><time>2026-04-26T14:05:03.397Z</time></trkpt><trkpt lat="42.3905417" lon="14.1323167"><ele>31.0</ele><time>2026-04-26T14:05:04.399Z</time></trkpt><trkpt lat="42.390695" lon="14.1324533"><ele>30.666666666666668</ele><time>2026-04-26T14:05:05.403Z</time></trkpt><trkpt lat="42.390845" lon="14.13259"><ele>30.333333333333336</ele><time>2026-04-26T14:05:06.395Z</time></trkpt><trkpt lat="42.3909883" lon="14.1327217"><ele>30.0</ele><time>2026-04-26T14:05:07.395Z</time></trkpt><trkpt lat="42.3911267" lon="14.1328533"><ele>30.0</ele><time>2026-04-26T14:05:08.408Z</time></trkpt><trkpt lat="42.39127" lon="14.132985"><ele>30.0</ele><time>2026-04-26T14:05:09.393Z</time></trkpt><trkpt lat="42.3914133" lon="14.1331183"><ele>30.0</ele><time>2026-04-26T14:05:10.396Z</time></trkpt><trkpt lat="42.3915583" lon="14.1332467"><ele>30.0</ele><time>2026-04-26T14:05:11.394Z</time></trkpt><trkpt lat="42.3917017" lon="14.1333783"><ele>30.0</ele><time>2026-04-26T14:05:12.399Z</time></trkpt><trkpt lat="42.3918467" lon="14.13351"><ele>30.0</ele><time>2026-04-26T14:05:13.395Z</time></trkpt><trkpt lat="42.3919917" lon="14.1336417"><ele>30.0</ele><time>2026-04-26T14:05:14.41Z</time></trkpt><trkpt lat="42.3921417" lon="14.1337783"><ele>30.0</ele><time>2026-04-26T14:05:15.396Z</time></trkpt><trkpt lat="42.3922917" lon="14.1339117"><ele>30.0</ele><time>2026-04-26T14:05:16.396Z</time></trkpt><trkpt lat="42.392455" lon="14.13405"><ele>29.666666666666664</ele><time>2026-04-26T14:05:17.385Z</time></trkpt><trkpt lat="42.3926233" lon="14.1342167"><ele>29.333333333333332</ele><time>2026-04-26T14:05:18.385Z</time></trkpt><trkpt lat="42.392815" lon="14.1343233"><ele>29.0</ele><time>2026-04-26T14:05:19.387Z</time></trkpt><trkpt lat="42.3929717" lon="14.134475"><ele>29.25</ele><time>2026-04-26T14:05:20.413Z</time></trkpt><trkpt lat="42.3931033" lon="14.1345783"><ele>29.5</ele><time>2026-04-26T14:05:21.389Z</time></trkpt><trkpt lat="42.3931767" lon="14.1347167"><ele>29.75</ele><time>2026-04-26T14:05:22.389Z</time></trkpt><trkpt lat="42.3933117" lon="14.13484"><ele>30.0</ele><time>2026-04-26T14:05:23.388Z</time></trkpt><trkpt lat="42.3934683" lon="14.13497"><ele>30.0</ele><time>2026-04-26T14:05:24.397Z</time></trkpt><trkpt lat="42.3936267" lon="14.1351"><ele>30.0</ele><time>2026-04-26T14:05:25.39Z</time></trkpt><trkpt lat="42.393785" lon="14.135235"><ele>30.0</ele><time>2026-04-26T14:05:26.448Z</time></trkpt><trkpt lat="42.3939383" lon="14.1353733"><ele>30.0</ele><time>2026-04-26T14:05:27.388Z</time></trkpt><trkpt lat="42.39409" lon="14.1355083"><ele>30.0</ele><time>2026-04-26T14:05:28.389Z</time></trkpt><trkpt lat="42.394235" lon="14.1356417"><ele>30.0</ele><time>2026-04-26T14:05:29.395Z</time></trkpt><trkpt lat="42.3943783" lon="14.1357717"><ele>29.666666666666664</ele><time>2026-04-26T14:05:30.386Z</time></trkpt><trkpt lat="42.3945167" lon="14.1358983"><ele>29.333333333333332</ele><time>2026-04-26T14:05:31.391Z</time></trkpt><trkpt lat="42.39465" lon="14.13602"><ele>29.0</ele><time>2026-04-26T14:05:32.443Z</time></trkpt><trkpt lat="42.3947817" lon="14.1361367"><ele>29.0</ele><time>2026-04-26T14:05:33.389Z</time></trkpt><trkpt lat="42.3949117" lon="14.13625"><ele>29.0</ele><time>2026-04-26T14:05:34.395Z</time></trkpt><trkpt lat="42.39504" lon="14.136365"><ele>29.0</ele><time>2026-04-26T14:05:35.4Z</time></trkpt><trkpt lat="42.3951667" lon="14.13648"><ele>28.25</ele><time>2026-04-26T14:05:36.394Z</time></trkpt><trkpt lat="42.3952933" lon="14.1365917"><ele>27.5</ele><time>2026-04-26T14:05:37.389Z</time></trkpt><trkpt lat="42.3954183" lon="14.1367033"><ele>26.75</ele><time>2026-04-26T14:05:38.406Z</time></trkpt><trkpt lat="42.39554" lon="14.13681"><ele>26.0</ele><time>2026-04-26T14:05:39.386Z</time></trkpt><trkpt lat="42.3956583" lon="14.13691"><ele>26.0</ele><time>2026-04-26T14:05:40.389Z</time></trkpt><trkpt lat="42.39577" lon="14.137005"><ele>26.0</ele><time>2026-04-26T14:05:41.393Z</time></trkpt><trkpt lat="42.3958783" lon="14.1370983"><ele>26.0</ele><time>2026-04-26T14:05:42.393Z</time></trkpt><trkpt lat="42.395985" lon="14.13719"><ele>26.0</ele><time>2026-04-26T14:05:43.384Z</time></trkpt><trkpt lat="42.3960933" lon="14.1372883"><ele>26.0</ele><time>2026-04-26T14:05:44.403Z</time></trkpt><trkpt lat="42.3962" lon="14.137385"><ele>26.0</ele><time>2026-04-26T14:05:45.386Z</time></trkpt><trkpt lat="42.396305" lon="14.13748"><ele>26.0</ele><time>2026-04-26T14:05:46.393Z</time></trkpt><trkpt lat="42.3964067" lon="14.1375683"><ele>26.0</ele><time>2026-04-26T14:05:47.392Z</time></trkpt><trkpt lat="42.396505" lon="14.137655"><ele>26.25</ele><time>2026-04-26T14:05:48.385Z</time></trkpt><trkpt lat="42.3966133" lon="14.1377433"><ele>26.5</ele><time>2026-04-26T14:05:49.387Z</time></trkpt><trkpt lat="42.39673" lon="14.1378417"><ele>26.75</ele><time>2026-04-26T14:05:50.406Z</time></trkpt><trkpt lat="42.3968517" lon="14.13795"><ele>27.0</ele><time>2026-04-26T14:05:51.386Z</time></trkpt><trkpt lat="42.3969717" lon="14.1380617"><ele>27.0</ele><time>2026-04-26T14:05:52.391Z</time></trkpt><trkpt lat="42.39709" lon="14.1381683"><ele>27.0</ele><time>2026-04-26T14:05:53.394Z</time></trkpt><trkpt lat="42.3972017" lon="14.1382683"><ele>27.0</ele><time>2026-04-26T14:05:54.392Z</time></trkpt><trkpt lat="42.3973133" lon="14.1383667"><ele>27.0</ele><time>2026-04-26T14:05:55.396Z</time></trkpt><trkpt lat="42.3974267" lon="14.1384667"><ele>26.75</ele><time>2026-04-26T14:05:56.421Z</time></trkpt><trkpt lat="42.39754" lon="14.1385733"><ele>26.5</ele><time>2026-04-26T14:05:57.385Z</time></trkpt><trkpt lat="42.397655" lon="14.1386833"><ele>26.25</ele><time>2026-04-26T14:05:58.393Z</time></trkpt><trkpt lat="42.3977717" lon="14.1387933"><ele>26.0</ele><time>2026-04-26T14:05:59.396Z</time></trkpt><trkpt lat="42.39789" lon="14.1389017"><ele>26.0</ele><time>2026-04-26T14:06:00.393Z</time></trkpt><trkpt lat="42.3980117" lon="14.1390133"><ele>26.0</ele><time>2026-04-26T14:06:01.392Z</time></trkpt><trkpt lat="42.3981317" lon="14.1391233"><ele>26.0</ele><time>2026-04-26T14:06:02.45Z</time></trkpt><trkpt lat="42.39825" lon="14.1392283"><ele>26.0</ele><time>2026-04-26T14:06:03.391Z</time></trkpt><trkpt lat="42.398365" lon="14.1393283"><ele>26.0</ele><time>2026-04-26T14:06:04.394Z</time></trkpt><trkpt lat="42.398475" lon="14.139425"><ele>26.0</ele><time>2026-04-26T14:06:05.399Z</time></trkpt><trkpt lat="42.3985817" lon="14.1395183"><ele>26.0</ele><time>2026-04-26T14:06:06.395Z</time></trkpt><trkpt lat="42.3986833" lon="14.1396083"><ele>26.0</ele><time>2026-04-26T14:06:07.398Z</time></trkpt><trkpt lat="42.3987833" lon="14.1396983"><ele>25.75</ele><time>2026-04-26T14:06:08.416Z</time></trkpt><trkpt lat="42.3988833" lon="14.1397917"><ele>25.5</ele><time>2026-04-26T14:06:09.397Z</time></trkpt><trkpt lat="42.39899" lon="14.139885"><ele>25.25</ele><time>2026-04-26T14:06:10.392Z</time></trkpt><trkpt lat="42.3991017" lon="14.1399833"><ele>25.0</ele><time>2026-04-26T14:06:11.387Z</time></trkpt><trkpt lat="42.399225" lon="14.140085"><ele>25.0</ele><time>2026-04-26T14:06:12.391Z</time></trkpt><trkpt lat="42.3993617" lon="14.1402033"><ele>25.0</ele><time>2026-04-26T14:06:13.394Z</time></trkpt><trkpt lat="42.399505" lon="14.1403383"><ele>25.0</ele><time>2026-04-26T14:06:14.419Z</time></trkpt><trkpt lat="42.3996567" lon="14.1404833"><ele>24.666666666666668</ele><time>2026-04-26T14:06:15.388Z</time></trkpt><trkpt lat="42.3998217" lon="14.1406367"><ele>24.333333333333336</ele><time>2026-04-26T14:06:16.394Z</time></trkpt><trkpt lat="42.4000067" lon="14.1408033"><ele>24.0</ele><time>2026-04-26T14:06:17.394Z</time></trkpt><trkpt lat="42.4001983" lon="14.14097"><ele>24.333333333333336</ele><time>2026-04-26T14:06:18.399Z</time></trkpt><trkpt lat="42.4003817" lon="14.14113"><ele>24.666666666666668</ele><time>2026-04-26T14:06:19.394Z</time></trkpt><trkpt lat="42.40056" lon="14.1412833"><ele>25.0</ele><time>2026-04-26T14:06:20.408Z</time></trkpt><trkpt lat="42.4007283" lon="14.1414317"><ele>25.0</ele><time>2026-04-26T14:06:21.385Z</time></trkpt><trkpt lat="42.4008917" lon="14.1415767"><ele>25.0</ele><time>2026-04-26T14:06:22.392Z</time></trkpt><trkpt lat="42.4010467" lon="14.1417233"><ele>25.0</ele><time>2026-04-26T14:06:23.39Z</time></trkpt><trkpt lat="42.4012" lon="14.141865"><ele>25.0</ele><time>2026-04-26T14:06:24.396Z</time></trkpt><trkpt lat="42.40135" lon="14.1419983"><ele>25.0</ele><time>2026-04-26T14:06:25.383Z</time></trkpt><trkpt lat="42.4014917" lon="14.1421283"><ele>25.0</ele><time>2026-04-26T14:06:26.443Z</time></trkpt><trkpt lat="42.40163" lon="14.1422517"><ele>25.0</ele><time>2026-04-26T14:06:27.389Z</time></trkpt><trkpt lat="42.401765" lon="14.1423717"><ele>25.0</ele><time>2026-04-26T14:06:28.385Z</time></trkpt><trkpt lat="42.401895" lon="14.1424883"><ele>25.0</ele><time>2026-04-26T14:06:29.393Z</time></trkpt><trkpt lat="42.4020167" lon="14.1425983"><ele>24.75</ele><time>2026-04-26T14:06:30.396Z</time></trkpt><trkpt lat="42.4021333" lon="14.142705"><ele>24.5</ele><time>2026-04-26T14:06:31.397Z</time></trkpt><trkpt lat="42.4022433" lon="14.1428067"><ele>24.25</ele><time>2026-04-26T14:06:32.446Z</time></trkpt><trkpt lat="42.40235" lon="14.1429"><ele>24.0</ele><time>2026-04-26T14:06:33.396Z</time></trkpt><trkpt lat="42.4024483" lon="14.1429883"><ele>24.0</ele><time>2026-04-26T14:06:34.394Z</time></trkpt><trkpt lat="42.4025467" lon="14.1430733"><ele>24.0</ele><time>2026-04-26T14:06:35.397Z</time></trkpt><trkpt lat="42.402645" lon="14.143155"><ele>24.0</ele><time>2026-04-26T14:06:36.393Z</time></trkpt><trkpt lat="42.40274" lon="14.1432333"><ele>24.0</ele><time>2026-04-26T14:06:37.397Z</time></trkpt><trkpt lat="42.4028333" lon="14.14331"><ele>24.0</ele><time>2026-04-26T14:06:38.414Z</time></trkpt><trkpt lat="42.4029333" lon="14.1433933"><ele>24.0</ele><time>2026-04-26T14:06:39.395Z</time></trkpt><trkpt lat="42.4030367" lon="14.14348"><ele>24.0</ele><time>2026-04-26T14:06:40.385Z</time></trkpt><trkpt lat="42.4031517" lon="14.1435717"><ele>24.0</ele><time>2026-04-26T14:06:41.384Z</time></trkpt><trkpt lat="42.4032767" lon="14.14367"><ele>24.0</ele><time>2026-04-26T14:06:42.393Z</time></trkpt><trkpt lat="42.4034133" lon="14.1437833"><ele>24.0</ele><time>2026-04-26T14:06:43.388Z</time></trkpt><trkpt lat="42.40356" lon="14.1439133"><ele>24.0</ele><time>2026-04-26T14:06:44.42Z</time></trkpt><trkpt lat="42.4037117" lon="14.14406"><ele>24.333333333333336</ele><time>2026-04-26T14:06:45.389Z</time></trkpt><trkpt lat="42.403875" lon="14.1442183"><ele>24.666666666666668</ele><time>2026-04-26T14:06:46.391Z</time></trkpt><trkpt lat="42.40405" lon="14.1443867"><ele>25.0</ele><time>2026-04-26T14:06:47.385Z</time></trkpt><trkpt lat="42.4042333" lon="14.1445567"><ele>25.0</ele><time>2026-04-26T14:06:48.395Z</time></trkpt><trkpt lat="42.4044117" lon="14.144725"><ele>25.0</ele><time>2026-04-26T14:06:49.389Z</time></trkpt><trkpt lat="42.4045867" lon="14.144885"><ele>25.0</ele><time>2026-04-26T14:06:50.408Z</time></trkpt><trkpt lat="42.4047583" lon="14.1450383"><ele>24.333333333333336</ele><time>2026-04-26T14:06:51.392Z</time></trkpt><trkpt lat="42.404925" lon="14.1451883"><ele>23.666666666666668</ele><time>2026-04-26T14:06:52.387Z</time></trkpt><trkpt lat="42.40508" lon="14.14533"><ele>23.0</ele><time>2026-04-26T14:06:53.392Z</time></trkpt><trkpt lat="42.40521" lon="14.14545"><ele>23.0</ele><time>2026-04-26T14:06:54.391Z</time></trkpt><trkpt lat="42.4053133" lon="14.14555"><ele>23.0</ele><time>2026-04-26T14:06:55.383Z</time></trkpt><trkpt lat="42.405395" lon="14.14564"><ele>23.0</ele><time>2026-04-26T14:06:56.452Z</time></trkpt><trkpt lat="42.4054533" lon="14.145725"><ele>23.0</ele><time>2026-04-26T14:06:57.386Z</time></trkpt><trkpt lat="42.405485" lon="14.1458133"><ele>23.0</ele><time>2026-04-26T14:06:58.39Z</time></trkpt><trkpt lat="42.405495" lon="14.1459"><ele>22.833333333333336</ele><time>2026-04-26T14:06:59.396Z</time></trkpt><trkpt lat="42.40552" lon="14.146045"><ele>22.666666666666668</ele><time>2026-04-26T14:07:01.386Z</time></trkpt><trkpt lat="42.4055983" lon="14.1461067"><ele>22.5</ele><time>2026-04-26T14:07:03.392Z</time></trkpt><trkpt lat="42.4056667" lon="14.1461"><ele>22.333333333333332</ele><time>2026-04-26T14:07:04.392Z</time></trkpt><trkpt lat="42.4057483" lon="14.14608"><ele>22.166666666666664</ele><time>2026-04-26T14:07:05.394Z</time></trkpt><trkpt lat="42.40584" lon="14.1460817"><ele>22.0</ele><time>2026-04-26T14:07:06.389Z</time></trkpt><trkpt lat="42.4059317" lon="14.1461183"><ele>22.0</ele><time>2026-04-26T14:07:07.389Z</time></trkpt><trkpt lat="42.4060233" lon="14.1461867"><ele>22.0</ele><time>2026-04-26T14:07:08.416Z</time></trkpt><trkpt lat="42.40612" lon="14.1462783"><ele>22.0</ele><time>2026-04-26T14:07:09.397Z</time></trkpt><trkpt lat="42.4062317" lon="14.1463783"><ele>22.0</ele><time>2026-04-26T14:07:10.387Z</time></trkpt><trkpt lat="42.4063567" lon="14.14649"><ele>22.0</ele><time>2026-04-26T14:07:11.389Z</time></trkpt><trkpt lat="42.4064867" lon="14.1466017"><ele>22.0</ele><time>2026-04-26T14:07:12.384Z</time></trkpt><trkpt lat="42.406625" lon="14.1467067"><ele>22.0</ele><time>2026-04-26T14:07:13.386Z</time></trkpt><trkpt lat="42.4067717" lon="14.1468017"><ele>22.0</ele><time>2026-04-26T14:07:14.415Z</time></trkpt><trkpt lat="42.40693" lon="14.1468817"><ele>22.0</ele><time>2026-04-26T14:07:15.384Z</time></trkpt><trkpt lat="42.4071" lon="14.146945"><ele>22.0</ele><time>2026-04-26T14:07:16.385Z</time></trkpt><trkpt lat="42.4072783" lon="14.1469983"><ele>20.666666666666664</ele><time>2026-04-26T14:07:17.396Z</time></trkpt><trkpt lat="42.4074617" lon="14.1470467"><ele>19.333333333333332</ele><time>2026-04-26T14:07:18.39Z</time></trkpt><trkpt lat="42.40765" lon="14.1470917"><ele>18.0</ele><time>2026-04-26T14:07:19.386Z</time></trkpt><trkpt lat="42.4078367" lon="14.1471367"><ele>17.666666666666668</ele><time>2026-04-26T14:07:20.409Z</time></trkpt><trkpt lat="42.4080233" lon="14.147185"><ele>17.333333333333336</ele><time>2026-04-26T14:07:21.389Z</time></trkpt><trkpt lat="42.4082083" lon="14.1472417"><ele>17.0</ele><time>2026-04-26T14:07:22.389Z</time></trkpt><trkpt lat="42.4083867" lon="14.1473083"><ele>17.0</ele><time>2026-04-26T14:07:23.392Z</time></trkpt><trkpt lat="42.4085617" lon="14.1473883"><ele>17.0</ele><time>2026-04-26T14:07:24.397Z</time></trkpt><trkpt lat="42.40873" lon="14.1474817"><ele>17.0</ele><time>2026-04-26T14:07:25.397Z</time></trkpt><trkpt lat="42.4088933" lon="14.1475883"><ele>17.0</ele><time>2026-04-26T14:07:26.449Z</time></trkpt><trkpt lat="42.4090517" lon="14.147705"><ele>17.0</ele><time>2026-04-26T14:07:27.391Z</time></trkpt><trkpt lat="42.40921" lon="14.1478267"><ele>17.0</ele><time>2026-04-26T14:07:28.397Z</time></trkpt><trkpt lat="42.40937" lon="14.1479517"><ele>17.0</ele><time>2026-04-26T14:07:29.393Z</time></trkpt><trkpt lat="42.409535" lon="14.1480783"><ele>17.0</ele><time>2026-04-26T14:07:30.384Z</time></trkpt><trkpt lat="42.4097017" lon="14.148205"><ele>17.0</ele><time>2026-04-26T14:07:31.391Z</time></trkpt><trkpt lat="42.40987" lon="14.1483333"><ele>17.666666666666668</ele><time>2026-04-26T14:07:32.45Z</time></trkpt><trkpt lat="42.41004" lon="14.1484633"><ele>18.333333333333332</ele><time>2026-04-26T14:07:33.391Z</time></trkpt><trkpt lat="42.4102117" lon="14.1485967"><ele>19.0</ele><time>2026-04-26T14:07:34.395Z</time></trkpt><trkpt lat="42.4103833" lon="14.148735"><ele>19.0</ele><time>2026-04-26T14:07:35.398Z</time></trkpt><trkpt lat="42.4105567" lon="14.1488767"><ele>19.0</ele><time>2026-04-26T14:07:36.394Z</time></trkpt><trkpt lat="42.4107333" lon="14.1490183"><ele>19.0</ele><time>2026-04-26T14:07:37.391Z</time></trkpt><trkpt lat="42.410915" lon="14.14916"><ele>19.666666666666664</ele><time>2026-04-26T14:07:38.41Z</time></trkpt><trkpt lat="42.4110983" lon="14.1493"><ele>20.333333333333332</ele><time>2026-04-26T14:07:39.383Z</time></trkpt><trkpt lat="42.4112817" lon="14.1494467"><ele>21.0</ele><time>2026-04-26T14:07:40.384Z</time></trkpt><trkpt lat="42.4114667" lon="14.149595"><ele>21.0</ele><time>2026-04-26T14:07:41.391Z</time></trkpt><trkpt lat="42.4116483" lon="14.149745"><ele>21.0</ele><time>2026-04-26T14:07:42.395Z</time></trkpt><trkpt lat="42.4118283" lon="14.1498883"><ele>21.0</ele><time>2026-04-26T14:07:43.395Z</time></trkpt><trkpt lat="42.412005" lon="14.15003"><ele>19.0</ele><time>2026-04-26T14:07:44.426Z</time></trkpt><trkpt lat="42.4121783" lon="14.150165"><ele>17.0</ele><time>2026-04-26T14:07:45.394Z</time></trkpt><trkpt lat="42.41235" lon="14.1502983"><ele>15.0</ele><time>2026-04-26T14:07:46.396Z</time></trkpt><trkpt lat="42.4125183" lon="14.1504283"><ele>15.0</ele><time>2026-04-26T14:07:47.389Z</time></trkpt><trkpt lat="42.412685" lon="14.15056"><ele>15.0</ele><time>2026-04-26T14:07:48.398Z</time></trkpt><trkpt lat="42.4128483" lon="14.1506983"><ele>15.0</ele><time>2026-04-26T14:07:49.387Z</time></trkpt><trkpt lat="42.4130033" lon="14.1508433"><ele>15.0</ele><time>2026-04-26T14:07:50.417Z</time></trkpt><trkpt lat="42.413155" lon="14.150995"><ele>15.0</ele><time>2026-04-26T14:07:51.397Z</time></trkpt><trkpt lat="42.4133" lon="14.15115"><ele>15.0</ele><time>2026-04-26T14:07:52.398Z</time></trkpt><trkpt lat="42.4134433" lon="14.151305"><ele>15.0</ele><time>2026-04-26T14:07:53.393Z</time></trkpt><trkpt lat="42.4135883" lon="14.151455"><ele>15.0</ele><time>2026-04-26T14:07:54.385Z</time></trkpt><trkpt lat="42.41374" lon="14.151595"><ele>15.0</ele><time>2026-04-26T14:07:55.383Z</time></trkpt><trkpt lat="42.4138983" lon="14.1517133"><ele>15.333333333333332</ele><time>2026-04-26T14:07:56.446Z</time></trkpt><trkpt lat="42.41406" lon="14.1518117"><ele>15.666666666666666</ele><time>2026-04-26T14:07:57.389Z</time></trkpt><trkpt lat="42.41423" lon="14.151895"><ele>16.0</ele><time>2026-04-26T14:07:58.392Z</time></trkpt><trkpt lat="42.414405" lon="14.1519683"><ele>16.0</ele><time>2026-04-26T14:07:59.391Z</time></trkpt><trkpt lat="42.4145817" lon="14.152025"><ele>16.0</ele><time>2026-04-26T14:08:00.395Z</time></trkpt><trkpt lat="42.41476" lon="14.1520683"><ele>16.0</ele><time>2026-04-26T14:08:01.395Z</time></trkpt><trkpt lat="42.4149417" lon="14.152095"><ele>16.0</ele><time>2026-04-26T14:08:02.445Z</time></trkpt><trkpt lat="42.4151233" lon="14.1521067"><ele>16.0</ele><time>2026-04-26T14:08:03.387Z</time></trkpt><trkpt lat="42.41531" lon="14.152115"><ele>16.0</ele><time>2026-04-26T14:08:04.384Z</time></trkpt><trkpt lat="42.4154917" lon="14.1521267"><ele>16.0</ele><time>2026-04-26T14:08:05.389Z</time></trkpt><trkpt lat="42.4156717" lon="14.1521367"><ele>16.0</ele><time>2026-04-26T14:08:06.393Z</time></trkpt><trkpt lat="42.41585" lon="14.1521667"><ele>16.0</ele><time>2026-04-26T14:08:07.395Z</time></trkpt><trkpt lat="42.416025" lon="14.1522133"><ele>16.0</ele><time>2026-04-26T14:08:08.422Z</time></trkpt><trkpt lat="42.4161867" lon="14.1522933"><ele>16.0</ele><time>2026-04-26T14:08:09.4Z</time></trkpt><trkpt lat="42.4163317" lon="14.1524067"><ele>16.0</ele><time>2026-04-26T14:08:10.399Z</time></trkpt><trkpt lat="42.416465" lon="14.1525533"><ele>17.333333333333332</ele><time>2026-04-26T14:08:11.395Z</time></trkpt><trkpt lat="42.4165967" lon="14.1527117"><ele>18.666666666666668</ele><time>2026-04-26T14:08:12.389Z</time></trkpt><trkpt lat="42.416725" lon="14.15289"><ele>20.0</ele><time>2026-04-26T14:08:13.39Z</time></trkpt><trkpt lat="42.4168533" lon="14.1530767"><ele>19.666666666666668</ele><time>2026-04-26T14:08:14.408Z</time></trkpt><trkpt lat="42.416985" lon="14.153265"><ele>19.333333333333332</ele><time>2026-04-26T14:08:15.39Z</time></trkpt><trkpt lat="42.4171183" lon="14.15345"><ele>19.0</ele><time>2026-04-26T14:08:16.391Z</time></trkpt><trkpt lat="42.41725" lon="14.1536267"><ele>19.0</ele><time>2026-04-26T14:08:17.393Z</time></trkpt><trkpt lat="42.4173767" lon="14.1537983"><ele>19.0</ele><time>2026-04-26T14:08:18.398Z</time></trkpt><trkpt lat="42.4175017" lon="14.153965"><ele>19.0</ele><time>2026-04-26T14:08:19.394Z</time></trkpt><trkpt lat="42.4176167" lon="14.1541267"><ele>19.0</ele><time>2026-04-26T14:08:20.417Z</time></trkpt><trkpt lat="42.4177283" lon="14.1542767"><ele>19.0</ele><time>2026-04-26T14:08:21.394Z</time></trkpt><trkpt lat="42.4178317" lon="14.1544167"><ele>19.0</ele><time>2026-04-26T14:08:22.4Z</time></trkpt><trkpt lat="42.4179283" lon="14.1545517"><ele>19.0</ele><time>2026-04-26T14:08:23.399Z</time></trkpt><trkpt lat="42.4180183" lon="14.1546767"><ele>19.0</ele><time>2026-04-26T14:08:24.394Z</time></trkpt><trkpt lat="42.41811" lon="14.154795"><ele>19.0</ele><time>2026-04-26T14:08:25.396Z</time></trkpt><trkpt lat="42.4182017" lon="14.1549133"><ele>19.0</ele><time>2026-04-26T14:08:26.458Z</time></trkpt><trkpt lat="42.4182967" lon="14.155035"><ele>19.0</ele><time>2026-04-26T14:08:27.388Z</time></trkpt><trkpt lat="42.4183933" lon="14.155155"><ele>18.5</ele><time>2026-04-26T14:08:28.382Z</time></trkpt><trkpt lat="42.4184883" lon="14.15528"><ele>18.0</ele><time>2026-04-26T14:08:29.387Z</time></trkpt><trkpt lat="42.418575" lon="14.1554"><ele>17.5</ele><time>2026-04-26T14:08:30.389Z</time></trkpt><trkpt lat="42.418655" lon="14.1555133"><ele>17.0</ele><time>2026-04-26T14:08:31.396Z</time></trkpt><trkpt lat="42.41873" lon="14.1556167"><ele>17.2</ele><time>2026-04-26T14:08:32.442Z</time></trkpt><trkpt lat="42.4188017" lon="14.15572"><ele>17.4</ele><time>2026-04-26T14:08:33.392Z</time></trkpt><trkpt lat="42.4188667" lon="14.1558167"><ele>17.6</ele><time>2026-04-26T14:08:34.392Z</time></trkpt><trkpt lat="42.4189317" lon="14.1559133"><ele>17.8</ele><time>2026-04-26T14:08:35.394Z</time></trkpt><trkpt lat="42.4189933" lon="14.15601"><ele>18.0</ele><time>2026-04-26T14:08:36.388Z</time></trkpt><trkpt lat="42.4190617" lon="14.156105"><ele>19.0</ele><time>2026-04-26T14:08:37.39Z</time></trkpt><trkpt lat="42.4191367" lon="14.1561967"><ele>20.0</ele><time>2026-04-26T14:08:38.418Z</time></trkpt><trkpt lat="42.41922" lon="14.156285"><ele>21.0</ele><time>2026-04-26T14:08:39.393Z</time></trkpt><trkpt lat="42.4193167" lon="14.15636"><ele>22.0</ele><time>2026-04-26T14:08:40.385Z</time></trkpt><trkpt lat="42.4194367" lon="14.1564233"><ele>23.0</ele><time>2026-04-26T14:08:41.392Z</time></trkpt><trkpt lat="42.4195783" lon="14.1564917"><ele>22.0</ele><time>2026-04-26T14:08:42.399Z</time></trkpt><trkpt lat="42.4197483" lon="14.156565"><ele>21.0</ele><time>2026-04-26T14:08:43.396Z</time></trkpt><trkpt lat="42.419935" lon="14.1566467"><ele>20.0</ele><time>2026-04-26T14:08:44.415Z</time></trkpt><trkpt lat="42.4201283" lon="14.1567317"><ele>20.0</ele><time>2026-04-26T14:08:45.396Z</time></trkpt><trkpt lat="42.4203333" lon="14.1568083"><ele>20.0</ele><time>2026-04-26T14:08:46.395Z</time></trkpt><trkpt lat="42.42054" lon="14.1568867"><ele>20.0</ele><time>2026-04-26T14:08:47.395Z</time></trkpt><trkpt lat="42.42074" lon="14.1569667"><ele>20.333333333333336</ele><time>2026-04-26T14:08:48.39Z</time></trkpt><trkpt lat="42.4209317" lon="14.1570417"><ele>20.666666666666668</ele><time>2026-04-26T14:08:49.393Z</time></trkpt><trkpt lat="42.4211133" lon="14.1571167"><ele>21.0</ele><time>2026-04-26T14:08:50.407Z</time></trkpt><trkpt lat="42.4212917" lon="14.15719"><ele>21.666666666666668</ele><time>2026-04-26T14:08:51.384Z</time></trkpt><trkpt lat="42.4214567" lon="14.1572683"><ele>22.333333333333336</ele><time>2026-04-26T14:08:52.393Z</time></trkpt><trkpt lat="42.4216183" lon="14.1573367"><ele>23.0</ele><time>2026-04-26T14:08:53.393Z</time></trkpt><trkpt lat="42.42177" lon="14.157395"><ele>22.25</ele><time>2026-04-26T14:08:54.398Z</time></trkpt><trkpt lat="42.4219083" lon="14.1574383"><ele>21.5</ele><time>2026-04-26T14:08:55.398Z</time></trkpt><trkpt lat="42.4220417" lon="14.15746"><ele>20.75</ele><time>2026-04-26T14:08:56.453Z</time></trkpt><trkpt lat="42.4221633" lon="14.157465"><ele>20.0</ele><time>2026-04-26T14:08:57.394Z</time></trkpt><trkpt lat="42.422275" lon="14.157465"><ele>20.0</ele><time>2026-04-26T14:08:58.399Z</time></trkpt><trkpt lat="42.422375" lon="14.1574867"><ele>20.0</ele><time>2026-04-26T14:08:59.395Z</time></trkpt><trkpt lat="42.4224783" lon="14.1575367"><ele>20.0</ele><time>2026-04-26T14:09:00.398Z</time></trkpt><trkpt lat="42.4225883" lon="14.1576067"><ele>20.0</ele><time>2026-04-26T14:09:01.395Z</time></trkpt><trkpt lat="42.42271" lon="14.1576917"><ele>20.0</ele><time>2026-04-26T14:09:02.442Z</time></trkpt><trkpt lat="42.4228367" lon="14.157775"><ele>20.0</ele><time>2026-04-26T14:09:03.39Z</time></trkpt><trkpt lat="42.4229733" lon="14.1578533"><ele>20.0</ele><time>2026-04-26T14:09:04.395Z</time></trkpt><trkpt lat="42.423115" lon="14.1579167"><ele>20.0</ele><time>2026-04-26T14:09:05.396Z</time></trkpt><trkpt lat="42.4232617" lon="14.1579733"><ele>19.333333333333336</ele><time>2026-04-26T14:09:06.394Z</time></trkpt><trkpt lat="42.42341" lon="14.1580333"><ele>18.666666666666668</ele><time>2026-04-26T14:09:07.394Z</time></trkpt><trkpt lat="42.4235533" lon="14.1580917"><ele>18.0</ele><time>2026-04-26T14:09:08.423Z</time></trkpt><trkpt lat="42.4236983" lon="14.1581517"><ele>17.75</ele><time>2026-04-26T14:09:09.392Z</time></trkpt><trkpt lat="42.4238383" lon="14.1582117"><ele>17.5</ele><time>2026-04-26T14:09:10.394Z</time></trkpt><trkpt lat="42.4239783" lon="14.158275"><ele>17.25</ele><time>2026-04-26T14:09:11.387Z</time></trkpt><trkpt lat="42.4241183" lon="14.1583367"><ele>17.0</ele><time>2026-04-26T14:09:12.392Z</time></trkpt><trkpt lat="42.424255" lon="14.1583933"><ele>17.0</ele><time>2026-04-26T14:09:13.392Z</time></trkpt><trkpt lat="42.42439" lon="14.1584533"><ele>17.0</ele><time>2026-04-26T14:09:14.413Z</time></trkpt><trkpt lat="42.424525" lon="14.1585083"><ele>17.0</ele><time>2026-04-26T14:09:15.392Z</time></trkpt><trkpt lat="42.4246583" lon="14.1585617"><ele>17.0</ele><time>2026-04-26T14:09:16.396Z</time></trkpt><trkpt lat="42.424795" lon="14.1586183"><ele>17.25</ele><time>2026-04-26T14:09:17.392Z</time></trkpt><trkpt lat="42.4249283" lon="14.1586733"><ele>17.5</ele><time>2026-04-26T14:09:18.398Z</time></trkpt><trkpt lat="42.4250633" lon="14.1587283"><ele>17.75</ele><time>2026-04-26T14:09:19.392Z</time></trkpt><trkpt lat="42.425195" lon="14.1587767"><ele>18.0</ele><time>2026-04-26T14:09:20.419Z</time></trkpt><trkpt lat="42.42533" lon="14.1588333"><ele>18.0</ele><time>2026-04-26T14:09:21.395Z</time></trkpt><trkpt lat="42.4254667" lon="14.158895"><ele>18.0</ele><time>2026-04-26T14:09:22.392Z</time></trkpt><trkpt lat="42.4256033" lon="14.1589633"><ele>18.0</ele><time>2026-04-26T14:09:23.394Z</time></trkpt><trkpt lat="42.4257417" lon="14.159035"><ele>18.0</ele><time>2026-04-26T14:09:24.391Z</time></trkpt><trkpt lat="42.4258783" lon="14.1591117"><ele>18.25</ele><time>2026-04-26T14:09:25.396Z</time></trkpt><trkpt lat="42.426015" lon="14.15919"><ele>18.5</ele><time>2026-04-26T14:09:26.451Z</time></trkpt><trkpt lat="42.4261517" lon="14.1592733"><ele>18.75</ele><time>2026-04-26T14:09:27.393Z</time></trkpt><trkpt lat="42.426285" lon="14.15936"><ele>19.0</ele><time>2026-04-26T14:09:28.393Z</time></trkpt><trkpt lat="42.42642" lon="14.1594467"><ele>19.25</ele><time>2026-04-26T14:09:29.396Z</time></trkpt><trkpt lat="42.4265517" lon="14.1595383"><ele>19.5</ele><time>2026-04-26T14:09:30.394Z</time></trkpt><trkpt lat="42.426685" lon="14.1596333"><ele>19.75</ele><time>2026-04-26T14:09:31.387Z</time></trkpt><trkpt lat="42.426815" lon="14.1597317"><ele>20.0</ele><time>2026-04-26T14:09:32.458Z</time></trkpt><trkpt lat="42.4269417" lon="14.15983"><ele>19.75</ele><time>2026-04-26T14:09:33.387Z</time></trkpt><trkpt lat="42.4270667" lon="14.1599317"><ele>19.5</ele><time>2026-04-26T14:09:34.386Z</time></trkpt><trkpt lat="42.4271883" lon="14.1600333"><ele>19.25</ele><time>2026-04-26T14:09:35.39Z</time></trkpt><trkpt lat="42.4273117" lon="14.1601383"><ele>19.0</ele><time>2026-04-26T14:09:36.388Z</time></trkpt><trkpt lat="42.4274367" lon="14.1602433"><ele>18.666666666666664</ele><time>2026-04-26T14:09:37.392Z</time></trkpt><trkpt lat="42.427565" lon="14.1603567"><ele>18.333333333333332</ele><time>2026-04-26T14:09:38.417Z</time></trkpt><trkpt lat="42.427695" lon="14.1604833"><ele>18.0</ele><time>2026-04-26T14:09:39.397Z</time></trkpt><trkpt lat="42.4278217" lon="14.16061"><ele>18.0</ele><time>2026-04-26T14:09:40.396Z</time></trkpt><trkpt lat="42.42795" lon="14.1607367"><ele>18.0</ele><time>2026-04-26T14:09:41.395Z</time></trkpt><trkpt lat="42.4280817" lon="14.160865"><ele>18.0</ele><time>2026-04-26T14:09:42.387Z</time></trkpt><trkpt lat="42.42821" lon="14.1609933"><ele>17.666666666666668</ele><time>2026-04-26T14:09:43.388Z</time></trkpt><trkpt lat="42.4283367" lon="14.1611183"><ele>17.333333333333336</ele><time>2026-04-26T14:09:44.411Z</time></trkpt><trkpt lat="42.4284633" lon="14.1612417"><ele>17.0</ele><time>2026-04-26T14:09:45.385Z</time></trkpt><trkpt lat="42.4285833" lon="14.1613583"><ele>17.0</ele><time>2026-04-26T14:09:46.391Z</time></trkpt><trkpt lat="42.4286967" lon="14.16147"><ele>17.0</ele><time>2026-04-26T14:09:47.392Z</time></trkpt><trkpt lat="42.428805" lon="14.1615783"><ele>17.0</ele><time>2026-04-26T14:09:48.393Z</time></trkpt><trkpt lat="42.4289067" lon="14.1616833"><ele>17.0</ele><time>2026-04-26T14:09:49.388Z</time></trkpt><trkpt lat="42.4290033" lon="14.1617817"><ele>19.5</ele><time>2026-04-26T14:09:50.41Z</time></trkpt><trkpt lat="42.4290967" lon="14.16188"><ele>22.0</ele><time>2026-04-26T14:09:51.39Z</time></trkpt><trkpt lat="42.42919" lon="14.1619783"><ele>24.5</ele><time>2026-04-26T14:09:52.385Z</time></trkpt><trkpt lat="42.429285" lon="14.16208"><ele>27.0</ele><time>2026-04-26T14:09:53.387Z</time></trkpt><trkpt lat="42.4293767" lon="14.1621767"><ele>27.0</ele><time>2026-04-26T14:09:54.389Z</time></trkpt><trkpt lat="42.429465" lon="14.1622667"><ele>27.0</ele><time>2026-04-26T14:09:55.392Z</time></trkpt><trkpt lat="42.4295567" lon="14.1623583"><ele>27.0</ele><time>2026-04-26T14:09:56.453Z</time></trkpt><trkpt lat="42.4296517" lon="14.162445"><ele>27.0</ele><time>2026-04-26T14:09:57.389Z</time></trkpt><trkpt lat="42.42975" lon="14.1625267"><ele>25.5</ele><time>2026-04-26T14:09:58.392Z</time></trkpt><trkpt lat="42.429855" lon="14.1626"><ele>24.0</ele><time>2026-04-26T14:09:59.39Z</time></trkpt><trkpt lat="42.429965" lon="14.16266"><ele>22.5</ele><time>2026-04-26T14:10:00.388Z</time></trkpt><trkpt lat="42.4300783" lon="14.1627083"><ele>21.0</ele><time>2026-04-26T14:10:01.389Z</time></trkpt><trkpt lat="42.4301933" lon="14.1627467"><ele>21.0</ele><time>2026-04-26T14:10:02.447Z</time></trkpt><trkpt lat="42.4303067" lon="14.1627717"><ele>21.0</ele><time>2026-04-26T14:10:03.392Z</time></trkpt><trkpt lat="42.4304167" lon="14.1627867"><ele>21.0</ele><time>2026-04-26T14:10:04.392Z</time></trkpt><trkpt lat="42.43053" lon="14.1628017"><ele>21.0</ele><time>2026-04-26T14:10:05.384Z</time></trkpt><trkpt lat="42.4306367" lon="14.1628133"><ele>21.0</ele><time>2026-04-26T14:10:06.396Z</time></trkpt><trkpt lat="42.43074" lon="14.162825"><ele>21.166666666666668</ele><time>2026-04-26T14:10:07.392Z</time></trkpt><trkpt lat="42.43084" lon="14.1628367"><ele>21.333333333333332</ele><time>2026-04-26T14:10:08.412Z</time></trkpt><trkpt lat="42.430935" lon="14.1628483"><ele>21.5</ele><time>2026-04-26T14:10:09.388Z</time></trkpt><trkpt lat="42.43102" lon="14.1628617"><ele>21.666666666666664</ele><time>2026-04-26T14:10:10.399Z</time></trkpt><trkpt lat="42.4311" lon="14.1628733"><ele>21.833333333333332</ele><time>2026-04-26T14:10:11.387Z</time></trkpt><trkpt lat="42.4311667" lon="14.1628817"><ele>22.0</ele><time>2026-04-26T14:10:12.395Z</time></trkpt><trkpt lat="42.4312467" lon="14.1628933"><ele>22.0</ele><time>2026-04-26T14:10:14.411Z</time></trkpt><trkpt lat="42.431325" lon="14.1628633"><ele>22.0</ele><time>2026-04-26T14:10:22.392Z</time></trkpt><trkpt lat="42.4313433" lon="14.1627517"><ele>22.0</ele><time>2026-04-26T14:10:24.388Z</time></trkpt><trkpt lat="42.431325" lon="14.1626633"><ele>22.0</ele><time>2026-04-26T14:10:25.39Z</time></trkpt><trkpt lat="42.4312867" lon="14.16255"><ele>22.0</ele><time>2026-04-26T14:10:26.454Z</time></trkpt><trkpt lat="42.4312333" lon="14.1624067"><ele>22.0</ele><time>2026-04-26T14:10:27.385Z</time></trkpt><trkpt lat="42.4311717" lon="14.1622433"><ele>22.25</ele><time>2026-04-26T14:10:28.392Z</time></trkpt><trkpt lat="42.4311117" lon="14.1620717"><ele>22.5</ele><time>2026-04-26T14:10:29.389Z</time></trkpt><trkpt lat="42.4310583" lon="14.16188"><ele>22.75</ele><time>2026-04-26T14:10:30.392Z</time></trkpt><trkpt lat="42.43101" lon="14.1616817"><ele>23.0</ele><time>2026-04-26T14:10:31.391Z</time></trkpt><trkpt lat="42.4309717" lon="14.1614817"><ele>24.0</ele><time>2026-04-26T14:10:32.444Z</time></trkpt><trkpt lat="42.4309517" lon="14.161275"><ele>25.0</ele><time>2026-04-26T14:10:33.39Z</time></trkpt><trkpt lat="42.4309483" lon="14.161085"><ele>26.0</ele><time>2026-04-26T14:10:34.392Z</time></trkpt><trkpt lat="42.4309667" lon="14.1609033"><ele>27.0</ele><time>2026-04-26T14:10:35.398Z</time></trkpt><trkpt lat="42.43103" lon="14.1607267"><ele>27.0</ele><time>2026-04-26T14:10:36.386Z</time></trkpt><trkpt lat="42.4311083" lon="14.1605467"><ele>27.0</ele><time>2026-04-26T14:10:37.385Z</time></trkpt><trkpt lat="42.4311883" lon="14.1603667"><ele>27.0</ele><time>2026-04-26T14:10:38.416Z</time></trkpt><trkpt lat="42.431265" lon="14.1601867"><ele>28.0</ele><time>2026-04-26T14:10:39.391Z</time></trkpt><trkpt lat="42.4313417" lon="14.1600033"><ele>29.0</ele><time>2026-04-26T14:10:40.384Z</time></trkpt><trkpt lat="42.4314167" lon="14.15982"><ele>30.0</ele><time>2026-04-26T14:10:41.386Z</time></trkpt><trkpt lat="42.4314917" lon="14.1596367"><ele>30.666666666666664</ele><time>2026-04-26T14:10:42.387Z</time></trkpt><trkpt lat="42.4315633" lon="14.159455"><ele>31.333333333333332</ele><time>2026-04-26T14:10:43.393Z</time></trkpt><trkpt lat="42.4316367" lon="14.1592733"><ele>32.0</ele><time>2026-04-26T14:10:44.413Z</time></trkpt><trkpt lat="42.4317117" lon="14.1590933"><ele>32.33333333333333</ele><time>2026-04-26T14:10:45.39Z</time></trkpt><trkpt lat="42.4317867" lon="14.15891"><ele>32.666666666666664</ele><time>2026-04-26T14:10:46.388Z</time></trkpt><trkpt lat="42.4318617" lon="14.1587267"><ele>33.0</ele><time>2026-04-26T14:10:47.395Z</time></trkpt><trkpt lat="42.4319383" lon="14.158545"><ele>33.0</ele><time>2026-04-26T14:10:48.392Z</time></trkpt><trkpt lat="42.4320133" lon="14.1583633"><ele>33.0</ele><time>2026-04-26T14:10:49.389Z</time></trkpt><trkpt lat="42.432085" lon="14.158185"><ele>33.0</ele><time>2026-04-26T14:10:50.413Z</time></trkpt><trkpt lat="42.4321583" lon="14.1580067"><ele>35.0</ele><time>2026-04-26T14:10:51.391Z</time></trkpt><trkpt lat="42.432235" lon="14.1578317"><ele>37.0</ele><time>2026-04-26T14:10:52.393Z</time></trkpt><trkpt lat="42.432315" lon="14.1576667"><ele>39.0</ele><time>2026-04-26T14:10:53.388Z</time></trkpt><trkpt lat="42.4324033" lon="14.1575067"><ele>41.0</ele><time>2026-04-26T14:10:54.389Z</time></trkpt><trkpt lat="42.432505" lon="14.1573567"><ele>42.33333333333333</ele><time>2026-04-26T14:10:55.392Z</time></trkpt><trkpt lat="42.432625" lon="14.1572133"><ele>43.666666666666664</ele><time>2026-04-26T14:10:56.446Z</time></trkpt><trkpt lat="42.4327683" lon="14.1570617"><ele>45.0</ele><time>2026-04-26T14:10:57.397Z</time></trkpt><trkpt lat="42.4329317" lon="14.1568967"><ele>46.66666666666667</ele><time>2026-04-26T14:10:58.39Z</time></trkpt><trkpt lat="42.4331" lon="14.1567417"><ele>48.333333333333336</ele><time>2026-04-26T14:10:59.394Z</time></trkpt><trkpt lat="42.433265" lon="14.1566"><ele>50.0</ele><time>2026-04-26T14:11:00.391Z</time></trkpt><trkpt lat="42.4334217" lon="14.1564783"><ele>50.66666666666667</ele><time>2026-04-26T14:11:01.394Z</time></trkpt><trkpt lat="42.433575" lon="14.15636"><ele>51.33333333333333</ele><time>2026-04-26T14:11:02.441Z</time></trkpt><trkpt lat="42.4337267" lon="14.15625"><ele>52.0</ele><time>2026-04-26T14:11:03.386Z</time></trkpt><trkpt lat="42.4338767" lon="14.1561433"><ele>52.666666666666664</ele><time>2026-04-26T14:11:04.39Z</time></trkpt><trkpt lat="42.4340267" lon="14.1560367"><ele>53.33333333333333</ele><time>2026-04-26T14:11:05.395Z</time></trkpt><trkpt lat="42.4341733" lon="14.15593"><ele>54.0</ele><time>2026-04-26T14:11:06.397Z</time></trkpt><trkpt lat="42.4343233" lon="14.15582"><ele>54.0</ele><time>2026-04-26T14:11:07.384Z</time></trkpt><trkpt lat="42.4344733" lon="14.1557117"><ele>54.0</ele><time>2026-04-26T14:11:08.417Z</time></trkpt><trkpt lat="42.4346183" lon="14.155605"><ele>54.0</ele><time>2026-04-26T14:11:09.394Z</time></trkpt><trkpt lat="42.4347617" lon="14.1554983"><ele>55.66666666666667</ele><time>2026-04-26T14:11:10.394Z</time></trkpt><trkpt lat="42.434905" lon="14.15539"><ele>57.333333333333336</ele><time>2026-04-26T14:11:11.396Z</time></trkpt><trkpt lat="42.4350483" lon="14.1552833"><ele>59.0</ele><time>2026-04-26T14:11:12.394Z</time></trkpt><trkpt lat="42.4351917" lon="14.1551767"><ele>59.0</ele><time>2026-04-26T14:11:13.398Z</time></trkpt><trkpt lat="42.4353383" lon="14.1550683"><ele>59.0</ele><time>2026-04-26T14:11:14.416Z</time></trkpt><trkpt lat="42.4354883" lon="14.1549583"><ele>59.0</ele><time>2026-04-26T14:11:15.395Z</time></trkpt><trkpt lat="42.4356383" lon="14.1548467"><ele>60.333333333333336</ele><time>2026-04-26T14:11:16.394Z</time></trkpt><trkpt lat="42.4357883" lon="14.1547333"><ele>61.66666666666667</ele><time>2026-04-26T14:11:17.396Z</time></trkpt><trkpt lat="42.4359383" lon="14.15462"><ele>63.0</ele><time>2026-04-26T14:11:18.394Z</time></trkpt><trkpt lat="42.43609" lon="14.1545"><ele>63.0</ele><time>2026-04-26T14:11:19.394Z</time></trkpt><trkpt lat="42.4362417" lon="14.1543767"><ele>63.0</ele><time>2026-04-26T14:11:20.424Z</time></trkpt><trkpt lat="42.43639" lon="14.15425"><ele>63.0</ele><time>2026-04-26T14:11:21.403Z</time></trkpt><trkpt lat="42.4365367" lon="14.1541233"><ele>65.33333333333333</ele><time>2026-04-26T14:11:22.387Z</time></trkpt><trkpt lat="42.4366817" lon="14.1539983"><ele>67.66666666666666</ele><time>2026-04-26T14:11:23.386Z</time></trkpt><trkpt lat="42.436825" lon="14.1538783"><ele>70.0</ele><time>2026-04-26T14:11:24.39Z</time></trkpt><trkpt lat="42.4369667" lon="14.1537583"><ele>70.0</ele><time>2026-04-26T14:11:25.393Z</time></trkpt><trkpt lat="42.4371083" lon="14.1536383"><ele>70.0</ele><time>2026-04-26T14:11:26.448Z</time></trkpt><trkpt lat="42.4372517" lon="14.153525"><ele>70.0</ele><time>2026-04-26T14:11:27.384Z</time></trkpt><trkpt lat="42.437395" lon="14.15342"><ele>69.75</ele><time>2026-04-26T14:11:28.382Z</time></trkpt><trkpt lat="42.4375367" lon="14.1533333"><ele>69.5</ele><time>2026-04-26T14:11:29.387Z</time></trkpt><trkpt lat="42.437675" lon="14.1532683"><ele>69.25</ele><time>2026-04-26T14:11:30.394Z</time></trkpt><trkpt lat="42.4378067" lon="14.1532217"><ele>69.0</ele><time>2026-04-26T14:11:31.392Z</time></trkpt><trkpt lat="42.4379367" lon="14.1531833"><ele>67.5</ele><time>2026-04-26T14:11:32.443Z</time></trkpt><trkpt lat="42.4380683" lon="14.1531467"><ele>66.0</ele><time>2026-04-26T14:11:33.383Z</time></trkpt><trkpt lat="42.4381983" lon="14.1531017"><ele>64.5</ele><time>2026-04-26T14:11:34.39Z</time></trkpt><trkpt lat="42.438325" lon="14.15304"><ele>63.0</ele><time>2026-04-26T14:11:35.398Z</time></trkpt><trkpt lat="42.43845" lon="14.15296"><ele>63.0</ele><time>2026-04-26T14:11:36.394Z</time></trkpt><trkpt lat="42.43857" lon="14.1528583"><ele>63.0</ele><time>2026-04-26T14:11:37.389Z</time></trkpt><trkpt lat="42.4386883" lon="14.152735"><ele>63.0</ele><time>2026-04-26T14:11:38.417Z</time></trkpt><trkpt lat="42.438805" lon="14.152595"><ele>63.0</ele><time>2026-04-26T14:11:39.387Z</time></trkpt><trkpt lat="42.4389183" lon="14.15244"><ele>66.33333333333333</ele><time>2026-04-26T14:11:40.394Z</time></trkpt><trkpt lat="42.439035" lon="14.152275"><ele>69.66666666666666</ele><time>2026-04-26T14:11:41.392Z</time></trkpt><trkpt lat="42.43915" lon="14.1521083"><ele>73.0</ele><time>2026-04-26T14:11:42.392Z</time></trkpt><trkpt lat="42.4392667" lon="14.1519533"><ele>73.0</ele><time>2026-04-26T14:11:43.387Z</time></trkpt><trkpt lat="42.4393867" lon="14.151815"><ele>73.0</ele><time>2026-04-26T14:11:44.416Z</time></trkpt><trkpt lat="42.43951" lon="14.1516917"><ele>73.0</ele><time>2026-04-26T14:11:45.382Z</time></trkpt><trkpt lat="42.43964" lon="14.1515917"><ele>74.0</ele><time>2026-04-26T14:11:46.393Z</time></trkpt><trkpt lat="42.4397767" lon="14.15151"><ele>75.0</ele><time>2026-04-26T14:11:47.395Z</time></trkpt><trkpt lat="42.43992" lon="14.1514417"><ele>76.0</ele><time>2026-04-26T14:11:48.395Z</time></trkpt><trkpt lat="42.4400667" lon="14.1513733"><ele>76.0</ele><time>2026-04-26T14:11:49.381Z</time></trkpt><trkpt lat="42.44021" lon="14.1512867"><ele>76.0</ele><time>2026-04-26T14:11:50.418Z</time></trkpt><trkpt lat="42.44035" lon="14.1511867"><ele>76.0</ele><time>2026-04-26T14:11:51.389Z</time></trkpt><trkpt lat="42.44049" lon="14.1510817"><ele>80.0</ele><time>2026-04-26T14:11:52.396Z</time></trkpt><trkpt lat="42.4406333" lon="14.1509817"><ele>84.0</ele><time>2026-04-26T14:11:53.393Z</time></trkpt><trkpt lat="42.4407767" lon="14.1508967"><ele>88.0</ele><time>2026-04-26T14:11:54.393Z</time></trkpt><trkpt lat="42.4409183" lon="14.1508317"><ele>88.0</ele><time>2026-04-26T14:11:55.394Z</time></trkpt><trkpt lat="42.4410583" lon="14.1507917"><ele>88.0</ele><time>2026-04-26T14:11:56.449Z</time></trkpt><trkpt lat="42.4411967" lon="14.15078"><ele>88.0</ele><time>2026-04-26T14:11:57.393Z</time></trkpt><trkpt lat="42.4413333" lon="14.15081"><ele>88.0</ele><time>2026-04-26T14:11:58.393Z</time></trkpt><trkpt lat="42.4414733" lon="14.150865"><ele>89.0</ele><time>2026-04-26T14:11:59.387Z</time></trkpt><trkpt lat="42.4416233" lon="14.15092"><ele>90.0</ele><time>2026-04-26T14:12:00.386Z</time></trkpt><trkpt lat="42.4417767" lon="14.1509583"><ele>91.0</ele><time>2026-04-26T14:12:01.388Z</time></trkpt><trkpt lat="42.4419367" lon="14.15097"><ele>91.0</ele><time>2026-04-26T14:12:02.449Z</time></trkpt><trkpt lat="42.4420883" lon="14.1509483"><ele>91.0</ele><time>2026-04-26T14:12:03.386Z</time></trkpt><trkpt lat="42.4422217" lon="14.1508683"><ele>91.0</ele><time>2026-04-26T14:12:04.394Z</time></trkpt><trkpt lat="42.44233" lon="14.1507567"><ele>91.0</ele><time>2026-04-26T14:12:05.384Z</time></trkpt><trkpt lat="42.4424067" lon="14.1506117"><ele>92.0</ele><time>2026-04-26T14:12:06.389Z</time></trkpt><trkpt lat="42.4424617" lon="14.150435"><ele>93.0</ele><time>2026-04-26T14:12:07.388Z</time></trkpt><trkpt lat="42.4424967" lon="14.150225"><ele>94.0</ele><time>2026-04-26T14:12:08.416Z</time></trkpt><trkpt lat="42.442535" lon="14.1500017"><ele>95.33333333333333</ele><time>2026-04-26T14:12:09.39Z</time></trkpt><trkpt lat="42.4425833" lon="14.14977"><ele>96.66666666666666</ele><time>2026-04-26T14:12:10.39Z</time></trkpt><trkpt lat="42.44264" lon="14.1495417"><ele>98.0</ele><time>2026-04-26T14:12:11.386Z</time></trkpt><trkpt lat="42.4427033" lon="14.1493217"><ele>98.0</ele><time>2026-04-26T14:12:12.391Z</time></trkpt><trkpt lat="42.442775" lon="14.1491117"><ele>98.0</ele><time>2026-04-26T14:12:13.391Z</time></trkpt><trkpt lat="42.4428567" lon="14.1489117"><ele>98.0</ele><time>2026-04-26T14:12:14.416Z</time></trkpt><trkpt lat="42.44295" lon="14.14872"><ele>100.0</ele><time>2026-04-26T14:12:15.383Z</time></trkpt><trkpt lat="42.4430567" lon="14.1485417"><ele>102.0</ele><time>2026-04-26T14:12:16.382Z</time></trkpt><trkpt lat="42.44317" lon="14.1483717"><ele>104.0</ele><time>2026-04-26T14:12:17.389Z</time></trkpt><trkpt lat="42.443285" lon="14.1482017"><ele>109.0</ele><time>2026-04-26T14:12:18.391Z</time></trkpt><trkpt lat="42.4434033" lon="14.1480317"><ele>114.0</ele><time>2026-04-26T14:12:19.395Z</time></trkpt><trkpt lat="42.44352" lon="14.1478683"><ele>119.0</ele><time>2026-04-26T14:12:20.415Z</time></trkpt><trkpt lat="42.44364" lon="14.1477217"><ele>119.0</ele><time>2026-04-26T14:12:21.389Z</time></trkpt><trkpt lat="42.4437617" lon="14.1476033"><ele>119.0</ele><time>2026-04-26T14:12:22.395Z</time></trkpt><trkpt lat="42.4438833" lon="14.1475233"><ele>119.0</ele><time>2026-04-26T14:12:23.394Z</time></trkpt><trkpt lat="42.4440133" lon="14.1474667"><ele>119.0</ele><time>2026-04-26T14:12:24.395Z</time></trkpt><trkpt lat="42.4441483" lon="14.1474267"><ele>117.75</ele><time>2026-04-26T14:12:25.385Z</time></trkpt><trkpt lat="42.4442783" lon="14.1473883"><ele>116.5</ele><time>2026-04-26T14:12:26.445Z</time></trkpt><trkpt lat="42.4443917" lon="14.1473317"><ele>115.25</ele><time>2026-04-26T14:12:27.387Z</time></trkpt><trkpt lat="42.4444833" lon="14.1472467"><ele>114.0</ele><time>2026-04-26T14:12:28.386Z</time></trkpt><trkpt lat="42.4445583" lon="14.1471367"><ele>115.75</ele><time>2026-04-26T14:12:29.391Z</time></trkpt><trkpt lat="42.44462" lon="14.1470167"><ele>117.5</ele><time>2026-04-26T14:12:30.391Z</time></trkpt><trkpt lat="42.444685" lon="14.14689"><ele>119.25</ele><time>2026-04-26T14:12:31.396Z</time></trkpt><trkpt lat="42.44476" lon="14.146765"><ele>121.0</ele><time>2026-04-26T14:12:32.446Z</time></trkpt><trkpt lat="42.4448433" lon="14.1466283"><ele>122.66666666666667</ele><time>2026-04-26T14:12:33.394Z</time></trkpt><trkpt lat="42.4449317" lon="14.1464767"><ele>124.33333333333334</ele><time>2026-04-26T14:12:34.393Z</time></trkpt><trkpt lat="42.44502" lon="14.14631"><ele>126.0</ele><time>2026-04-26T14:12:35.389Z</time></trkpt><trkpt lat="42.4451183" lon="14.1461267"><ele>126.0</ele><time>2026-04-26T14:12:36.392Z</time></trkpt><trkpt lat="42.44522" lon="14.1459383"><ele>126.0</ele><time>2026-04-26T14:12:37.392Z</time></trkpt><trkpt lat="42.4453217" lon="14.1457533"><ele>126.0</ele><time>2026-04-26T14:12:38.417Z</time></trkpt><trkpt lat="42.4454233" lon="14.1455783"><ele>124.0</ele><time>2026-04-26T14:12:39.393Z</time></trkpt><trkpt lat="42.44553" lon="14.14542"><ele>122.0</ele><time>2026-04-26T14:12:40.391Z</time></trkpt><trkpt lat="42.4456517" lon="14.1452767"><ele>120.0</ele><time>2026-04-26T14:12:41.393Z</time></trkpt><trkpt lat="42.4457867" lon="14.1451417"><ele>120.0</ele><time>2026-04-26T14:12:42.389Z</time></trkpt><trkpt lat="42.4459233" lon="14.14502"><ele>120.0</ele><time>2026-04-26T14:12:43.392Z</time></trkpt><trkpt lat="42.4460617" lon="14.144915"><ele>120.0</ele><time>2026-04-26T14:12:44.416Z</time></trkpt><trkpt lat="42.4462067" lon="14.1448217"><ele>120.33333333333334</ele><time>2026-04-26T14:12:45.394Z</time></trkpt><trkpt lat="42.44636" lon="14.144745"><ele>120.66666666666667</ele><time>2026-04-26T14:12:46.397Z</time></trkpt><trkpt lat="42.4465217" lon="14.1446817"><ele>121.0</ele><time>2026-04-26T14:12:47.403Z</time></trkpt><trkpt lat="42.4466883" lon="14.1446267"><ele>121.0</ele><time>2026-04-26T14:12:48.388Z</time></trkpt><trkpt lat="42.4468533" lon="14.1445767"><ele>121.0</ele><time>2026-04-26T14:12:49.383Z</time></trkpt><trkpt lat="42.44701" lon="14.14453"><ele>121.0</ele><time>2026-04-26T14:12:50.406Z</time></trkpt><trkpt lat="42.4471517" lon="14.1444967"><ele>122.25</ele><time>2026-04-26T14:12:51.382Z</time></trkpt><trkpt lat="42.4472817" lon="14.14448"><ele>123.5</ele><time>2026-04-26T14:12:52.382Z</time></trkpt><trkpt lat="42.4473983" lon="14.1444933"><ele>124.75</ele><time>2026-04-26T14:12:53.388Z</time></trkpt><trkpt lat="42.44749" lon="14.1445583"><ele>126.0</ele><time>2026-04-26T14:12:54.389Z</time></trkpt><trkpt lat="42.4475583" lon="14.1446567"><ele>126.0</ele><time>2026-04-26T14:12:55.394Z</time></trkpt><trkpt lat="42.4475833" lon="14.1447733"><ele>126.0</ele><time>2026-04-26T14:12:56.444Z</time></trkpt><trkpt lat="42.44759" lon="14.1449083"><ele>126.0</ele><time>2026-04-26T14:12:57.384Z</time></trkpt><trkpt lat="42.447595" lon="14.1450617"><ele>126.0</ele><time>2026-04-26T14:12:58.393Z</time></trkpt><trkpt lat="42.4475967" lon="14.1452283"><ele>126.0</ele><time>2026-04-26T14:12:59.383Z</time></trkpt><trkpt lat="42.4476" lon="14.1454"><ele>126.25</ele><time>2026-04-26T14:13:00.39Z</time></trkpt><trkpt lat="42.4476167" lon="14.1455717"><ele>126.5</ele><time>2026-04-26T14:13:01.383Z</time></trkpt><trkpt lat="42.44765" lon="14.1457333"><ele>126.75</ele><time>2026-04-26T14:13:02.435Z</time></trkpt><trkpt lat="42.4477167" lon="14.1458767"><ele>127.0</ele><time>2026-04-26T14:13:03.384Z</time></trkpt><trkpt lat="42.4478133" lon="14.14601"><ele>127.5</ele><time>2026-04-26T14:13:04.382Z</time></trkpt><trkpt lat="42.447925" lon="14.1461333"><ele>128.0</ele><time>2026-04-26T14:13:05.388Z</time></trkpt><trkpt lat="42.4480467" lon="14.1462367"><ele>128.5</ele><time>2026-04-26T14:13:06.394Z</time></trkpt><trkpt lat="42.448175" lon="14.1463167"><ele>129.0</ele><time>2026-04-26T14:13:07.391Z</time></trkpt><trkpt lat="42.448315" lon="14.1463767"><ele>132.25</ele><time>2026-04-26T14:13:08.417Z</time></trkpt><trkpt lat="42.44846" lon="14.1464233"><ele>135.5</ele><time>2026-04-26T14:13:09.394Z</time></trkpt><trkpt lat="42.4486067" lon="14.146455"><ele>138.75</ele><time>2026-04-26T14:13:10.393Z</time></trkpt><trkpt lat="42.4487467" lon="14.14646"><ele>142.0</ele><time>2026-04-26T14:13:11.393Z</time></trkpt><trkpt lat="42.44888" lon="14.1464317"><ele>142.5</ele><time>2026-04-26T14:13:12.39Z</time></trkpt><trkpt lat="42.4490017" lon="14.1463717"><ele>143.0</ele><time>2026-04-26T14:13:13.383Z</time></trkpt><trkpt lat="42.4491083" lon="14.14628"><ele>143.5</ele><time>2026-04-26T14:13:14.41Z</time></trkpt><trkpt lat="42.4492017" lon="14.14616"><ele>144.0</ele><time>2026-04-26T14:13:15.382Z</time></trkpt><trkpt lat="42.4492883" lon="14.146025"><ele>144.0</ele><time>2026-04-26T14:13:16.392Z</time></trkpt><trkpt lat="42.4493717" lon="14.1458733"><ele>144.0</ele><time>2026-04-26T14:13:17.386Z</time></trkpt><trkpt lat="42.4494567" lon="14.1457117"><ele>144.0</ele><time>2026-04-26T14:13:18.383Z</time></trkpt><trkpt lat="42.4495417" lon="14.1455467"><ele>144.0</ele><time>2026-04-26T14:13:19.388Z</time></trkpt><trkpt lat="42.44962" lon="14.14538"><ele>143.33333333333334</ele><time>2026-04-26T14:13:20.415Z</time></trkpt><trkpt lat="42.4496967" lon="14.1452083"><ele>142.66666666666669</ele><time>2026-04-26T14:13:21.388Z</time></trkpt><trkpt lat="42.44977" lon="14.1450183"><ele>142.0</ele><time>2026-04-26T14:13:22.382Z</time></trkpt><trkpt lat="42.449835" lon="14.1448283"><ele>142.0</ele><time>2026-04-26T14:13:23.385Z</time></trkpt><trkpt lat="42.4498867" lon="14.1446317"><ele>142.0</ele><time>2026-04-26T14:13:24.391Z</time></trkpt><trkpt lat="42.4499267" lon="14.1444333"><ele>142.0</ele><time>2026-04-26T14:13:25.401Z</time></trkpt><trkpt lat="42.44995" lon="14.14423"><ele>140.66666666666669</ele><time>2026-04-26T14:13:26.446Z</time></trkpt><trkpt lat="42.4499567" lon="14.14402"><ele>139.33333333333334</ele><time>2026-04-26T14:13:27.397Z</time></trkpt><trkpt lat="42.44995" lon="14.1438017"><ele>138.0</ele><time>2026-04-26T14:13:28.392Z</time></trkpt><trkpt lat="42.4499383" lon="14.1435867"><ele>138.0</ele><time>2026-04-26T14:13:29.393Z</time></trkpt><trkpt lat="42.44992" lon="14.14337"><ele>138.0</ele><time>2026-04-26T14:13:30.385Z</time></trkpt><trkpt lat="42.4498933" lon="14.1431583"><ele>138.0</ele><time>2026-04-26T14:13:31.384Z</time></trkpt><trkpt lat="42.449855" lon="14.1429533"><ele>137.66666666666666</ele><time>2026-04-26T14:13:32.451Z</time></trkpt><trkpt lat="42.4498067" lon="14.1427517"><ele>137.33333333333331</ele><time>2026-04-26T14:13:33.388Z</time></trkpt><trkpt lat="42.44975" lon="14.142555"><ele>137.0</ele><time>2026-04-26T14:13:34.403Z</time></trkpt><trkpt lat="42.4496933" lon="14.1423733"><ele>137.6</ele><time>2026-04-26T14:13:35.394Z</time></trkpt><trkpt lat="42.44964" lon="14.1422067"><ele>138.2</ele><time>2026-04-26T14:13:36.392Z</time></trkpt><trkpt lat="42.449605" lon="14.142055"><ele>138.8</ele><time>2026-04-26T14:13:37.394Z</time></trkpt><trkpt lat="42.4495917" lon="14.1419217"><ele>139.4</ele><time>2026-04-26T14:13:38.416Z</time></trkpt><trkpt lat="42.449605" lon="14.1418033"><ele>140.0</ele><time>2026-04-26T14:13:39.384Z</time></trkpt><trkpt lat="42.44965" lon="14.1417083"><ele>140.0</ele><time>2026-04-26T14:13:40.39Z</time></trkpt><trkpt lat="42.4497133" lon="14.1416283"><ele>140.0</ele><time>2026-04-26T14:13:41.383Z</time></trkpt><trkpt lat="42.4497983" lon="14.14157"><ele>140.0</ele><time>2026-04-26T14:13:42.398Z</time></trkpt><trkpt lat="42.4498933" lon="14.1415133"><ele>140.0</ele><time>2026-04-26T14:13:43.393Z</time></trkpt><trkpt lat="42.4499933" lon="14.1414533"><ele>140.0</ele><time>2026-04-26T14:13:44.414Z</time></trkpt><trkpt lat="42.4501017" lon="14.141395"><ele>141.25</ele><time>2026-04-26T14:13:45.391Z</time></trkpt><trkpt lat="42.450215" lon="14.1413433"><ele>142.5</ele><time>2026-04-26T14:13:46.385Z</time></trkpt><trkpt lat="42.4503333" lon="14.1412967"><ele>143.75</ele><time>2026-04-26T14:13:47.393Z</time></trkpt><trkpt lat="42.4504533" lon="14.1412533"><ele>145.0</ele><time>2026-04-26T14:13:48.396Z</time></trkpt><trkpt lat="42.45058" lon="14.1412117"><ele>146.25</ele><time>2026-04-26T14:13:49.394Z</time></trkpt><trkpt lat="42.4507117" lon="14.1411683"><ele>147.5</ele><time>2026-04-26T14:13:50.417Z</time></trkpt><trkpt lat="42.4508483" lon="14.1411317"><ele>148.75</ele><time>2026-04-26T14:13:51.392Z</time></trkpt><trkpt lat="42.450985" lon="14.1410917"><ele>150.0</ele><time>2026-04-26T14:13:52.394Z</time></trkpt><trkpt lat="42.4511233" lon="14.1410517"><ele>150.0</ele><time>2026-04-26T14:13:53.39Z</time></trkpt><trkpt lat="42.4512583" lon="14.14101"><ele>150.0</ele><time>2026-04-26T14:13:54.386Z</time></trkpt><trkpt lat="42.4513967" lon="14.1409783"><ele>150.0</ele><time>2026-04-26T14:13:55.387Z</time></trkpt><trkpt lat="42.4515267" lon="14.1409483"><ele>150.0</ele><time>2026-04-26T14:13:56.446Z</time></trkpt><trkpt lat="42.4516617" lon="14.1409167"><ele>150.25</ele><time>2026-04-26T14:13:57.384Z</time></trkpt><trkpt lat="42.4517967" lon="14.1408867"><ele>150.5</ele><time>2026-04-26T14:13:58.388Z</time></trkpt><trkpt lat="42.45193" lon="14.14086"><ele>150.75</ele><time>2026-04-26T14:13:59.385Z</time></trkpt><trkpt lat="42.4520617" lon="14.14084"><ele>151.0</ele><time>2026-04-26T14:14:00.386Z</time></trkpt><trkpt lat="42.4521817" lon="14.1408133"><ele>151.0</ele><time>2026-04-26T14:14:01.387Z</time></trkpt><trkpt lat="42.4522833" lon="14.14079"><ele>151.0</ele><time>2026-04-26T14:14:02.449Z</time></trkpt><trkpt lat="42.4523767" lon="14.1407683"><ele>151.0</ele><time>2026-04-26T14:14:03.386Z</time></trkpt><trkpt lat="42.4524667" lon="14.1407467"><ele>151.0</ele><time>2026-04-26T14:14:04.388Z</time></trkpt><trkpt lat="42.45255" lon="14.1407317"><ele>151.0</ele><time>2026-04-26T14:14:05.39Z</time></trkpt><trkpt lat="42.4526283" lon="14.1407217"><ele>151.14285714285717</ele><time>2026-04-26T14:14:06.387Z</time></trkpt><trkpt lat="42.452705" lon="14.14071"><ele>151.28571428571428</ele><time>2026-04-26T14:14:07.384Z</time></trkpt><trkpt lat="42.4527817" lon="14.1406967"><ele>151.42857142857144</ele><time>2026-04-26T14:14:08.415Z</time></trkpt><trkpt lat="42.45286" lon="14.14068"><ele>151.57142857142858</ele><time>2026-04-26T14:14:09.385Z</time></trkpt><trkpt lat="42.4529333" lon="14.1406583"><ele>151.71428571428572</ele><time>2026-04-26T14:14:10.39Z</time></trkpt><trkpt lat="42.4530017" lon="14.1406383"><ele>151.85714285714286</ele><time>2026-04-26T14:14:11.392Z</time></trkpt><trkpt lat="42.4530633" lon="14.140615"><ele>152.0</ele><time>2026-04-26T14:14:12.394Z</time></trkpt><trkpt lat="42.4531283" lon="14.1405867"><ele>155.39999999999998</ele><time>2026-04-26T14:14:13.395Z</time></trkpt><trkpt lat="42.45321" lon="14.1405417"><ele>158.79999999999998</ele><time>2026-04-26T14:14:14.422Z</time></trkpt><trkpt lat="42.4533083" lon="14.1404817"><ele>162.2</ele><time>2026-04-26T14:14:15.39Z</time></trkpt><trkpt lat="42.4534167" lon="14.1404233"><ele>165.6</ele><time>2026-04-26T14:14:16.391Z</time></trkpt><trkpt lat="42.453525" lon="14.1403633"><ele>169.0</ele><time>2026-04-26T14:14:17.389Z</time></trkpt><trkpt lat="42.4536317" lon="14.1402967"><ele>169.0</ele><time>2026-04-26T14:14:18.397Z</time></trkpt><trkpt lat="42.45374" lon="14.14022"><ele>169.0</ele><time>2026-04-26T14:14:19.39Z</time></trkpt><trkpt lat="42.45384" lon="14.1401317"><ele>169.0</ele><time>2026-04-26T14:14:20.424Z</time></trkpt><trkpt lat="42.4539317" lon="14.140025"><ele>169.0</ele><time>2026-04-26T14:14:21.395Z</time></trkpt><trkpt lat="42.4540133" lon="14.1399"><ele>170.25</ele><time>2026-04-26T14:14:22.392Z</time></trkpt><trkpt lat="42.4540867" lon="14.1397567"><ele>171.5</ele><time>2026-04-26T14:14:23.4Z</time></trkpt><trkpt lat="42.4541567" lon="14.1396083"><ele>172.75</ele><time>2026-04-26T14:14:24.381Z</time></trkpt><trkpt lat="42.454225" lon="14.1394617"><ele>174.0</ele><time>2026-04-26T14:14:25.391Z</time></trkpt><trkpt lat="42.4542833" lon="14.139325"><ele>174.0</ele><time>2026-04-26T14:14:26.447Z</time></trkpt><trkpt lat="42.45434" lon="14.139205"><ele>174.0</ele><time>2026-04-26T14:14:27.392Z</time></trkpt><trkpt lat="42.454395" lon="14.1390983"><ele>174.0</ele><time>2026-04-26T14:14:28.392Z</time></trkpt><trkpt lat="42.454445" lon="14.1390017"><ele>174.0</ele><time>2026-04-26T14:14:29.392Z</time></trkpt><trkpt lat="42.4544917" lon="14.1389133"><ele>174.0</ele><time>2026-04-26T14:14:30.395Z</time></trkpt><trkpt lat="42.4545367" lon="14.1388283"><ele>174.0</ele><time>2026-04-26T14:14:31.384Z</time></trkpt><trkpt lat="42.454585" lon="14.13875"><ele>173.83333333333334</ele><time>2026-04-26T14:14:32.443Z</time></trkpt><trkpt lat="42.45463" lon="14.1386767"><ele>173.66666666666666</ele><time>2026-04-26T14:14:33.389Z</time></trkpt><trkpt lat="42.4546717" lon="14.13861"><ele>173.5</ele><time>2026-04-26T14:14:34.391Z</time></trkpt><trkpt lat="42.4547417" lon="14.1384833"><ele>173.33333333333331</ele><time>2026-04-26T14:14:36.384Z</time></trkpt><trkpt lat="42.4548183" lon="14.13835"><ele>173.16666666666666</ele><time>2026-04-26T14:14:38.417Z</time></trkpt><trkpt lat="42.454865" lon="14.138275"><ele>173.0</ele><time>2026-04-26T14:14:39.392Z</time></trkpt><trkpt lat="42.4549133" lon="14.138195"><ele>172.5</ele><time>2026-04-26T14:14:40.393Z</time></trkpt><trkpt lat="42.4549633" lon="14.1381067"><ele>172.0</ele><time>2026-04-26T14:14:41.391Z</time></trkpt><trkpt lat="42.45501" lon="14.1380117"><ele>171.5</ele><time>2026-04-26T14:14:42.392Z</time></trkpt><trkpt lat="42.4550433" lon="14.1379117"><ele>171.0</ele><time>2026-04-26T14:14:43.395Z</time></trkpt><trkpt lat="42.4550667" lon="14.1378033"><ele>170.5</ele><time>2026-04-26T14:14:44.421Z</time></trkpt><trkpt lat="42.4550767" lon="14.1376867"><ele>170.0</ele><time>2026-04-26T14:14:45.389Z</time></trkpt><trkpt lat="42.455085" lon="14.137575"><ele>170.0</ele><time>2026-04-26T14:14:46.393Z</time></trkpt><trkpt lat="42.455085" lon="14.1374717"><ele>170.0</ele><time>2026-04-26T14:14:47.388Z</time></trkpt><trkpt lat="42.4550817" lon="14.1373667"><ele>170.0</ele><time>2026-04-26T14:14:48.386Z</time></trkpt><trkpt lat="42.4550867" lon="14.1372683"><ele>170.0</ele><time>2026-04-26T14:14:49.392Z</time></trkpt><trkpt lat="42.4550867" lon="14.137165"><ele>170.0</ele><time>2026-04-26T14:14:50.419Z</time></trkpt><trkpt lat="42.455085" lon="14.1370617"><ele>170.0</ele><time>2026-04-26T14:14:51.382Z</time></trkpt><trkpt lat="42.4550817" lon="14.13696"><ele>170.5</ele><time>2026-04-26T14:14:52.392Z</time></trkpt><trkpt lat="42.4550767" lon="14.1368683"><ele>171.0</ele><time>2026-04-26T14:14:53.383Z</time></trkpt><trkpt lat="42.4550733" lon="14.1367817"><ele>171.5</ele><time>2026-04-26T14:14:54.389Z</time></trkpt><trkpt lat="42.4550717" lon="14.1366367"><ele>172.0</ele><time>2026-04-26T14:14:56.443Z</time></trkpt><trkpt lat="42.4550817" lon="14.1365367"><ele>172.5</ele><time>2026-04-26T14:14:58.391Z</time></trkpt><trkpt lat="42.455125" lon="14.1364633"><ele>173.0</ele><time>2026-04-26T14:15:00.381Z</time></trkpt><trkpt lat="42.4552217" lon="14.1364067"><ele>174.4</ele><time>2026-04-26T14:15:02.436Z</time></trkpt><trkpt lat="42.4553333" lon="14.1363483"><ele>175.8</ele><time>2026-04-26T14:15:04.38Z</time></trkpt><trkpt lat="42.45545" lon="14.1362967"><ele>177.2</ele><time>2026-04-26T14:15:06.391Z</time></trkpt><trkpt lat="42.4555717" lon="14.13624"><ele>178.6</ele><time>2026-04-26T14:15:08.414Z</time></trkpt><trkpt lat="42.455635" lon="14.1362067"><ele>180.0</ele><time>2026-04-26T14:15:09.391Z</time></trkpt><trkpt lat="42.4557017" lon="14.1361683"><ele>180.0</ele><time>2026-04-26T14:15:10.393Z</time></trkpt><trkpt lat="42.4557683" lon="14.1361067"><ele>180.0</ele><time>2026-04-26T14:15:11.381Z</time></trkpt><trkpt lat="42.4558433" lon="14.13604"><ele>180.0</ele><time>2026-04-26T14:15:12.391Z</time></trkpt><trkpt lat="42.45592" lon="14.13596"><ele>180.0</ele><time>2026-04-26T14:15:13.389Z</time></trkpt><trkpt lat="42.4559967" lon="14.1358717"><ele>180.0</ele><time>2026-04-26T14:15:14.418Z</time></trkpt><trkpt lat="42.4560717" lon="14.13577"><ele>183.5</ele><time>2026-04-26T14:15:15.38Z</time></trkpt><trkpt lat="42.4561383" lon="14.1356467"><ele>187.0</ele><time>2026-04-26T14:15:16.396Z</time></trkpt><trkpt lat="42.4561983" lon="14.1354983"><ele>190.5</ele><time>2026-04-26T14:15:17.398Z</time></trkpt><trkpt lat="42.4562517" lon="14.1353367"><ele>194.0</ele><time>2026-04-26T14:15:18.393Z</time></trkpt><trkpt lat="42.4563" lon="14.1351733"><ele>185.33333333333334</ele><time>2026-04-26T14:15:19.399Z</time></trkpt><trkpt lat="42.4563517" lon="14.1349967"><ele>176.66666666666669</ele><time>2026-04-26T14:15:20.413Z</time></trkpt><trkpt lat="42.4564067" lon="14.134805"><ele>168.0</ele><time>2026-04-26T14:15:21.388Z</time></trkpt><trkpt lat="42.4564683" lon="14.1346067"><ele>168.0</ele><time>2026-04-26T14:15:22.393Z</time></trkpt><trkpt lat="42.45653" lon="14.1344017"><ele>168.0</ele><time>2026-04-26T14:15:23.392Z</time></trkpt><trkpt lat="42.4565933" lon="14.1341967"><ele>168.0</ele><time>2026-04-26T14:15:24.38Z</time></trkpt><trkpt lat="42.45665" lon="14.133985"><ele>168.0</ele><time>2026-04-26T14:15:25.381Z</time></trkpt><trkpt lat="42.4567" lon="14.13377"><ele>168.0</ele><time>2026-04-26T14:15:26.455Z</time></trkpt><trkpt lat="42.45674" lon="14.1335567"><ele>168.0</ele><time>2026-04-26T14:15:27.388Z</time></trkpt><trkpt lat="42.4567717" lon="14.1333533"><ele>167.5</ele><time>2026-04-26T14:15:28.384Z</time></trkpt><trkpt lat="42.4568" lon="14.133155"><ele>167.0</ele><time>2026-04-26T14:15:29.394Z</time></trkpt><trkpt lat="42.4568267" lon="14.1329583"><ele>166.5</ele><time>2026-04-26T14:15:30.392Z</time></trkpt><trkpt lat="42.4568583" lon="14.1327667"><ele>166.0</ele><time>2026-04-26T14:15:31.395Z</time></trkpt><trkpt lat="42.4569" lon="14.1325767"><ele>166.0</ele><time>2026-04-26T14:15:32.436Z</time></trkpt><trkpt lat="42.456955" lon="14.13239"><ele>166.0</ele><time>2026-04-26T14:15:33.382Z</time></trkpt><trkpt lat="42.45702" lon="14.1322017"><ele>166.0</ele><time>2026-04-26T14:15:34.389Z</time></trkpt><trkpt lat="42.45709" lon="14.1320117"><ele>164.0</ele><time>2026-04-26T14:15:35.383Z</time></trkpt><trkpt lat="42.4571667" lon="14.1318167"><ele>162.0</ele><time>2026-04-26T14:15:36.389Z</time></trkpt><trkpt lat="42.4572467" lon="14.131625"><ele>160.0</ele><time>2026-04-26T14:15:37.387Z</time></trkpt><trkpt lat="42.4573233" lon="14.1314333"><ele>160.0</ele><time>2026-04-26T14:15:38.415Z</time></trkpt><trkpt lat="42.457405" lon="14.1312433"><ele>160.0</ele><time>2026-04-26T14:15:39.39Z</time></trkpt><trkpt lat="42.4574917" lon="14.1310617"><ele>160.0</ele><time>2026-04-26T14:15:40.392Z</time></trkpt><trkpt lat="42.4575833" lon="14.1308833"><ele>160.33333333333334</ele><time>2026-04-26T14:15:41.393Z</time></trkpt><trkpt lat="42.457685" lon="14.13071"><ele>160.66666666666666</ele><time>2026-04-26T14:15:42.393Z</time></trkpt><trkpt lat="42.4578" lon="14.13055"><ele>161.0</ele><time>2026-04-26T14:15:43.398Z</time></trkpt><trkpt lat="42.4579283" lon="14.1304067"><ele>160.0</ele><time>2026-04-26T14:15:44.412Z</time></trkpt><trkpt lat="42.4580633" lon="14.1302717"><ele>159.0</ele><time>2026-04-26T14:15:45.392Z</time></trkpt><trkpt lat="42.4581967" lon="14.1301367"><ele>158.0</ele><time>2026-04-26T14:15:46.39Z</time></trkpt><trkpt lat="42.458325" lon="14.12999"><ele>158.66666666666666</ele><time>2026-04-26T14:15:47.396Z</time></trkpt><trkpt lat="42.4584383" lon="14.12983"><ele>159.33333333333334</ele><time>2026-04-26T14:15:48.393Z</time></trkpt><trkpt lat="42.45853" lon="14.1296617"><ele>160.0</ele><time>2026-04-26T14:15:49.393Z</time></trkpt><trkpt lat="42.4586067" lon="14.129495"><ele>160.0</ele><time>2026-04-26T14:15:50.414Z</time></trkpt><trkpt lat="42.458665" lon="14.12933"><ele>160.0</ele><time>2026-04-26T14:15:51.388Z</time></trkpt><trkpt lat="42.4587067" lon="14.129165"><ele>160.0</ele><time>2026-04-26T14:15:52.392Z</time></trkpt><trkpt lat="42.4587383" lon="14.1289933"><ele>160.0</ele><time>2026-04-26T14:15:53.394Z</time></trkpt><trkpt lat="42.458755" lon="14.1288117"><ele>160.75</ele><time>2026-04-26T14:15:54.393Z</time></trkpt><trkpt lat="42.4587517" lon="14.1286233"><ele>161.5</ele><time>2026-04-26T14:15:55.398Z</time></trkpt><trkpt lat="42.4587283" lon="14.1284267"><ele>162.25</ele><time>2026-04-26T14:15:56.426Z</time></trkpt><trkpt lat="42.4586867" lon="14.12823"><ele>163.0</ele><time>2026-04-26T14:15:57.384Z</time></trkpt><trkpt lat="42.4586267" lon="14.1280317"><ele>163.0</ele><time>2026-04-26T14:15:58.381Z</time></trkpt><trkpt lat="42.45856" lon="14.1278383"><ele>163.0</ele><time>2026-04-26T14:15:59.384Z</time></trkpt><trkpt lat="42.4584867" lon="14.1276567"><ele>163.0</ele><time>2026-04-26T14:16:00.386Z</time></trkpt><trkpt lat="42.4584083" lon="14.1274817"><ele>165.0</ele><time>2026-04-26T14:16:01.39Z</time></trkpt><trkpt lat="42.4583217" lon="14.1273167"><ele>167.0</ele><time>2026-04-26T14:16:02.443Z</time></trkpt><trkpt lat="42.4582167" lon="14.1271733"><ele>169.0</ele><time>2026-04-26T14:16:03.391Z</time></trkpt><trkpt lat="42.4581033" lon="14.1270467"><ele>171.0</ele><time>2026-04-26T14:16:04.391Z</time></trkpt><trkpt lat="42.4579933" lon="14.1269233"><ele>170.0</ele><time>2026-04-26T14:16:05.387Z</time></trkpt><trkpt lat="42.45789" lon="14.1267933"><ele>169.0</ele><time>2026-04-26T14:16:06.389Z</time></trkpt><trkpt lat="42.4577917" lon="14.12665"><ele>168.0</ele><time>2026-04-26T14:16:07.391Z</time></trkpt><trkpt lat="42.4577017" lon="14.126495"><ele>167.0</ele><time>2026-04-26T14:16:08.416Z</time></trkpt><trkpt lat="42.457615" lon="14.1263383"><ele>167.0</ele><time>2026-04-26T14:16:09.386Z</time></trkpt><trkpt lat="42.4575333" lon="14.1261767"><ele>167.0</ele><time>2026-04-26T14:16:10.386Z</time></trkpt><trkpt lat="42.457455" lon="14.1260067"><ele>167.0</ele><time>2026-04-26T14:16:11.394Z</time></trkpt><trkpt lat="42.4573867" lon="14.12583"><ele>167.0</ele><time>2026-04-26T14:16:12.391Z</time></trkpt><trkpt lat="42.4573317" lon="14.12565"><ele>168.75</ele><time>2026-04-26T14:16:13.393Z</time></trkpt><trkpt lat="42.4572917" lon="14.125465"><ele>170.5</ele><time>2026-04-26T14:16:14.404Z</time></trkpt><trkpt lat="42.4572683" lon="14.1252867"><ele>172.25</ele><time>2026-04-26T14:16:15.387Z</time></trkpt><trkpt lat="42.4572567" lon="14.125115"><ele>174.0</ele><time>2026-04-26T14:16:16.393Z</time></trkpt><trkpt lat="42.457255" lon="14.1249467"><ele>173.25</ele><time>2026-04-26T14:16:17.387Z</time></trkpt><trkpt lat="42.457265" lon="14.1247717"><ele>172.5</ele><time>2026-04-26T14:16:18.391Z</time></trkpt><trkpt lat="42.4572833" lon="14.1245883"><ele>171.75</ele><time>2026-04-26T14:16:19.39Z</time></trkpt><trkpt lat="42.4573133" lon="14.1244017"><ele>171.0</ele><time>2026-04-26T14:16:20.414Z</time></trkpt><trkpt lat="42.4573533" lon="14.1242133"><ele>169.25</ele><time>2026-04-26T14:16:21.383Z</time></trkpt><trkpt lat="42.4574" lon="14.1240267"><ele>167.5</ele><time>2026-04-26T14:16:22.388Z</time></trkpt><trkpt lat="42.4574567" lon="14.1238433"><ele>165.75</ele><time>2026-04-26T14:16:23.389Z</time></trkpt><trkpt lat="42.4575117" lon="14.1236533"><ele>164.0</ele><time>2026-04-26T14:16:24.39Z</time></trkpt><trkpt lat="42.4575683" lon="14.1234583"><ele>164.0</ele><time>2026-04-26T14:16:25.384Z</time></trkpt><trkpt lat="42.4576217" lon="14.1232617"><ele>164.0</ele><time>2026-04-26T14:16:26.457Z</time></trkpt><trkpt lat="42.45768" lon="14.1230617"><ele>164.0</ele><time>2026-04-26T14:16:27.385Z</time></trkpt><trkpt lat="42.4577367" lon="14.1228633"><ele>163.5</ele><time>2026-04-26T14:16:28.391Z</time></trkpt><trkpt lat="42.4577933" lon="14.122675"><ele>163.0</ele><time>2026-04-26T14:16:29.386Z</time></trkpt><trkpt lat="42.4578517" lon="14.1225017"><ele>162.5</ele><time>2026-04-26T14:16:30.382Z</time></trkpt><trkpt lat="42.457915" lon="14.1223417"><ele>162.0</ele><time>2026-04-26T14:16:31.385Z</time></trkpt><trkpt lat="42.4579867" lon="14.1221917"><ele>161.5</ele><time>2026-04-26T14:16:32.444Z</time></trkpt><trkpt lat="42.45807" lon="14.1220467"><ele>161.0</ele><time>2026-04-26T14:16:33.385Z</time></trkpt><trkpt lat="42.4581633" lon="14.1219067"><ele>160.5</ele><time>2026-04-26T14:16:34.386Z</time></trkpt><trkpt lat="42.458265" lon="14.1217783"><ele>160.0</ele><time>2026-04-26T14:16:35.382Z</time></trkpt><trkpt lat="42.4583767" lon="14.121655"><ele>160.33333333333334</ele><time>2026-04-26T14:16:36.39Z</time></trkpt><trkpt lat="42.4584933" lon="14.1215283"><ele>160.66666666666666</ele><time>2026-04-26T14:16:37.389Z</time></trkpt><trkpt lat="42.458615" lon="14.1213967"><ele>161.0</ele><time>2026-04-26T14:16:38.414Z</time></trkpt><trkpt lat="42.45874" lon="14.121265"><ele>160.66666666666666</ele><time>2026-04-26T14:16:39.387Z</time></trkpt><trkpt lat="42.4588667" lon="14.1211333"><ele>160.33333333333334</ele><time>2026-04-26T14:16:40.393Z</time></trkpt><trkpt lat="42.4589933" lon="14.1210033"><ele>160.0</ele><time>2026-04-26T14:16:41.393Z</time></trkpt><trkpt lat="42.45912" lon="14.1208717"><ele>160.0</ele><time>2026-04-26T14:16:42.397Z</time></trkpt><trkpt lat="42.4592383" lon="14.1207467"><ele>160.0</ele><time>2026-04-26T14:16:43.386Z</time></trkpt><trkpt lat="42.4593467" lon="14.12063"><ele>160.0</ele><time>2026-04-26T14:16:44.417Z</time></trkpt><trkpt lat="42.45945" lon="14.1205217"><ele>160.0</ele><time>2026-04-26T14:16:45.387Z</time></trkpt><trkpt lat="42.4595483" lon="14.12042"><ele>160.0</ele><time>2026-04-26T14:16:46.391Z</time></trkpt><trkpt lat="42.4596433" lon="14.1203267"><ele>160.0</ele><time>2026-04-26T14:16:47.391Z</time></trkpt><trkpt lat="42.4597333" lon="14.120245"><ele>160.0</ele><time>2026-04-26T14:16:48.398Z</time></trkpt><trkpt lat="42.4598167" lon="14.1201733"><ele>160.0</ele><time>2026-04-26T14:16:49.393Z</time></trkpt><trkpt lat="42.4598933" lon="14.1201117"><ele>160.0</ele><time>2026-04-26T14:16:50.417Z</time></trkpt><trkpt lat="42.459975" lon="14.120065"><ele>160.0</ele><time>2026-04-26T14:16:51.393Z</time></trkpt><trkpt lat="42.4600733" lon="14.1200283"><ele>160.0</ele><time>2026-04-26T14:16:52.391Z</time></trkpt><trkpt lat="42.4601817" lon="14.1199983"><ele>160.0</ele><time>2026-04-26T14:16:53.393Z</time></trkpt><trkpt lat="42.4602967" lon="14.1199933"><ele>160.0</ele><time>2026-04-26T14:16:54.393Z</time></trkpt><trkpt lat="42.46042" lon="14.120015"><ele>160.5</ele><time>2026-04-26T14:16:55.383Z</time></trkpt><trkpt lat="42.460555" lon="14.1200617"><ele>161.0</ele><time>2026-04-26T14:16:56.457Z</time></trkpt><trkpt lat="42.4607" lon="14.1201217"><ele>161.5</ele><time>2026-04-26T14:16:57.39Z</time></trkpt><trkpt lat="42.4608533" lon="14.1201717"><ele>162.0</ele><time>2026-04-26T14:16:58.392Z</time></trkpt><trkpt lat="42.4610033" lon="14.1202183"><ele>162.0</ele><time>2026-04-26T14:16:59.391Z</time></trkpt><trkpt lat="42.4611533" lon="14.12026"><ele>162.0</ele><time>2026-04-26T14:17:00.381Z</time></trkpt><trkpt lat="42.4612983" lon="14.120315"><ele>162.0</ele><time>2026-04-26T14:17:01.39Z</time></trkpt><trkpt lat="42.4614417" lon="14.1203933"><ele>164.33333333333334</ele><time>2026-04-26T14:17:02.442Z</time></trkpt><trkpt lat="42.4615883" lon="14.1204983"><ele>166.66666666666669</ele><time>2026-04-26T14:17:03.381Z</time></trkpt><trkpt lat="42.4617467" lon="14.12062"><ele>169.0</ele><time>2026-04-26T14:17:04.38Z</time></trkpt><trkpt lat="42.4619167" lon="14.12075"><ele>168.0</ele><time>2026-04-26T14:17:05.384Z</time></trkpt><trkpt lat="42.462105" lon="14.1208917"><ele>167.0</ele><time>2026-04-26T14:17:06.389Z</time></trkpt><trkpt lat="42.4622967" lon="14.1210333"><ele>166.0</ele><time>2026-04-26T14:17:07.393Z</time></trkpt><trkpt lat="42.4624833" lon="14.121175"><ele>166.0</ele><time>2026-04-26T14:17:08.413Z</time></trkpt><trkpt lat="42.4626617" lon="14.1213133"><ele>166.0</ele><time>2026-04-26T14:17:09.388Z</time></trkpt><trkpt lat="42.4628367" lon="14.1214417"><ele>166.0</ele><time>2026-04-26T14:17:10.39Z</time></trkpt><trkpt lat="42.4630033" lon="14.1215633"><ele>162.33333333333334</ele><time>2026-04-26T14:17:11.394Z</time></trkpt><trkpt lat="42.4631633" lon="14.12168"><ele>158.66666666666666</ele><time>2026-04-26T14:17:12.398Z</time></trkpt><trkpt lat="42.4633217" lon="14.1217967"><ele>155.0</ele><time>2026-04-26T14:17:13.393Z</time></trkpt><trkpt lat="42.463475" lon="14.1219067"><ele>155.0</ele><time>2026-04-26T14:17:14.404Z</time></trkpt><trkpt lat="42.46362" lon="14.1220167"><ele>155.0</ele><time>2026-04-26T14:17:15.387Z</time></trkpt><trkpt lat="42.4637567" lon="14.1221267"><ele>155.0</ele><time>2026-04-26T14:17:16.383Z</time></trkpt><trkpt lat="42.4638783" lon="14.122245"><ele>154.0</ele><time>2026-04-26T14:17:17.389Z</time></trkpt><trkpt lat="42.4639833" lon="14.1223783"><ele>153.0</ele><time>2026-04-26T14:17:18.392Z</time></trkpt><trkpt lat="42.4640733" lon="14.1225317"><ele>152.0</ele><time>2026-04-26T14:17:19.394Z</time></trkpt><trkpt lat="42.4641517" lon="14.1227017"><ele>151.0</ele><time>2026-04-26T14:17:20.416Z</time></trkpt><trkpt lat="42.464225" lon="14.122885"><ele>150.5</ele><time>2026-04-26T14:17:21.384Z</time></trkpt><trkpt lat="42.4642883" lon="14.123065"><ele>150.0</ele><time>2026-04-26T14:17:22.39Z</time></trkpt><trkpt lat="42.4643467" lon="14.12325"><ele>149.5</ele><time>2026-04-26T14:17:23.398Z</time></trkpt><trkpt lat="42.4643917" lon="14.1234383"><ele>149.0</ele><time>2026-04-26T14:17:24.396Z</time></trkpt><trkpt lat="42.4644383" lon="14.123625"><ele>149.0</ele><time>2026-04-26T14:17:25.392Z</time></trkpt><trkpt lat="42.4644933" lon="14.1238133"><ele>149.0</ele><time>2026-04-26T14:17:26.453Z</time></trkpt><trkpt lat="42.4645617" lon="14.123995"><ele>149.0</ele><time>2026-04-26T14:17:27.386Z</time></trkpt><trkpt lat="42.4646467" lon="14.124165"><ele>146.33333333333331</ele><time>2026-04-26T14:17:28.392Z</time></trkpt><trkpt lat="42.464755" lon="14.124325"><ele>143.66666666666666</ele><time>2026-04-26T14:17:29.391Z</time></trkpt><trkpt lat="42.4648733" lon="14.1244833"><ele>141.0</ele><time>2026-04-26T14:17:30.395Z</time></trkpt><trkpt lat="42.46499" lon="14.1246417"><ele>141.0</ele><time>2026-04-26T14:17:31.396Z</time></trkpt><trkpt lat="42.4650967" lon="14.124805"><ele>141.0</ele><time>2026-04-26T14:17:32.444Z</time></trkpt><trkpt lat="42.465195" lon="14.124975"><ele>141.0</ele><time>2026-04-26T14:17:33.392Z</time></trkpt><trkpt lat="42.4652883" lon="14.1251417"><ele>139.33333333333334</ele><time>2026-04-26T14:17:34.391Z</time></trkpt><trkpt lat="42.4653883" lon="14.1253067"><ele>137.66666666666669</ele><time>2026-04-26T14:17:35.395Z</time></trkpt><trkpt lat="42.4654933" lon="14.1254683"><ele>136.0</ele><time>2026-04-26T14:17:36.381Z</time></trkpt><trkpt lat="42.465605" lon="14.12562"><ele>138.33333333333334</ele><time>2026-04-26T14:17:37.383Z</time></trkpt><trkpt lat="42.4657217" lon="14.1257633"><ele>140.66666666666666</ele><time>2026-04-26T14:17:38.414Z</time></trkpt><trkpt lat="42.4658417" lon="14.12589"><ele>143.0</ele><time>2026-04-26T14:17:39.383Z</time></trkpt><trkpt lat="42.465965" lon="14.1259867"><ele>143.0</ele><time>2026-04-26T14:17:40.385Z</time></trkpt><trkpt lat="42.466095" lon="14.126055"><ele>143.0</ele><time>2026-04-26T14:17:41.386Z</time></trkpt><trkpt lat="42.466225" lon="14.1260983"><ele>143.0</ele><time>2026-04-26T14:17:42.385Z</time></trkpt><trkpt lat="42.46636" lon="14.1261283"><ele>143.0</ele><time>2026-04-26T14:17:43.381Z</time></trkpt><trkpt lat="42.4664933" lon="14.126155"><ele>140.75</ele><time>2026-04-26T14:17:44.406Z</time></trkpt><trkpt lat="42.4666183" lon="14.126195"><ele>138.5</ele><time>2026-04-26T14:17:45.389Z</time></trkpt><trkpt lat="42.4667317" lon="14.12626"><ele>136.25</ele><time>2026-04-26T14:17:46.388Z</time></trkpt><trkpt lat="42.4668233" lon="14.126355"><ele>134.0</ele><time>2026-04-26T14:17:47.382Z</time></trkpt><trkpt lat="42.466905" lon="14.1264917"><ele>134.33333333333331</ele><time>2026-04-26T14:17:48.382Z</time></trkpt><trkpt lat="42.466985" lon="14.126655"><ele>134.66666666666666</ele><time>2026-04-26T14:17:49.39Z</time></trkpt><trkpt lat="42.4670683" lon="14.1268283"><ele>135.0</ele><time>2026-04-26T14:17:50.408Z</time></trkpt><trkpt lat="42.4671533" lon="14.127015"><ele>135.0</ele><time>2026-04-26T14:17:51.384Z</time></trkpt><trkpt lat="42.4672417" lon="14.12721"><ele>135.0</ele><time>2026-04-26T14:17:52.386Z</time></trkpt><trkpt lat="42.4673283" lon="14.1274133"><ele>135.0</ele><time>2026-04-26T14:17:53.387Z</time></trkpt><trkpt lat="42.4674083" lon="14.12762"><ele>138.33333333333334</ele><time>2026-04-26T14:17:54.406Z</time></trkpt><trkpt lat="42.46749" lon="14.1278417"><ele>141.66666666666669</ele><time>2026-04-26T14:17:55.387Z</time></trkpt><trkpt lat="42.46757" lon="14.128065"><ele>145.0</ele><time>2026-04-26T14:17:56.452Z</time></trkpt><trkpt lat="42.4676433" lon="14.12827"><ele>145.5</ele><time>2026-04-26T14:17:57.382Z</time></trkpt><trkpt lat="42.4677117" lon="14.128445"><ele>146.0</ele><time>2026-04-26T14:17:58.387Z</time></trkpt><trkpt lat="42.467785" lon="14.128585"><ele>146.5</ele><time>2026-04-26T14:17:59.39Z</time></trkpt><trkpt lat="42.46787" lon="14.128705"><ele>147.0</ele><time>2026-04-26T14:18:00.392Z</time></trkpt><trkpt lat="42.4679717" lon="14.128785"><ele>150.33333333333334</ele><time>2026-04-26T14:18:01.388Z</time></trkpt><trkpt lat="42.4680983" lon="14.1288417"><ele>153.66666666666669</ele><time>2026-04-26T14:18:02.443Z</time></trkpt><trkpt lat="42.4682467" lon="14.1288883"><ele>157.0</ele><time>2026-04-26T14:18:03.381Z</time></trkpt><trkpt lat="42.4684133" lon="14.1289333"><ele>157.0</ele><time>2026-04-26T14:18:04.388Z</time></trkpt><trkpt lat="42.46859" lon="14.12898"><ele>157.0</ele><time>2026-04-26T14:18:05.391Z</time></trkpt><trkpt lat="42.4687633" lon="14.1290317"><ele>157.0</ele><time>2026-04-26T14:18:06.391Z</time></trkpt><trkpt lat="42.468925" lon="14.1290833"><ele>154.66666666666669</ele><time>2026-04-26T14:18:07.382Z</time></trkpt><trkpt lat="42.4690767" lon="14.1291367"><ele>152.33333333333334</ele><time>2026-04-26T14:18:08.413Z</time></trkpt><trkpt lat="42.4692183" lon="14.1292"><ele>150.0</ele><time>2026-04-26T14:18:09.395Z</time></trkpt><trkpt lat="42.4693583" lon="14.1292867"><ele>150.0</ele><time>2026-04-26T14:18:10.38Z</time></trkpt><trkpt lat="42.4694967" lon="14.1294017"><ele>150.0</ele><time>2026-04-26T14:18:11.389Z</time></trkpt><trkpt lat="42.4696333" lon="14.1295333"><ele>150.0</ele><time>2026-04-26T14:18:12.39Z</time></trkpt><trkpt lat="42.469765" lon="14.1296717"><ele>150.0</ele><time>2026-04-26T14:18:13.391Z</time></trkpt><trkpt lat="42.4698933" lon="14.129815"><ele>150.0</ele><time>2026-04-26T14:18:14.414Z</time></trkpt><trkpt lat="42.47002" lon="14.1299667"><ele>150.0</ele><time>2026-04-26T14:18:15.394Z</time></trkpt><trkpt lat="42.4701467" lon="14.1301217"><ele>150.0</ele><time>2026-04-26T14:18:16.391Z</time></trkpt><trkpt lat="42.4702733" lon="14.1302767"><ele>150.0</ele><time>2026-04-26T14:18:17.391Z</time></trkpt><trkpt lat="42.4703983" lon="14.1304317"><ele>150.0</ele><time>2026-04-26T14:18:18.39Z</time></trkpt><trkpt lat="42.47053" lon="14.1305883"><ele>148.0</ele><time>2026-04-26T14:18:19.391Z</time></trkpt><trkpt lat="42.4706617" lon="14.130745"><ele>146.0</ele><time>2026-04-26T14:18:20.408Z</time></trkpt><trkpt lat="42.4707867" lon="14.1308983"><ele>144.0</ele><time>2026-04-26T14:18:21.392Z</time></trkpt><trkpt lat="42.470905" lon="14.131045"><ele>144.0</ele><time>2026-04-26T14:18:22.392Z</time></trkpt><trkpt lat="42.4710183" lon="14.1311817"><ele>144.0</ele><time>2026-04-26T14:18:23.392Z</time></trkpt><trkpt lat="42.471125" lon="14.13131"><ele>144.0</ele><time>2026-04-26T14:18:24.39Z</time></trkpt><trkpt lat="42.4712233" lon="14.13143"><ele>144.0</ele><time>2026-04-26T14:18:25.394Z</time></trkpt><trkpt lat="42.471315" lon="14.131545"><ele>143.6</ele><time>2026-04-26T14:18:26.424Z</time></trkpt><trkpt lat="42.471395" lon="14.131655"><ele>143.2</ele><time>2026-04-26T14:18:27.384Z</time></trkpt><trkpt lat="42.4714667" lon="14.1317683"><ele>142.79999999999998</ele><time>2026-04-26T14:18:28.386Z</time></trkpt><trkpt lat="42.4715267" lon="14.131895"><ele>142.4</ele><time>2026-04-26T14:18:29.387Z</time></trkpt><trkpt lat="42.4715667" lon="14.1320367"><ele>142.0</ele><time>2026-04-26T14:18:30.386Z</time></trkpt><trkpt lat="42.4715883" lon="14.132195"><ele>142.0</ele><time>2026-04-26T14:18:31.379Z</time></trkpt><trkpt lat="42.4715983" lon="14.1323617"><ele>142.0</ele><time>2026-04-26T14:18:32.436Z</time></trkpt><trkpt lat="42.471605" lon="14.1325317"><ele>142.0</ele><time>2026-04-26T14:18:33.389Z</time></trkpt><trkpt lat="42.47162" lon="14.1327017"><ele>142.0</ele><time>2026-04-26T14:18:34.39Z</time></trkpt><trkpt lat="42.4716467" lon="14.1328633"><ele>143.2</ele><time>2026-04-26T14:18:35.382Z</time></trkpt><trkpt lat="42.4716883" lon="14.1330083"><ele>144.39999999999998</ele><time>2026-04-26T14:18:36.389Z</time></trkpt><trkpt lat="42.4717517" lon="14.1331333"><ele>145.60000000000002</ele><time>2026-04-26T14:18:37.394Z</time></trkpt><trkpt lat="42.4718317" lon="14.13324"><ele>146.8</ele><time>2026-04-26T14:18:38.405Z</time></trkpt><trkpt lat="42.4719267" lon="14.1333133"><ele>148.0</ele><time>2026-04-26T14:18:39.382Z</time></trkpt><trkpt lat="42.47203" lon="14.13336"><ele>150.0</ele><time>2026-04-26T14:18:40.383Z</time></trkpt><trkpt lat="42.47214" lon="14.133385"><ele>152.0</ele><time>2026-04-26T14:18:41.387Z</time></trkpt><trkpt lat="42.4722483" lon="14.1333883"><ele>154.0</ele><time>2026-04-26T14:18:42.387Z</time></trkpt><trkpt lat="42.4723583" lon="14.1333933"><ele>156.0</ele><time>2026-04-26T14:18:43.392Z</time></trkpt><trkpt lat="42.472465" lon="14.1334183"><ele>158.0</ele><time>2026-04-26T14:18:44.418Z</time></trkpt><trkpt lat="42.4725683" lon="14.1334683"><ele>158.0</ele><time>2026-04-26T14:18:45.393Z</time></trkpt><trkpt lat="42.4726633" lon="14.1335517"><ele>158.0</ele><time>2026-04-26T14:18:46.391Z</time></trkpt><trkpt lat="42.4727583" lon="14.13365"><ele>158.0</ele><time>2026-04-26T14:18:47.393Z</time></trkpt><trkpt lat="42.4728667" lon="14.133755"><ele>158.0</ele><time>2026-04-26T14:18:48.391Z</time></trkpt><trkpt lat="42.4729817" lon="14.133855"><ele>160.0</ele><time>2026-04-26T14:18:49.388Z</time></trkpt><trkpt lat="42.4731033" lon="14.133945"><ele>162.0</ele><time>2026-04-26T14:18:50.412Z</time></trkpt><trkpt lat="42.4732183" lon="14.1340317"><ele>164.0</ele><time>2026-04-26T14:18:51.391Z</time></trkpt><trkpt lat="42.473325" lon="14.1341267"><ele>166.0</ele><time>2026-04-26T14:18:52.394Z</time></trkpt><trkpt lat="42.47342" lon="14.134235"><ele>166.0</ele><time>2026-04-26T14:18:53.395Z</time></trkpt><trkpt lat="42.4735" lon="14.1343483"><ele>166.0</ele><time>2026-04-26T14:18:54.391Z</time></trkpt><trkpt lat="42.4735683" lon="14.1344717"><ele>166.0</ele><time>2026-04-26T14:18:55.383Z</time></trkpt><trkpt lat="42.4736183" lon="14.1346067"><ele>166.0</ele><time>2026-04-26T14:18:56.451Z</time></trkpt><trkpt lat="42.47365" lon="14.1347517"><ele>164.4</ele><time>2026-04-26T14:18:57.386Z</time></trkpt><trkpt lat="42.47367" lon="14.1349017"><ele>162.8</ele><time>2026-04-26T14:18:58.391Z</time></trkpt><trkpt lat="42.4736917" lon="14.1350467"><ele>161.20000000000002</ele><time>2026-04-26T14:18:59.384Z</time></trkpt><trkpt lat="42.47372" lon="14.1351833"><ele>159.60000000000002</ele><time>2026-04-26T14:19:00.392Z</time></trkpt><trkpt lat="42.4737633" lon="14.1353083"><ele>158.0</ele><time>2026-04-26T14:19:01.383Z</time></trkpt><trkpt lat="42.473825" lon="14.1354183"><ele>163.75</ele><time>2026-04-26T14:19:02.439Z</time></trkpt><trkpt lat="42.4739083" lon="14.13551"><ele>169.5</ele><time>2026-04-26T14:19:03.383Z</time></trkpt><trkpt lat="42.474015" lon="14.1355767"><ele>175.25</ele><time>2026-04-26T14:19:04.386Z</time></trkpt><trkpt lat="42.4741367" lon="14.1356317"><ele>181.0</ele><time>2026-04-26T14:19:05.385Z</time></trkpt><trkpt lat="42.4742633" lon="14.1356867"><ele>181.5</ele><time>2026-04-26T14:19:06.389Z</time></trkpt><trkpt lat="42.4743883" lon="14.1357617"><ele>182.0</ele><time>2026-04-26T14:19:07.382Z</time></trkpt><trkpt lat="42.474515" lon="14.1358633"><ele>182.5</ele><time>2026-04-26T14:19:08.412Z</time></trkpt><trkpt lat="42.4746383" lon="14.13598"><ele>183.0</ele><time>2026-04-26T14:19:09.385Z</time></trkpt><trkpt lat="42.4747683" lon="14.13608"><ele>183.0</ele><time>2026-04-26T14:19:10.388Z</time></trkpt><trkpt lat="42.4749117" lon="14.136155"><ele>183.0</ele><time>2026-04-26T14:19:11.39Z</time></trkpt><trkpt lat="42.4750517" lon="14.136215"><ele>183.0</ele><time>2026-04-26T14:19:12.39Z</time></trkpt><trkpt lat="42.4751767" lon="14.136285"><ele>183.0</ele><time>2026-04-26T14:19:13.394Z</time></trkpt><trkpt lat="42.47528" lon="14.1363967"><ele>183.0</ele><time>2026-04-26T14:19:14.416Z</time></trkpt><trkpt lat="42.475385" lon="14.13654"><ele>183.0</ele><time>2026-04-26T14:19:15.396Z</time></trkpt><trkpt lat="42.4755017" lon="14.1366917"><ele>183.0</ele><time>2026-04-26T14:19:16.392Z</time></trkpt><trkpt lat="42.4756583" lon="14.1368317"><ele>183.0</ele><time>2026-04-26T14:19:17.391Z</time></trkpt><trkpt lat="42.475845" lon="14.136965"><ele>183.0</ele><time>2026-04-26T14:19:18.394Z</time></trkpt><trkpt lat="42.4760533" lon="14.1370933"><ele>183.0</ele><time>2026-04-26T14:19:19.389Z</time></trkpt><trkpt lat="42.476265" lon="14.1372183"><ele>181.66666666666666</ele><time>2026-04-26T14:19:20.403Z</time></trkpt><trkpt lat="42.4764633" lon="14.1373233"><ele>180.33333333333331</ele><time>2026-04-26T14:19:21.384Z</time></trkpt><trkpt lat="42.4766417" lon="14.1373883"><ele>179.0</ele><time>2026-04-26T14:19:22.394Z</time></trkpt><trkpt lat="42.4768017" lon="14.13743"><ele>179.0</ele><time>2026-04-26T14:19:23.39Z</time></trkpt><trkpt lat="42.4769583" lon="14.1374517"><ele>179.0</ele><time>2026-04-26T14:19:24.403Z</time></trkpt><trkpt lat="42.477115" lon="14.1374583"><ele>179.0</ele><time>2026-04-26T14:19:25.389Z</time></trkpt><trkpt lat="42.4772667" lon="14.1374583"><ele>180.0</ele><time>2026-04-26T14:19:26.471Z</time></trkpt><trkpt lat="42.4774217" lon="14.1374417"><ele>181.0</ele><time>2026-04-26T14:19:27.393Z</time></trkpt><trkpt lat="42.47758" lon="14.137405"><ele>182.0</ele><time>2026-04-26T14:19:28.392Z</time></trkpt><trkpt lat="42.4777383" lon="14.1373533"><ele>179.33333333333331</ele><time>2026-04-26T14:19:29.395Z</time></trkpt><trkpt lat="42.477895" lon="14.13729"><ele>176.66666666666666</ele><time>2026-04-26T14:19:30.395Z</time></trkpt><trkpt lat="42.4780417" lon="14.1372333"><ele>174.0</ele><time>2026-04-26T14:19:31.394Z</time></trkpt><trkpt lat="42.4781783" lon="14.1371917"><ele>172.5</ele><time>2026-04-26T14:19:32.445Z</time></trkpt><trkpt lat="42.4783" lon="14.13718"><ele>171.0</ele><time>2026-04-26T14:19:33.387Z</time></trkpt><trkpt lat="42.4784217" lon="14.13721"><ele>169.5</ele><time>2026-04-26T14:19:34.379Z</time></trkpt><trkpt lat="42.478545" lon="14.1372533"><ele>168.0</ele><time>2026-04-26T14:19:35.38Z</time></trkpt><trkpt lat="42.4786683" lon="14.1372783"><ele>167.75</ele><time>2026-04-26T14:19:36.382Z</time></trkpt><trkpt lat="42.478795" lon="14.1372833"><ele>167.5</ele><time>2026-04-26T14:19:37.39Z</time></trkpt><trkpt lat="42.4789233" lon="14.1372517"><ele>167.25</ele><time>2026-04-26T14:19:38.409Z</time></trkpt><trkpt lat="42.4790517" lon="14.137185"><ele>167.0</ele><time>2026-04-26T14:19:39.383Z</time></trkpt><trkpt lat="42.47917" lon="14.1371033"><ele>167.0</ele><time>2026-04-26T14:19:40.394Z</time></trkpt><trkpt lat="42.479275" lon="14.137"><ele>167.0</ele><time>2026-04-26T14:19:41.395Z</time></trkpt><trkpt lat="42.47937" lon="14.13687"><ele>167.0</ele><time>2026-04-26T14:19:42.386Z</time></trkpt><trkpt lat="42.4794567" lon="14.13672"><ele>167.0</ele><time>2026-04-26T14:19:43.381Z</time></trkpt><trkpt lat="42.47954" lon="14.1365633"><ele>166.5</ele><time>2026-04-26T14:19:44.414Z</time></trkpt><trkpt lat="42.4796317" lon="14.1364133"><ele>166.0</ele><time>2026-04-26T14:19:45.39Z</time></trkpt><trkpt lat="42.4797333" lon="14.1362683"><ele>165.5</ele><time>2026-04-26T14:19:46.393Z</time></trkpt><trkpt lat="42.4798367" lon="14.1361217"><ele>165.0</ele><time>2026-04-26T14:19:47.39Z</time></trkpt><trkpt lat="42.479925" lon="14.1359617"><ele>165.0</ele><time>2026-04-26T14:19:48.396Z</time></trkpt><trkpt lat="42.47999" lon="14.135795"><ele>165.0</ele><time>2026-04-26T14:19:49.392Z</time></trkpt><trkpt lat="42.4800383" lon="14.135615"><ele>165.0</ele><time>2026-04-26T14:19:50.419Z</time></trkpt><trkpt lat="42.48008" lon="14.1354483"><ele>165.0</ele><time>2026-04-26T14:19:51.383Z</time></trkpt><trkpt lat="42.4801317" lon="14.1353017"><ele>163.0</ele><time>2026-04-26T14:19:52.38Z</time></trkpt><trkpt lat="42.4802017" lon="14.1351683"><ele>161.0</ele><time>2026-04-26T14:19:53.384Z</time></trkpt><trkpt lat="42.4802933" lon="14.1350567"><ele>159.0</ele><time>2026-04-26T14:19:54.388Z</time></trkpt><trkpt lat="42.4803967" lon="14.134955"><ele>157.0</ele><time>2026-04-26T14:19:55.392Z</time></trkpt><trkpt lat="42.4805033" lon="14.1348583"><ele>157.2</ele><time>2026-04-26T14:19:56.454Z</time></trkpt><trkpt lat="42.4806117" lon="14.1347917"><ele>157.39999999999998</ele><time>2026-04-26T14:19:57.386Z</time></trkpt><trkpt lat="42.4807067" lon="14.134765"><ele>157.60000000000002</ele><time>2026-04-26T14:19:58.39Z</time></trkpt><trkpt lat="42.4808" lon="14.1347767"><ele>157.8</ele><time>2026-04-26T14:19:59.38Z</time></trkpt><trkpt lat="42.4808883" lon="14.134835"><ele>158.0</ele><time>2026-04-26T14:20:00.393Z</time></trkpt><trkpt lat="42.4809783" lon="14.134925"><ele>158.0</ele><time>2026-04-26T14:20:01.382Z</time></trkpt><trkpt lat="42.4810633" lon="14.1350267"><ele>158.0</ele><time>2026-04-26T14:20:02.436Z</time></trkpt><trkpt lat="42.481135" lon="14.1351533"><ele>158.0</ele><time>2026-04-26T14:20:03.383Z</time></trkpt><trkpt lat="42.4812" lon="14.135295"><ele>158.0</ele><time>2026-04-26T14:20:04.38Z</time></trkpt><trkpt lat="42.4812517" lon="14.135465"><ele>155.25</ele><time>2026-04-26T14:20:05.392Z</time></trkpt><trkpt lat="42.481305" lon="14.135645"><ele>152.5</ele><time>2026-04-26T14:20:06.392Z</time></trkpt><trkpt lat="42.48136" lon="14.1358283"><ele>149.75</ele><time>2026-04-26T14:20:07.394Z</time></trkpt><trkpt lat="42.481415" lon="14.1360033"><ele>147.0</ele><time>2026-04-26T14:20:08.414Z</time></trkpt><trkpt lat="42.48147" lon="14.1361683"><ele>147.0</ele><time>2026-04-26T14:20:09.391Z</time></trkpt><trkpt lat="42.4815333" lon="14.136315"><ele>147.0</ele><time>2026-04-26T14:20:10.393Z</time></trkpt><trkpt lat="42.4816033" lon="14.1364367"><ele>147.0</ele><time>2026-04-26T14:20:11.397Z</time></trkpt><trkpt lat="42.481685" lon="14.1365183"><ele>147.0</ele><time>2026-04-26T14:20:12.391Z</time></trkpt><trkpt lat="42.4817817" lon="14.13654"><ele>147.0</ele><time>2026-04-26T14:20:13.387Z</time></trkpt><trkpt lat="42.4818767" lon="14.13653"><ele>147.0</ele><time>2026-04-26T14:20:14.409Z</time></trkpt><trkpt lat="42.4819683" lon="14.1364933"><ele>147.0</ele><time>2026-04-26T14:20:15.38Z</time></trkpt><trkpt lat="42.4820533" lon="14.13642"><ele>147.0</ele><time>2026-04-26T14:20:16.384Z</time></trkpt><trkpt lat="42.4821217" lon="14.1362783"><ele>147.0</ele><time>2026-04-26T14:20:17.384Z</time></trkpt><trkpt lat="42.4821733" lon="14.1361133"><ele>145.33333333333334</ele><time>2026-04-26T14:20:18.389Z</time></trkpt><trkpt lat="42.4822167" lon="14.13592"><ele>143.66666666666669</ele><time>2026-04-26T14:20:19.386Z</time></trkpt><trkpt lat="42.48226" lon="14.13571"><ele>142.0</ele><time>2026-04-26T14:20:20.406Z</time></trkpt><trkpt lat="42.4823067" lon="14.1354933"><ele>141.0</ele><time>2026-04-26T14:20:21.386Z</time></trkpt><trkpt lat="42.482355" lon="14.13527"><ele>140.0</ele><time>2026-04-26T14:20:22.389Z</time></trkpt><trkpt lat="42.482405" lon="14.13504"><ele>139.0</ele><time>2026-04-26T14:20:23.387Z</time></trkpt><trkpt lat="42.4824567" lon="14.1348117"><ele>138.33333333333334</ele><time>2026-04-26T14:20:24.391Z</time></trkpt><trkpt lat="42.4825033" lon="14.134585"><ele>137.66666666666666</ele><time>2026-04-26T14:20:25.382Z</time></trkpt><trkpt lat="42.482545" lon="14.13436"><ele>137.0</ele><time>2026-04-26T14:20:26.453Z</time></trkpt><trkpt lat="42.4825833" lon="14.134145"><ele>136.0</ele><time>2026-04-26T14:20:27.388Z</time></trkpt><trkpt lat="42.48262" lon="14.1339417"><ele>135.0</ele><time>2026-04-26T14:20:28.391Z</time></trkpt><trkpt lat="42.4826583" lon="14.1337583"><ele>134.0</ele><time>2026-04-26T14:20:29.382Z</time></trkpt><trkpt lat="42.482705" lon="14.133595"><ele>133.0</ele><time>2026-04-26T14:20:30.394Z</time></trkpt><trkpt lat="42.4827617" lon="14.13345"><ele>133.0</ele><time>2026-04-26T14:20:31.381Z</time></trkpt><trkpt lat="42.4828317" lon="14.133335"><ele>133.0</ele><time>2026-04-26T14:20:32.442Z</time></trkpt><trkpt lat="42.48292" lon="14.1332467"><ele>133.0</ele><time>2026-04-26T14:20:33.39Z</time></trkpt><trkpt lat="42.4830267" lon="14.133175"><ele>133.0</ele><time>2026-04-26T14:20:34.386Z</time></trkpt><trkpt lat="42.4831517" lon="14.133115"><ele>131.66666666666669</ele><time>2026-04-26T14:20:35.387Z</time></trkpt><trkpt lat="42.4832867" lon="14.1330533"><ele>130.33333333333334</ele><time>2026-04-26T14:20:36.392Z</time></trkpt><trkpt lat="42.48343" lon="14.132985"><ele>129.0</ele><time>2026-04-26T14:20:37.39Z</time></trkpt><trkpt lat="42.4835783" lon="14.132915"><ele>129.0</ele><time>2026-04-26T14:20:38.413Z</time></trkpt><trkpt lat="42.4837333" lon="14.1328433"><ele>129.0</ele><time>2026-04-26T14:20:39.383Z</time></trkpt><trkpt lat="42.48389" lon="14.1327683"><ele>129.0</ele><time>2026-04-26T14:20:40.387Z</time></trkpt><trkpt lat="42.48405" lon="14.132695"><ele>127.66666666666666</ele><time>2026-04-26T14:20:41.381Z</time></trkpt><trkpt lat="42.4842067" lon="14.1326183"><ele>126.33333333333333</ele><time>2026-04-26T14:20:42.39Z</time></trkpt><trkpt lat="42.4843617" lon="14.1325467"><ele>125.0</ele><time>2026-04-26T14:20:43.387Z</time></trkpt><trkpt lat="42.4845083" lon="14.1324783"><ele>123.75</ele><time>2026-04-26T14:20:44.403Z</time></trkpt><trkpt lat="42.4846517" lon="14.132415"><ele>122.5</ele><time>2026-04-26T14:20:45.386Z</time></trkpt><trkpt lat="42.4847883" lon="14.1323583"><ele>121.25</ele><time>2026-04-26T14:20:46.39Z</time></trkpt><trkpt lat="42.4849167" lon="14.1323167"><ele>120.0</ele><time>2026-04-26T14:20:47.394Z</time></trkpt><trkpt lat="42.4850433" lon="14.1323"><ele>120.0</ele><time>2026-04-26T14:20:48.38Z</time></trkpt><trkpt lat="42.485165" lon="14.132315"><ele>120.0</ele><time>2026-04-26T14:20:49.394Z</time></trkpt><trkpt lat="42.485285" lon="14.13236"><ele>120.0</ele><time>2026-04-26T14:20:50.415Z</time></trkpt><trkpt lat="42.4854017" lon="14.1324417"><ele>120.0</ele><time>2026-04-26T14:20:51.383Z</time></trkpt><trkpt lat="42.485515" lon="14.13256"><ele>119.33333333333334</ele><time>2026-04-26T14:20:52.387Z</time></trkpt><trkpt lat="42.4856283" lon="14.1326933"><ele>118.66666666666667</ele><time>2026-04-26T14:20:53.394Z</time></trkpt><trkpt lat="42.485745" lon="14.132835"><ele>118.0</ele><time>2026-04-26T14:20:54.38Z</time></trkpt><trkpt lat="42.485865" lon="14.13298"><ele>118.0</ele><time>2026-04-26T14:20:55.393Z</time></trkpt><trkpt lat="42.4859867" lon="14.1331217"><ele>118.0</ele><time>2026-04-26T14:20:56.451Z</time></trkpt><trkpt lat="42.4861033" lon="14.133255"><ele>118.0</ele><time>2026-04-26T14:20:57.392Z</time></trkpt><trkpt lat="42.4862133" lon="14.133385"><ele>118.25</ele><time>2026-04-26T14:20:58.394Z</time></trkpt><trkpt lat="42.486315" lon="14.1335083"><ele>118.5</ele><time>2026-04-26T14:20:59.391Z</time></trkpt><trkpt lat="42.48641" lon="14.1336233"><ele>118.75</ele><time>2026-04-26T14:21:00.38Z</time></trkpt><trkpt lat="42.4864967" lon="14.1337333"><ele>119.0</ele><time>2026-04-26T14:21:01.389Z</time></trkpt><trkpt lat="42.486575" lon="14.13384"><ele>119.0</ele><time>2026-04-26T14:21:02.441Z</time></trkpt><trkpt lat="42.486645" lon="14.13395"><ele>119.0</ele><time>2026-04-26T14:21:03.388Z</time></trkpt><trkpt lat="42.4867017" lon="14.1340733"><ele>119.0</ele><time>2026-04-26T14:21:04.381Z</time></trkpt><trkpt lat="42.48674" lon="14.13421"><ele>119.0</ele><time>2026-04-26T14:21:05.386Z</time></trkpt><trkpt lat="42.486765" lon="14.1343633"><ele>119.0</ele><time>2026-04-26T14:21:06.39Z</time></trkpt><trkpt lat="42.4867883" lon="14.1345283"><ele>118.5</ele><time>2026-04-26T14:21:07.39Z</time></trkpt><trkpt lat="42.486815" lon="14.1347"><ele>118.0</ele><time>2026-04-26T14:21:08.408Z</time></trkpt><trkpt lat="42.4868417" lon="14.1348783"><ele>117.5</ele><time>2026-04-26T14:21:09.381Z</time></trkpt><trkpt lat="42.4868683" lon="14.1350517"><ele>117.0</ele><time>2026-04-26T14:21:10.385Z</time></trkpt><trkpt lat="42.486895" lon="14.1352217"><ele>117.0</ele><time>2026-04-26T14:21:11.387Z</time></trkpt><trkpt lat="42.486925" lon="14.13539"><ele>117.0</ele><time>2026-04-26T14:21:12.39Z</time></trkpt><trkpt lat="42.4869583" lon="14.1355567"><ele>117.0</ele><time>2026-04-26T14:21:13.389Z</time></trkpt><trkpt lat="42.4869967" lon="14.1357283"><ele>117.0</ele><time>2026-04-26T14:21:14.405Z</time></trkpt><trkpt lat="42.4870417" lon="14.1358983"><ele>117.5</ele><time>2026-04-26T14:21:15.381Z</time></trkpt><trkpt lat="42.4870967" lon="14.13607"><ele>118.0</ele><time>2026-04-26T14:21:16.388Z</time></trkpt><trkpt lat="42.48716" lon="14.1362383"><ele>118.5</ele><time>2026-04-26T14:21:17.387Z</time></trkpt><trkpt lat="42.4872283" lon="14.136405"><ele>119.0</ele><time>2026-04-26T14:21:18.391Z</time></trkpt><trkpt lat="42.4872933" lon="14.1365683"><ele>120.25</ele><time>2026-04-26T14:21:19.391Z</time></trkpt><trkpt lat="42.4873533" lon="14.1367267"><ele>121.5</ele><time>2026-04-26T14:21:20.418Z</time></trkpt><trkpt lat="42.4874083" lon="14.1368867"><ele>122.75</ele><time>2026-04-26T14:21:21.402Z</time></trkpt><trkpt lat="42.4874583" lon="14.1370383"><ele>124.0</ele><time>2026-04-26T14:21:22.389Z</time></trkpt><trkpt lat="42.4875" lon="14.1371733"><ele>124.00000000000001</ele><time>2026-04-26T14:21:23.398Z</time></trkpt><trkpt lat="42.4875383" lon="14.1372833"><ele>124.0</ele><time>2026-04-26T14:21:24.389Z</time></trkpt><trkpt lat="42.4875733" lon="14.1373833"><ele>124.0</ele><time>2026-04-26T14:21:25.389Z</time></trkpt><trkpt lat="42.487605" lon="14.13747"><ele>124.0</ele><time>2026-04-26T14:21:26.452Z</time></trkpt><trkpt lat="42.4876317" lon="14.1375583"><ele>124.00000000000001</ele><time>2026-04-26T14:21:27.386Z</time></trkpt><trkpt lat="42.4876567" lon="14.13766"><ele>124.0</ele><time>2026-04-26T14:21:28.389Z</time></trkpt><trkpt lat="42.4876783" lon="14.1377733"><ele>124.0</ele><time>2026-04-26T14:21:29.392Z</time></trkpt><trkpt lat="42.487685" lon="14.1379017"><ele>124.0</ele><time>2026-04-26T14:21:30.389Z</time></trkpt><trkpt lat="42.48768" lon="14.1380383"><ele>124.0</ele><time>2026-04-26T14:21:31.389Z</time></trkpt><trkpt lat="42.4876733" lon="14.13818"><ele>124.0</ele><time>2026-04-26T14:21:32.443Z</time></trkpt><trkpt lat="42.4876717" lon="14.138325"><ele>124.0</ele><time>2026-04-26T14:21:33.385Z</time></trkpt><trkpt lat="42.4876767" lon="14.1384767"><ele>124.25</ele><time>2026-04-26T14:21:34.39Z</time></trkpt><trkpt lat="42.4877" lon="14.1386283"><ele>124.5</ele><time>2026-04-26T14:21:35.393Z</time></trkpt><trkpt lat="42.487745" lon="14.13878"><ele>124.75</ele><time>2026-04-26T14:21:36.381Z</time></trkpt><trkpt lat="42.48781" lon="14.1389283"><ele>125.0</ele><time>2026-04-26T14:21:37.377Z</time></trkpt><trkpt lat="42.4878917" lon="14.139065"><ele>127.25</ele><time>2026-04-26T14:21:38.405Z</time></trkpt><trkpt lat="42.4879933" lon="14.1391817"><ele>129.5</ele><time>2026-04-26T14:21:39.379Z</time></trkpt><trkpt lat="42.48811" lon="14.1392717"><ele>131.75</ele><time>2026-04-26T14:21:40.382Z</time></trkpt><trkpt lat="42.4882417" lon="14.139335"><ele>134.0</ele><time>2026-04-26T14:21:41.39Z</time></trkpt><trkpt lat="42.4883767" lon="14.1393667"><ele>134.0</ele><time>2026-04-26T14:21:42.385Z</time></trkpt><trkpt lat="42.4885133" lon="14.1393783"><ele>134.0</ele><time>2026-04-26T14:21:43.391Z</time></trkpt><trkpt lat="42.4886433" lon="14.1393767"><ele>134.0</ele><time>2026-04-26T14:21:44.41Z</time></trkpt><trkpt lat="42.4887683" lon="14.139385"><ele>134.0</ele><time>2026-04-26T14:21:45.391Z</time></trkpt><trkpt lat="42.4888867" lon="14.1394017"><ele>134.5</ele><time>2026-04-26T14:21:46.39Z</time></trkpt><trkpt lat="42.4889883" lon="14.1394317"><ele>135.0</ele><time>2026-04-26T14:21:47.381Z</time></trkpt><trkpt lat="42.4890767" lon="14.1394733"><ele>135.5</ele><time>2026-04-26T14:21:48.389Z</time></trkpt><trkpt lat="42.4891567" lon="14.1395283"><ele>136.0</ele><time>2026-04-26T14:21:49.393Z</time></trkpt><trkpt lat="42.4892317" lon="14.1395767"><ele>136.5</ele><time>2026-04-26T14:21:50.413Z</time></trkpt><trkpt lat="42.489305" lon="14.1396083"><ele>137.0</ele><time>2026-04-26T14:21:51.384Z</time></trkpt><trkpt lat="42.4893733" lon="14.1396067"><ele>137.0</ele><time>2026-04-26T14:21:52.388Z</time></trkpt><trkpt lat="42.4894417" lon="14.13957"><ele>137.0</ele><time>2026-04-26T14:21:53.393Z</time></trkpt><trkpt lat="42.489515" lon="14.1395183"><ele>137.0</ele><time>2026-04-26T14:21:54.391Z</time></trkpt><trkpt lat="42.4896033" lon="14.1394783"><ele>137.0</ele><time>2026-04-26T14:21:55.39Z</time></trkpt><trkpt lat="42.4897" lon="14.139455"><ele>137.0</ele><time>2026-04-26T14:21:56.455Z</time></trkpt><trkpt lat="42.4898117" lon="14.1394533"><ele>138.0</ele><time>2026-04-26T14:21:57.389Z</time></trkpt><trkpt lat="42.4899317" lon="14.139455"><ele>139.0</ele><time>2026-04-26T14:21:58.39Z</time></trkpt><trkpt lat="42.49006" lon="14.1394583"><ele>140.0</ele><time>2026-04-26T14:21:59.393Z</time></trkpt><trkpt lat="42.4901917" lon="14.1394667"><ele>141.0</ele><time>2026-04-26T14:22:00.39Z</time></trkpt><trkpt lat="42.4903217" lon="14.1394783"><ele>143.5</ele><time>2026-04-26T14:22:01.393Z</time></trkpt><trkpt lat="42.4904533" lon="14.13949"><ele>146.0</ele><time>2026-04-26T14:22:02.458Z</time></trkpt><trkpt lat="42.490575" lon="14.1394967"><ele>148.5</ele><time>2026-04-26T14:22:03.386Z</time></trkpt><trkpt lat="42.4906833" lon="14.1395033"><ele>151.0</ele><time>2026-04-26T14:22:04.388Z</time></trkpt><trkpt lat="42.4907767" lon="14.139525"><ele>151.0</ele><time>2026-04-26T14:22:05.38Z</time></trkpt><trkpt lat="42.4908533" lon="14.139565"><ele>151.0</ele><time>2026-04-26T14:22:06.387Z</time></trkpt><trkpt lat="42.4908767" lon="14.139645"><ele>151.0</ele><time>2026-04-26T14:22:07.391Z</time></trkpt><trkpt lat="42.4908983" lon="14.1397283"><ele>151.0</ele><time>2026-04-26T14:22:08.415Z</time></trkpt><trkpt lat="42.4909017" lon="14.1398483"><ele>151.0</ele><time>2026-04-26T14:22:09.378Z</time></trkpt><trkpt lat="42.4908983" lon="14.139985"><ele>151.0</ele><time>2026-04-26T14:22:10.378Z</time></trkpt><trkpt lat="42.4908967" lon="14.1401267"><ele>152.0</ele><time>2026-04-26T14:22:11.382Z</time></trkpt><trkpt lat="42.4908967" lon="14.1403"><ele>153.0</ele><time>2026-04-26T14:22:12.387Z</time></trkpt><trkpt lat="42.4909" lon="14.140475"><ele>154.0</ele><time>2026-04-26T14:22:13.385Z</time></trkpt><trkpt lat="42.4909067" lon="14.1406317"><ele>155.0</ele><time>2026-04-26T14:22:14.411Z</time></trkpt><trkpt lat="42.490915" lon="14.140755"><ele>155.66666666666666</ele><time>2026-04-26T14:22:15.381Z</time></trkpt><trkpt lat="42.4909617" lon="14.14083"><ele>156.33333333333331</ele><time>2026-04-26T14:22:16.383Z</time></trkpt><trkpt lat="42.4910167" lon="14.1408867"><ele>157.0</ele><time>2026-04-26T14:22:17.38Z</time></trkpt><trkpt lat="42.49109" lon="14.1408633"><ele>157.66666666666666</ele><time>2026-04-26T14:22:18.388Z</time></trkpt><trkpt lat="42.4911633" lon="14.140805"><ele>158.33333333333334</ele><time>2026-04-26T14:22:19.387Z</time></trkpt><trkpt lat="42.491225" lon="14.140725"><ele>159.0</ele><time>2026-04-26T14:22:20.405Z</time></trkpt><trkpt lat="42.4912767" lon="14.1406283"><ele>159.4</ele><time>2026-04-26T14:22:21.386Z</time></trkpt><trkpt lat="42.49132" lon="14.14054"><ele>159.8</ele><time>2026-04-26T14:22:22.395Z</time></trkpt><trkpt lat="42.49136" lon="14.1404683"><ele>160.20000000000002</ele><time>2026-04-26T14:22:23.381Z</time></trkpt><trkpt lat="42.491395" lon="14.1403967"><ele>160.60000000000002</ele><time>2026-04-26T14:22:24.39Z</time></trkpt><trkpt lat="42.49149" lon="14.140325"><ele>161.0</ele><time>2026-04-26T14:22:26.455Z</time></trkpt><trkpt lat="42.49161" lon="14.1404117"><ele>161.0</ele><time>2026-04-26T14:22:28.388Z</time></trkpt><trkpt lat="42.4916467" lon="14.140525"><ele>161.0</ele><time>2026-04-26T14:22:29.389Z</time></trkpt><trkpt lat="42.49169" lon="14.14066"><ele>161.0</ele><time>2026-04-26T14:22:30.387Z</time></trkpt><trkpt lat="42.4917283" lon="14.140815"><ele>161.0</ele><time>2026-04-26T14:22:31.392Z</time></trkpt><trkpt lat="42.4917683" lon="14.1409717"><ele>161.0</ele><time>2026-04-26T14:22:32.443Z</time></trkpt><trkpt lat="42.4918017" lon="14.1411367"><ele>161.0</ele><time>2026-04-26T14:22:33.39Z</time></trkpt><trkpt lat="42.491825" lon="14.1413"><ele>161.0</ele><time>2026-04-26T14:22:34.379Z</time></trkpt><trkpt lat="42.4918267" lon="14.1414583"><ele>161.0</ele><time>2026-04-26T14:22:35.38Z</time></trkpt><trkpt lat="42.4918117" lon="14.141615"><ele>161.0</ele><time>2026-04-26T14:22:36.389Z</time></trkpt><trkpt lat="42.491775" lon="14.1417683"><ele>161.0</ele><time>2026-04-26T14:22:37.394Z</time></trkpt><trkpt lat="42.4917233" lon="14.1419183"><ele>161.0</ele><time>2026-04-26T14:22:38.421Z</time></trkpt><trkpt lat="42.4916717" lon="14.1420583"><ele>161.0</ele><time>2026-04-26T14:22:39.393Z</time></trkpt><trkpt lat="42.4916317" lon="14.1422"><ele>161.0</ele><time>2026-04-26T14:22:40.388Z</time></trkpt><trkpt lat="42.491645" lon="14.142315"><ele>161.0</ele><time>2026-04-26T14:22:41.388Z</time></trkpt><trkpt lat="42.4916783" lon="14.142435"><ele>160.20000000000002</ele><time>2026-04-26T14:22:42.394Z</time></trkpt><trkpt lat="42.4917333" lon="14.1425533"><ele>159.4</ele><time>2026-04-26T14:22:43.388Z</time></trkpt><trkpt lat="42.491785" lon="14.1426717"><ele>158.6</ele><time>2026-04-26T14:22:44.416Z</time></trkpt><trkpt lat="42.4918317" lon="14.1427867"><ele>157.8</ele><time>2026-04-26T14:22:45.385Z</time></trkpt><trkpt lat="42.4918467" lon="14.1429"><ele>157.0</ele><time>2026-04-26T14:22:46.389Z</time></trkpt><trkpt lat="42.49184" lon="14.143005"><ele>157.0</ele><time>2026-04-26T14:22:47.388Z</time></trkpt><trkpt lat="42.4917833" lon="14.1430917"><ele>157.0</ele><time>2026-04-26T14:22:48.386Z</time></trkpt><trkpt lat="42.4917217" lon="14.1431767"><ele>157.0</ele><time>2026-04-26T14:22:49.385Z</time></trkpt><trkpt lat="42.4916583" lon="14.1432683"><ele>157.0</ele><time>2026-04-26T14:22:50.406Z</time></trkpt><trkpt lat="42.491605" lon="14.1433733"><ele>157.0</ele><time>2026-04-26T14:22:51.383Z</time></trkpt><trkpt lat="42.49159" lon="14.1434967"><ele>156.0</ele><time>2026-04-26T14:22:52.384Z</time></trkpt><trkpt lat="42.49159" lon="14.1436133"><ele>155.0</ele><time>2026-04-26T14:22:53.387Z</time></trkpt><trkpt lat="42.4916417" lon="14.1437483"><ele>154.0</ele><time>2026-04-26T14:22:54.39Z</time></trkpt><trkpt lat="42.49171" lon="14.14389"><ele>153.0</ele><time>2026-04-26T14:22:55.39Z</time></trkpt><trkpt lat="42.4918" lon="14.1440233"><ele>154.0</ele><time>2026-04-26T14:22:56.439Z</time></trkpt><trkpt lat="42.491905" lon="14.1441417"><ele>155.0</ele><time>2026-04-26T14:22:57.39Z</time></trkpt><trkpt lat="42.49203" lon="14.1442333"><ele>156.0</ele><time>2026-04-26T14:22:58.389Z</time></trkpt><trkpt lat="42.4921717" lon="14.1442983"><ele>157.0</ele><time>2026-04-26T14:22:59.399Z</time></trkpt><trkpt lat="42.492315" lon="14.14435"><ele>150.75</ele><time>2026-04-26T14:23:00.392Z</time></trkpt><trkpt lat="42.4924517" lon="14.144405"><ele>144.5</ele><time>2026-04-26T14:23:01.391Z</time></trkpt><trkpt lat="42.492585" lon="14.1444717"><ele>138.25</ele><time>2026-04-26T14:23:02.449Z</time></trkpt><trkpt lat="42.4927117" lon="14.14454"><ele>132.0</ele><time>2026-04-26T14:23:03.388Z</time></trkpt><trkpt lat="42.4928283" lon="14.144605"><ele>133.25</ele><time>2026-04-26T14:23:04.379Z</time></trkpt><trkpt lat="42.4929383" lon="14.14468"><ele>134.5</ele><time>2026-04-26T14:23:05.377Z</time></trkpt><trkpt lat="42.4930317" lon="14.1447717"><ele>135.75</ele><time>2026-04-26T14:23:06.384Z</time></trkpt><trkpt lat="42.4931067" lon="14.144875"><ele>137.0</ele><time>2026-04-26T14:23:07.386Z</time></trkpt><trkpt lat="42.4931783" lon="14.144995"><ele>137.0</ele><time>2026-04-26T14:23:08.404Z</time></trkpt><trkpt lat="42.4932567" lon="14.1451017"><ele>137.0</ele><time>2026-04-26T14:23:09.39Z</time></trkpt><trkpt lat="42.493335" lon="14.1451867"><ele>137.0</ele><time>2026-04-26T14:23:10.384Z</time></trkpt><trkpt lat="42.4934267" lon="14.1452533"><ele>137.0</ele><time>2026-04-26T14:23:11.393Z</time></trkpt><trkpt lat="42.493525" lon="14.1453067"><ele>137.0</ele><time>2026-04-26T14:23:12.387Z</time></trkpt><trkpt lat="42.4936233" lon="14.1453283"><ele>137.0</ele><time>2026-04-26T14:23:13.385Z</time></trkpt><trkpt lat="42.49373" lon="14.1452567"><ele>137.0</ele><time>2026-04-26T14:23:14.411Z</time></trkpt><trkpt lat="42.4938217" lon="14.1451817"><ele>137.0</ele><time>2026-04-26T14:23:15.386Z</time></trkpt><trkpt lat="42.4938833" lon="14.14506"><ele>137.0</ele><time>2026-04-26T14:23:16.392Z</time></trkpt><trkpt lat="42.4939333" lon="14.1449267"><ele>137.0</ele><time>2026-04-26T14:23:17.386Z</time></trkpt><trkpt lat="42.493975" lon="14.1447767"><ele>132.25</ele><time>2026-04-26T14:23:18.396Z</time></trkpt><trkpt lat="42.49402" lon="14.1446083"><ele>127.5</ele><time>2026-04-26T14:23:19.394Z</time></trkpt><trkpt lat="42.494055" lon="14.1444383"><ele>122.75</ele><time>2026-04-26T14:23:20.415Z</time></trkpt><trkpt lat="42.4940933" lon="14.144285"><ele>118.0</ele><time>2026-04-26T14:23:21.387Z</time></trkpt><trkpt lat="42.4941417" lon="14.14414"><ele>112.75</ele><time>2026-04-26T14:23:22.389Z</time></trkpt><trkpt lat="42.494235" lon="14.1440317"><ele>107.5</ele><time>2026-04-26T14:23:23.388Z</time></trkpt><trkpt lat="42.4943367" lon="14.1439417"><ele>102.25</ele><time>2026-04-26T14:23:24.389Z</time></trkpt><trkpt lat="42.4944517" lon="14.14387"><ele>97.0</ele><time>2026-04-26T14:23:25.381Z</time></trkpt><trkpt lat="42.4945733" lon="14.143825"><ele>98.75</ele><time>2026-04-26T14:23:26.443Z</time></trkpt><trkpt lat="42.494695" lon="14.1438017"><ele>100.5</ele><time>2026-04-26T14:23:27.385Z</time></trkpt><trkpt lat="42.4948217" lon="14.1438"><ele>102.25</ele><time>2026-04-26T14:23:28.377Z</time></trkpt><trkpt lat="42.4949583" lon="14.1438"><ele>104.0</ele><time>2026-04-26T14:23:29.381Z</time></trkpt><trkpt lat="42.4950983" lon="14.14379"><ele>104.0</ele><time>2026-04-26T14:23:30.389Z</time></trkpt><trkpt lat="42.49524" lon="14.143765"><ele>104.0</ele><time>2026-04-26T14:23:31.391Z</time></trkpt><trkpt lat="42.495385" lon="14.1437267"><ele>104.0</ele><time>2026-04-26T14:23:32.443Z</time></trkpt><trkpt lat="42.4955233" lon="14.14368"><ele>104.0</ele><time>2026-04-26T14:23:33.384Z</time></trkpt><trkpt lat="42.4956567" lon="14.1436217"><ele>105.75</ele><time>2026-04-26T14:23:34.384Z</time></trkpt><trkpt lat="42.4957883" lon="14.1435433"><ele>107.5</ele><time>2026-04-26T14:23:35.382Z</time></trkpt><trkpt lat="42.4959117" lon="14.1434467"><ele>109.25</ele><time>2026-04-26T14:23:36.384Z</time></trkpt><trkpt lat="42.4960317" lon="14.1433333"><ele>111.0</ele><time>2026-04-26T14:23:37.39Z</time></trkpt><trkpt lat="42.49615" lon="14.1432183"><ele>108.25</ele><time>2026-04-26T14:23:38.416Z</time></trkpt><trkpt lat="42.4962683" lon="14.1431033"><ele>105.5</ele><time>2026-04-26T14:23:39.389Z</time></trkpt><trkpt lat="42.4963817" lon="14.1429967"><ele>102.75</ele><time>2026-04-26T14:23:40.387Z</time></trkpt><trkpt lat="42.4964983" lon="14.1429"><ele>100.0</ele><time>2026-04-26T14:23:41.384Z</time></trkpt><trkpt lat="42.4966067" lon="14.1428083"><ele>100.0</ele><time>2026-04-26T14:23:42.381Z</time></trkpt><trkpt lat="42.4966983" lon="14.1427283"><ele>100.0</ele><time>2026-04-26T14:23:43.379Z</time></trkpt><trkpt lat="42.49678" lon="14.142655"><ele>100.0</ele><time>2026-04-26T14:23:44.411Z</time></trkpt><trkpt lat="42.4968667" lon="14.1425783"><ele>100.0</ele><time>2026-04-26T14:23:45.392Z</time></trkpt><trkpt lat="42.4969583" lon="14.1425"><ele>100.0</ele><time>2026-04-26T14:23:46.387Z</time></trkpt><trkpt lat="42.4970483" lon="14.14241"><ele>96.25</ele><time>2026-04-26T14:23:47.382Z</time></trkpt><trkpt lat="42.4971367" lon="14.14231"><ele>92.5</ele><time>2026-04-26T14:23:48.39Z</time></trkpt><trkpt lat="42.4972233" lon="14.1422083"><ele>88.75</ele><time>2026-04-26T14:23:49.387Z</time></trkpt><trkpt lat="42.49731" lon="14.1421017"><ele>85.0</ele><time>2026-04-26T14:23:50.409Z</time></trkpt><trkpt lat="42.49739" lon="14.14201"><ele>85.0</ele><time>2026-04-26T14:23:51.381Z</time></trkpt><trkpt lat="42.49746" lon="14.14195"><ele>85.0</ele><time>2026-04-26T14:23:52.383Z</time></trkpt><trkpt lat="42.4975217" lon="14.1419217"><ele>85.0</ele><time>2026-04-26T14:23:53.386Z</time></trkpt><trkpt lat="42.49762" lon="14.142015"><ele>85.0</ele><time>2026-04-26T14:23:55.385Z</time></trkpt><trkpt lat="42.4976483" lon="14.1420933"><ele>85.0</ele><time>2026-04-26T14:23:56.445Z</time></trkpt><trkpt lat="42.4976467" lon="14.1421867"><ele>85.0</ele><time>2026-04-26T14:23:57.388Z</time></trkpt><trkpt lat="42.4976133" lon="14.1423033"><ele>85.25</ele><time>2026-04-26T14:23:58.388Z</time></trkpt><trkpt lat="42.4975533" lon="14.142425"><ele>85.5</ele><time>2026-04-26T14:23:59.386Z</time></trkpt><trkpt lat="42.4974767" lon="14.1425583"><ele>85.75</ele><time>2026-04-26T14:24:00.386Z</time></trkpt><trkpt lat="42.49739" lon="14.1427117"><ele>86.0</ele><time>2026-04-26T14:24:01.379Z</time></trkpt><trkpt lat="42.497295" lon="14.1428767"><ele>86.0</ele><time>2026-04-26T14:24:02.434Z</time></trkpt><trkpt lat="42.4971933" lon="14.1430433"><ele>86.0</ele><time>2026-04-26T14:24:03.385Z</time></trkpt><trkpt lat="42.4970933" lon="14.1432167"><ele>86.0</ele><time>2026-04-26T14:24:04.383Z</time></trkpt><trkpt lat="42.496995" lon="14.1433817"><ele>88.5</ele><time>2026-04-26T14:24:05.383Z</time></trkpt><trkpt lat="42.4969017" lon="14.1435333"><ele>91.0</ele><time>2026-04-26T14:24:06.385Z</time></trkpt><trkpt lat="42.4968067" lon="14.1436717"><ele>93.5</ele><time>2026-04-26T14:24:07.394Z</time></trkpt><trkpt lat="42.4967167" lon="14.1437983"><ele>96.0</ele><time>2026-04-26T14:24:08.425Z</time></trkpt><trkpt lat="42.4966383" lon="14.14391"><ele>96.0</ele><time>2026-04-26T14:24:09.388Z</time></trkpt><trkpt lat="42.4965683" lon="14.1440133"><ele>96.0</ele><time>2026-04-26T14:24:10.391Z</time></trkpt><trkpt lat="42.4965133" lon="14.144125"><ele>96.0</ele><time>2026-04-26T14:24:11.391Z</time></trkpt><trkpt lat="42.4964733" lon="14.1442483"><ele>96.0</ele><time>2026-04-26T14:24:12.377Z</time></trkpt><trkpt lat="42.4964433" lon="14.14439"><ele>96.0</ele><time>2026-04-26T14:24:13.38Z</time></trkpt><trkpt lat="42.496435" lon="14.1445517"><ele>92.5</ele><time>2026-04-26T14:24:14.403Z</time></trkpt><trkpt lat="42.49644" lon="14.1447133"><ele>89.0</ele><time>2026-04-26T14:24:15.376Z</time></trkpt><trkpt lat="42.4964317" lon="14.14488"><ele>85.5</ele><time>2026-04-26T14:24:16.38Z</time></trkpt><trkpt lat="42.496415" lon="14.145035"><ele>82.0</ele><time>2026-04-26T14:24:17.379Z</time></trkpt><trkpt lat="42.4963817" lon="14.1451817"><ele>82.0</ele><time>2026-04-26T14:24:18.381Z</time></trkpt><trkpt lat="42.49633" lon="14.1453117"><ele>82.0</ele><time>2026-04-26T14:24:19.388Z</time></trkpt><trkpt lat="42.4962783" lon="14.14544"><ele>82.0</ele><time>2026-04-26T14:24:20.415Z</time></trkpt><trkpt lat="42.4962433" lon="14.1455683"><ele>82.0</ele><time>2026-04-26T14:24:21.388Z</time></trkpt><trkpt lat="42.4962267" lon="14.1457017"><ele>82.0</ele><time>2026-04-26T14:24:22.379Z</time></trkpt><trkpt lat="42.496245" lon="14.145825"><ele>80.0</ele><time>2026-04-26T14:24:23.384Z</time></trkpt><trkpt lat="42.4962867" lon="14.145935"><ele>78.0</ele><time>2026-04-26T14:24:24.388Z</time></trkpt><trkpt lat="42.4963667" lon="14.1460067"><ele>76.0</ele><time>2026-04-26T14:24:25.396Z</time></trkpt><trkpt lat="42.4964533" lon="14.146045"><ele>74.0</ele><time>2026-04-26T14:24:26.447Z</time></trkpt><trkpt lat="42.49654" lon="14.146045"><ele>72.0</ele><time>2026-04-26T14:24:27.389Z</time></trkpt><trkpt lat="42.4966217" lon="14.1459467"><ele>72.0</ele><time>2026-04-26T14:24:28.377Z</time></trkpt><trkpt lat="42.4966867" lon="14.1458333"><ele>72.0</ele><time>2026-04-26T14:24:29.384Z</time></trkpt><trkpt lat="42.4967283" lon="14.1456733"><ele>72.0</ele><time>2026-04-26T14:24:30.38Z</time></trkpt><trkpt lat="42.496755" lon="14.1455017"><ele>72.0</ele><time>2026-04-26T14:24:31.39Z</time></trkpt><trkpt lat="42.4967767" lon="14.14533"><ele>71.5</ele><time>2026-04-26T14:24:32.445Z</time></trkpt><trkpt lat="42.4968067" lon="14.145155"><ele>71.0</ele><time>2026-04-26T14:24:33.385Z</time></trkpt><trkpt lat="42.4968617" lon="14.14499"><ele>70.5</ele><time>2026-04-26T14:24:34.39Z</time></trkpt><trkpt lat="42.4969367" lon="14.1448367"><ele>70.0</ele><time>2026-04-26T14:24:35.387Z</time></trkpt><trkpt lat="42.4970367" lon="14.144705"><ele>67.5</ele><time>2026-04-26T14:24:36.388Z</time></trkpt><trkpt lat="42.4971467" lon="14.1445867"><ele>65.0</ele><time>2026-04-26T14:24:37.392Z</time></trkpt><trkpt lat="42.4972717" lon="14.144485"><ele>62.5</ele><time>2026-04-26T14:24:38.414Z</time></trkpt><trkpt lat="42.4974033" lon="14.1443883"><ele>60.0</ele><time>2026-04-26T14:24:39.393Z</time></trkpt><trkpt lat="42.4975333" lon="14.1442883"><ele>60.0</ele><time>2026-04-26T14:24:40.388Z</time></trkpt><trkpt lat="42.4976567" lon="14.1441667"><ele>60.0</ele><time>2026-04-26T14:24:41.391Z</time></trkpt><trkpt lat="42.4977817" lon="14.1440217"><ele>60.0</ele><time>2026-04-26T14:24:42.379Z</time></trkpt><trkpt lat="42.4979017" lon="14.1438533"><ele>57.0</ele><time>2026-04-26T14:24:43.386Z</time></trkpt><trkpt lat="42.4980133" lon="14.14368"><ele>54.0</ele><time>2026-04-26T14:24:44.429Z</time></trkpt><trkpt lat="42.4981233" lon="14.143515"><ele>51.0</ele><time>2026-04-26T14:24:45.39Z</time></trkpt><trkpt lat="42.498225" lon="14.1433517"><ele>54.25</ele><time>2026-04-26T14:24:46.392Z</time></trkpt><trkpt lat="42.498315" lon="14.1431983"><ele>57.5</ele><time>2026-04-26T14:24:47.392Z</time></trkpt><trkpt lat="42.498395" lon="14.1430617"><ele>60.75</ele><time>2026-04-26T14:24:48.386Z</time></trkpt><trkpt lat="42.49846" lon="14.14295"><ele>64.0</ele><time>2026-04-26T14:24:49.392Z</time></trkpt><trkpt lat="42.498515" lon="14.1428567"><ele>63.99999999999999</ele><time>2026-04-26T14:24:50.411Z</time></trkpt><trkpt lat="42.49856" lon="14.14278"><ele>64.0</ele><time>2026-04-26T14:24:51.39Z</time></trkpt><trkpt lat="42.4986217" lon="14.1426933"><ele>64.0</ele><time>2026-04-26T14:24:53.392Z</time></trkpt><trkpt lat="42.498695" lon="14.1426483"><ele>64.0</ele><time>2026-04-26T14:25:10.386Z</time></trkpt><trkpt lat="42.4987583" lon="14.1425317"><ele>63.99999999999999</ele><time>2026-04-26T14:25:21.383Z</time></trkpt><trkpt lat="42.4987833" lon="14.14244"><ele>64.0</ele><time>2026-04-26T14:25:22.387Z</time></trkpt><trkpt lat="42.4988167" lon="14.1423283"><ele>58.75</ele><time>2026-04-26T14:25:23.378Z</time></trkpt><trkpt lat="42.4988617" lon="14.1422"><ele>53.5</ele><time>2026-04-26T14:25:24.377Z</time></trkpt><trkpt lat="42.4989167" lon="14.14206"><ele>48.25</ele><time>2026-04-26T14:25:25.383Z</time></trkpt><trkpt lat="42.4989767" lon="14.14192"><ele>43.0</ele><time>2026-04-26T14:25:26.445Z</time></trkpt><trkpt lat="42.4990417" lon="14.1417767"><ele>43.0</ele><time>2026-04-26T14:25:27.39Z</time></trkpt><trkpt lat="42.4991133" lon="14.1416383"><ele>43.0</ele><time>2026-04-26T14:25:28.388Z</time></trkpt><trkpt lat="42.4991883" lon="14.1415067"><ele>43.0</ele><time>2026-04-26T14:25:29.393Z</time></trkpt><trkpt lat="42.4992683" lon="14.1413833"><ele>43.0</ele><time>2026-04-26T14:25:30.387Z</time></trkpt><trkpt lat="42.499355" lon="14.1412667"><ele>45.25</ele><time>2026-04-26T14:25:31.388Z</time></trkpt><trkpt lat="42.499445" lon="14.14116"><ele>47.5</ele><time>2026-04-26T14:25:32.434Z</time></trkpt><trkpt lat="42.49954" lon="14.1410567"><ele>49.75</ele><time>2026-04-26T14:25:33.38Z</time></trkpt><trkpt lat="42.4996383" lon="14.1409567"><ele>52.0</ele><time>2026-04-26T14:25:34.384Z</time></trkpt><trkpt lat="42.499735" lon="14.1408583"><ele>48.75</ele><time>2026-04-26T14:25:35.391Z</time></trkpt><trkpt lat="42.499825" lon="14.1407633"><ele>45.5</ele><time>2026-04-26T14:25:36.38Z</time></trkpt><trkpt lat="42.49991" lon="14.1406683"><ele>42.25</ele><time>2026-04-26T14:25:37.376Z</time></trkpt><trkpt lat="42.49999" lon="14.1405617"><ele>39.0</ele><time>2026-04-26T14:25:38.412Z</time></trkpt><trkpt lat="42.5000717" lon="14.1404433"><ele>39.0</ele><time>2026-04-26T14:25:39.388Z</time></trkpt><trkpt lat="42.5001517" lon="14.1403233"><ele>39.0</ele><time>2026-04-26T14:25:40.389Z</time></trkpt><trkpt lat="42.5002283" lon="14.14021"><ele>39.0</ele><time>2026-04-26T14:25:41.389Z</time></trkpt><trkpt lat="42.5003033" lon="14.1400967"><ele>39.0</ele><time>2026-04-26T14:25:42.378Z</time></trkpt><trkpt lat="42.5003717" lon="14.1399817"><ele>36.4</ele><time>2026-04-26T14:25:43.381Z</time></trkpt><trkpt lat="42.500445" lon="14.13987"><ele>33.8</ele><time>2026-04-26T14:25:44.409Z</time></trkpt><trkpt lat="42.500515" lon="14.1397583"><ele>31.200000000000003</ele><time>2026-04-26T14:25:45.39Z</time></trkpt><trkpt lat="42.5005817" lon="14.1396417"><ele>28.6</ele><time>2026-04-26T14:25:46.389Z</time></trkpt><trkpt lat="42.5006433" lon="14.13953"><ele>26.0</ele><time>2026-04-26T14:25:47.388Z</time></trkpt><trkpt lat="42.500705" lon="14.1394183"><ele>26.0</ele><time>2026-04-26T14:25:48.385Z</time></trkpt><trkpt lat="42.5007683" lon="14.1393033"><ele>26.0</ele><time>2026-04-26T14:25:49.387Z</time></trkpt><trkpt lat="42.500835" lon="14.1391867"><ele>26.0</ele><time>2026-04-26T14:25:50.415Z</time></trkpt><trkpt lat="42.5009033" lon="14.1390667"><ele>26.0</ele><time>2026-04-26T14:25:51.381Z</time></trkpt><trkpt lat="42.5009683" lon="14.1389533"><ele>26.0</ele><time>2026-04-26T14:25:52.388Z</time></trkpt><trkpt lat="42.5010333" lon="14.138855"><ele>25.0</ele><time>2026-04-26T14:25:53.386Z</time></trkpt><trkpt lat="42.5011033" lon="14.1387767"><ele>24.0</ele><time>2026-04-26T14:25:54.378Z</time></trkpt><trkpt lat="42.5011767" lon="14.1387167"><ele>23.0</ele><time>2026-04-26T14:25:55.379Z</time></trkpt><trkpt lat="42.5012517" lon="14.1386817"><ele>22.0</ele><time>2026-04-26T14:25:56.438Z</time></trkpt><trkpt lat="42.5013583" lon="14.138675"><ele>21.0</ele><time>2026-04-26T14:25:58.377Z</time></trkpt><trkpt lat="42.5014417" lon="14.138715"><ele>20.400000000000002</ele><time>2026-04-26T14:26:00.393Z</time></trkpt><trkpt lat="42.501535" lon="14.13871"><ele>19.8</ele><time>2026-04-26T14:26:02.442Z</time></trkpt><trkpt lat="42.5015933" lon="14.1386683"><ele>19.200000000000003</ele><time>2026-04-26T14:26:03.382Z</time></trkpt><trkpt lat="42.50166" lon="14.1386033"><ele>18.6</ele><time>2026-04-26T14:26:04.392Z</time></trkpt><trkpt lat="42.5017367" lon="14.1385167"><ele>18.0</ele><time>2026-04-26T14:26:05.39Z</time></trkpt><trkpt lat="42.5018217" lon="14.1384233"><ele>18.0</ele><time>2026-04-26T14:26:06.391Z</time></trkpt><trkpt lat="42.5019133" lon="14.138325"><ele>18.0</ele><time>2026-04-26T14:26:07.386Z</time></trkpt><trkpt lat="42.5020083" lon="14.138225"><ele>18.0</ele><time>2026-04-26T14:26:08.408Z</time></trkpt><trkpt lat="42.502105" lon="14.1381233"><ele>18.0</ele><time>2026-04-26T14:26:09.383Z</time></trkpt><trkpt lat="42.5022017" lon="14.1380183"><ele>17.5</ele><time>2026-04-26T14:26:10.385Z</time></trkpt><trkpt lat="42.5022983" lon="14.1379083"><ele>17.0</ele><time>2026-04-26T14:26:11.382Z</time></trkpt><trkpt lat="42.5023967" lon="14.1377917"><ele>16.5</ele><time>2026-04-26T14:26:12.383Z</time></trkpt><trkpt lat="42.5024933" lon="14.1376717"><ele>16.0</ele><time>2026-04-26T14:26:13.386Z</time></trkpt><trkpt lat="42.5025883" lon="14.13755"><ele>16.0</ele><time>2026-04-26T14:26:14.41Z</time></trkpt><trkpt lat="42.5026833" lon="14.1374283"><ele>16.0</ele><time>2026-04-26T14:26:15.389Z</time></trkpt><trkpt lat="42.5027783" lon="14.1373083"><ele>16.0</ele><time>2026-04-26T14:26:16.388Z</time></trkpt><trkpt lat="42.5028733" lon="14.1371917"><ele>16.0</ele><time>2026-04-26T14:26:17.387Z</time></trkpt><trkpt lat="42.5029667" lon="14.13707"><ele>16.0</ele><time>2026-04-26T14:26:18.388Z</time></trkpt><trkpt lat="42.5030583" lon="14.13695"><ele>16.0</ele><time>2026-04-26T14:26:19.391Z</time></trkpt><trkpt lat="42.5031517" lon="14.1368283"><ele>16.0</ele><time>2026-04-26T14:26:20.408Z</time></trkpt><trkpt lat="42.5032417" lon="14.1367133"><ele>16.0</ele><time>2026-04-26T14:26:21.386Z</time></trkpt><trkpt lat="42.50333" lon="14.1366017"><ele>15.600000000000001</ele><time>2026-04-26T14:26:22.387Z</time></trkpt><trkpt lat="42.5034117" lon="14.1364983"><ele>15.200000000000001</ele><time>2026-04-26T14:26:23.387Z</time></trkpt><trkpt lat="42.50349" lon="14.1363933"><ele>14.799999999999999</ele><time>2026-04-26T14:26:24.384Z</time></trkpt><trkpt lat="42.5035633" lon="14.1362933"><ele>14.399999999999999</ele><time>2026-04-26T14:26:25.384Z</time></trkpt><trkpt lat="42.50363" lon="14.1362083"><ele>14.0</ele><time>2026-04-26T14:26:26.437Z</time></trkpt><trkpt lat="42.5036917" lon="14.1361483"><ele>14.000000000000002</ele><time>2026-04-26T14:26:27.382Z</time></trkpt><trkpt lat="42.5037617" lon="14.1361017"><ele>14.0</ele><time>2026-04-26T14:26:29.382Z</time></trkpt><trkpt lat="42.5037183" lon="14.1359583"><ele>14.0</ele><time>2026-04-26T14:26:50.407Z</time></trkpt><trkpt lat="42.5036617" lon="14.1358917"><ele>14.0</ele><time>2026-04-26T14:26:51.383Z</time></trkpt><trkpt lat="42.5035983" lon="14.1358233"><ele>14.000000000000002</ele><time>2026-04-26T14:26:52.378Z</time></trkpt><trkpt lat="42.503535" lon="14.1357567"><ele>14.0</ele><time>2026-04-26T14:26:53.384Z</time></trkpt><trkpt lat="42.5034683" lon="14.135685"><ele>13.666666666666668</ele><time>2026-04-26T14:26:54.389Z</time></trkpt><trkpt lat="42.5034033" lon="14.1356117"><ele>13.333333333333334</ele><time>2026-04-26T14:26:55.387Z</time></trkpt><trkpt lat="42.5033383" lon="14.1355417"><ele>13.0</ele><time>2026-04-26T14:26:56.443Z</time></trkpt><trkpt lat="42.5032817" lon="14.135475"><ele>12.666666666666668</ele><time>2026-04-26T14:26:57.385Z</time></trkpt><trkpt lat="42.5032" lon="14.1353733"><ele>12.333333333333334</ele><time>2026-04-26T14:26:59.379Z</time></trkpt><trkpt lat="42.50317" lon="14.1352667"><ele>12.0</ele><time>2026-04-26T14:27:01.389Z</time></trkpt><trkpt lat="42.5031967" lon="14.135095"><ele>12.0</ele><time>2026-04-26T14:27:03.388Z</time></trkpt><trkpt lat="42.5032233" lon="14.1349983"><ele>12.0</ele><time>2026-04-26T14:27:04.39Z</time></trkpt><trkpt lat="42.50325" lon="14.1348917"><ele>12.0</ele><time>2026-04-26T14:27:05.394Z</time></trkpt><trkpt lat="42.503275" lon="14.134775"><ele>12.0</ele><time>2026-04-26T14:27:06.389Z</time></trkpt><trkpt lat="42.5033" lon="14.13465"><ele>12.0</ele><time>2026-04-26T14:27:07.387Z</time></trkpt><trkpt lat="42.5033233" lon="14.1345217"><ele>12.0</ele><time>2026-04-26T14:27:08.414Z</time></trkpt><trkpt lat="42.50335" lon="14.1343783"><ele>12.25</ele><time>2026-04-26T14:27:09.378Z</time></trkpt><trkpt lat="42.5033817" lon="14.1342333"><ele>12.5</ele><time>2026-04-26T14:27:10.386Z</time></trkpt><trkpt lat="42.5034183" lon="14.1340833"><ele>12.75</ele><time>2026-04-26T14:27:11.378Z</time></trkpt><trkpt lat="42.5034633" lon="14.1339367"><ele>13.0</ele><time>2026-04-26T14:27:12.384Z</time></trkpt><trkpt lat="42.5035133" lon="14.1338017"><ele>13.0</ele><time>2026-04-26T14:27:13.385Z</time></trkpt><trkpt lat="42.5035683" lon="14.1336833"><ele>13.0</ele><time>2026-04-26T14:27:14.409Z</time></trkpt><trkpt lat="42.50364" lon="14.1335817"><ele>13.0</ele><time>2026-04-26T14:27:15.388Z</time></trkpt><trkpt lat="42.5037233" lon="14.1334933"><ele>13.0</ele><time>2026-04-26T14:27:16.389Z</time></trkpt><trkpt lat="42.5038183" lon="14.1334117"><ele>13.0</ele><time>2026-04-26T14:27:17.389Z</time></trkpt><trkpt lat="42.5039167" lon="14.13333"><ele>13.0</ele><time>2026-04-26T14:27:18.379Z</time></trkpt><trkpt lat="42.504015" lon="14.1332433"><ele>13.0</ele><time>2026-04-26T14:27:19.385Z</time></trkpt><trkpt lat="42.5041133" lon="14.1331533"><ele>13.0</ele><time>2026-04-26T14:27:20.401Z</time></trkpt><trkpt lat="42.504215" lon="14.133055"><ele>13.0</ele><time>2026-04-26T14:27:21.379Z</time></trkpt><trkpt lat="42.5043217" lon="14.132955"><ele>13.0</ele><time>2026-04-26T14:27:22.378Z</time></trkpt><trkpt lat="42.5044317" lon="14.1328567"><ele>13.0</ele><time>2026-04-26T14:27:23.386Z</time></trkpt><trkpt lat="42.504545" lon="14.1327533"><ele>13.0</ele><time>2026-04-26T14:27:24.389Z</time></trkpt><trkpt lat="42.5046617" lon="14.13265"><ele>13.0</ele><time>2026-04-26T14:27:25.389Z</time></trkpt><trkpt lat="42.504775" lon="14.1325467"><ele>12.0</ele><time>2026-04-26T14:27:26.452Z</time></trkpt><trkpt lat="42.5048867" lon="14.1324483"><ele>11.0</ele><time>2026-04-26T14:27:27.387Z</time></trkpt><trkpt lat="42.5049967" lon="14.1323517"><ele>10.0</ele><time>2026-04-26T14:27:28.392Z</time></trkpt><trkpt lat="42.505105" lon="14.1322583"><ele>9.0</ele><time>2026-04-26T14:27:29.388Z</time></trkpt><trkpt lat="42.5052083" lon="14.1321633"><ele>9.0</ele><time>2026-04-26T14:27:30.385Z</time></trkpt><trkpt lat="42.5053083" lon="14.1320667"><ele>9.0</ele><time>2026-04-26T14:27:31.39Z</time></trkpt><trkpt lat="42.505405" lon="14.1319767"><ele>9.0</ele><time>2026-04-26T14:27:32.446Z</time></trkpt><trkpt lat="42.5055" lon="14.13189"><ele>9.0</ele><time>2026-04-26T14:27:33.389Z</time></trkpt><trkpt lat="42.5055933" lon="14.131805"><ele>9.0</ele><time>2026-04-26T14:27:34.392Z</time></trkpt><trkpt lat="42.5056833" lon="14.1317267"><ele>9.0</ele><time>2026-04-26T14:27:35.39Z</time></trkpt><trkpt lat="42.5057683" lon="14.1316483"><ele>9.0</ele><time>2026-04-26T14:27:36.388Z</time></trkpt><trkpt lat="42.505855" lon="14.1315717"><ele>9.0</ele><time>2026-04-26T14:27:37.388Z</time></trkpt><trkpt lat="42.505945" lon="14.131495"><ele>9.0</ele><time>2026-04-26T14:27:38.411Z</time></trkpt><trkpt lat="42.506035" lon="14.131415"><ele>9.0</ele><time>2026-04-26T14:27:39.379Z</time></trkpt><trkpt lat="42.5061217" lon="14.1313383"><ele>9.0</ele><time>2026-04-26T14:27:40.382Z</time></trkpt><trkpt lat="42.50621" lon="14.1312633"><ele>9.0</ele><time>2026-04-26T14:27:41.383Z</time></trkpt><trkpt lat="42.5062917" lon="14.1311917"><ele>9.0</ele><time>2026-04-26T14:27:42.376Z</time></trkpt><trkpt lat="42.5063733" lon="14.131125"><ele>9.0</ele><time>2026-04-26T14:27:43.384Z</time></trkpt><trkpt lat="42.5064583" lon="14.1310683"><ele>9.0</ele><time>2026-04-26T14:27:44.417Z</time></trkpt><trkpt lat="42.5065467" lon="14.1310167"><ele>9.0</ele><time>2026-04-26T14:27:45.389Z</time></trkpt><trkpt lat="42.50664" lon="14.1309683"><ele>9.0</ele><time>2026-04-26T14:27:46.39Z</time></trkpt><trkpt lat="42.5067367" lon="14.13092"><ele>9.0</ele><time>2026-04-26T14:27:47.393Z</time></trkpt><trkpt lat="42.506835" lon="14.1308717"><ele>9.0</ele><time>2026-04-26T14:27:48.379Z</time></trkpt><trkpt lat="42.5069383" lon="14.1308267"><ele>9.0</ele><time>2026-04-26T14:27:49.381Z</time></trkpt><trkpt lat="42.5070467" lon="14.1307833"><ele>9.0</ele><time>2026-04-26T14:27:50.417Z</time></trkpt><trkpt lat="42.5071567" lon="14.1307417"><ele>9.0</ele><time>2026-04-26T14:27:51.387Z</time></trkpt><trkpt lat="42.50727" lon="14.130705"><ele>9.0</ele><time>2026-04-26T14:27:52.387Z</time></trkpt><trkpt lat="42.5073867" lon="14.1306667"><ele>9.75</ele><time>2026-04-26T14:27:53.39Z</time></trkpt><trkpt lat="42.507505" lon="14.1306267"><ele>10.5</ele><time>2026-04-26T14:27:54.388Z</time></trkpt><trkpt lat="42.507625" lon="14.1305833"><ele>11.25</ele><time>2026-04-26T14:27:55.39Z</time></trkpt><trkpt lat="42.5077433" lon="14.13053"><ele>12.0</ele><time>2026-04-26T14:27:56.45Z</time></trkpt><trkpt lat="42.50786" lon="14.1304683"><ele>12.0</ele><time>2026-04-26T14:27:57.383Z</time></trkpt><trkpt lat="42.5079733" lon="14.1303967"><ele>12.0</ele><time>2026-04-26T14:27:58.38Z</time></trkpt><trkpt lat="42.50809" lon="14.1303117"><ele>12.0</ele><time>2026-04-26T14:27:59.391Z</time></trkpt><trkpt lat="42.5082" lon="14.13022"><ele>12.0</ele><time>2026-04-26T14:28:00.377Z</time></trkpt><trkpt lat="42.5083067" lon="14.1301283"><ele>12.0</ele><time>2026-04-26T14:28:01.377Z</time></trkpt><trkpt lat="42.5084083" lon="14.130035"><ele>12.0</ele><time>2026-04-26T14:28:02.441Z</time></trkpt><trkpt lat="42.5085033" lon="14.1299483"><ele>12.0</ele><time>2026-04-26T14:28:03.379Z</time></trkpt><trkpt lat="42.50859" lon="14.129865"><ele>12.0</ele><time>2026-04-26T14:28:04.384Z</time></trkpt><trkpt lat="42.5086767" lon="14.1297983"><ele>12.0</ele><time>2026-04-26T14:28:05.386Z</time></trkpt><trkpt lat="42.50876" lon="14.129755"><ele>11.0</ele><time>2026-04-26T14:28:06.387Z</time></trkpt><trkpt lat="42.50885" lon="14.1297333"><ele>10.0</ele><time>2026-04-26T14:28:07.378Z</time></trkpt><trkpt lat="42.50894" lon="14.12974"><ele>9.0</ele><time>2026-04-26T14:28:08.412Z</time></trkpt><trkpt lat="42.5090283" lon="14.129775"><ele>8.0</ele><time>2026-04-26T14:28:09.384Z</time></trkpt><trkpt lat="42.5091133" lon="14.1298267"><ele>7.0</ele><time>2026-04-26T14:28:10.381Z</time></trkpt><trkpt lat="42.509195" lon="14.12991"><ele>7.0</ele><time>2026-04-26T14:28:11.379Z</time></trkpt><trkpt lat="42.50927" lon="14.1300167"><ele>7.0</ele><time>2026-04-26T14:28:12.38Z</time></trkpt><trkpt lat="42.5093467" lon="14.1301417"><ele>7.0</ele><time>2026-04-26T14:28:13.388Z</time></trkpt><trkpt lat="42.50943" lon="14.1302683"><ele>7.0</ele><time>2026-04-26T14:28:14.415Z</time></trkpt><trkpt lat="42.509515" lon="14.1304033"><ele>7.0</ele><time>2026-04-26T14:28:15.389Z</time></trkpt><trkpt lat="42.5096083" lon="14.1305417"><ele>7.0</ele><time>2026-04-26T14:28:16.388Z</time></trkpt><trkpt lat="42.50971" lon="14.1306883"><ele>7.0</ele><time>2026-04-26T14:28:17.377Z</time></trkpt><trkpt lat="42.5098117" lon="14.1308383"><ele>7.0</ele><time>2026-04-26T14:28:18.385Z</time></trkpt><trkpt lat="42.5099133" lon="14.1309933"><ele>6.333333333333334</ele><time>2026-04-26T14:28:19.386Z</time></trkpt><trkpt lat="42.5100167" lon="14.131155"><ele>5.666666666666667</ele><time>2026-04-26T14:28:20.416Z</time></trkpt><trkpt lat="42.5101183" lon="14.1313217"><ele>5.0</ele><time>2026-04-26T14:28:21.39Z</time></trkpt><trkpt lat="42.51022" lon="14.1314933"><ele>5.333333333333334</ele><time>2026-04-26T14:28:22.391Z</time></trkpt><trkpt lat="42.51032" lon="14.1316683"><ele>5.666666666666667</ele><time>2026-04-26T14:28:23.377Z</time></trkpt><trkpt lat="42.5104183" lon="14.1318467"><ele>6.0</ele><time>2026-04-26T14:28:24.384Z</time></trkpt><trkpt lat="42.51051" lon="14.132025"><ele>6.0</ele><time>2026-04-26T14:28:25.388Z</time></trkpt><trkpt lat="42.5106017" lon="14.1322033"><ele>6.0</ele><time>2026-04-26T14:28:26.432Z</time></trkpt><trkpt lat="42.510695" lon="14.1323817"><ele>6.0</ele><time>2026-04-26T14:28:27.386Z</time></trkpt><trkpt lat="42.5107883" lon="14.13256"><ele>6.0</ele><time>2026-04-26T14:28:28.377Z</time></trkpt><trkpt lat="42.5108833" lon="14.13274"><ele>6.0</ele><time>2026-04-26T14:28:29.375Z</time></trkpt><trkpt lat="42.5109767" lon="14.1329167"><ele>6.0</ele><time>2026-04-26T14:28:30.379Z</time></trkpt><trkpt lat="42.5110733" lon="14.1330867"><ele>6.333333333333334</ele><time>2026-04-26T14:28:31.377Z</time></trkpt><trkpt lat="42.511175" lon="14.1332467"><ele>6.666666666666667</ele><time>2026-04-26T14:28:32.447Z</time></trkpt><trkpt lat="42.511275" lon="14.1334067"><ele>7.0</ele><time>2026-04-26T14:28:33.385Z</time></trkpt><trkpt lat="42.5113717" lon="14.13357"><ele>6.5</ele><time>2026-04-26T14:28:34.383Z</time></trkpt><trkpt lat="42.5114583" lon="14.1337333"><ele>6.0</ele><time>2026-04-26T14:28:35.377Z</time></trkpt><trkpt lat="42.51154" lon="14.1338983"><ele>5.5</ele><time>2026-04-26T14:28:36.388Z</time></trkpt><trkpt lat="42.5116217" lon="14.134065"><ele>5.0</ele><time>2026-04-26T14:28:37.388Z</time></trkpt><trkpt lat="42.51171" lon="14.1342233"><ele>5.0</ele><time>2026-04-26T14:28:38.419Z</time></trkpt><trkpt lat="42.51181" lon="14.134365"><ele>5.0</ele><time>2026-04-26T14:28:39.388Z</time></trkpt><trkpt lat="42.5119217" lon="14.134485"><ele>5.0</ele><time>2026-04-26T14:28:40.389Z</time></trkpt><trkpt lat="42.512045" lon="14.134585"><ele>5.0</ele><time>2026-04-26T14:28:41.388Z</time></trkpt><trkpt lat="42.512175" lon="14.1346767"><ele>4.5</ele><time>2026-04-26T14:28:42.387Z</time></trkpt><trkpt lat="42.5123083" lon="14.1347683"><ele>4.0</ele><time>2026-04-26T14:28:43.39Z</time></trkpt><trkpt lat="42.5124417" lon="14.1348583"><ele>3.5</ele><time>2026-04-26T14:28:44.418Z</time></trkpt><trkpt lat="42.5125767" lon="14.1349483"><ele>3.0</ele><time>2026-04-26T14:28:45.377Z</time></trkpt><trkpt lat="42.5127117" lon="14.1350417"><ele>3.0</ele><time>2026-04-26T14:28:46.375Z</time></trkpt><trkpt lat="42.51284" lon="14.1351467"><ele>3.0</ele><time>2026-04-26T14:28:47.384Z</time></trkpt><trkpt lat="42.5129567" lon="14.13526"><ele>3.0</ele><time>2026-04-26T14:28:48.39Z</time></trkpt><trkpt lat="42.5130583" lon="14.1353867"><ele>3.0</ele><time>2026-04-26T14:28:49.385Z</time></trkpt><trkpt lat="42.513145" lon="14.1355283"><ele>3.0</ele><time>2026-04-26T14:28:50.406Z</time></trkpt><trkpt lat="42.5132183" lon="14.13568"><ele>3.0</ele><time>2026-04-26T14:28:51.38Z</time></trkpt><trkpt lat="42.5132833" lon="14.1358417"><ele>3.0</ele><time>2026-04-26T14:28:52.377Z</time></trkpt><trkpt lat="42.51334" lon="14.1360117"><ele>3.0</ele><time>2026-04-26T14:28:53.379Z</time></trkpt><trkpt lat="42.513385" lon="14.13619"><ele>3.0</ele><time>2026-04-26T14:28:54.379Z</time></trkpt><trkpt lat="42.5134233" lon="14.136365"><ele>3.0</ele><time>2026-04-26T14:28:55.389Z</time></trkpt><trkpt lat="42.5134617" lon="14.1365383"><ele>3.0</ele><time>2026-04-26T14:28:56.456Z</time></trkpt><trkpt lat="42.5135033" lon="14.136715"><ele>3.0</ele><time>2026-04-26T14:28:57.381Z</time></trkpt><trkpt lat="42.51355" lon="14.13688"><ele>3.2</ele><time>2026-04-26T14:28:58.391Z</time></trkpt><trkpt lat="42.5136017" lon="14.1370383"><ele>3.4</ele><time>2026-04-26T14:28:59.376Z</time></trkpt><trkpt lat="42.51365" lon="14.1371767"><ele>3.6000000000000005</ele><time>2026-04-26T14:29:00.389Z</time></trkpt><trkpt lat="42.5136933" lon="14.1372983"><ele>3.8000000000000003</ele><time>2026-04-26T14:29:01.391Z</time></trkpt><trkpt lat="42.5137283" lon="14.137395"><ele>4.0</ele><time>2026-04-26T14:29:02.449Z</time></trkpt><trkpt lat="42.5137633" lon="14.1375183"><ele>4.4</ele><time>2026-04-26T14:29:04.39Z</time></trkpt><trkpt lat="42.5137783" lon="14.1376017"><ele>4.800000000000001</ele><time>2026-04-26T14:29:06.385Z</time></trkpt><trkpt lat="42.5137767" lon="14.1377433"><ele>5.199999999999999</ele><time>2026-04-26T14:29:08.418Z</time></trkpt><trkpt lat="42.5137633" lon="14.1378417"><ele>5.6</ele><time>2026-04-26T14:29:09.393Z</time></trkpt><trkpt lat="42.5137083" lon="14.1380033"><ele>6.0</ele><time>2026-04-26T14:29:10.391Z</time></trkpt><trkpt lat="42.5136383" lon="14.138185"><ele>5.666666666666667</ele><time>2026-04-26T14:29:11.386Z</time></trkpt><trkpt lat="42.51356" lon="14.1383833"><ele>5.333333333333334</ele><time>2026-04-26T14:29:12.387Z</time></trkpt><trkpt lat="42.5134767" lon="14.1385933"><ele>5.0</ele><time>2026-04-26T14:29:13.389Z</time></trkpt><trkpt lat="42.5133883" lon="14.13881"><ele>5.0</ele><time>2026-04-26T14:29:14.413Z</time></trkpt><trkpt lat="42.5132967" lon="14.139025"><ele>5.0</ele><time>2026-04-26T14:29:15.384Z</time></trkpt><trkpt lat="42.5132067" lon="14.1392417"><ele>5.0</ele><time>2026-04-26T14:29:16.385Z</time></trkpt><trkpt lat="42.513115" lon="14.1394683"><ele>5.333333333333334</ele><time>2026-04-26T14:29:17.39Z</time></trkpt><trkpt lat="42.51302" lon="14.139715"><ele>5.666666666666667</ele><time>2026-04-26T14:29:18.393Z</time></trkpt><trkpt lat="42.51293" lon="14.1399633"><ele>6.0</ele><time>2026-04-26T14:29:19.378Z</time></trkpt><trkpt lat="42.5128483" lon="14.1401917"><ele>6.0</ele><time>2026-04-26T14:29:20.422Z</time></trkpt><trkpt lat="42.5127767" lon="14.1403967"><ele>6.0</ele><time>2026-04-26T14:29:21.376Z</time></trkpt><trkpt lat="42.51271" lon="14.1405833"><ele>6.0</ele><time>2026-04-26T14:29:22.38Z</time></trkpt><trkpt lat="42.5126483" lon="14.1407533"><ele>6.4</ele><time>2026-04-26T14:29:23.388Z</time></trkpt><trkpt lat="42.5125917" lon="14.1409067"><ele>6.8</ele><time>2026-04-26T14:29:24.392Z</time></trkpt><trkpt lat="42.5125417" lon="14.1410467"><ele>7.200000000000001</ele><time>2026-04-26T14:29:25.389Z</time></trkpt><trkpt lat="42.5124967" lon="14.1411683"><ele>7.6000000000000005</ele><time>2026-04-26T14:29:26.453Z</time></trkpt><trkpt lat="42.5124583" lon="14.1412733"><ele>8.0</ele><time>2026-04-26T14:29:27.384Z</time></trkpt><trkpt lat="42.51244" lon="14.14136"><ele>7.999999999999999</ele><time>2026-04-26T14:29:28.388Z</time></trkpt><trkpt lat="42.5124967" lon="14.1414817"><ele>8.0</ele><time>2026-04-26T14:29:30.387Z</time></trkpt><trkpt lat="42.5125583" lon="14.1415217"><ele>8.0</ele><time>2026-04-26T14:29:31.391Z</time></trkpt><trkpt lat="42.5126283" lon="14.141545"><ele>8.0</ele><time>2026-04-26T14:29:32.454Z</time></trkpt><trkpt lat="42.51271" lon="14.141545"><ele>7.999999999999999</ele><time>2026-04-26T14:29:33.382Z</time></trkpt><trkpt lat="42.5128133" lon="14.14151"><ele>8.0</ele><time>2026-04-26T14:29:34.375Z</time></trkpt><trkpt lat="42.5129233" lon="14.1414783"><ele>7.5</ele><time>2026-04-26T14:29:35.379Z</time></trkpt><trkpt lat="42.5130417" lon="14.1414617"><ele>7.0</ele><time>2026-04-26T14:29:36.39Z</time></trkpt><trkpt lat="42.5131617" lon="14.1414567"><ele>6.5</ele><time>2026-04-26T14:29:37.388Z</time></trkpt><trkpt lat="42.5132833" lon="14.1414633"><ele>6.0</ele><time>2026-04-26T14:29:38.415Z</time></trkpt><trkpt lat="42.5134" lon="14.141485"><ele>6.0</ele><time>2026-04-26T14:29:39.389Z</time></trkpt><trkpt lat="42.5135117" lon="14.141525"><ele>6.0</ele><time>2026-04-26T14:29:40.388Z</time></trkpt><trkpt lat="42.5136117" lon="14.1415817"><ele>6.0</ele><time>2026-04-26T14:29:41.381Z</time></trkpt><trkpt lat="42.5137083" lon="14.1416467"><ele>6.0</ele><time>2026-04-26T14:29:42.383Z</time></trkpt><trkpt lat="42.5137983" lon="14.1417117"><ele>6.0</ele><time>2026-04-26T14:29:43.388Z</time></trkpt><trkpt lat="42.5138733" lon="14.141765"><ele>5.5</ele><time>2026-04-26T14:29:44.415Z</time></trkpt><trkpt lat="42.513935" lon="14.141805"><ele>5.0</ele><time>2026-04-26T14:29:45.379Z</time></trkpt><trkpt lat="42.5140167" lon="14.141865"><ele>4.5</ele><time>2026-04-26T14:29:47.389Z</time></trkpt><trkpt lat="42.51408" lon="14.1419083"><ele>4.0</ele><time>2026-04-26T14:29:49.386Z</time></trkpt><trkpt lat="42.51415" lon="14.1419583"><ele>3.5</ele><time>2026-04-26T14:29:52.383Z</time></trkpt><trkpt lat="42.514225" lon="14.142025"><ele>3.0</ele><time>2026-04-26T14:29:54.385Z</time></trkpt><trkpt lat="42.5142717" lon="14.1421067"><ele>3.0</ele><time>2026-04-26T14:29:55.377Z</time></trkpt><trkpt lat="42.5143117" lon="14.14221"><ele>3.0</ele><time>2026-04-26T14:29:56.449Z</time></trkpt><trkpt lat="42.5143417" lon="14.1423067"><ele>3.0</ele><time>2026-04-26T14:29:57.385Z</time></trkpt><trkpt lat="42.5143717" lon="14.1423833"><ele>3.0</ele><time>2026-04-26T14:29:58.388Z</time></trkpt><trkpt lat="42.514465" lon="14.1424533"><ele>3.0</ele><time>2026-04-26T14:30:00.387Z</time></trkpt><trkpt lat="42.5145317" lon="14.14244"><ele>3.0</ele><time>2026-04-26T14:30:01.389Z</time></trkpt><trkpt lat="42.5145983" lon="14.1424217"><ele>2.8333333333333335</ele><time>2026-04-26T14:30:02.447Z</time></trkpt><trkpt lat="42.5147083" lon="14.1424117"><ele>2.6666666666666665</ele><time>2026-04-26T14:30:04.377Z</time></trkpt><trkpt lat="42.5147767" lon="14.1424367"><ele>2.5</ele><time>2026-04-26T14:30:06.387Z</time></trkpt><trkpt lat="42.51484" lon="14.1424433"><ele>2.333333333333333</ele><time>2026-04-26T14:30:08.423Z</time></trkpt><trkpt lat="42.5148983" lon="14.1423467"><ele>2.1666666666666665</ele><time>2026-04-26T14:30:11.387Z</time></trkpt><trkpt lat="42.5149" lon="14.142225"><ele>2.0</ele><time>2026-04-26T14:30:13.382Z</time></trkpt><trkpt lat="42.5148917" lon="14.1421117"><ele>1.857142857142857</ele><time>2026-04-26T14:30:15.379Z</time></trkpt><trkpt lat="42.5148567" lon="14.1420317"><ele>1.714285714285714</ele><time>2026-04-26T14:30:17.388Z</time></trkpt><trkpt lat="42.5148033" lon="14.14198"><ele>1.5714285714285714</ele><time>2026-04-26T14:30:19.378Z</time></trkpt><trkpt lat="42.5147483" lon="14.1419333"><ele>1.4285714285714284</ele><time>2026-04-26T14:30:21.387Z</time></trkpt><trkpt lat="42.514685" lon="14.1418817"><ele>1.2857142857142856</ele><time>2026-04-26T14:30:23.388Z</time></trkpt><trkpt lat="42.51462" lon="14.14185"><ele>1.1428571428571428</ele><time>2026-04-26T14:30:25.377Z</time></trkpt><trkpt lat="42.51454" lon="14.1418067"><ele>1.0</ele><time>2026-04-26T14:30:28.387Z</time></trkpt><trkpt lat="42.5145117" lon="14.1417267"><ele>1.3333333333333333</ele><time>2026-04-26T14:30:30.384Z</time></trkpt><trkpt lat="42.514525" lon="14.1416083"><ele>1.6666666666666665</ele><time>2026-04-26T14:30:32.442Z</time></trkpt><trkpt lat="42.5145383" lon="14.14152"><ele>2.0</ele><time>2026-04-26T14:30:33.383Z</time></trkpt><trkpt lat="42.5145533" lon="14.1414317"><ele>2.3333333333333335</ele><time>2026-04-26T14:30:34.387Z</time></trkpt><trkpt lat="42.5146067" lon="14.1412967"><ele>2.6666666666666665</ele><time>2026-04-26T14:30:36.387Z</time></trkpt><trkpt lat="42.5146517" lon="14.1412033"><ele>3.0</ele><time>2026-04-26T14:30:38.413Z</time></trkpt><trkpt lat="42.5146983" lon="14.141125"><ele>3.0</ele><time>2026-04-26T14:44:56.443Z</time></trkpt><trkpt lat="42.5146667" lon="14.1412567"><ele>3.0</ele><time>2026-04-26T14:45:00.386Z</time></trkpt><trkpt lat="42.5146283" lon="14.1413383"><ele>3.0</ele><time>2026-04-26T14:45:01.386Z</time></trkpt><trkpt lat="42.514585" lon="14.141455"><ele>3.0</ele><time>2026-04-26T14:45:03.378Z</time></trkpt><trkpt lat="42.5145367" lon="14.1415817"><ele>3.0</ele><time>2026-04-26T14:45:05.38Z</time></trkpt><trkpt lat="42.5144933" lon="14.1417117"><ele>3.0</ele><time>2026-04-26T14:45:07.389Z</time></trkpt><trkpt lat="42.5144833" lon="14.1418533"><ele>3.0</ele><time>2026-04-26T14:45:09.382Z</time></trkpt><trkpt lat="42.5145133" lon="14.1419567"><ele>3.0</ele><time>2026-04-26T14:45:11.39Z</time></trkpt><trkpt lat="42.51458" lon="14.14204"><ele>3.0</ele><time>2026-04-26T14:45:13.386Z</time></trkpt><trkpt lat="42.5146817" lon="14.142135"><ele>3.0</ele><time>2026-04-26T14:45:15.388Z</time></trkpt><trkpt lat="42.5147433" lon="14.1421933"><ele>2.8333333333333335</ele><time>2026-04-26T14:45:16.386Z</time></trkpt><trkpt lat="42.5148017" lon="14.1422533"><ele>2.6666666666666665</ele><time>2026-04-26T14:45:17.385Z</time></trkpt><trkpt lat="42.51488" lon="14.142365"><ele>2.5</ele><time>2026-04-26T14:45:19.392Z</time></trkpt><trkpt lat="42.514895" lon="14.1424683"><ele>2.333333333333333</ele><time>2026-04-26T14:45:30.388Z</time></trkpt><trkpt lat="42.5149533" lon="14.14256"><ele>2.1666666666666665</ele><time>2026-04-26T14:45:32.459Z</time></trkpt><trkpt lat="42.5150133" lon="14.1426117"><ele>2.0</ele><time>2026-04-26T14:45:33.384Z</time></trkpt><trkpt lat="42.5151033" lon="14.142685"><ele>2.0</ele><time>2026-04-26T14:45:34.388Z</time></trkpt><trkpt lat="42.5152183" lon="14.1427683"><ele>2.0</ele><time>2026-04-26T14:45:35.385Z</time></trkpt><trkpt lat="42.515345" lon="14.1428583"><ele>2.0</ele><time>2026-04-26T14:45:36.386Z</time></trkpt><trkpt lat="42.5154767" lon="14.142955"><ele>2.0</ele><time>2026-04-26T14:45:37.38Z</time></trkpt><trkpt lat="42.5156033" lon="14.14305"><ele>2.25</ele><time>2026-04-26T14:45:38.421Z</time></trkpt><trkpt lat="42.5157267" lon="14.14314"><ele>2.5</ele><time>2026-04-26T14:45:39.378Z</time></trkpt><trkpt lat="42.5158433" lon="14.1432283"><ele>2.75</ele><time>2026-04-26T14:45:40.374Z</time></trkpt><trkpt lat="42.5159567" lon="14.1433083"><ele>3.0</ele><time>2026-04-26T14:45:41.384Z</time></trkpt><trkpt lat="42.516075" lon="14.14339"><ele>3.333333333333333</ele><time>2026-04-26T14:45:42.388Z</time></trkpt><trkpt lat="42.5162083" lon="14.143485"><ele>3.6666666666666665</ele><time>2026-04-26T14:45:43.384Z</time></trkpt><trkpt lat="42.516355" lon="14.14359"><ele>4.0</ele><time>2026-04-26T14:45:44.428Z</time></trkpt><trkpt lat="42.516515" lon="14.14371"><ele>4.0</ele><time>2026-04-26T14:45:45.386Z</time></trkpt><trkpt lat="42.5166833" lon="14.1438333"><ele>4.0</ele><time>2026-04-26T14:45:46.384Z</time></trkpt><trkpt lat="42.516855" lon="14.1439583"><ele>4.0</ele><time>2026-04-26T14:45:47.382Z</time></trkpt><trkpt lat="42.5170267" lon="14.14408"><ele>3.6666666666666665</ele><time>2026-04-26T14:45:48.389Z</time></trkpt><trkpt lat="42.51719" lon="14.1441933"><ele>3.333333333333333</ele><time>2026-04-26T14:45:49.383Z</time></trkpt><trkpt lat="42.5173483" lon="14.1443033"><ele>3.0</ele><time>2026-04-26T14:45:50.424Z</time></trkpt><trkpt lat="42.5175067" lon="14.1444117"><ele>3.0</ele><time>2026-04-26T14:45:51.402Z</time></trkpt><trkpt lat="42.5176633" lon="14.14452"><ele>3.0</ele><time>2026-04-26T14:45:52.384Z</time></trkpt><trkpt lat="42.5178183" lon="14.1446283"><ele>3.0</ele><time>2026-04-26T14:45:53.386Z</time></trkpt><trkpt lat="42.5179783" lon="14.14474"><ele>3.0</ele><time>2026-04-26T14:45:54.385Z</time></trkpt><trkpt lat="42.5181433" lon="14.1448533"><ele>3.0</ele><time>2026-04-26T14:45:55.384Z</time></trkpt><trkpt lat="42.5183217" lon="14.1449767"><ele>3.0</ele><time>2026-04-26T14:45:56.454Z</time></trkpt><trkpt lat="42.5185033" lon="14.145105"><ele>3.0</ele><time>2026-04-26T14:45:57.381Z</time></trkpt><trkpt lat="42.5186717" lon="14.14523"><ele>3.0</ele><time>2026-04-26T14:45:58.369Z</time></trkpt><trkpt lat="42.5188267" lon="14.145345"><ele>3.0</ele><time>2026-04-26T14:45:59.371Z</time></trkpt><trkpt lat="42.518965" lon="14.1454483"><ele>3.0</ele><time>2026-04-26T14:46:00.38Z</time></trkpt><trkpt lat="42.5190867" lon="14.1455367"><ele>3.0</ele><time>2026-04-26T14:46:01.373Z</time></trkpt><trkpt lat="42.519195" lon="14.1456117"><ele>3.0</ele><time>2026-04-26T14:46:02.455Z</time></trkpt><trkpt lat="42.51929" lon="14.1456767"><ele>3.0</ele><time>2026-04-26T14:46:03.384Z</time></trkpt><trkpt lat="42.519375" lon="14.1457417"><ele>3.0</ele><time>2026-04-26T14:46:04.386Z</time></trkpt><trkpt lat="42.5194483" lon="14.1458067"><ele>3.0</ele><time>2026-04-26T14:46:05.386Z</time></trkpt><trkpt lat="42.519515" lon="14.145875"><ele>3.0</ele><time>2026-04-26T14:46:06.384Z</time></trkpt><trkpt lat="42.5195683" lon="14.14595"><ele>3.0</ele><time>2026-04-26T14:46:07.381Z</time></trkpt><trkpt lat="42.5196083" lon="14.1460833"><ele>3.0</ele><time>2026-04-26T14:46:09.38Z</time></trkpt><trkpt lat="42.5195367" lon="14.1462217"><ele>3.0</ele><time>2026-04-26T14:46:11.386Z</time></trkpt><trkpt lat="42.519465" lon="14.1463117"><ele>3.0</ele><time>2026-04-26T14:46:12.378Z</time></trkpt><trkpt lat="42.519385" lon="14.1464217"><ele>3.0</ele><time>2026-04-26T14:46:13.382Z</time></trkpt><trkpt lat="42.5192933" lon="14.1465333"><ele>3.0</ele><time>2026-04-26T14:46:14.436Z</time></trkpt><trkpt lat="42.5192133" lon="14.146635"><ele>3.0</ele><time>2026-04-26T14:46:15.389Z</time></trkpt><trkpt lat="42.5191517" lon="14.1467183"><ele>3.0</ele><time>2026-04-26T14:46:16.384Z</time></trkpt><trkpt lat="42.5191" lon="14.1467833"><ele>3.0</ele><time>2026-04-26T14:46:17.386Z</time></trkpt><trkpt lat="42.519055" lon="14.146935"><ele>3.0</ele><time>2026-04-26T14:46:19.384Z</time></trkpt><trkpt lat="42.519065" lon="14.1470333"><ele>3.0</ele><time>2026-04-26T14:46:20.425Z</time></trkpt><trkpt lat="42.51909" lon="14.1471283"><ele>3.0</ele><time>2026-04-26T14:46:21.384Z</time></trkpt><trkpt lat="42.51913" lon="14.1472083"><ele>3.0</ele><time>2026-04-26T14:46:22.384Z</time></trkpt><trkpt lat="42.5191883" lon="14.14727"><ele>3.0</ele><time>2026-04-26T14:46:23.384Z</time></trkpt><trkpt lat="42.5193533" lon="14.14727"><ele>3.0</ele><time>2026-04-26T14:46:24.387Z</time></trkpt><trkpt lat="42.5194567" lon="14.1473433"><ele>3.0</ele><time>2026-04-26T14:46:25.386Z</time></trkpt><trkpt lat="42.5195483" lon="14.1474717"><ele>3.0</ele><time>2026-04-26T14:46:26.444Z</time></trkpt><trkpt lat="42.5196533" lon="14.1476333"><ele>2.0</ele><time>2026-04-26T14:46:27.375Z</time></trkpt><trkpt lat="42.5197517" lon="14.1478033"><ele>1.0</ele><time>2026-04-26T14:46:28.384Z</time></trkpt><trkpt lat="42.5198483" lon="14.14799"><ele>0.0</ele><time>2026-04-26T14:46:29.386Z</time></trkpt><trkpt lat="42.5199483" lon="14.1481867"><ele>0.6666666666666666</ele><time>2026-04-26T14:46:30.383Z</time></trkpt><trkpt lat="42.5200433" lon="14.14839"><ele>1.3333333333333333</ele><time>2026-04-26T14:46:31.389Z</time></trkpt><trkpt lat="42.5201267" lon="14.148595"><ele>2.0</ele><time>2026-04-26T14:46:32.445Z</time></trkpt><trkpt lat="42.5202017" lon="14.1488083"><ele>2.0</ele><time>2026-04-26T14:46:33.372Z</time></trkpt><trkpt lat="42.5202717" lon="14.149015"><ele>2.0</ele><time>2026-04-26T14:46:34.381Z</time></trkpt><trkpt lat="42.5203367" lon="14.1492117"><ele>2.0</ele><time>2026-04-26T14:46:35.382Z</time></trkpt><trkpt lat="42.5203983" lon="14.149395"><ele>2.0</ele><time>2026-04-26T14:46:36.373Z</time></trkpt><trkpt lat="42.5204617" lon="14.1495667"><ele>2.0</ele><time>2026-04-26T14:46:37.384Z</time></trkpt><trkpt lat="42.5205183" lon="14.14973"><ele>2.0</ele><time>2026-04-26T14:46:38.418Z</time></trkpt><trkpt lat="42.5205733" lon="14.14988"><ele>2.0</ele><time>2026-04-26T14:46:39.384Z</time></trkpt><trkpt lat="42.5206233" lon="14.1500067"><ele>2.25</ele><time>2026-04-26T14:46:40.382Z</time></trkpt><trkpt lat="42.5206783" lon="14.150135"><ele>2.5</ele><time>2026-04-26T14:46:41.379Z</time></trkpt><trkpt lat="42.5207283" lon="14.1502817"><ele>2.75</ele><time>2026-04-26T14:46:42.384Z</time></trkpt><trkpt lat="42.520775" lon="14.1504467"><ele>3.0</ele><time>2026-04-26T14:46:43.381Z</time></trkpt><trkpt lat="42.52083" lon="14.150635"><ele>2.6666666666666665</ele><time>2026-04-26T14:46:44.422Z</time></trkpt><trkpt lat="42.5209" lon="14.15086"><ele>2.333333333333333</ele><time>2026-04-26T14:46:45.379Z</time></trkpt><trkpt lat="42.5209767" lon="14.15109"><ele>2.0</ele><time>2026-04-26T14:46:46.38Z</time></trkpt><trkpt lat="42.5210533" lon="14.151315"><ele>2.0</ele><time>2026-04-26T14:46:47.382Z</time></trkpt><trkpt lat="42.521125" lon="14.15152"><ele>2.0</ele><time>2026-04-26T14:46:48.383Z</time></trkpt><trkpt lat="42.5211917" lon="14.1516983"><ele>2.0</ele><time>2026-04-26T14:46:49.377Z</time></trkpt><trkpt lat="42.5212433" lon="14.1518417"><ele>2.0</ele><time>2026-04-26T14:46:50.419Z</time></trkpt><trkpt lat="42.5212783" lon="14.1519533"><ele>1.6666666666666665</ele><time>2026-04-26T14:46:51.377Z</time></trkpt><trkpt lat="42.5213133" lon="14.1520617"><ele>1.3333333333333333</ele><time>2026-04-26T14:46:52.376Z</time></trkpt><trkpt lat="42.5213467" lon="14.15217"><ele>1.0</ele><time>2026-04-26T14:46:53.38Z</time></trkpt><trkpt lat="42.521385" lon="14.1522783"><ele>0.6666666666666666</ele><time>2026-04-26T14:46:54.378Z</time></trkpt><trkpt lat="42.5214183" lon="14.1523833"><ele>0.3333333333333333</ele><time>2026-04-26T14:46:55.38Z</time></trkpt><trkpt lat="42.5214583" lon="14.1524967"><ele>0.0</ele><time>2026-04-26T14:46:56.444Z</time></trkpt><trkpt lat="42.52151" lon="14.1526267"><ele>0.0</ele><time>2026-04-26T14:46:57.375Z</time></trkpt><trkpt lat="42.5215667" lon="14.1527683"><ele>0.0</ele><time>2026-04-26T14:46:58.373Z</time></trkpt><trkpt lat="42.5216217" lon="14.1529167"><ele>0.0</ele><time>2026-04-26T14:46:59.378Z</time></trkpt><trkpt lat="42.5216783" lon="14.1530633"><ele>0.0</ele><time>2026-04-26T14:47:00.382Z</time></trkpt><trkpt lat="42.521735" lon="14.15321"><ele>0.0</ele><time>2026-04-26T14:47:01.384Z</time></trkpt><trkpt lat="42.5217883" lon="14.15335"><ele>0.0</ele><time>2026-04-26T14:47:02.44Z</time></trkpt><trkpt lat="42.52184" lon="14.1534817"><ele>0.0</ele><time>2026-04-26T14:47:03.375Z</time></trkpt><trkpt lat="42.52188" lon="14.1535867"><ele>0.0</ele><time>2026-04-26T14:47:04.377Z</time></trkpt><trkpt lat="42.5219283" lon="14.1536983"><ele>0.0</ele><time>2026-04-26T14:47:06.382Z</time></trkpt><trkpt lat="42.521995" lon="14.1537167"><ele>0.0</ele><time>2026-04-26T14:47:09.377Z</time></trkpt><trkpt lat="42.52204" lon="14.1536433"><ele>0.0</ele><time>2026-04-26T14:47:12.377Z</time></trkpt><trkpt lat="42.522095" lon="14.15359"><ele>0.0</ele><time>2026-04-26T14:47:13.381Z</time></trkpt><trkpt lat="42.5221683" lon="14.1535217"><ele>0.0</ele><time>2026-04-26T14:47:14.42Z</time></trkpt><trkpt lat="42.5222417" lon="14.153455"><ele>0.0</ele><time>2026-04-26T14:47:15.382Z</time></trkpt><trkpt lat="42.522305" lon="14.1533867"><ele>0.0</ele><time>2026-04-26T14:47:16.38Z</time></trkpt><trkpt lat="42.52234" lon="14.15331"><ele>0.3333333333333333</ele><time>2026-04-26T14:47:17.382Z</time></trkpt><trkpt lat="42.5223633" lon="14.1531633"><ele>0.6666666666666666</ele><time>2026-04-26T14:47:19.379Z</time></trkpt><trkpt lat="42.52238" lon="14.1530683"><ele>1.0</ele><time>2026-04-26T14:47:20.421Z</time></trkpt><trkpt lat="42.522395" lon="14.15297"><ele>1.3333333333333333</ele><time>2026-04-26T14:47:21.38Z</time></trkpt><trkpt lat="42.5223817" lon="14.15287"><ele>1.6666666666666665</ele><time>2026-04-26T14:47:22.38Z</time></trkpt><trkpt lat="42.522345" lon="14.1527567"><ele>2.0</ele><time>2026-04-26T14:47:23.381Z</time></trkpt><trkpt lat="42.522305" lon="14.1526583"><ele>2.0</ele><time>2026-04-26T14:47:24.376Z</time></trkpt><trkpt lat="42.5222667" lon="14.15258"><ele>2.0</ele><time>2026-04-26T14:47:25.375Z</time></trkpt></trkseg></trk></gpx>